<?xml version="1.0" encoding="UTF-8" standalone="no" ?>
<gpx xmlns="http://www.topografix.com/GPX/1/1" xmlns:xsi="http://www.w3.org/2001/XMLSchema-instance" xsi:schemaLocation="http://www.topografix.com/GPX/1/1 http://www.topografix.com/GPX/1/1/gpx.xsd" version="1.1" creator="VisuGPX - https://www.visugpx.com">
  <metadata>
    <name>Séjour Le Jura Et 6 Voiteur Lons de Saulnier</name>
    <desc><![CDATA[Etape spectaculaire avec toute la partie de Baumes et l'abbaye
Retour à Paris par le train de 18 h00 
]]></desc>
  </metadata>
  <trk>
    <name><![CDATA[SityTrail - Séjour Le Jura Et 6 Voiteur Llons de Saulnier]]></name>
    <desc><![CDATA[Etape spectaculaire avec toute la partie de Baumes et l'abbaye
Retour à Paris par le train de 18 h00 
]]></desc>
    <trkseg>
      <trkpt lat="46.75344" lon="5.61142">
        <ele>254</ele>
        <time>2025-10-10T06:42:26.533+00:00</time>
      </trkpt>
      <trkpt lat="46.75348" lon="5.61148">
        <ele>255</ele>
        <time>2025-10-10T06:50:58.532+00:00</time>
      </trkpt>
      <trkpt lat="46.75348" lon="5.6115">
        <ele>255</ele>
        <time>2025-10-10T06:51:03.533+00:00</time>
      </trkpt>
      <trkpt lat="46.75348" lon="5.61153">
        <ele>256</ele>
        <time>2025-10-10T06:51:08.532+00:00</time>
      </trkpt>
      <trkpt lat="46.75348" lon="5.61155">
        <ele>256</ele>
        <time>2025-10-10T06:51:12.532+00:00</time>
      </trkpt>
      <trkpt lat="46.75348" lon="5.61155">
        <ele>256</ele>
        <time>2025-10-10T06:51:17.533+00:00</time>
      </trkpt>
      <trkpt lat="46.75345" lon="5.61158">
        <ele>254</ele>
        <time>2025-10-10T06:51:45.532+00:00</time>
      </trkpt>
      <trkpt lat="46.75342" lon="5.61158">
        <ele>254</ele>
        <time>2025-10-10T06:51:50.005+00:00</time>
      </trkpt>
      <trkpt lat="46.75338" lon="5.61157">
        <ele>254</ele>
        <time>2025-10-10T06:51:54.531+00:00</time>
      </trkpt>
      <trkpt lat="46.75334" lon="5.61156">
        <ele>254</ele>
        <time>2025-10-10T06:51:59.364+00:00</time>
      </trkpt>
      <trkpt lat="46.75333" lon="5.61155">
        <ele>254</ele>
        <time>2025-10-10T06:52:03.531+00:00</time>
      </trkpt>
      <trkpt lat="46.75333" lon="5.61155">
        <ele>254</ele>
        <time>2025-10-10T06:52:08.083+00:00</time>
      </trkpt>
      <trkpt lat="46.75332" lon="5.61154">
        <ele>254</ele>
        <time>2025-10-10T06:52:13.531+00:00</time>
      </trkpt>
      <trkpt lat="46.75328" lon="5.61153">
        <ele>254</ele>
        <time>2025-10-10T06:52:17.664+00:00</time>
      </trkpt>
      <trkpt lat="46.75324" lon="5.61152">
        <ele>254</ele>
        <time>2025-10-10T06:52:22.023+00:00</time>
      </trkpt>
      <trkpt lat="46.7532" lon="5.61151">
        <ele>254</ele>
        <time>2025-10-10T06:52:26.532+00:00</time>
      </trkpt>
      <trkpt lat="46.75315" lon="5.61149">
        <ele>254</ele>
        <time>2025-10-10T06:52:31.262+00:00</time>
      </trkpt>
      <trkpt lat="46.75311" lon="5.61149">
        <ele>254</ele>
        <time>2025-10-10T06:52:35.281+00:00</time>
      </trkpt>
      <trkpt lat="46.75307" lon="5.61149">
        <ele>254</ele>
        <time>2025-10-10T06:52:39.531+00:00</time>
      </trkpt>
      <trkpt lat="46.75302" lon="5.61151">
        <ele>254</ele>
        <time>2025-10-10T06:52:43.531+00:00</time>
      </trkpt>
      <trkpt lat="46.75297" lon="5.61154">
        <ele>254</ele>
        <time>2025-10-10T06:52:47.864+00:00</time>
      </trkpt>
      <trkpt lat="46.75292" lon="5.61157">
        <ele>254</ele>
        <time>2025-10-10T06:52:52.184+00:00</time>
      </trkpt>
      <trkpt lat="46.75287" lon="5.61158">
        <ele>255</ele>
        <time>2025-10-10T06:52:56.531+00:00</time>
      </trkpt>
      <trkpt lat="46.75282" lon="5.61159">
        <ele>255</ele>
        <time>2025-10-10T06:53:00.722+00:00</time>
      </trkpt>
      <trkpt lat="46.75277" lon="5.61159">
        <ele>255</ele>
        <time>2025-10-10T06:53:05.525+00:00</time>
      </trkpt>
      <trkpt lat="46.75273" lon="5.61163">
        <ele>255</ele>
        <time>2025-10-10T06:53:09.681+00:00</time>
      </trkpt>
      <trkpt lat="46.75267" lon="5.6116">
        <ele>255</ele>
        <time>2025-10-10T06:53:14.125+00:00</time>
      </trkpt>
      <trkpt lat="46.75262" lon="5.61152">
        <ele>257</ele>
        <time>2025-10-10T06:53:42.531+00:00</time>
      </trkpt>
      <trkpt lat="46.75261" lon="5.6115">
        <ele>257</ele>
        <time>2025-10-10T06:53:46.738+00:00</time>
      </trkpt>
      <trkpt lat="46.75255" lon="5.61148">
        <ele>257</ele>
        <time>2025-10-10T06:53:51.124+00:00</time>
      </trkpt>
      <trkpt lat="46.75251" lon="5.61145">
        <ele>257</ele>
        <time>2025-10-10T06:53:55.532+00:00</time>
      </trkpt>
      <trkpt lat="46.75247" lon="5.61141">
        <ele>257</ele>
        <time>2025-10-10T06:54:00.006+00:00</time>
      </trkpt>
      <trkpt lat="46.75243" lon="5.61138">
        <ele>257</ele>
        <time>2025-10-10T06:54:04.245+00:00</time>
      </trkpt>
      <trkpt lat="46.75239" lon="5.61136">
        <ele>257</ele>
        <time>2025-10-10T06:54:08.531+00:00</time>
      </trkpt>
      <trkpt lat="46.75236" lon="5.61132">
        <ele>259</ele>
        <time>2025-10-10T06:54:12.904+00:00</time>
      </trkpt>
      <trkpt lat="46.75231" lon="5.61129">
        <ele>259</ele>
        <time>2025-10-10T06:54:17.546+00:00</time>
      </trkpt>
      <trkpt lat="46.75227" lon="5.61126">
        <ele>259</ele>
        <time>2025-10-10T06:54:21.845+00:00</time>
      </trkpt>
      <trkpt lat="46.75224" lon="5.61123">
        <ele>261</ele>
        <time>2025-10-10T06:54:26.024+00:00</time>
      </trkpt>
      <trkpt lat="46.75219" lon="5.61121">
        <ele>261</ele>
        <time>2025-10-10T06:54:30.462+00:00</time>
      </trkpt>
      <trkpt lat="46.75216" lon="5.61115">
        <ele>261</ele>
        <time>2025-10-10T06:54:35.532+00:00</time>
      </trkpt>
      <trkpt lat="46.75212" lon="5.6111">
        <ele>261</ele>
        <time>2025-10-10T06:54:40.532+00:00</time>
      </trkpt>
      <trkpt lat="46.75208" lon="5.6111">
        <ele>265</ele>
        <time>2025-10-10T06:54:45.067+00:00</time>
      </trkpt>
      <trkpt lat="46.75206" lon="5.61109">
        <ele>265</ele>
        <time>2025-10-10T06:54:49.531+00:00</time>
      </trkpt>
      <trkpt lat="46.75202" lon="5.61106">
        <ele>265</ele>
        <time>2025-10-10T06:54:54.280+00:00</time>
      </trkpt>
      <trkpt lat="46.752" lon="5.61106">
        <ele>265</ele>
        <time>2025-10-10T06:54:58.963+00:00</time>
      </trkpt>
      <trkpt lat="46.75198" lon="5.61111">
        <ele>265</ele>
        <time>2025-10-10T06:55:03.399+00:00</time>
      </trkpt>
      <trkpt lat="46.75196" lon="5.61117">
        <ele>265</ele>
        <time>2025-10-10T06:55:07.744+00:00</time>
      </trkpt>
      <trkpt lat="46.75194" lon="5.61124">
        <ele>265</ele>
        <time>2025-10-10T06:55:12.305+00:00</time>
      </trkpt>
      <trkpt lat="46.7519" lon="5.61132">
        <ele>263</ele>
        <time>2025-10-10T06:55:17.339+00:00</time>
      </trkpt>
      <trkpt lat="46.75187" lon="5.61138">
        <ele>263</ele>
        <time>2025-10-10T06:55:21.724+00:00</time>
      </trkpt>
      <trkpt lat="46.75184" lon="5.61143">
        <ele>263</ele>
        <time>2025-10-10T06:55:25.742+00:00</time>
      </trkpt>
      <trkpt lat="46.7518" lon="5.6115">
        <ele>267</ele>
        <time>2025-10-10T06:55:30.211+00:00</time>
      </trkpt>
      <trkpt lat="46.75178" lon="5.61156">
        <ele>264</ele>
        <time>2025-10-10T06:55:34.683+00:00</time>
      </trkpt>
      <trkpt lat="46.75176" lon="5.61164">
        <ele>264</ele>
        <time>2025-10-10T06:55:39.212+00:00</time>
      </trkpt>
      <trkpt lat="46.75173" lon="5.6117">
        <ele>264</ele>
        <time>2025-10-10T06:55:43.726+00:00</time>
      </trkpt>
      <trkpt lat="46.75171" lon="5.61176">
        <ele>264</ele>
        <time>2025-10-10T06:55:47.743+00:00</time>
      </trkpt>
      <trkpt lat="46.75167" lon="5.61182">
        <ele>261</ele>
        <time>2025-10-10T06:55:52.222+00:00</time>
      </trkpt>
      <trkpt lat="46.75163" lon="5.61188">
        <ele>261</ele>
        <time>2025-10-10T06:55:56.531+00:00</time>
      </trkpt>
      <trkpt lat="46.7516" lon="5.61195">
        <ele>261</ele>
        <time>2025-10-10T06:56:01.025+00:00</time>
      </trkpt>
      <trkpt lat="46.75157" lon="5.61202">
        <ele>261</ele>
        <time>2025-10-10T06:56:05.506+00:00</time>
      </trkpt>
      <trkpt lat="46.75155" lon="5.6121">
        <ele>259</ele>
        <time>2025-10-10T06:56:09.906+00:00</time>
      </trkpt>
      <trkpt lat="46.75152" lon="5.61217">
        <ele>263</ele>
        <time>2025-10-10T06:56:14.445+00:00</time>
      </trkpt>
      <trkpt lat="46.7515" lon="5.61224">
        <ele>263</ele>
        <time>2025-10-10T06:56:18.942+00:00</time>
      </trkpt>
      <trkpt lat="46.75147" lon="5.61231">
        <ele>263</ele>
        <time>2025-10-10T06:56:23.385+00:00</time>
      </trkpt>
      <trkpt lat="46.75144" lon="5.61237">
        <ele>261</ele>
        <time>2025-10-10T06:56:27.422+00:00</time>
      </trkpt>
      <trkpt lat="46.75142" lon="5.61243">
        <ele>261</ele>
        <time>2025-10-10T06:56:31.644+00:00</time>
      </trkpt>
      <trkpt lat="46.75138" lon="5.61249">
        <ele>261</ele>
        <time>2025-10-10T06:56:35.765+00:00</time>
      </trkpt>
      <trkpt lat="46.75136" lon="5.61254">
        <ele>261</ele>
        <time>2025-10-10T06:56:40.064+00:00</time>
      </trkpt>
      <trkpt lat="46.75134" lon="5.6126">
        <ele>261</ele>
        <time>2025-10-10T06:56:44.406+00:00</time>
      </trkpt>
      <trkpt lat="46.75131" lon="5.61266">
        <ele>259</ele>
        <time>2025-10-10T06:56:48.532+00:00</time>
      </trkpt>
      <trkpt lat="46.75129" lon="5.61272">
        <ele>259</ele>
        <time>2025-10-10T06:56:53.423+00:00</time>
      </trkpt>
      <trkpt lat="46.75125" lon="5.61278">
        <ele>259</ele>
        <time>2025-10-10T06:56:57.531+00:00</time>
      </trkpt>
      <trkpt lat="46.75124" lon="5.61283">
        <ele>263</ele>
        <time>2025-10-10T06:57:04.532+00:00</time>
      </trkpt>
      <trkpt lat="46.75123" lon="5.61285">
        <ele>263</ele>
        <time>2025-10-10T06:57:09.299+00:00</time>
      </trkpt>
      <trkpt lat="46.7512" lon="5.61292">
        <ele>261</ele>
        <time>2025-10-10T06:57:13.703+00:00</time>
      </trkpt>
      <trkpt lat="46.75115" lon="5.61297">
        <ele>261</ele>
        <time>2025-10-10T06:57:18.283+00:00</time>
      </trkpt>
      <trkpt lat="46.75113" lon="5.61303">
        <ele>261</ele>
        <time>2025-10-10T06:57:22.421+00:00</time>
      </trkpt>
      <trkpt lat="46.75111" lon="5.61308">
        <ele>261</ele>
        <time>2025-10-10T06:57:26.531+00:00</time>
      </trkpt>
      <trkpt lat="46.75108" lon="5.61314">
        <ele>261</ele>
        <time>2025-10-10T06:57:31.343+00:00</time>
      </trkpt>
      <trkpt lat="46.75106" lon="5.61319">
        <ele>261</ele>
        <time>2025-10-10T06:57:35.378+00:00</time>
      </trkpt>
      <trkpt lat="46.75103" lon="5.61324">
        <ele>260</ele>
        <time>2025-10-10T06:57:40.123+00:00</time>
      </trkpt>
      <trkpt lat="46.75101" lon="5.61326">
        <ele>260</ele>
        <time>2025-10-10T06:57:44.531+00:00</time>
      </trkpt>
      <trkpt lat="46.75098" lon="5.61331">
        <ele>260</ele>
        <time>2025-10-10T06:57:48.823+00:00</time>
      </trkpt>
      <trkpt lat="46.75096" lon="5.61336">
        <ele>265</ele>
        <time>2025-10-10T06:57:53.225+00:00</time>
      </trkpt>
      <trkpt lat="46.75093" lon="5.6134">
        <ele>265</ele>
        <time>2025-10-10T06:57:57.442+00:00</time>
      </trkpt>
      <trkpt lat="46.75091" lon="5.61346">
        <ele>265</ele>
        <time>2025-10-10T06:58:01.706+00:00</time>
      </trkpt>
      <trkpt lat="46.75088" lon="5.6135">
        <ele>263</ele>
        <time>2025-10-10T06:58:06.066+00:00</time>
      </trkpt>
      <trkpt lat="46.75084" lon="5.61358">
        <ele>263</ele>
        <time>2025-10-10T06:58:10.264+00:00</time>
      </trkpt>
      <trkpt lat="46.7508" lon="5.61369">
        <ele>263</ele>
        <time>2025-10-10T06:58:14.531+00:00</time>
      </trkpt>
      <trkpt lat="46.75077" lon="5.61369">
        <ele>263</ele>
        <time>2025-10-10T06:58:18.531+00:00</time>
      </trkpt>
      <trkpt lat="46.75073" lon="5.61371">
        <ele>263</ele>
        <time>2025-10-10T06:58:22.880+00:00</time>
      </trkpt>
      <trkpt lat="46.75071" lon="5.61377">
        <ele>263</ele>
        <time>2025-10-10T06:58:27.447+00:00</time>
      </trkpt>
      <trkpt lat="46.75066" lon="5.61379">
        <ele>264</ele>
        <time>2025-10-10T06:58:31.719+00:00</time>
      </trkpt>
      <trkpt lat="46.75062" lon="5.61381">
        <ele>264</ele>
        <time>2025-10-10T06:58:35.900+00:00</time>
      </trkpt>
      <trkpt lat="46.75059" lon="5.61385">
        <ele>264</ele>
        <time>2025-10-10T06:58:40.202+00:00</time>
      </trkpt>
      <trkpt lat="46.75054" lon="5.61388">
        <ele>264</ele>
        <time>2025-10-10T06:58:44.482+00:00</time>
      </trkpt>
      <trkpt lat="46.7505" lon="5.61392">
        <ele>264</ele>
        <time>2025-10-10T06:58:48.722+00:00</time>
      </trkpt>
      <trkpt lat="46.75046" lon="5.61395">
        <ele>264</ele>
        <time>2025-10-10T06:58:52.980+00:00</time>
      </trkpt>
      <trkpt lat="46.75042" lon="5.61398">
        <ele>264</ele>
        <time>2025-10-10T06:58:57.220+00:00</time>
      </trkpt>
      <trkpt lat="46.75038" lon="5.61401">
        <ele>265</ele>
        <time>2025-10-10T06:59:01.532+00:00</time>
      </trkpt>
      <trkpt lat="46.75033" lon="5.61402">
        <ele>265</ele>
        <time>2025-10-10T06:59:05.726+00:00</time>
      </trkpt>
      <trkpt lat="46.75029" lon="5.61403">
        <ele>264</ele>
        <time>2025-10-10T06:59:09.804+00:00</time>
      </trkpt>
      <trkpt lat="46.75024" lon="5.61402">
        <ele>265</ele>
        <time>2025-10-10T06:59:13.984+00:00</time>
      </trkpt>
      <trkpt lat="46.7502" lon="5.61401">
        <ele>265</ele>
        <time>2025-10-10T06:59:18.044+00:00</time>
      </trkpt>
      <trkpt lat="46.75016" lon="5.61396">
        <ele>265</ele>
        <time>2025-10-10T06:59:22.209+00:00</time>
      </trkpt>
      <trkpt lat="46.75011" lon="5.61394">
        <ele>266</ele>
        <time>2025-10-10T06:59:26.532+00:00</time>
      </trkpt>
      <trkpt lat="46.75006" lon="5.61391">
        <ele>266</ele>
        <time>2025-10-10T06:59:31.532+00:00</time>
      </trkpt>
      <trkpt lat="46.74999" lon="5.61394">
        <ele>266</ele>
        <time>2025-10-10T06:59:35.900+00:00</time>
      </trkpt>
      <trkpt lat="46.74993" lon="5.61402">
        <ele>266</ele>
        <time>2025-10-10T06:59:40.244+00:00</time>
      </trkpt>
      <trkpt lat="46.74989" lon="5.61409">
        <ele>265</ele>
        <time>2025-10-10T06:59:44.406+00:00</time>
      </trkpt>
      <trkpt lat="46.74984" lon="5.61415">
        <ele>266</ele>
        <time>2025-10-10T06:59:48.466+00:00</time>
      </trkpt>
      <trkpt lat="46.74978" lon="5.61414">
        <ele>266</ele>
        <time>2025-10-10T06:59:52.484+00:00</time>
      </trkpt>
      <trkpt lat="46.74974" lon="5.61415">
        <ele>266</ele>
        <time>2025-10-10T06:59:56.503+00:00</time>
      </trkpt>
      <trkpt lat="46.74969" lon="5.61416">
        <ele>266</ele>
        <time>2025-10-10T07:00:01.066+00:00</time>
      </trkpt>
      <trkpt lat="46.74964" lon="5.61418">
        <ele>266</ele>
        <time>2025-10-10T07:00:05.221+00:00</time>
      </trkpt>
      <trkpt lat="46.7496" lon="5.6142">
        <ele>266</ele>
        <time>2025-10-10T07:00:09.532+00:00</time>
      </trkpt>
      <trkpt lat="46.74957" lon="5.61422">
        <ele>268</ele>
        <time>2025-10-10T07:00:13.846+00:00</time>
      </trkpt>
      <trkpt lat="46.74952" lon="5.61425">
        <ele>268</ele>
        <time>2025-10-10T07:00:18.384+00:00</time>
      </trkpt>
      <trkpt lat="46.74948" lon="5.61428">
        <ele>268</ele>
        <time>2025-10-10T07:00:22.478+00:00</time>
      </trkpt>
      <trkpt lat="46.74944" lon="5.61431">
        <ele>267</ele>
        <time>2025-10-10T07:00:27.044+00:00</time>
      </trkpt>
      <trkpt lat="46.7494" lon="5.61435">
        <ele>267</ele>
        <time>2025-10-10T07:00:31.532+00:00</time>
      </trkpt>
      <trkpt lat="46.74935" lon="5.61438">
        <ele>267</ele>
        <time>2025-10-10T07:00:36.146+00:00</time>
      </trkpt>
      <trkpt lat="46.74931" lon="5.61442">
        <ele>267</ele>
        <time>2025-10-10T07:00:40.684+00:00</time>
      </trkpt>
      <trkpt lat="46.74927" lon="5.61445">
        <ele>272</ele>
        <time>2025-10-10T07:00:44.925+00:00</time>
      </trkpt>
      <trkpt lat="46.74923" lon="5.61448">
        <ele>272</ele>
        <time>2025-10-10T07:00:49.197+00:00</time>
      </trkpt>
      <trkpt lat="46.74918" lon="5.61451">
        <ele>272</ele>
        <time>2025-10-10T07:00:53.805+00:00</time>
      </trkpt>
      <trkpt lat="46.74914" lon="5.61454">
        <ele>272</ele>
        <time>2025-10-10T07:00:58.532+00:00</time>
      </trkpt>
      <trkpt lat="46.74909" lon="5.61457">
        <ele>272</ele>
        <time>2025-10-10T07:01:03.285+00:00</time>
      </trkpt>
      <trkpt lat="46.74904" lon="5.61459">
        <ele>271</ele>
        <time>2025-10-10T07:01:07.532+00:00</time>
      </trkpt>
      <trkpt lat="46.749" lon="5.61463">
        <ele>278</ele>
        <time>2025-10-10T07:01:12.089+00:00</time>
      </trkpt>
      <trkpt lat="46.74897" lon="5.61466">
        <ele>278</ele>
        <time>2025-10-10T07:01:16.150+00:00</time>
      </trkpt>
      <trkpt lat="46.74894" lon="5.61471">
        <ele>278</ele>
        <time>2025-10-10T07:01:20.532+00:00</time>
      </trkpt>
      <trkpt lat="46.74891" lon="5.61477">
        <ele>278</ele>
        <time>2025-10-10T07:01:25.327+00:00</time>
      </trkpt>
      <trkpt lat="46.74888" lon="5.61482">
        <ele>278</ele>
        <time>2025-10-10T07:01:29.481+00:00</time>
      </trkpt>
      <trkpt lat="46.74887" lon="5.61487">
        <ele>278</ele>
        <time>2025-10-10T07:01:33.900+00:00</time>
      </trkpt>
      <trkpt lat="46.74883" lon="5.61492">
        <ele>278</ele>
        <time>2025-10-10T07:01:38.063+00:00</time>
      </trkpt>
      <trkpt lat="46.74881" lon="5.61497">
        <ele>278</ele>
        <time>2025-10-10T07:01:42.532+00:00</time>
      </trkpt>
      <trkpt lat="46.7488" lon="5.61502">
        <ele>278</ele>
        <time>2025-10-10T07:01:46.961+00:00</time>
      </trkpt>
      <trkpt lat="46.74882" lon="5.61506">
        <ele>278</ele>
        <time>2025-10-10T07:01:50.532+00:00</time>
      </trkpt>
      <trkpt lat="46.74881" lon="5.61507">
        <ele>278</ele>
        <time>2025-10-10T07:01:59.082+00:00</time>
      </trkpt>
      <trkpt lat="46.74878" lon="5.61513">
        <ele>278</ele>
        <time>2025-10-10T07:02:03.144+00:00</time>
      </trkpt>
      <trkpt lat="46.74874" lon="5.61531">
        <ele>285</ele>
        <time>2025-10-10T07:02:36.532+00:00</time>
      </trkpt>
      <trkpt lat="46.74874" lon="5.61531">
        <ele>285</ele>
        <time>2025-10-10T07:02:41.532+00:00</time>
      </trkpt>
      <trkpt lat="46.74875" lon="5.61531">
        <ele>285</ele>
        <time>2025-10-10T07:02:45.625+00:00</time>
      </trkpt>
      <trkpt lat="46.74873" lon="5.61533">
        <ele>285</ele>
        <time>2025-10-10T07:02:50.242+00:00</time>
      </trkpt>
      <trkpt lat="46.74871" lon="5.61541">
        <ele>285</ele>
        <time>2025-10-10T07:02:54.532+00:00</time>
      </trkpt>
      <trkpt lat="46.74871" lon="5.61543">
        <ele>284</ele>
        <time>2025-10-10T07:03:38.381+00:00</time>
      </trkpt>
      <trkpt lat="46.74867" lon="5.6155">
        <ele>284</ele>
        <time>2025-10-10T07:03:42.532+00:00</time>
      </trkpt>
      <trkpt lat="46.74864" lon="5.61556">
        <ele>284</ele>
        <time>2025-10-10T07:03:46.982+00:00</time>
      </trkpt>
      <trkpt lat="46.74863" lon="5.61561">
        <ele>284</ele>
        <time>2025-10-10T07:03:51.532+00:00</time>
      </trkpt>
      <trkpt lat="46.74861" lon="5.61562">
        <ele>284</ele>
        <time>2025-10-10T07:03:55.532+00:00</time>
      </trkpt>
      <trkpt lat="46.74859" lon="5.61567">
        <ele>284</ele>
        <time>2025-10-10T07:04:00.139+00:00</time>
      </trkpt>
      <trkpt lat="46.74855" lon="5.61571">
        <ele>283</ele>
        <time>2025-10-10T07:04:04.865+00:00</time>
      </trkpt>
      <trkpt lat="46.74852" lon="5.61575">
        <ele>283</ele>
        <time>2025-10-10T07:04:09.438+00:00</time>
      </trkpt>
      <trkpt lat="46.74849" lon="5.61578">
        <ele>283</ele>
        <time>2025-10-10T07:04:14.080+00:00</time>
      </trkpt>
      <trkpt lat="46.74845" lon="5.61582">
        <ele>289</ele>
        <time>2025-10-10T07:04:18.543+00:00</time>
      </trkpt>
      <trkpt lat="46.74841" lon="5.61587">
        <ele>289</ele>
        <time>2025-10-10T07:04:23.125+00:00</time>
      </trkpt>
      <trkpt lat="46.74837" lon="5.61588">
        <ele>289</ele>
        <time>2025-10-10T07:04:27.324+00:00</time>
      </trkpt>
      <trkpt lat="46.74833" lon="5.61592">
        <ele>289</ele>
        <time>2025-10-10T07:04:31.945+00:00</time>
      </trkpt>
      <trkpt lat="46.7483" lon="5.61594">
        <ele>289</ele>
        <time>2025-10-10T07:04:36.532+00:00</time>
      </trkpt>
      <trkpt lat="46.74826" lon="5.61598">
        <ele>288</ele>
        <time>2025-10-10T07:04:41.400+00:00</time>
      </trkpt>
      <trkpt lat="46.74823" lon="5.61602">
        <ele>288</ele>
        <time>2025-10-10T07:04:46.040+00:00</time>
      </trkpt>
      <trkpt lat="46.7482" lon="5.61605">
        <ele>288</ele>
        <time>2025-10-10T07:04:50.161+00:00</time>
      </trkpt>
      <trkpt lat="46.74816" lon="5.61609">
        <ele>292</ele>
        <time>2025-10-10T07:04:54.820+00:00</time>
      </trkpt>
      <trkpt lat="46.74813" lon="5.61612">
        <ele>292</ele>
        <time>2025-10-10T07:04:59.444+00:00</time>
      </trkpt>
      <trkpt lat="46.74809" lon="5.61616">
        <ele>292</ele>
        <time>2025-10-10T07:05:03.532+00:00</time>
      </trkpt>
      <trkpt lat="46.74806" lon="5.61618">
        <ele>292</ele>
        <time>2025-10-10T07:05:07.532+00:00</time>
      </trkpt>
      <trkpt lat="46.74802" lon="5.61622">
        <ele>292</ele>
        <time>2025-10-10T07:05:12.363+00:00</time>
      </trkpt>
      <trkpt lat="46.74799" lon="5.61624">
        <ele>292</ele>
        <time>2025-10-10T07:05:16.925+00:00</time>
      </trkpt>
      <trkpt lat="46.74795" lon="5.61627">
        <ele>291</ele>
        <time>2025-10-10T07:05:21.532+00:00</time>
      </trkpt>
      <trkpt lat="46.74791" lon="5.6163">
        <ele>294</ele>
        <time>2025-10-10T07:05:26.241+00:00</time>
      </trkpt>
      <trkpt lat="46.74788" lon="5.61632">
        <ele>294</ele>
        <time>2025-10-10T07:05:30.532+00:00</time>
      </trkpt>
      <trkpt lat="46.74785" lon="5.61635">
        <ele>294</ele>
        <time>2025-10-10T07:05:34.824+00:00</time>
      </trkpt>
      <trkpt lat="46.74782" lon="5.61639">
        <ele>294</ele>
        <time>2025-10-10T07:05:39.169+00:00</time>
      </trkpt>
      <trkpt lat="46.7478" lon="5.61642">
        <ele>294</ele>
        <time>2025-10-10T07:05:43.364+00:00</time>
      </trkpt>
      <trkpt lat="46.74777" lon="5.61645">
        <ele>294</ele>
        <time>2025-10-10T07:05:47.519+00:00</time>
      </trkpt>
      <trkpt lat="46.74774" lon="5.61648">
        <ele>294</ele>
        <time>2025-10-10T07:05:51.532+00:00</time>
      </trkpt>
      <trkpt lat="46.74771" lon="5.61652">
        <ele>294</ele>
        <time>2025-10-10T07:05:55.940+00:00</time>
      </trkpt>
      <trkpt lat="46.74767" lon="5.61655">
        <ele>294</ele>
        <time>2025-10-10T07:06:00.086+00:00</time>
      </trkpt>
      <trkpt lat="46.74764" lon="5.61658">
        <ele>294</ele>
        <time>2025-10-10T07:06:04.283+00:00</time>
      </trkpt>
      <trkpt lat="46.74761" lon="5.61661">
        <ele>298</ele>
        <time>2025-10-10T07:06:08.328+00:00</time>
      </trkpt>
      <trkpt lat="46.74758" lon="5.61664">
        <ele>298</ele>
        <time>2025-10-10T07:06:12.806+00:00</time>
      </trkpt>
      <trkpt lat="46.74755" lon="5.61667">
        <ele>298</ele>
        <time>2025-10-10T07:06:17.105+00:00</time>
      </trkpt>
      <trkpt lat="46.74752" lon="5.61669">
        <ele>298</ele>
        <time>2025-10-10T07:06:21.321+00:00</time>
      </trkpt>
      <trkpt lat="46.74749" lon="5.61671">
        <ele>298</ele>
        <time>2025-10-10T07:06:25.532+00:00</time>
      </trkpt>
      <trkpt lat="46.74746" lon="5.61674">
        <ele>298</ele>
        <time>2025-10-10T07:06:30.124+00:00</time>
      </trkpt>
      <trkpt lat="46.74742" lon="5.61675">
        <ele>298</ele>
        <time>2025-10-10T07:06:34.237+00:00</time>
      </trkpt>
      <trkpt lat="46.74738" lon="5.61676">
        <ele>298</ele>
        <time>2025-10-10T07:06:38.341+00:00</time>
      </trkpt>
      <trkpt lat="46.74734" lon="5.61677">
        <ele>302</ele>
        <time>2025-10-10T07:06:42.532+00:00</time>
      </trkpt>
      <trkpt lat="46.7473" lon="5.61677">
        <ele>302</ele>
        <time>2025-10-10T07:06:47.084+00:00</time>
      </trkpt>
      <trkpt lat="46.74727" lon="5.61679">
        <ele>302</ele>
        <time>2025-10-10T07:06:51.299+00:00</time>
      </trkpt>
      <trkpt lat="46.74724" lon="5.6168">
        <ele>302</ele>
        <time>2025-10-10T07:06:55.385+00:00</time>
      </trkpt>
      <trkpt lat="46.74721" lon="5.61681">
        <ele>301</ele>
        <time>2025-10-10T07:06:59.541+00:00</time>
      </trkpt>
      <trkpt lat="46.74718" lon="5.61682">
        <ele>301</ele>
        <time>2025-10-10T07:07:04.385+00:00</time>
      </trkpt>
      <trkpt lat="46.74714" lon="5.61683">
        <ele>301</ele>
        <time>2025-10-10T07:07:08.532+00:00</time>
      </trkpt>
      <trkpt lat="46.7471" lon="5.61684">
        <ele>301</ele>
        <time>2025-10-10T07:07:12.532+00:00</time>
      </trkpt>
      <trkpt lat="46.74707" lon="5.61685">
        <ele>305</ele>
        <time>2025-10-10T07:07:17.303+00:00</time>
      </trkpt>
      <trkpt lat="46.74702" lon="5.61689">
        <ele>305</ele>
        <time>2025-10-10T07:07:21.406+00:00</time>
      </trkpt>
      <trkpt lat="46.74698" lon="5.61694">
        <ele>305</ele>
        <time>2025-10-10T07:07:25.841+00:00</time>
      </trkpt>
      <trkpt lat="46.74694" lon="5.61698">
        <ele>305</ele>
        <time>2025-10-10T07:07:30.202+00:00</time>
      </trkpt>
      <trkpt lat="46.74692" lon="5.61703">
        <ele>305</ele>
        <time>2025-10-10T07:07:34.410+00:00</time>
      </trkpt>
      <trkpt lat="46.74689" lon="5.61707">
        <ele>305</ele>
        <time>2025-10-10T07:07:38.741+00:00</time>
      </trkpt>
      <trkpt lat="46.74686" lon="5.6171">
        <ele>302</ele>
        <time>2025-10-10T07:07:43.246+00:00</time>
      </trkpt>
      <trkpt lat="46.74684" lon="5.61713">
        <ele>302</ele>
        <time>2025-10-10T07:07:47.532+00:00</time>
      </trkpt>
      <trkpt lat="46.74681" lon="5.61717">
        <ele>302</ele>
        <time>2025-10-10T07:07:51.682+00:00</time>
      </trkpt>
      <trkpt lat="46.74678" lon="5.6172">
        <ele>303</ele>
        <time>2025-10-10T07:07:55.804+00:00</time>
      </trkpt>
      <trkpt lat="46.74675" lon="5.61724">
        <ele>303</ele>
        <time>2025-10-10T07:07:59.984+00:00</time>
      </trkpt>
      <trkpt lat="46.74672" lon="5.61727">
        <ele>303</ele>
        <time>2025-10-10T07:08:04.145+00:00</time>
      </trkpt>
      <trkpt lat="46.74668" lon="5.61731">
        <ele>303</ele>
        <time>2025-10-10T07:08:08.388+00:00</time>
      </trkpt>
      <trkpt lat="46.74664" lon="5.61736">
        <ele>299</ele>
        <time>2025-10-10T07:08:13.403+00:00</time>
      </trkpt>
      <trkpt lat="46.74661" lon="5.61741">
        <ele>299</ele>
        <time>2025-10-10T07:08:18.103+00:00</time>
      </trkpt>
      <trkpt lat="46.74658" lon="5.61745">
        <ele>299</ele>
        <time>2025-10-10T07:08:22.187+00:00</time>
      </trkpt>
      <trkpt lat="46.74654" lon="5.61748">
        <ele>299</ele>
        <time>2025-10-10T07:08:26.542+00:00</time>
      </trkpt>
      <trkpt lat="46.74652" lon="5.61754">
        <ele>303</ele>
        <time>2025-10-10T07:08:31.047+00:00</time>
      </trkpt>
      <trkpt lat="46.7465" lon="5.61761">
        <ele>303</ele>
        <time>2025-10-10T07:08:35.083+00:00</time>
      </trkpt>
      <trkpt lat="46.74645" lon="5.61767">
        <ele>298</ele>
        <time>2025-10-10T07:08:39.472+00:00</time>
      </trkpt>
      <trkpt lat="46.7464" lon="5.61768">
        <ele>298</ele>
        <time>2025-10-10T07:08:43.672+00:00</time>
      </trkpt>
      <trkpt lat="46.74636" lon="5.61772">
        <ele>298</ele>
        <time>2025-10-10T07:08:47.800+00:00</time>
      </trkpt>
      <trkpt lat="46.74633" lon="5.61779">
        <ele>298</ele>
        <time>2025-10-10T07:08:51.844+00:00</time>
      </trkpt>
      <trkpt lat="46.74629" lon="5.61782">
        <ele>298</ele>
        <time>2025-10-10T07:08:55.999+00:00</time>
      </trkpt>
      <trkpt lat="46.74626" lon="5.61787">
        <ele>298</ele>
        <time>2025-10-10T07:09:00.026+00:00</time>
      </trkpt>
      <trkpt lat="46.74623" lon="5.61791">
        <ele>300</ele>
        <time>2025-10-10T07:09:04.521+00:00</time>
      </trkpt>
      <trkpt lat="46.74619" lon="5.61796">
        <ele>296</ele>
        <time>2025-10-10T07:09:09.052+00:00</time>
      </trkpt>
      <trkpt lat="46.74615" lon="5.618">
        <ele>296</ele>
        <time>2025-10-10T07:09:13.214+00:00</time>
      </trkpt>
      <trkpt lat="46.74612" lon="5.61804">
        <ele>296</ele>
        <time>2025-10-10T07:09:17.284+00:00</time>
      </trkpt>
      <trkpt lat="46.74608" lon="5.61808">
        <ele>296</ele>
        <time>2025-10-10T07:09:21.311+00:00</time>
      </trkpt>
      <trkpt lat="46.74604" lon="5.61813">
        <ele>296</ele>
        <time>2025-10-10T07:09:25.532+00:00</time>
      </trkpt>
      <trkpt lat="46.74599" lon="5.61817">
        <ele>296</ele>
        <time>2025-10-10T07:09:30.029+00:00</time>
      </trkpt>
      <trkpt lat="46.74595" lon="5.61821">
        <ele>296</ele>
        <time>2025-10-10T07:09:34.532+00:00</time>
      </trkpt>
      <trkpt lat="46.7459" lon="5.61826">
        <ele>296</ele>
        <time>2025-10-10T07:09:39.532+00:00</time>
      </trkpt>
      <trkpt lat="46.74586" lon="5.61831">
        <ele>296</ele>
        <time>2025-10-10T07:09:44.208+00:00</time>
      </trkpt>
      <trkpt lat="46.74582" lon="5.61834">
        <ele>296</ele>
        <time>2025-10-10T07:09:48.532+00:00</time>
      </trkpt>
      <trkpt lat="46.74578" lon="5.61839">
        <ele>296</ele>
        <time>2025-10-10T07:09:53.106+00:00</time>
      </trkpt>
      <trkpt lat="46.74577" lon="5.61843">
        <ele>296</ele>
        <time>2025-10-10T07:09:57.532+00:00</time>
      </trkpt>
      <trkpt lat="46.74574" lon="5.61847">
        <ele>296</ele>
        <time>2025-10-10T07:10:06.430+00:00</time>
      </trkpt>
      <trkpt lat="46.74567" lon="5.61851">
        <ele>296</ele>
        <time>2025-10-10T07:10:11.134+00:00</time>
      </trkpt>
      <trkpt lat="46.74563" lon="5.61856">
        <ele>296</ele>
        <time>2025-10-10T07:10:15.304+00:00</time>
      </trkpt>
      <trkpt lat="46.74559" lon="5.61859">
        <ele>296</ele>
        <time>2025-10-10T07:10:19.532+00:00</time>
      </trkpt>
      <trkpt lat="46.74553" lon="5.61859">
        <ele>296</ele>
        <time>2025-10-10T07:10:24.172+00:00</time>
      </trkpt>
      <trkpt lat="46.7455" lon="5.61862">
        <ele>296</ele>
        <time>2025-10-10T07:10:28.272+00:00</time>
      </trkpt>
      <trkpt lat="46.74548" lon="5.61869">
        <ele>296</ele>
        <time>2025-10-10T07:10:32.533+00:00</time>
      </trkpt>
      <trkpt lat="46.74543" lon="5.61872">
        <ele>296</ele>
        <time>2025-10-10T07:10:36.532+00:00</time>
      </trkpt>
      <trkpt lat="46.74537" lon="5.61876">
        <ele>294</ele>
        <time>2025-10-10T07:10:41.013+00:00</time>
      </trkpt>
      <trkpt lat="46.74529" lon="5.61886">
        <ele>294</ele>
        <time>2025-10-10T07:10:54.249+00:00</time>
      </trkpt>
      <trkpt lat="46.7453" lon="5.61887">
        <ele>294</ele>
        <time>2025-10-10T07:10:58.532+00:00</time>
      </trkpt>
      <trkpt lat="46.74532" lon="5.6189">
        <ele>294</ele>
        <time>2025-10-10T07:11:03.447+00:00</time>
      </trkpt>
      <trkpt lat="46.74535" lon="5.61897">
        <ele>294</ele>
        <time>2025-10-10T07:11:07.528+00:00</time>
      </trkpt>
      <trkpt lat="46.74539" lon="5.61901">
        <ele>294</ele>
        <time>2025-10-10T07:11:12.063+00:00</time>
      </trkpt>
      <trkpt lat="46.74542" lon="5.61907">
        <ele>287</ele>
        <time>2025-10-10T07:11:16.532+00:00</time>
      </trkpt>
      <trkpt lat="46.74543" lon="5.61914">
        <ele>287</ele>
        <time>2025-10-10T07:11:21.206+00:00</time>
      </trkpt>
      <trkpt lat="46.74546" lon="5.6192">
        <ele>287</ele>
        <time>2025-10-10T07:11:25.532+00:00</time>
      </trkpt>
      <trkpt lat="46.74547" lon="5.6192">
        <ele>287</ele>
        <time>2025-10-10T07:11:27.291+00:00</time>
      </trkpt>
      <trkpt lat="46.74546" lon="5.61919">
        <ele>287</ele>
        <time>2025-10-10T07:11:36.363+00:00</time>
      </trkpt>
      <trkpt lat="46.74552" lon="5.61929">
        <ele>287</ele>
        <time>2025-10-10T07:11:40.670+00:00</time>
      </trkpt>
      <trkpt lat="46.74555" lon="5.61935">
        <ele>283</ele>
        <time>2025-10-10T07:11:44.852+00:00</time>
      </trkpt>
      <trkpt lat="46.74557" lon="5.6194">
        <ele>283</ele>
        <time>2025-10-10T07:11:49.064+00:00</time>
      </trkpt>
      <trkpt lat="46.74557" lon="5.61948">
        <ele>283</ele>
        <time>2025-10-10T07:12:11.466+00:00</time>
      </trkpt>
      <trkpt lat="46.74565" lon="5.61955">
        <ele>283</ele>
        <time>2025-10-10T07:12:16.249+00:00</time>
      </trkpt>
      <trkpt lat="46.74571" lon="5.61959">
        <ele>279</ele>
        <time>2025-10-10T07:12:20.532+00:00</time>
      </trkpt>
      <trkpt lat="46.74576" lon="5.61965">
        <ele>279</ele>
        <time>2025-10-10T07:12:25.084+00:00</time>
      </trkpt>
      <trkpt lat="46.74577" lon="5.61972">
        <ele>279</ele>
        <time>2025-10-10T07:12:29.929+00:00</time>
      </trkpt>
      <trkpt lat="46.74575" lon="5.6198">
        <ele>279</ele>
        <time>2025-10-10T07:12:34.167+00:00</time>
      </trkpt>
      <trkpt lat="46.74571" lon="5.61987">
        <ele>276</ele>
        <time>2025-10-10T07:12:38.189+00:00</time>
      </trkpt>
      <trkpt lat="46.74566" lon="5.61992">
        <ele>278</ele>
        <time>2025-10-10T07:12:42.429+00:00</time>
      </trkpt>
      <trkpt lat="46.74558" lon="5.62001">
        <ele>278</ele>
        <time>2025-10-10T07:12:51.307+00:00</time>
      </trkpt>
      <trkpt lat="46.74554" lon="5.62006">
        <ele>278</ele>
        <time>2025-10-10T07:12:55.352+00:00</time>
      </trkpt>
      <trkpt lat="46.7455" lon="5.6201">
        <ele>278</ele>
        <time>2025-10-10T07:12:59.703+00:00</time>
      </trkpt>
      <trkpt lat="46.74545" lon="5.62015">
        <ele>274</ele>
        <time>2025-10-10T07:13:04.225+00:00</time>
      </trkpt>
      <trkpt lat="46.74542" lon="5.62021">
        <ele>274</ele>
        <time>2025-10-10T07:13:08.532+00:00</time>
      </trkpt>
      <trkpt lat="46.74538" lon="5.62027">
        <ele>277</ele>
        <time>2025-10-10T07:13:13.128+00:00</time>
      </trkpt>
      <trkpt lat="46.74534" lon="5.62033">
        <ele>277</ele>
        <time>2025-10-10T07:13:17.532+00:00</time>
      </trkpt>
      <trkpt lat="46.74531" lon="5.62039">
        <ele>277</ele>
        <time>2025-10-10T07:13:21.788+00:00</time>
      </trkpt>
      <trkpt lat="46.7453" lon="5.62046">
        <ele>274</ele>
        <time>2025-10-10T07:13:26.208+00:00</time>
      </trkpt>
      <trkpt lat="46.74526" lon="5.62052">
        <ele>274</ele>
        <time>2025-10-10T07:13:30.688+00:00</time>
      </trkpt>
      <trkpt lat="46.74522" lon="5.62059">
        <ele>274</ele>
        <time>2025-10-10T07:13:35.251+00:00</time>
      </trkpt>
      <trkpt lat="46.74517" lon="5.62064">
        <ele>274</ele>
        <time>2025-10-10T07:13:39.611+00:00</time>
      </trkpt>
      <trkpt lat="46.74513" lon="5.62068">
        <ele>279</ele>
        <time>2025-10-10T07:13:43.868+00:00</time>
      </trkpt>
      <trkpt lat="46.74509" lon="5.62074">
        <ele>272</ele>
        <time>2025-10-10T07:13:48.288+00:00</time>
      </trkpt>
      <trkpt lat="46.74505" lon="5.6208">
        <ele>272</ele>
        <time>2025-10-10T07:13:52.726+00:00</time>
      </trkpt>
      <trkpt lat="46.74501" lon="5.62086">
        <ele>272</ele>
        <time>2025-10-10T07:13:57.264+00:00</time>
      </trkpt>
      <trkpt lat="46.74498" lon="5.62094">
        <ele>272</ele>
        <time>2025-10-10T07:14:01.771+00:00</time>
      </trkpt>
      <trkpt lat="46.74494" lon="5.62099">
        <ele>268</ele>
        <time>2025-10-10T07:14:05.789+00:00</time>
      </trkpt>
      <trkpt lat="46.74492" lon="5.62105">
        <ele>268</ele>
        <time>2025-10-10T07:14:09.856+00:00</time>
      </trkpt>
      <trkpt lat="46.74489" lon="5.6211">
        <ele>268</ele>
        <time>2025-10-10T07:14:13.887+00:00</time>
      </trkpt>
      <trkpt lat="46.74485" lon="5.62116">
        <ele>272</ele>
        <time>2025-10-10T07:14:18.468+00:00</time>
      </trkpt>
      <trkpt lat="46.74482" lon="5.62122">
        <ele>272</ele>
        <time>2025-10-10T07:14:22.550+00:00</time>
      </trkpt>
      <trkpt lat="46.74479" lon="5.62128">
        <ele>268</ele>
        <time>2025-10-10T07:14:26.728+00:00</time>
      </trkpt>
      <trkpt lat="46.74476" lon="5.62134">
        <ele>268</ele>
        <time>2025-10-10T07:14:31.104+00:00</time>
      </trkpt>
      <trkpt lat="46.74474" lon="5.6214">
        <ele>268</ele>
        <time>2025-10-10T07:14:35.106+00:00</time>
      </trkpt>
      <trkpt lat="46.74469" lon="5.62143">
        <ele>268</ele>
        <time>2025-10-10T07:14:39.210+00:00</time>
      </trkpt>
      <trkpt lat="46.74466" lon="5.62144">
        <ele>268</ele>
        <time>2025-10-10T07:14:43.532+00:00</time>
      </trkpt>
      <trkpt lat="46.74461" lon="5.62147">
        <ele>268</ele>
        <time>2025-10-10T07:14:52.008+00:00</time>
      </trkpt>
      <trkpt lat="46.74455" lon="5.62156">
        <ele>270</ele>
        <time>2025-10-10T07:14:56.532+00:00</time>
      </trkpt>
      <trkpt lat="46.74453" lon="5.62167">
        <ele>270</ele>
        <time>2025-10-10T07:15:00.985+00:00</time>
      </trkpt>
      <trkpt lat="46.74449" lon="5.62174">
        <ele>270</ele>
        <time>2025-10-10T07:15:05.429+00:00</time>
      </trkpt>
      <trkpt lat="46.74443" lon="5.6218">
        <ele>270</ele>
        <time>2025-10-10T07:15:09.926+00:00</time>
      </trkpt>
      <trkpt lat="46.74438" lon="5.62185">
        <ele>268</ele>
        <time>2025-10-10T07:15:14.431+00:00</time>
      </trkpt>
      <trkpt lat="46.74435" lon="5.62189">
        <ele>268</ele>
        <time>2025-10-10T07:15:18.646+00:00</time>
      </trkpt>
      <trkpt lat="46.7443" lon="5.62193">
        <ele>273</ele>
        <time>2025-10-10T07:15:22.664+00:00</time>
      </trkpt>
      <trkpt lat="46.74427" lon="5.62198">
        <ele>273</ele>
        <time>2025-10-10T07:15:27.229+00:00</time>
      </trkpt>
      <trkpt lat="46.74423" lon="5.62201">
        <ele>273</ele>
        <time>2025-10-10T07:15:31.905+00:00</time>
      </trkpt>
      <trkpt lat="46.74419" lon="5.62204">
        <ele>273</ele>
        <time>2025-10-10T07:16:01.532+00:00</time>
      </trkpt>
      <trkpt lat="46.74419" lon="5.62204">
        <ele>273</ele>
        <time>2025-10-10T07:16:06.170+00:00</time>
      </trkpt>
      <trkpt lat="46.74415" lon="5.62206">
        <ele>273</ele>
        <time>2025-10-10T07:16:10.504+00:00</time>
      </trkpt>
      <trkpt lat="46.74412" lon="5.62209">
        <ele>271</ele>
        <time>2025-10-10T07:16:14.532+00:00</time>
      </trkpt>
      <trkpt lat="46.74409" lon="5.62213">
        <ele>271</ele>
        <time>2025-10-10T07:16:18.865+00:00</time>
      </trkpt>
      <trkpt lat="46.74408" lon="5.62219">
        <ele>271</ele>
        <time>2025-10-10T07:16:23.429+00:00</time>
      </trkpt>
      <trkpt lat="46.74408" lon="5.62227">
        <ele>271</ele>
        <time>2025-10-10T07:16:28.071+00:00</time>
      </trkpt>
      <trkpt lat="46.74409" lon="5.62235">
        <ele>271</ele>
        <time>2025-10-10T07:16:32.532+00:00</time>
      </trkpt>
      <trkpt lat="46.74409" lon="5.62243">
        <ele>270</ele>
        <time>2025-10-10T07:16:37.329+00:00</time>
      </trkpt>
      <trkpt lat="46.7441" lon="5.6225">
        <ele>270</ele>
        <time>2025-10-10T07:16:41.909+00:00</time>
      </trkpt>
      <trkpt lat="46.74411" lon="5.62258">
        <ele>270</ele>
        <time>2025-10-10T07:16:46.532+00:00</time>
      </trkpt>
      <trkpt lat="46.74411" lon="5.62265">
        <ele>269</ele>
        <time>2025-10-10T07:16:50.532+00:00</time>
      </trkpt>
      <trkpt lat="46.74412" lon="5.62269">
        <ele>269</ele>
        <time>2025-10-10T07:16:54.532+00:00</time>
      </trkpt>
      <trkpt lat="46.74412" lon="5.62271">
        <ele>269</ele>
        <time>2025-10-10T07:17:03.532+00:00</time>
      </trkpt>
      <trkpt lat="46.74412" lon="5.6228">
        <ele>269</ele>
        <time>2025-10-10T07:17:08.051+00:00</time>
      </trkpt>
      <trkpt lat="46.74414" lon="5.62287">
        <ele>269</ele>
        <time>2025-10-10T07:17:12.505+00:00</time>
      </trkpt>
      <trkpt lat="46.74412" lon="5.62294">
        <ele>267</ele>
        <time>2025-10-10T07:17:16.533+00:00</time>
      </trkpt>
      <trkpt lat="46.74408" lon="5.623">
        <ele>267</ele>
        <time>2025-10-10T07:17:21.046+00:00</time>
      </trkpt>
      <trkpt lat="46.74408" lon="5.62309">
        <ele>267</ele>
        <time>2025-10-10T07:17:25.450+00:00</time>
      </trkpt>
      <trkpt lat="46.74406" lon="5.62316">
        <ele>267</ele>
        <time>2025-10-10T07:17:29.988+00:00</time>
      </trkpt>
      <trkpt lat="46.74405" lon="5.62324">
        <ele>265</ele>
        <time>2025-10-10T07:17:34.050+00:00</time>
      </trkpt>
      <trkpt lat="46.74403" lon="5.6233">
        <ele>270</ele>
        <time>2025-10-10T07:17:38.128+00:00</time>
      </trkpt>
      <trkpt lat="46.74401" lon="5.62338">
        <ele>270</ele>
        <time>2025-10-10T07:17:42.666+00:00</time>
      </trkpt>
      <trkpt lat="46.74399" lon="5.62343">
        <ele>270</ele>
        <time>2025-10-10T07:17:47.249+00:00</time>
      </trkpt>
      <trkpt lat="46.74397" lon="5.62348">
        <ele>268</ele>
        <time>2025-10-10T07:17:51.429+00:00</time>
      </trkpt>
      <trkpt lat="46.74397" lon="5.62354">
        <ele>268</ele>
        <time>2025-10-10T07:17:55.557+00:00</time>
      </trkpt>
      <trkpt lat="46.74395" lon="5.62364">
        <ele>268</ele>
        <time>2025-10-10T07:18:00.165+00:00</time>
      </trkpt>
      <trkpt lat="46.74394" lon="5.62372">
        <ele>268</ele>
        <time>2025-10-10T07:18:04.532+00:00</time>
      </trkpt>
      <trkpt lat="46.74392" lon="5.62379">
        <ele>265</ele>
        <time>2025-10-10T07:18:09.150+00:00</time>
      </trkpt>
      <trkpt lat="46.7439" lon="5.62386">
        <ele>265</ele>
        <time>2025-10-10T07:18:13.663+00:00</time>
      </trkpt>
      <trkpt lat="46.74389" lon="5.62394">
        <ele>265</ele>
        <time>2025-10-10T07:18:18.126+00:00</time>
      </trkpt>
      <trkpt lat="46.74388" lon="5.62402">
        <ele>265</ele>
        <time>2025-10-10T07:18:22.587+00:00</time>
      </trkpt>
      <trkpt lat="46.74387" lon="5.6241">
        <ele>265</ele>
        <time>2025-10-10T07:18:26.771+00:00</time>
      </trkpt>
      <trkpt lat="46.74384" lon="5.62416">
        <ele>265</ele>
        <time>2025-10-10T07:18:30.829+00:00</time>
      </trkpt>
      <trkpt lat="46.7438" lon="5.62421">
        <ele>265</ele>
        <time>2025-10-10T07:18:35.044+00:00</time>
      </trkpt>
      <trkpt lat="46.74378" lon="5.62426">
        <ele>265</ele>
        <time>2025-10-10T07:18:39.225+00:00</time>
      </trkpt>
      <trkpt lat="46.74376" lon="5.62432">
        <ele>265</ele>
        <time>2025-10-10T07:18:43.303+00:00</time>
      </trkpt>
      <trkpt lat="46.74374" lon="5.62439">
        <ele>266</ele>
        <time>2025-10-10T07:18:47.663+00:00</time>
      </trkpt>
      <trkpt lat="46.7437" lon="5.62446">
        <ele>266</ele>
        <time>2025-10-10T07:18:52.091+00:00</time>
      </trkpt>
      <trkpt lat="46.74367" lon="5.62453">
        <ele>266</ele>
        <time>2025-10-10T07:18:56.532+00:00</time>
      </trkpt>
      <trkpt lat="46.74365" lon="5.62461">
        <ele>265</ele>
        <time>2025-10-10T07:19:01.067+00:00</time>
      </trkpt>
      <trkpt lat="46.74367" lon="5.6247">
        <ele>265</ele>
        <time>2025-10-10T07:19:05.532+00:00</time>
      </trkpt>
      <trkpt lat="46.74369" lon="5.62478">
        <ele>265</ele>
        <time>2025-10-10T07:19:10.264+00:00</time>
      </trkpt>
      <trkpt lat="46.74371" lon="5.62484">
        <ele>265</ele>
        <time>2025-10-10T07:19:14.445+00:00</time>
      </trkpt>
      <trkpt lat="46.74373" lon="5.62492">
        <ele>265</ele>
        <time>2025-10-10T07:19:18.532+00:00</time>
      </trkpt>
      <trkpt lat="46.74375" lon="5.62499">
        <ele>265</ele>
        <time>2025-10-10T07:19:22.532+00:00</time>
      </trkpt>
      <trkpt lat="46.74376" lon="5.62506">
        <ele>263</ele>
        <time>2025-10-10T07:19:26.561+00:00</time>
      </trkpt>
      <trkpt lat="46.74376" lon="5.62513">
        <ele>263</ele>
        <time>2025-10-10T07:19:30.532+00:00</time>
      </trkpt>
      <trkpt lat="46.74377" lon="5.62514">
        <ele>263</ele>
        <time>2025-10-10T07:19:31.487+00:00</time>
      </trkpt>
      <trkpt lat="46.74377" lon="5.62517">
        <ele>263</ele>
        <time>2025-10-10T07:19:40.532+00:00</time>
      </trkpt>
      <trkpt lat="46.7438" lon="5.62528">
        <ele>263</ele>
        <time>2025-10-10T07:19:45.532+00:00</time>
      </trkpt>
      <trkpt lat="46.74379" lon="5.62539">
        <ele>263</ele>
        <time>2025-10-10T07:19:50.365+00:00</time>
      </trkpt>
      <trkpt lat="46.7438" lon="5.62547">
        <ele>263</ele>
        <time>2025-10-10T07:19:54.536+00:00</time>
      </trkpt>
      <trkpt lat="46.74381" lon="5.62556">
        <ele>263</ele>
        <time>2025-10-10T07:19:59.532+00:00</time>
      </trkpt>
      <trkpt lat="46.74381" lon="5.62565">
        <ele>263</ele>
        <time>2025-10-10T07:20:04.532+00:00</time>
      </trkpt>
      <trkpt lat="46.74381" lon="5.6257">
        <ele>263</ele>
        <time>2025-10-10T07:20:07.532+00:00</time>
      </trkpt>
      <trkpt lat="46.74381" lon="5.62572">
        <ele>263</ele>
        <time>2025-10-10T07:20:16.532+00:00</time>
      </trkpt>
      <trkpt lat="46.74379" lon="5.62575">
        <ele>263</ele>
        <time>2025-10-10T07:20:49.532+00:00</time>
      </trkpt>
      <trkpt lat="46.7438" lon="5.62579">
        <ele>263</ele>
        <time>2025-10-10T07:20:54.055+00:00</time>
      </trkpt>
      <trkpt lat="46.74379" lon="5.62587">
        <ele>263</ele>
        <time>2025-10-10T07:20:58.532+00:00</time>
      </trkpt>
      <trkpt lat="46.7438" lon="5.62589">
        <ele>263</ele>
        <time>2025-10-10T07:21:03.532+00:00</time>
      </trkpt>
      <trkpt lat="46.74379" lon="5.62596">
        <ele>263</ele>
        <time>2025-10-10T07:21:08.128+00:00</time>
      </trkpt>
      <trkpt lat="46.74377" lon="5.62604">
        <ele>264</ele>
        <time>2025-10-10T07:21:38.325+00:00</time>
      </trkpt>
      <trkpt lat="46.74378" lon="5.62605">
        <ele>264</ele>
        <time>2025-10-10T07:21:42.830+00:00</time>
      </trkpt>
      <trkpt lat="46.74381" lon="5.62605">
        <ele>264</ele>
        <time>2025-10-10T07:21:47.011+00:00</time>
      </trkpt>
      <trkpt lat="46.74384" lon="5.62608">
        <ele>264</ele>
        <time>2025-10-10T07:21:51.532+00:00</time>
      </trkpt>
      <trkpt lat="46.7438" lon="5.62614">
        <ele>264</ele>
        <time>2025-10-10T07:21:56.013+00:00</time>
      </trkpt>
      <trkpt lat="46.7438" lon="5.62617">
        <ele>264</ele>
        <time>2025-10-10T07:22:00.532+00:00</time>
      </trkpt>
      <trkpt lat="46.7438" lon="5.62625">
        <ele>264</ele>
        <time>2025-10-10T07:22:05.450+00:00</time>
      </trkpt>
      <trkpt lat="46.74383" lon="5.62628">
        <ele>264</ele>
        <time>2025-10-10T07:22:09.532+00:00</time>
      </trkpt>
      <trkpt lat="46.74383" lon="5.62634">
        <ele>264</ele>
        <time>2025-10-10T07:22:14.366+00:00</time>
      </trkpt>
      <trkpt lat="46.74383" lon="5.62643">
        <ele>264</ele>
        <time>2025-10-10T07:22:19.290+00:00</time>
      </trkpt>
      <trkpt lat="46.74382" lon="5.62649">
        <ele>264</ele>
        <time>2025-10-10T07:22:23.532+00:00</time>
      </trkpt>
      <trkpt lat="46.74382" lon="5.62654">
        <ele>264</ele>
        <time>2025-10-10T07:22:27.949+00:00</time>
      </trkpt>
      <trkpt lat="46.74381" lon="5.62657">
        <ele>264</ele>
        <time>2025-10-10T07:22:32.369+00:00</time>
      </trkpt>
      <trkpt lat="46.74382" lon="5.62667">
        <ele>264</ele>
        <time>2025-10-10T07:23:28.532+00:00</time>
      </trkpt>
      <trkpt lat="46.74381" lon="5.62667">
        <ele>264</ele>
        <time>2025-10-10T07:23:37.532+00:00</time>
      </trkpt>
      <trkpt lat="46.74381" lon="5.62673">
        <ele>264</ele>
        <time>2025-10-10T07:23:42.152+00:00</time>
      </trkpt>
      <trkpt lat="46.74381" lon="5.6268">
        <ele>264</ele>
        <time>2025-10-10T07:23:46.532+00:00</time>
      </trkpt>
      <trkpt lat="46.74381" lon="5.62686">
        <ele>265</ele>
        <time>2025-10-10T07:23:51.077+00:00</time>
      </trkpt>
      <trkpt lat="46.7438" lon="5.62693">
        <ele>265</ele>
        <time>2025-10-10T07:23:55.191+00:00</time>
      </trkpt>
      <trkpt lat="46.7438" lon="5.62692">
        <ele>265</ele>
        <time>2025-10-10T07:23:59.207+00:00</time>
      </trkpt>
      <trkpt lat="46.74381" lon="5.62701">
        <ele>265</ele>
        <time>2025-10-10T07:24:03.158+00:00</time>
      </trkpt>
      <trkpt lat="46.74378" lon="5.62704">
        <ele>265</ele>
        <time>2025-10-10T07:24:07.390+00:00</time>
      </trkpt>
      <trkpt lat="46.74378" lon="5.62713">
        <ele>267</ele>
        <time>2025-10-10T07:24:11.893+00:00</time>
      </trkpt>
      <trkpt lat="46.7438" lon="5.62722">
        <ele>267</ele>
        <time>2025-10-10T07:24:16.160+00:00</time>
      </trkpt>
      <trkpt lat="46.74378" lon="5.6273">
        <ele>267</ele>
        <time>2025-10-10T07:24:20.315+00:00</time>
      </trkpt>
      <trkpt lat="46.74373" lon="5.62734">
        <ele>266</ele>
        <time>2025-10-10T07:24:24.532+00:00</time>
      </trkpt>
      <trkpt lat="46.7437" lon="5.62734">
        <ele>266</ele>
        <time>2025-10-10T07:24:29.256+00:00</time>
      </trkpt>
      <trkpt lat="46.74366" lon="5.62738">
        <ele>267</ele>
        <time>2025-10-10T07:24:33.361+00:00</time>
      </trkpt>
      <trkpt lat="46.74361" lon="5.62741">
        <ele>267</ele>
        <time>2025-10-10T07:24:37.900+00:00</time>
      </trkpt>
      <trkpt lat="46.74355" lon="5.62744">
        <ele>267</ele>
        <time>2025-10-10T07:24:42.514+00:00</time>
      </trkpt>
      <trkpt lat="46.74351" lon="5.62748">
        <ele>267</ele>
        <time>2025-10-10T07:24:47.532+00:00</time>
      </trkpt>
      <trkpt lat="46.74346" lon="5.62749">
        <ele>267</ele>
        <time>2025-10-10T07:24:52.379+00:00</time>
      </trkpt>
      <trkpt lat="46.74343" lon="5.62753">
        <ele>267</ele>
        <time>2025-10-10T07:24:56.532+00:00</time>
      </trkpt>
      <trkpt lat="46.74338" lon="5.62755">
        <ele>267</ele>
        <time>2025-10-10T07:25:00.980+00:00</time>
      </trkpt>
      <trkpt lat="46.74334" lon="5.62757">
        <ele>267</ele>
        <time>2025-10-10T07:25:05.280+00:00</time>
      </trkpt>
      <trkpt lat="46.74326" lon="5.62753">
        <ele>267</ele>
        <time>2025-10-10T07:25:36.532+00:00</time>
      </trkpt>
      <trkpt lat="46.74325" lon="5.62755">
        <ele>267</ele>
        <time>2025-10-10T07:25:41.137+00:00</time>
      </trkpt>
      <trkpt lat="46.74324" lon="5.62757">
        <ele>267</ele>
        <time>2025-10-10T07:25:45.145+00:00</time>
      </trkpt>
      <trkpt lat="46.74319" lon="5.62759">
        <ele>267</ele>
        <time>2025-10-10T07:25:50.513+00:00</time>
      </trkpt>
      <trkpt lat="46.74315" lon="5.62756">
        <ele>267</ele>
        <time>2025-10-10T07:25:54.532+00:00</time>
      </trkpt>
      <trkpt lat="46.74312" lon="5.62754">
        <ele>267</ele>
        <time>2025-10-10T07:25:58.532+00:00</time>
      </trkpt>
      <trkpt lat="46.74307" lon="5.62752">
        <ele>267</ele>
        <time>2025-10-10T07:26:03.251+00:00</time>
      </trkpt>
      <trkpt lat="46.74302" lon="5.62751">
        <ele>267</ele>
        <time>2025-10-10T07:26:07.532+00:00</time>
      </trkpt>
      <trkpt lat="46.74298" lon="5.6275">
        <ele>267</ele>
        <time>2025-10-10T07:26:11.953+00:00</time>
      </trkpt>
      <trkpt lat="46.74294" lon="5.6275">
        <ele>267</ele>
        <time>2025-10-10T07:26:16.532+00:00</time>
      </trkpt>
      <trkpt lat="46.7429" lon="5.6275">
        <ele>268</ele>
        <time>2025-10-10T07:26:21.475+00:00</time>
      </trkpt>
      <trkpt lat="46.74285" lon="5.62749">
        <ele>268</ele>
        <time>2025-10-10T07:26:25.556+00:00</time>
      </trkpt>
      <trkpt lat="46.7428" lon="5.6275">
        <ele>268</ele>
        <time>2025-10-10T07:26:29.761+00:00</time>
      </trkpt>
      <trkpt lat="46.74277" lon="5.6275">
        <ele>268</ele>
        <time>2025-10-10T07:26:34.241+00:00</time>
      </trkpt>
      <trkpt lat="46.74272" lon="5.62749">
        <ele>268</ele>
        <time>2025-10-10T07:26:38.497+00:00</time>
      </trkpt>
      <trkpt lat="46.74268" lon="5.62747">
        <ele>268</ele>
        <time>2025-10-10T07:26:42.532+00:00</time>
      </trkpt>
      <trkpt lat="46.74262" lon="5.62747">
        <ele>268</ele>
        <time>2025-10-10T07:26:47.365+00:00</time>
      </trkpt>
      <trkpt lat="46.74257" lon="5.62747">
        <ele>268</ele>
        <time>2025-10-10T07:26:51.532+00:00</time>
      </trkpt>
      <trkpt lat="46.74253" lon="5.62747">
        <ele>268</ele>
        <time>2025-10-10T07:26:55.532+00:00</time>
      </trkpt>
      <trkpt lat="46.74247" lon="5.62748">
        <ele>268</ele>
        <time>2025-10-10T07:27:00.532+00:00</time>
      </trkpt>
      <trkpt lat="46.74242" lon="5.62749">
        <ele>268</ele>
        <time>2025-10-10T07:27:05.322+00:00</time>
      </trkpt>
      <trkpt lat="46.7424" lon="5.6275">
        <ele>268</ele>
        <time>2025-10-10T07:27:10.473+00:00</time>
      </trkpt>
      <trkpt lat="46.74235" lon="5.6275">
        <ele>269</ele>
        <time>2025-10-10T07:27:14.532+00:00</time>
      </trkpt>
      <trkpt lat="46.7423" lon="5.6275">
        <ele>269</ele>
        <time>2025-10-10T07:27:19.500+00:00</time>
      </trkpt>
      <trkpt lat="46.74227" lon="5.6275">
        <ele>269</ele>
        <time>2025-10-10T07:27:23.722+00:00</time>
      </trkpt>
      <trkpt lat="46.74222" lon="5.62753">
        <ele>269</ele>
        <time>2025-10-10T07:27:28.337+00:00</time>
      </trkpt>
      <trkpt lat="46.74219" lon="5.62756">
        <ele>269</ele>
        <time>2025-10-10T07:27:32.532+00:00</time>
      </trkpt>
      <trkpt lat="46.74214" lon="5.62759">
        <ele>269</ele>
        <time>2025-10-10T07:27:37.296+00:00</time>
      </trkpt>
      <trkpt lat="46.7421" lon="5.62762">
        <ele>269</ele>
        <time>2025-10-10T07:27:41.532+00:00</time>
      </trkpt>
      <trkpt lat="46.74204" lon="5.62767">
        <ele>270</ele>
        <time>2025-10-10T07:27:46.476+00:00</time>
      </trkpt>
      <trkpt lat="46.742" lon="5.62771">
        <ele>270</ele>
        <time>2025-10-10T07:27:50.532+00:00</time>
      </trkpt>
      <trkpt lat="46.74195" lon="5.62777">
        <ele>270</ele>
        <time>2025-10-10T07:27:55.532+00:00</time>
      </trkpt>
      <trkpt lat="46.74191" lon="5.62782">
        <ele>270</ele>
        <time>2025-10-10T07:28:00.067+00:00</time>
      </trkpt>
      <trkpt lat="46.74187" lon="5.62787">
        <ele>270</ele>
        <time>2025-10-10T07:28:04.532+00:00</time>
      </trkpt>
      <trkpt lat="46.74183" lon="5.62792">
        <ele>275</ele>
        <time>2025-10-10T07:28:08.836+00:00</time>
      </trkpt>
      <trkpt lat="46.74178" lon="5.62798">
        <ele>274</ele>
        <time>2025-10-10T07:28:13.532+00:00</time>
      </trkpt>
      <trkpt lat="46.74174" lon="5.62802">
        <ele>274</ele>
        <time>2025-10-10T07:28:18.060+00:00</time>
      </trkpt>
      <trkpt lat="46.74169" lon="5.62807">
        <ele>274</ele>
        <time>2025-10-10T07:28:22.532+00:00</time>
      </trkpt>
      <trkpt lat="46.74164" lon="5.62811">
        <ele>274</ele>
        <time>2025-10-10T07:28:27.547+00:00</time>
      </trkpt>
      <trkpt lat="46.74159" lon="5.62815">
        <ele>274</ele>
        <time>2025-10-10T07:28:32.200+00:00</time>
      </trkpt>
      <trkpt lat="46.74156" lon="5.62819">
        <ele>274</ele>
        <time>2025-10-10T07:28:36.411+00:00</time>
      </trkpt>
      <trkpt lat="46.7415" lon="5.62824">
        <ele>276</ele>
        <time>2025-10-10T07:28:41.436+00:00</time>
      </trkpt>
      <trkpt lat="46.74144" lon="5.62826">
        <ele>276</ele>
        <time>2025-10-10T07:28:46.077+00:00</time>
      </trkpt>
      <trkpt lat="46.74139" lon="5.6283">
        <ele>276</ele>
        <time>2025-10-10T07:28:50.532+00:00</time>
      </trkpt>
      <trkpt lat="46.74135" lon="5.62833">
        <ele>276</ele>
        <time>2025-10-10T07:28:54.532+00:00</time>
      </trkpt>
      <trkpt lat="46.7413" lon="5.62836">
        <ele>276</ele>
        <time>2025-10-10T07:28:59.080+00:00</time>
      </trkpt>
      <trkpt lat="46.74125" lon="5.6284">
        <ele>274</ele>
        <time>2025-10-10T07:29:03.532+00:00</time>
      </trkpt>
      <trkpt lat="46.74119" lon="5.62843">
        <ele>274</ele>
        <time>2025-10-10T07:29:08.200+00:00</time>
      </trkpt>
      <trkpt lat="46.74114" lon="5.62844">
        <ele>274</ele>
        <time>2025-10-10T07:29:12.381+00:00</time>
      </trkpt>
      <trkpt lat="46.74108" lon="5.62844">
        <ele>274</ele>
        <time>2025-10-10T07:29:16.995+00:00</time>
      </trkpt>
      <trkpt lat="46.74103" lon="5.62845">
        <ele>274</ele>
        <time>2025-10-10T07:29:21.100+00:00</time>
      </trkpt>
      <trkpt lat="46.74098" lon="5.62846">
        <ele>274</ele>
        <time>2025-10-10T07:29:25.460+00:00</time>
      </trkpt>
      <trkpt lat="46.74093" lon="5.62847">
        <ele>279</ele>
        <time>2025-10-10T07:29:30.059+00:00</time>
      </trkpt>
      <trkpt lat="46.74088" lon="5.62848">
        <ele>279</ele>
        <time>2025-10-10T07:29:34.460+00:00</time>
      </trkpt>
      <trkpt lat="46.74082" lon="5.6285">
        <ele>279</ele>
        <time>2025-10-10T07:29:39.299+00:00</time>
      </trkpt>
      <trkpt lat="46.74076" lon="5.62851">
        <ele>279</ele>
        <time>2025-10-10T07:29:43.392+00:00</time>
      </trkpt>
      <trkpt lat="46.7407" lon="5.62853">
        <ele>279</ele>
        <time>2025-10-10T07:29:48.419+00:00</time>
      </trkpt>
      <trkpt lat="46.74065" lon="5.62854">
        <ele>279</ele>
        <time>2025-10-10T07:29:52.532+00:00</time>
      </trkpt>
      <trkpt lat="46.7406" lon="5.62854">
        <ele>279</ele>
        <time>2025-10-10T07:29:56.840+00:00</time>
      </trkpt>
      <trkpt lat="46.74055" lon="5.62856">
        <ele>279</ele>
        <time>2025-10-10T07:30:01.036+00:00</time>
      </trkpt>
      <trkpt lat="46.74049" lon="5.62856">
        <ele>279</ele>
        <time>2025-10-10T07:30:05.532+00:00</time>
      </trkpt>
      <trkpt lat="46.74043" lon="5.62856">
        <ele>279</ele>
        <time>2025-10-10T07:30:10.352+00:00</time>
      </trkpt>
      <trkpt lat="46.74038" lon="5.62855">
        <ele>279</ele>
        <time>2025-10-10T07:30:14.441+00:00</time>
      </trkpt>
      <trkpt lat="46.74032" lon="5.62854">
        <ele>279</ele>
        <time>2025-10-10T07:30:18.532+00:00</time>
      </trkpt>
      <trkpt lat="46.74027" lon="5.62854">
        <ele>279</ele>
        <time>2025-10-10T07:30:22.595+00:00</time>
      </trkpt>
      <trkpt lat="46.74022" lon="5.62853">
        <ele>279</ele>
        <time>2025-10-10T07:30:27.220+00:00</time>
      </trkpt>
      <trkpt lat="46.74016" lon="5.62852">
        <ele>279</ele>
        <time>2025-10-10T07:30:31.532+00:00</time>
      </trkpt>
      <trkpt lat="46.74011" lon="5.62852">
        <ele>278</ele>
        <time>2025-10-10T07:30:36.532+00:00</time>
      </trkpt>
      <trkpt lat="46.74005" lon="5.62851">
        <ele>278</ele>
        <time>2025-10-10T07:30:41.237+00:00</time>
      </trkpt>
      <trkpt lat="46.74" lon="5.62851">
        <ele>278</ele>
        <time>2025-10-10T07:30:45.299+00:00</time>
      </trkpt>
      <trkpt lat="46.73995" lon="5.62853">
        <ele>278</ele>
        <time>2025-10-10T07:30:49.513+00:00</time>
      </trkpt>
      <trkpt lat="46.7399" lon="5.62854">
        <ele>278</ele>
        <time>2025-10-10T07:30:54.121+00:00</time>
      </trkpt>
      <trkpt lat="46.73985" lon="5.62856">
        <ele>276</ele>
        <time>2025-10-10T07:30:58.257+00:00</time>
      </trkpt>
      <trkpt lat="46.7398" lon="5.62858">
        <ele>276</ele>
        <time>2025-10-10T07:31:02.291+00:00</time>
      </trkpt>
      <trkpt lat="46.73975" lon="5.6286">
        <ele>276</ele>
        <time>2025-10-10T07:31:06.532+00:00</time>
      </trkpt>
      <trkpt lat="46.7397" lon="5.62861">
        <ele>276</ele>
        <time>2025-10-10T07:31:11.260+00:00</time>
      </trkpt>
      <trkpt lat="46.73965" lon="5.62862">
        <ele>276</ele>
        <time>2025-10-10T07:31:15.532+00:00</time>
      </trkpt>
      <trkpt lat="46.73959" lon="5.62862">
        <ele>276</ele>
        <time>2025-10-10T07:31:20.200+00:00</time>
      </trkpt>
      <trkpt lat="46.73954" lon="5.62862">
        <ele>274</ele>
        <time>2025-10-10T07:31:24.213+00:00</time>
      </trkpt>
      <trkpt lat="46.73949" lon="5.62862">
        <ele>274</ele>
        <time>2025-10-10T07:31:28.416+00:00</time>
      </trkpt>
      <trkpt lat="46.73945" lon="5.62859">
        <ele>274</ele>
        <time>2025-10-10T07:31:32.555+00:00</time>
      </trkpt>
      <trkpt lat="46.7394" lon="5.62857">
        <ele>274</ele>
        <time>2025-10-10T07:31:36.532+00:00</time>
      </trkpt>
      <trkpt lat="46.73935" lon="5.62857">
        <ele>274</ele>
        <time>2025-10-10T07:31:40.957+00:00</time>
      </trkpt>
      <trkpt lat="46.7393" lon="5.62856">
        <ele>274</ele>
        <time>2025-10-10T07:31:45.404+00:00</time>
      </trkpt>
      <trkpt lat="46.73925" lon="5.62857">
        <ele>274</ele>
        <time>2025-10-10T07:31:49.532+00:00</time>
      </trkpt>
      <trkpt lat="46.73919" lon="5.62859">
        <ele>274</ele>
        <time>2025-10-10T07:31:54.532+00:00</time>
      </trkpt>
      <trkpt lat="46.73913" lon="5.62858">
        <ele>274</ele>
        <time>2025-10-10T07:31:59.532+00:00</time>
      </trkpt>
      <trkpt lat="46.73909" lon="5.62856">
        <ele>274</ele>
        <time>2025-10-10T07:32:03.936+00:00</time>
      </trkpt>
      <trkpt lat="46.73907" lon="5.62852">
        <ele>274</ele>
        <time>2025-10-10T07:32:08.532+00:00</time>
      </trkpt>
      <trkpt lat="46.73906" lon="5.62854">
        <ele>274</ele>
        <time>2025-10-10T07:32:13.339+00:00</time>
      </trkpt>
      <trkpt lat="46.73901" lon="5.62855">
        <ele>271</ele>
        <time>2025-10-10T07:32:17.532+00:00</time>
      </trkpt>
      <trkpt lat="46.73893" lon="5.62855">
        <ele>271</ele>
        <time>2025-10-10T07:32:22.532+00:00</time>
      </trkpt>
      <trkpt lat="46.73889" lon="5.62856">
        <ele>271</ele>
        <time>2025-10-10T07:32:26.532+00:00</time>
      </trkpt>
      <trkpt lat="46.73885" lon="5.6286">
        <ele>271</ele>
        <time>2025-10-10T07:32:35.532+00:00</time>
      </trkpt>
      <trkpt lat="46.73883" lon="5.62863">
        <ele>271</ele>
        <time>2025-10-10T07:32:40.080+00:00</time>
      </trkpt>
      <trkpt lat="46.7388" lon="5.62865">
        <ele>271</ele>
        <time>2025-10-10T07:32:44.261+00:00</time>
      </trkpt>
      <trkpt lat="46.73879" lon="5.62867">
        <ele>271</ele>
        <time>2025-10-10T07:32:48.532+00:00</time>
      </trkpt>
      <trkpt lat="46.73874" lon="5.62871">
        <ele>269</ele>
        <time>2025-10-10T07:32:53.532+00:00</time>
      </trkpt>
      <trkpt lat="46.7387" lon="5.62875">
        <ele>271</ele>
        <time>2025-10-10T07:32:57.664+00:00</time>
      </trkpt>
      <trkpt lat="46.73866" lon="5.6288">
        <ele>271</ele>
        <time>2025-10-10T07:33:02.458+00:00</time>
      </trkpt>
      <trkpt lat="46.73863" lon="5.62884">
        <ele>271</ele>
        <time>2025-10-10T07:33:06.532+00:00</time>
      </trkpt>
      <trkpt lat="46.73859" lon="5.62888">
        <ele>271</ele>
        <time>2025-10-10T07:33:10.960+00:00</time>
      </trkpt>
      <trkpt lat="46.73857" lon="5.62893">
        <ele>271</ele>
        <time>2025-10-10T07:33:15.532+00:00</time>
      </trkpt>
      <trkpt lat="46.73857" lon="5.62895">
        <ele>271</ele>
        <time>2025-10-10T07:33:19.938+00:00</time>
      </trkpt>
      <trkpt lat="46.73853" lon="5.62896">
        <ele>271</ele>
        <time>2025-10-10T07:33:24.532+00:00</time>
      </trkpt>
      <trkpt lat="46.73848" lon="5.62899">
        <ele>271</ele>
        <time>2025-10-10T07:33:29.020+00:00</time>
      </trkpt>
      <trkpt lat="46.73848" lon="5.629">
        <ele>271</ele>
        <time>2025-10-10T07:33:33.316+00:00</time>
      </trkpt>
      <trkpt lat="46.73847" lon="5.62903">
        <ele>270</ele>
        <time>2025-10-10T07:33:38.223+00:00</time>
      </trkpt>
      <trkpt lat="46.73845" lon="5.62913">
        <ele>270</ele>
        <time>2025-10-10T07:33:42.532+00:00</time>
      </trkpt>
      <trkpt lat="46.73846" lon="5.62923">
        <ele>270</ele>
        <time>2025-10-10T07:33:47.239+00:00</time>
      </trkpt>
      <trkpt lat="46.73846" lon="5.62931">
        <ele>271</ele>
        <time>2025-10-10T07:33:51.532+00:00</time>
      </trkpt>
      <trkpt lat="46.73842" lon="5.62938">
        <ele>271</ele>
        <time>2025-10-10T07:33:55.975+00:00</time>
      </trkpt>
      <trkpt lat="46.7384" lon="5.62942">
        <ele>271</ele>
        <time>2025-10-10T07:34:00.360+00:00</time>
      </trkpt>
      <trkpt lat="46.73836" lon="5.62946">
        <ele>271</ele>
        <time>2025-10-10T07:34:04.438+00:00</time>
      </trkpt>
      <trkpt lat="46.73831" lon="5.62951">
        <ele>271</ele>
        <time>2025-10-10T07:34:09.078+00:00</time>
      </trkpt>
      <trkpt lat="46.73827" lon="5.62955">
        <ele>271</ele>
        <time>2025-10-10T07:34:13.532+00:00</time>
      </trkpt>
      <trkpt lat="46.73822" lon="5.6296">
        <ele>271</ele>
        <time>2025-10-10T07:34:18.294+00:00</time>
      </trkpt>
      <trkpt lat="46.73817" lon="5.62964">
        <ele>269</ele>
        <time>2025-10-10T07:34:22.797+00:00</time>
      </trkpt>
      <trkpt lat="46.73812" lon="5.62964">
        <ele>269</ele>
        <time>2025-10-10T07:34:27.379+00:00</time>
      </trkpt>
      <trkpt lat="46.73807" lon="5.62958">
        <ele>269</ele>
        <time>2025-10-10T07:34:31.892+00:00</time>
      </trkpt>
      <trkpt lat="46.73803" lon="5.62952">
        <ele>269</ele>
        <time>2025-10-10T07:34:36.414+00:00</time>
      </trkpt>
      <trkpt lat="46.73798" lon="5.62948">
        <ele>269</ele>
        <time>2025-10-10T07:34:40.897+00:00</time>
      </trkpt>
      <trkpt lat="46.73793" lon="5.62944">
        <ele>269</ele>
        <time>2025-10-10T07:34:45.532+00:00</time>
      </trkpt>
      <trkpt lat="46.73788" lon="5.62941">
        <ele>269</ele>
        <time>2025-10-10T07:34:49.598+00:00</time>
      </trkpt>
      <trkpt lat="46.73783" lon="5.62938">
        <ele>269</ele>
        <time>2025-10-10T07:34:54.047+00:00</time>
      </trkpt>
      <trkpt lat="46.73778" lon="5.62935">
        <ele>269</ele>
        <time>2025-10-10T07:34:58.316+00:00</time>
      </trkpt>
      <trkpt lat="46.73773" lon="5.62931">
        <ele>269</ele>
        <time>2025-10-10T07:35:02.997+00:00</time>
      </trkpt>
      <trkpt lat="46.73767" lon="5.62926">
        <ele>269</ele>
        <time>2025-10-10T07:35:07.532+00:00</time>
      </trkpt>
      <trkpt lat="46.73763" lon="5.62922">
        <ele>269</ele>
        <time>2025-10-10T07:35:12.221+00:00</time>
      </trkpt>
      <trkpt lat="46.73756" lon="5.62918">
        <ele>269</ele>
        <time>2025-10-10T07:35:17.356+00:00</time>
      </trkpt>
      <trkpt lat="46.73752" lon="5.62914">
        <ele>269</ele>
        <time>2025-10-10T07:35:21.475+00:00</time>
      </trkpt>
      <trkpt lat="46.73746" lon="5.62911">
        <ele>269</ele>
        <time>2025-10-10T07:35:26.138+00:00</time>
      </trkpt>
      <trkpt lat="46.73741" lon="5.62909">
        <ele>269</ele>
        <time>2025-10-10T07:35:30.532+00:00</time>
      </trkpt>
      <trkpt lat="46.73735" lon="5.62909">
        <ele>270</ele>
        <time>2025-10-10T07:35:35.079+00:00</time>
      </trkpt>
      <trkpt lat="46.7373" lon="5.62914">
        <ele>270</ele>
        <time>2025-10-10T07:35:39.319+00:00</time>
      </trkpt>
      <trkpt lat="46.73725" lon="5.62919">
        <ele>270</ele>
        <time>2025-10-10T07:35:43.532+00:00</time>
      </trkpt>
      <trkpt lat="46.73721" lon="5.62925">
        <ele>270</ele>
        <time>2025-10-10T07:35:48.279+00:00</time>
      </trkpt>
      <trkpt lat="46.73716" lon="5.62931">
        <ele>269</ele>
        <time>2025-10-10T07:35:52.887+00:00</time>
      </trkpt>
      <trkpt lat="46.73712" lon="5.62937">
        <ele>269</ele>
        <time>2025-10-10T07:37:03.429+00:00</time>
      </trkpt>
      <trkpt lat="46.73706" lon="5.62942">
        <ele>271</ele>
        <time>2025-10-10T07:37:08.513+00:00</time>
      </trkpt>
      <trkpt lat="46.73701" lon="5.62947">
        <ele>271</ele>
        <time>2025-10-10T07:37:13.317+00:00</time>
      </trkpt>
      <trkpt lat="46.73697" lon="5.6295">
        <ele>271</ele>
        <time>2025-10-10T07:37:17.532+00:00</time>
      </trkpt>
      <trkpt lat="46.73693" lon="5.62955">
        <ele>271</ele>
        <time>2025-10-10T07:37:22.394+00:00</time>
      </trkpt>
      <trkpt lat="46.73689" lon="5.62962">
        <ele>270</ele>
        <time>2025-10-10T07:37:26.904+00:00</time>
      </trkpt>
      <trkpt lat="46.73686" lon="5.62969">
        <ele>270</ele>
        <time>2025-10-10T07:37:31.483+00:00</time>
      </trkpt>
      <trkpt lat="46.73682" lon="5.62977">
        <ele>270</ele>
        <time>2025-10-10T07:37:35.997+00:00</time>
      </trkpt>
      <trkpt lat="46.73679" lon="5.62986">
        <ele>272</ele>
        <time>2025-10-10T07:37:40.458+00:00</time>
      </trkpt>
      <trkpt lat="46.73677" lon="5.62994">
        <ele>271</ele>
        <time>2025-10-10T07:37:44.981+00:00</time>
      </trkpt>
      <trkpt lat="46.73675" lon="5.63003">
        <ele>271</ele>
        <time>2025-10-10T07:37:49.484+00:00</time>
      </trkpt>
      <trkpt lat="46.73673" lon="5.63012">
        <ele>271</ele>
        <time>2025-10-10T07:37:53.904+00:00</time>
      </trkpt>
      <trkpt lat="46.7367" lon="5.6302">
        <ele>271</ele>
        <time>2025-10-10T07:37:58.476+00:00</time>
      </trkpt>
      <trkpt lat="46.73666" lon="5.63028">
        <ele>271</ele>
        <time>2025-10-10T07:38:02.879+00:00</time>
      </trkpt>
      <trkpt lat="46.73662" lon="5.63034">
        <ele>271</ele>
        <time>2025-10-10T07:38:07.260+00:00</time>
      </trkpt>
      <trkpt lat="46.73658" lon="5.63039">
        <ele>271</ele>
        <time>2025-10-10T07:38:11.397+00:00</time>
      </trkpt>
      <trkpt lat="46.73653" lon="5.63042">
        <ele>272</ele>
        <time>2025-10-10T07:38:15.433+00:00</time>
      </trkpt>
      <trkpt lat="46.73648" lon="5.63044">
        <ele>275</ele>
        <time>2025-10-10T07:38:19.758+00:00</time>
      </trkpt>
      <trkpt lat="46.73643" lon="5.63047">
        <ele>275</ele>
        <time>2025-10-10T07:38:24.117+00:00</time>
      </trkpt>
      <trkpt lat="46.73639" lon="5.63049">
        <ele>275</ele>
        <time>2025-10-10T07:38:28.357+00:00</time>
      </trkpt>
      <trkpt lat="46.73634" lon="5.63052">
        <ele>275</ele>
        <time>2025-10-10T07:38:32.734+00:00</time>
      </trkpt>
      <trkpt lat="46.73629" lon="5.63052">
        <ele>275</ele>
        <time>2025-10-10T07:38:37.334+00:00</time>
      </trkpt>
      <trkpt lat="46.73624" lon="5.63052">
        <ele>278</ele>
        <time>2025-10-10T07:38:41.532+00:00</time>
      </trkpt>
      <trkpt lat="46.73618" lon="5.63051">
        <ele>278</ele>
        <time>2025-10-10T07:38:45.720+00:00</time>
      </trkpt>
      <trkpt lat="46.73613" lon="5.63051">
        <ele>278</ele>
        <time>2025-10-10T07:38:50.113+00:00</time>
      </trkpt>
      <trkpt lat="46.73608" lon="5.63051">
        <ele>278</ele>
        <time>2025-10-10T07:38:54.520+00:00</time>
      </trkpt>
      <trkpt lat="46.73603" lon="5.63052">
        <ele>278</ele>
        <time>2025-10-10T07:38:58.993+00:00</time>
      </trkpt>
      <trkpt lat="46.73598" lon="5.63051">
        <ele>278</ele>
        <time>2025-10-10T07:39:03.532+00:00</time>
      </trkpt>
      <trkpt lat="46.73592" lon="5.63052">
        <ele>280</ele>
        <time>2025-10-10T07:39:07.935+00:00</time>
      </trkpt>
      <trkpt lat="46.73587" lon="5.63052">
        <ele>280</ele>
        <time>2025-10-10T07:39:12.080+00:00</time>
      </trkpt>
      <trkpt lat="46.73582" lon="5.63054">
        <ele>280</ele>
        <time>2025-10-10T07:39:16.227+00:00</time>
      </trkpt>
      <trkpt lat="46.73578" lon="5.63056">
        <ele>280</ele>
        <time>2025-10-10T07:39:20.364+00:00</time>
      </trkpt>
      <trkpt lat="46.73573" lon="5.63059">
        <ele>280</ele>
        <time>2025-10-10T07:39:24.886+00:00</time>
      </trkpt>
      <trkpt lat="46.73567" lon="5.6306">
        <ele>284</ele>
        <time>2025-10-10T07:39:29.532+00:00</time>
      </trkpt>
      <trkpt lat="46.73562" lon="5.63062">
        <ele>284</ele>
        <time>2025-10-10T07:39:33.827+00:00</time>
      </trkpt>
      <trkpt lat="46.73557" lon="5.63064">
        <ele>284</ele>
        <time>2025-10-10T07:39:37.888+00:00</time>
      </trkpt>
      <trkpt lat="46.73552" lon="5.63066">
        <ele>284</ele>
        <time>2025-10-10T07:39:42.532+00:00</time>
      </trkpt>
      <trkpt lat="46.73546" lon="5.63066">
        <ele>284</ele>
        <time>2025-10-10T07:39:47.324+00:00</time>
      </trkpt>
      <trkpt lat="46.73541" lon="5.63065">
        <ele>288</ele>
        <time>2025-10-10T07:39:51.402+00:00</time>
      </trkpt>
      <trkpt lat="46.73536" lon="5.63065">
        <ele>288</ele>
        <time>2025-10-10T07:39:55.532+00:00</time>
      </trkpt>
      <trkpt lat="46.73531" lon="5.63065">
        <ele>288</ele>
        <time>2025-10-10T07:39:59.584+00:00</time>
      </trkpt>
      <trkpt lat="46.73525" lon="5.63064">
        <ele>288</ele>
        <time>2025-10-10T07:40:03.887+00:00</time>
      </trkpt>
      <trkpt lat="46.73519" lon="5.63063">
        <ele>288</ele>
        <time>2025-10-10T07:40:08.482+00:00</time>
      </trkpt>
      <trkpt lat="46.73514" lon="5.63061">
        <ele>288</ele>
        <time>2025-10-10T07:40:12.532+00:00</time>
      </trkpt>
      <trkpt lat="46.73508" lon="5.63059">
        <ele>290</ele>
        <time>2025-10-10T07:40:16.844+00:00</time>
      </trkpt>
      <trkpt lat="46.73504" lon="5.63058">
        <ele>290</ele>
        <time>2025-10-10T07:40:20.810+00:00</time>
      </trkpt>
      <trkpt lat="46.73499" lon="5.63057">
        <ele>290</ele>
        <time>2025-10-10T07:40:25.066+00:00</time>
      </trkpt>
      <trkpt lat="46.73493" lon="5.63055">
        <ele>290</ele>
        <time>2025-10-10T07:40:29.532+00:00</time>
      </trkpt>
      <trkpt lat="46.73488" lon="5.63053">
        <ele>290</ele>
        <time>2025-10-10T07:40:34.031+00:00</time>
      </trkpt>
      <trkpt lat="46.73483" lon="5.63052">
        <ele>293</ele>
        <time>2025-10-10T07:40:38.167+00:00</time>
      </trkpt>
      <trkpt lat="46.73477" lon="5.6305">
        <ele>293</ele>
        <time>2025-10-10T07:40:42.196+00:00</time>
      </trkpt>
      <trkpt lat="46.73472" lon="5.63048">
        <ele>293</ele>
        <time>2025-10-10T07:40:46.792+00:00</time>
      </trkpt>
      <trkpt lat="46.73467" lon="5.63045">
        <ele>293</ele>
        <time>2025-10-10T07:40:50.946+00:00</time>
      </trkpt>
      <trkpt lat="46.73459" lon="5.63043">
        <ele>293</ele>
        <time>2025-10-10T07:41:04.422+00:00</time>
      </trkpt>
      <trkpt lat="46.73459" lon="5.63044">
        <ele>293</ele>
        <time>2025-10-10T07:41:08.532+00:00</time>
      </trkpt>
      <trkpt lat="46.73459" lon="5.63045">
        <ele>293</ele>
        <time>2025-10-10T07:41:13.532+00:00</time>
      </trkpt>
      <trkpt lat="46.73456" lon="5.63042">
        <ele>296</ele>
        <time>2025-10-10T07:41:18.532+00:00</time>
      </trkpt>
      <trkpt lat="46.7345" lon="5.63035">
        <ele>300</ele>
        <time>2025-10-10T07:41:23.333+00:00</time>
      </trkpt>
      <trkpt lat="46.73447" lon="5.63028">
        <ele>300</ele>
        <time>2025-10-10T07:41:27.532+00:00</time>
      </trkpt>
      <trkpt lat="46.73443" lon="5.63022">
        <ele>300</ele>
        <time>2025-10-10T07:41:32.426+00:00</time>
      </trkpt>
      <trkpt lat="46.73438" lon="5.6302">
        <ele>300</ele>
        <time>2025-10-10T07:41:36.532+00:00</time>
      </trkpt>
      <trkpt lat="46.73434" lon="5.63019">
        <ele>300</ele>
        <time>2025-10-10T07:41:40.868+00:00</time>
      </trkpt>
      <trkpt lat="46.73429" lon="5.63017">
        <ele>302</ele>
        <time>2025-10-10T07:41:45.027+00:00</time>
      </trkpt>
      <trkpt lat="46.73423" lon="5.63017">
        <ele>302</ele>
        <time>2025-10-10T07:41:49.532+00:00</time>
      </trkpt>
      <trkpt lat="46.73418" lon="5.63017">
        <ele>302</ele>
        <time>2025-10-10T07:41:54.131+00:00</time>
      </trkpt>
      <trkpt lat="46.73412" lon="5.63016">
        <ele>302</ele>
        <time>2025-10-10T07:41:58.224+00:00</time>
      </trkpt>
      <trkpt lat="46.73407" lon="5.63015">
        <ele>302</ele>
        <time>2025-10-10T07:42:02.312+00:00</time>
      </trkpt>
      <trkpt lat="46.73402" lon="5.63014">
        <ele>304</ele>
        <time>2025-10-10T07:42:06.331+00:00</time>
      </trkpt>
      <trkpt lat="46.73396" lon="5.63014">
        <ele>304</ele>
        <time>2025-10-10T07:42:10.348+00:00</time>
      </trkpt>
      <trkpt lat="46.7339" lon="5.63014">
        <ele>309</ele>
        <time>2025-10-10T07:42:15.331+00:00</time>
      </trkpt>
      <trkpt lat="46.73375" lon="5.63013">
        <ele>309</ele>
        <time>2025-10-10T07:42:32.532+00:00</time>
      </trkpt>
      <trkpt lat="46.73375" lon="5.63013">
        <ele>309</ele>
        <time>2025-10-10T07:42:36.532+00:00</time>
      </trkpt>
      <trkpt lat="46.73375" lon="5.63015">
        <ele>309</ele>
        <time>2025-10-10T07:42:40.930+00:00</time>
      </trkpt>
      <trkpt lat="46.73367" lon="5.63013">
        <ele>314</ele>
        <time>2025-10-10T07:42:45.527+00:00</time>
      </trkpt>
      <trkpt lat="46.73362" lon="5.63012">
        <ele>314</ele>
        <time>2025-10-10T07:42:50.125+00:00</time>
      </trkpt>
      <trkpt lat="46.73357" lon="5.63011">
        <ele>314</ele>
        <time>2025-10-10T07:42:54.212+00:00</time>
      </trkpt>
      <trkpt lat="46.73352" lon="5.63009">
        <ele>314</ele>
        <time>2025-10-10T07:42:58.767+00:00</time>
      </trkpt>
      <trkpt lat="46.73347" lon="5.63008">
        <ele>320</ele>
        <time>2025-10-10T07:43:02.786+00:00</time>
      </trkpt>
      <trkpt lat="46.73342" lon="5.63006">
        <ele>320</ele>
        <time>2025-10-10T07:43:07.532+00:00</time>
      </trkpt>
      <trkpt lat="46.73337" lon="5.63003">
        <ele>320</ele>
        <time>2025-10-10T07:43:12.375+00:00</time>
      </trkpt>
      <trkpt lat="46.73333" lon="5.63001">
        <ele>320</ele>
        <time>2025-10-10T07:43:16.752+00:00</time>
      </trkpt>
      <trkpt lat="46.7333" lon="5.63002">
        <ele>320</ele>
        <time>2025-10-10T07:43:21.077+00:00</time>
      </trkpt>
      <trkpt lat="46.73327" lon="5.63003">
        <ele>320</ele>
        <time>2025-10-10T07:43:25.532+00:00</time>
      </trkpt>
      <trkpt lat="46.73323" lon="5.63003">
        <ele>320</ele>
        <time>2025-10-10T07:43:29.899+00:00</time>
      </trkpt>
      <trkpt lat="46.73319" lon="5.63002">
        <ele>323</ele>
        <time>2025-10-10T07:43:34.036+00:00</time>
      </trkpt>
      <trkpt lat="46.73316" lon="5.63001">
        <ele>323</ele>
        <time>2025-10-10T07:43:38.532+00:00</time>
      </trkpt>
      <trkpt lat="46.73311" lon="5.62999">
        <ele>323</ele>
        <time>2025-10-10T07:43:43.532+00:00</time>
      </trkpt>
      <trkpt lat="46.73306" lon="5.62998">
        <ele>323</ele>
        <time>2025-10-10T07:43:48.055+00:00</time>
      </trkpt>
      <trkpt lat="46.73302" lon="5.62996">
        <ele>323</ele>
        <time>2025-10-10T07:43:52.532+00:00</time>
      </trkpt>
      <trkpt lat="46.73298" lon="5.62995">
        <ele>323</ele>
        <time>2025-10-10T07:43:56.934+00:00</time>
      </trkpt>
      <trkpt lat="46.73294" lon="5.62995">
        <ele>323</ele>
        <time>2025-10-10T07:44:01.532+00:00</time>
      </trkpt>
      <trkpt lat="46.7329" lon="5.62994">
        <ele>326</ele>
        <time>2025-10-10T07:44:06.174+00:00</time>
      </trkpt>
      <trkpt lat="46.73288" lon="5.62994">
        <ele>326</ele>
        <time>2025-10-10T07:44:10.532+00:00</time>
      </trkpt>
      <trkpt lat="46.73283" lon="5.62994">
        <ele>326</ele>
        <time>2025-10-10T07:44:15.074+00:00</time>
      </trkpt>
      <trkpt lat="46.7328" lon="5.62991">
        <ele>326</ele>
        <time>2025-10-10T07:44:19.532+00:00</time>
      </trkpt>
      <trkpt lat="46.73276" lon="5.62989">
        <ele>326</ele>
        <time>2025-10-10T07:44:24.031+00:00</time>
      </trkpt>
      <trkpt lat="46.73271" lon="5.62987">
        <ele>326</ele>
        <time>2025-10-10T07:44:28.532+00:00</time>
      </trkpt>
      <trkpt lat="46.73268" lon="5.62985">
        <ele>331</ele>
        <time>2025-10-10T07:44:33.133+00:00</time>
      </trkpt>
      <trkpt lat="46.73266" lon="5.62983">
        <ele>331</ele>
        <time>2025-10-10T07:44:37.532+00:00</time>
      </trkpt>
      <trkpt lat="46.73264" lon="5.6298">
        <ele>334</ele>
        <time>2025-10-10T07:44:41.532+00:00</time>
      </trkpt>
      <trkpt lat="46.7326" lon="5.62978">
        <ele>334</ele>
        <time>2025-10-10T07:44:45.913+00:00</time>
      </trkpt>
      <trkpt lat="46.73256" lon="5.62977">
        <ele>334</ele>
        <time>2025-10-10T07:44:50.291+00:00</time>
      </trkpt>
      <trkpt lat="46.73253" lon="5.62977">
        <ele>334</ele>
        <time>2025-10-10T07:44:54.532+00:00</time>
      </trkpt>
      <trkpt lat="46.73249" lon="5.62976">
        <ele>334</ele>
        <time>2025-10-10T07:44:59.140+00:00</time>
      </trkpt>
      <trkpt lat="46.73246" lon="5.62974">
        <ele>334</ele>
        <time>2025-10-10T07:45:03.532+00:00</time>
      </trkpt>
      <trkpt lat="46.73242" lon="5.62971">
        <ele>334</ele>
        <time>2025-10-10T07:45:08.158+00:00</time>
      </trkpt>
      <trkpt lat="46.73238" lon="5.62969">
        <ele>334</ele>
        <time>2025-10-10T07:45:12.532+00:00</time>
      </trkpt>
      <trkpt lat="46.73235" lon="5.62967">
        <ele>336</ele>
        <time>2025-10-10T07:45:16.715+00:00</time>
      </trkpt>
      <trkpt lat="46.73232" lon="5.62965">
        <ele>336</ele>
        <time>2025-10-10T07:45:20.955+00:00</time>
      </trkpt>
      <trkpt lat="46.73228" lon="5.62965">
        <ele>336</ele>
        <time>2025-10-10T07:45:25.532+00:00</time>
      </trkpt>
      <trkpt lat="46.73224" lon="5.62964">
        <ele>336</ele>
        <time>2025-10-10T07:45:30.101+00:00</time>
      </trkpt>
      <trkpt lat="46.7322" lon="5.62965">
        <ele>336</ele>
        <time>2025-10-10T07:45:34.532+00:00</time>
      </trkpt>
      <trkpt lat="46.73216" lon="5.62964">
        <ele>336</ele>
        <time>2025-10-10T07:45:38.897+00:00</time>
      </trkpt>
      <trkpt lat="46.73212" lon="5.62963">
        <ele>336</ele>
        <time>2025-10-10T07:45:42.957+00:00</time>
      </trkpt>
      <trkpt lat="46.73211" lon="5.6297">
        <ele>336</ele>
        <time>2025-10-10T07:45:47.532+00:00</time>
      </trkpt>
      <trkpt lat="46.73206" lon="5.6297">
        <ele>340</ele>
        <time>2025-10-10T07:45:52.031+00:00</time>
      </trkpt>
      <trkpt lat="46.73201" lon="5.62968">
        <ele>340</ele>
        <time>2025-10-10T07:45:56.532+00:00</time>
      </trkpt>
      <trkpt lat="46.73197" lon="5.62967">
        <ele>340</ele>
        <time>2025-10-10T07:46:01.095+00:00</time>
      </trkpt>
      <trkpt lat="46.73193" lon="5.62967">
        <ele>340</ele>
        <time>2025-10-10T07:46:05.532+00:00</time>
      </trkpt>
      <trkpt lat="46.73189" lon="5.62969">
        <ele>340</ele>
        <time>2025-10-10T07:46:09.912+00:00</time>
      </trkpt>
      <trkpt lat="46.73185" lon="5.62971">
        <ele>340</ele>
        <time>2025-10-10T07:46:14.515+00:00</time>
      </trkpt>
      <trkpt lat="46.73182" lon="5.62971">
        <ele>340</ele>
        <time>2025-10-10T07:46:18.977+00:00</time>
      </trkpt>
      <trkpt lat="46.73179" lon="5.62971">
        <ele>346</ele>
        <time>2025-10-10T07:46:23.532+00:00</time>
      </trkpt>
      <trkpt lat="46.73176" lon="5.62972">
        <ele>346</ele>
        <time>2025-10-10T07:46:27.532+00:00</time>
      </trkpt>
      <trkpt lat="46.73173" lon="5.62974">
        <ele>346</ele>
        <time>2025-10-10T07:46:32.532+00:00</time>
      </trkpt>
      <trkpt lat="46.7317" lon="5.62974">
        <ele>346</ele>
        <time>2025-10-10T07:46:37.417+00:00</time>
      </trkpt>
      <trkpt lat="46.73167" lon="5.62975">
        <ele>346</ele>
        <time>2025-10-10T07:46:41.495+00:00</time>
      </trkpt>
      <trkpt lat="46.73166" lon="5.62975">
        <ele>346</ele>
        <time>2025-10-10T07:46:45.532+00:00</time>
      </trkpt>
      <trkpt lat="46.73163" lon="5.62977">
        <ele>346</ele>
        <time>2025-10-10T07:46:50.214+00:00</time>
      </trkpt>
      <trkpt lat="46.7316" lon="5.62977">
        <ele>346</ele>
        <time>2025-10-10T07:46:54.310+00:00</time>
      </trkpt>
      <trkpt lat="46.73157" lon="5.62978">
        <ele>346</ele>
        <time>2025-10-10T07:46:58.412+00:00</time>
      </trkpt>
      <trkpt lat="46.73152" lon="5.62978">
        <ele>351</ele>
        <time>2025-10-10T07:47:02.875+00:00</time>
      </trkpt>
      <trkpt lat="46.73148" lon="5.62978">
        <ele>351</ele>
        <time>2025-10-10T07:47:07.174+00:00</time>
      </trkpt>
      <trkpt lat="46.73144" lon="5.62976">
        <ele>351</ele>
        <time>2025-10-10T07:47:11.414+00:00</time>
      </trkpt>
      <trkpt lat="46.7314" lon="5.62975">
        <ele>351</ele>
        <time>2025-10-10T07:47:15.954+00:00</time>
      </trkpt>
      <trkpt lat="46.73136" lon="5.62974">
        <ele>351</ele>
        <time>2025-10-10T07:47:20.532+00:00</time>
      </trkpt>
      <trkpt lat="46.73132" lon="5.62972">
        <ele>351</ele>
        <time>2025-10-10T07:47:24.861+00:00</time>
      </trkpt>
      <trkpt lat="46.73128" lon="5.6297">
        <ele>351</ele>
        <time>2025-10-10T07:47:29.254+00:00</time>
      </trkpt>
      <trkpt lat="46.73124" lon="5.62969">
        <ele>356</ele>
        <time>2025-10-10T07:47:33.532+00:00</time>
      </trkpt>
      <trkpt lat="46.73121" lon="5.62967">
        <ele>356</ele>
        <time>2025-10-10T07:47:37.793+00:00</time>
      </trkpt>
      <trkpt lat="46.73117" lon="5.62965">
        <ele>356</ele>
        <time>2025-10-10T07:47:42.298+00:00</time>
      </trkpt>
      <trkpt lat="46.73114" lon="5.62963">
        <ele>356</ele>
        <time>2025-10-10T07:47:46.436+00:00</time>
      </trkpt>
      <trkpt lat="46.7311" lon="5.62961">
        <ele>356</ele>
        <time>2025-10-10T07:47:51.218+00:00</time>
      </trkpt>
      <trkpt lat="46.73104" lon="5.62961">
        <ele>356</ele>
        <time>2025-10-10T07:47:59.532+00:00</time>
      </trkpt>
      <trkpt lat="46.73103" lon="5.62962">
        <ele>356</ele>
        <time>2025-10-10T07:48:04.545+00:00</time>
      </trkpt>
      <trkpt lat="46.73101" lon="5.6296">
        <ele>356</ele>
        <time>2025-10-10T07:48:09.270+00:00</time>
      </trkpt>
      <trkpt lat="46.73098" lon="5.62958">
        <ele>357</ele>
        <time>2025-10-10T07:48:14.057+00:00</time>
      </trkpt>
      <trkpt lat="46.73096" lon="5.62955">
        <ele>363</ele>
        <time>2025-10-10T07:48:18.532+00:00</time>
      </trkpt>
      <trkpt lat="46.73094" lon="5.62955">
        <ele>363</ele>
        <time>2025-10-10T07:48:23.271+00:00</time>
      </trkpt>
      <trkpt lat="46.73091" lon="5.62956">
        <ele>363</ele>
        <time>2025-10-10T07:48:27.532+00:00</time>
      </trkpt>
      <trkpt lat="46.73088" lon="5.62954">
        <ele>363</ele>
        <time>2025-10-10T07:48:32.532+00:00</time>
      </trkpt>
      <trkpt lat="46.73085" lon="5.62953">
        <ele>363</ele>
        <time>2025-10-10T07:48:37.313+00:00</time>
      </trkpt>
      <trkpt lat="46.73081" lon="5.62952">
        <ele>363</ele>
        <time>2025-10-10T07:48:41.532+00:00</time>
      </trkpt>
      <trkpt lat="46.73076" lon="5.62952">
        <ele>363</ele>
        <time>2025-10-10T07:48:46.535+00:00</time>
      </trkpt>
      <trkpt lat="46.73071" lon="5.62955">
        <ele>363</ele>
        <time>2025-10-10T07:48:50.894+00:00</time>
      </trkpt>
      <trkpt lat="46.73067" lon="5.62957">
        <ele>369</ele>
        <time>2025-10-10T07:48:55.092+00:00</time>
      </trkpt>
      <trkpt lat="46.73064" lon="5.6296">
        <ele>365</ele>
        <time>2025-10-10T07:48:59.532+00:00</time>
      </trkpt>
      <trkpt lat="46.73058" lon="5.62965">
        <ele>365</ele>
        <time>2025-10-10T07:49:13.532+00:00</time>
      </trkpt>
      <trkpt lat="46.73058" lon="5.62966">
        <ele>365</ele>
        <time>2025-10-10T07:49:18.532+00:00</time>
      </trkpt>
      <trkpt lat="46.73057" lon="5.62966">
        <ele>365</ele>
        <time>2025-10-10T07:49:23.458+00:00</time>
      </trkpt>
      <trkpt lat="46.73053" lon="5.62968">
        <ele>365</ele>
        <time>2025-10-10T07:49:27.532+00:00</time>
      </trkpt>
      <trkpt lat="46.73049" lon="5.62971">
        <ele>365</ele>
        <time>2025-10-10T07:49:31.921+00:00</time>
      </trkpt>
      <trkpt lat="46.73038" lon="5.62978">
        <ele>368</ele>
        <time>2025-10-10T07:53:47.532+00:00</time>
      </trkpt>
      <trkpt lat="46.73038" lon="5.62977">
        <ele>368</ele>
        <time>2025-10-10T07:53:51.532+00:00</time>
      </trkpt>
      <trkpt lat="46.73038" lon="5.62978">
        <ele>368</ele>
        <time>2025-10-10T07:53:57.532+00:00</time>
      </trkpt>
      <trkpt lat="46.73038" lon="5.62979">
        <ele>368</ele>
        <time>2025-10-10T07:54:02.116+00:00</time>
      </trkpt>
      <trkpt lat="46.73039" lon="5.62983">
        <ele>368</ele>
        <time>2025-10-10T07:54:06.338+00:00</time>
      </trkpt>
      <trkpt lat="46.73038" lon="5.62986">
        <ele>368</ele>
        <time>2025-10-10T07:54:10.485+00:00</time>
      </trkpt>
      <trkpt lat="46.73034" lon="5.62989">
        <ele>365</ele>
        <time>2025-10-10T07:54:15.113+00:00</time>
      </trkpt>
      <trkpt lat="46.7303" lon="5.62989">
        <ele>365</ele>
        <time>2025-10-10T07:54:20.532+00:00</time>
      </trkpt>
      <trkpt lat="46.7303" lon="5.62988">
        <ele>365</ele>
        <time>2025-10-10T07:54:25.532+00:00</time>
      </trkpt>
      <trkpt lat="46.73028" lon="5.62989">
        <ele>365</ele>
        <time>2025-10-10T07:54:30.390+00:00</time>
      </trkpt>
      <trkpt lat="46.73018" lon="5.62985">
        <ele>368</ele>
        <time>2025-10-10T07:54:56.532+00:00</time>
      </trkpt>
      <trkpt lat="46.73018" lon="5.62986">
        <ele>365</ele>
        <time>2025-10-10T07:55:02.532+00:00</time>
      </trkpt>
      <trkpt lat="46.73018" lon="5.62986">
        <ele>365</ele>
        <time>2025-10-10T07:55:07.532+00:00</time>
      </trkpt>
      <trkpt lat="46.73018" lon="5.62986">
        <ele>365</ele>
        <time>2025-10-10T07:55:12.532+00:00</time>
      </trkpt>
      <trkpt lat="46.73017" lon="5.62986">
        <ele>368</ele>
        <time>2025-10-10T07:55:17.532+00:00</time>
      </trkpt>
      <trkpt lat="46.73014" lon="5.62985">
        <ele>369</ele>
        <time>2025-10-10T07:55:56.532+00:00</time>
      </trkpt>
      <trkpt lat="46.73013" lon="5.62986">
        <ele>369</ele>
        <time>2025-10-10T07:56:00.532+00:00</time>
      </trkpt>
      <trkpt lat="46.73008" lon="5.62988">
        <ele>366</ele>
        <time>2025-10-10T07:56:05.532+00:00</time>
      </trkpt>
      <trkpt lat="46.73002" lon="5.62988">
        <ele>366</ele>
        <time>2025-10-10T07:56:10.532+00:00</time>
      </trkpt>
      <trkpt lat="46.73001" lon="5.62994">
        <ele>366</ele>
        <time>2025-10-10T07:56:15.532+00:00</time>
      </trkpt>
      <trkpt lat="46.72997" lon="5.62996">
        <ele>366</ele>
        <time>2025-10-10T07:56:20.532+00:00</time>
      </trkpt>
      <trkpt lat="46.72993" lon="5.62998">
        <ele>366</ele>
        <time>2025-10-10T07:56:24.532+00:00</time>
      </trkpt>
      <trkpt lat="46.72988" lon="5.63001">
        <ele>366</ele>
        <time>2025-10-10T07:56:29.532+00:00</time>
      </trkpt>
      <trkpt lat="46.72983" lon="5.63002">
        <ele>365</ele>
        <time>2025-10-10T07:56:34.532+00:00</time>
      </trkpt>
      <trkpt lat="46.72979" lon="5.63005">
        <ele>365</ele>
        <time>2025-10-10T07:56:43.532+00:00</time>
      </trkpt>
      <trkpt lat="46.72978" lon="5.63005">
        <ele>365</ele>
        <time>2025-10-10T07:56:47.532+00:00</time>
      </trkpt>
      <trkpt lat="46.72977" lon="5.63005">
        <ele>365</ele>
        <time>2025-10-10T07:56:52.532+00:00</time>
      </trkpt>
      <trkpt lat="46.72974" lon="5.63005">
        <ele>365</ele>
        <time>2025-10-10T07:56:57.532+00:00</time>
      </trkpt>
      <trkpt lat="46.72972" lon="5.63007">
        <ele>365</ele>
        <time>2025-10-10T07:57:01.532+00:00</time>
      </trkpt>
      <trkpt lat="46.72968" lon="5.63014">
        <ele>363</ele>
        <time>2025-10-10T07:57:19.532+00:00</time>
      </trkpt>
      <trkpt lat="46.72967" lon="5.63015">
        <ele>363</ele>
        <time>2025-10-10T07:57:24.532+00:00</time>
      </trkpt>
      <trkpt lat="46.72967" lon="5.63016">
        <ele>363</ele>
        <time>2025-10-10T07:57:29.532+00:00</time>
      </trkpt>
      <trkpt lat="46.72965" lon="5.63017">
        <ele>363</ele>
        <time>2025-10-10T07:57:34.532+00:00</time>
      </trkpt>
      <trkpt lat="46.72964" lon="5.63018">
        <ele>363</ele>
        <time>2025-10-10T07:57:39.532+00:00</time>
      </trkpt>
      <trkpt lat="46.72959" lon="5.63015">
        <ele>363</ele>
        <time>2025-10-10T07:59:41.532+00:00</time>
      </trkpt>
      <trkpt lat="46.72958" lon="5.63015">
        <ele>363</ele>
        <time>2025-10-10T07:59:45.906+00:00</time>
      </trkpt>
      <trkpt lat="46.72957" lon="5.63015">
        <ele>363</ele>
        <time>2025-10-10T07:59:49.983+00:00</time>
      </trkpt>
      <trkpt lat="46.72955" lon="5.63018">
        <ele>363</ele>
        <time>2025-10-10T07:59:54.103+00:00</time>
      </trkpt>
      <trkpt lat="46.72953" lon="5.6302">
        <ele>363</ele>
        <time>2025-10-10T07:59:58.365+00:00</time>
      </trkpt>
      <trkpt lat="46.72951" lon="5.63021">
        <ele>363</ele>
        <time>2025-10-10T08:00:02.532+00:00</time>
      </trkpt>
      <trkpt lat="46.72951" lon="5.63021">
        <ele>363</ele>
        <time>2025-10-10T08:00:07.532+00:00</time>
      </trkpt>
      <trkpt lat="46.72949" lon="5.63022">
        <ele>363</ele>
        <time>2025-10-10T08:00:12.101+00:00</time>
      </trkpt>
      <trkpt lat="46.7295" lon="5.63027">
        <ele>363</ele>
        <time>2025-10-10T08:00:16.532+00:00</time>
      </trkpt>
      <trkpt lat="46.7295" lon="5.63034">
        <ele>363</ele>
        <time>2025-10-10T08:00:21.023+00:00</time>
      </trkpt>
      <trkpt lat="46.72945" lon="5.63037">
        <ele>363</ele>
        <time>2025-10-10T08:01:47.532+00:00</time>
      </trkpt>
      <trkpt lat="46.72945" lon="5.63037">
        <ele>363</ele>
        <time>2025-10-10T08:01:50.532+00:00</time>
      </trkpt>
      <trkpt lat="46.72944" lon="5.63037">
        <ele>363</ele>
        <time>2025-10-10T08:01:56.532+00:00</time>
      </trkpt>
      <trkpt lat="46.72942" lon="5.63038">
        <ele>363</ele>
        <time>2025-10-10T08:02:00.532+00:00</time>
      </trkpt>
      <trkpt lat="46.72939" lon="5.63038">
        <ele>363</ele>
        <time>2025-10-10T08:02:04.979+00:00</time>
      </trkpt>
      <trkpt lat="46.72934" lon="5.6304">
        <ele>363</ele>
        <time>2025-10-10T08:02:09.532+00:00</time>
      </trkpt>
      <trkpt lat="46.72933" lon="5.63043">
        <ele>361</ele>
        <time>2025-10-10T08:02:14.535+00:00</time>
      </trkpt>
      <trkpt lat="46.72931" lon="5.63044">
        <ele>361</ele>
        <time>2025-10-10T08:02:19.532+00:00</time>
      </trkpt>
      <trkpt lat="46.72926" lon="5.63048">
        <ele>360</ele>
        <time>2025-10-10T08:02:24.532+00:00</time>
      </trkpt>
      <trkpt lat="46.7292" lon="5.6305">
        <ele>360</ele>
        <time>2025-10-10T08:02:29.337+00:00</time>
      </trkpt>
      <trkpt lat="46.72914" lon="5.63054">
        <ele>360</ele>
        <time>2025-10-10T08:02:33.532+00:00</time>
      </trkpt>
      <trkpt lat="46.72908" lon="5.63058">
        <ele>360</ele>
        <time>2025-10-10T08:02:38.312+00:00</time>
      </trkpt>
      <trkpt lat="46.72903" lon="5.6306">
        <ele>360</ele>
        <time>2025-10-10T08:02:42.532+00:00</time>
      </trkpt>
      <trkpt lat="46.72899" lon="5.63065">
        <ele>358</ele>
        <time>2025-10-10T08:02:47.177+00:00</time>
      </trkpt>
      <trkpt lat="46.72895" lon="5.63067">
        <ele>358</ele>
        <time>2025-10-10T08:02:51.532+00:00</time>
      </trkpt>
      <trkpt lat="46.7289" lon="5.63069">
        <ele>358</ele>
        <time>2025-10-10T08:02:56.092+00:00</time>
      </trkpt>
      <trkpt lat="46.72885" lon="5.63073">
        <ele>355</ele>
        <time>2025-10-10T08:03:00.532+00:00</time>
      </trkpt>
      <trkpt lat="46.72881" lon="5.63076">
        <ele>355</ele>
        <time>2025-10-10T08:03:05.197+00:00</time>
      </trkpt>
      <trkpt lat="46.72877" lon="5.63078">
        <ele>355</ele>
        <time>2025-10-10T08:03:09.515+00:00</time>
      </trkpt>
      <trkpt lat="46.72873" lon="5.63081">
        <ele>352</ele>
        <time>2025-10-10T08:03:14.198+00:00</time>
      </trkpt>
      <trkpt lat="46.72869" lon="5.63084">
        <ele>352</ele>
        <time>2025-10-10T08:03:18.532+00:00</time>
      </trkpt>
      <trkpt lat="46.72869" lon="5.63088">
        <ele>352</ele>
        <time>2025-10-10T08:03:35.064+00:00</time>
      </trkpt>
      <trkpt lat="46.72863" lon="5.6309">
        <ele>352</ele>
        <time>2025-10-10T08:03:39.522+00:00</time>
      </trkpt>
      <trkpt lat="46.72856" lon="5.63091">
        <ele>352</ele>
        <time>2025-10-10T08:03:43.532+00:00</time>
      </trkpt>
      <trkpt lat="46.7285" lon="5.63093">
        <ele>352</ele>
        <time>2025-10-10T08:03:48.532+00:00</time>
      </trkpt>
      <trkpt lat="46.72845" lon="5.63096">
        <ele>355</ele>
        <time>2025-10-10T08:03:53.532+00:00</time>
      </trkpt>
      <trkpt lat="46.7284" lon="5.63097">
        <ele>355</ele>
        <time>2025-10-10T08:03:58.532+00:00</time>
      </trkpt>
      <trkpt lat="46.72835" lon="5.63097">
        <ele>355</ele>
        <time>2025-10-10T08:04:03.517+00:00</time>
      </trkpt>
      <trkpt lat="46.7283" lon="5.63096">
        <ele>355</ele>
        <time>2025-10-10T08:04:08.100+00:00</time>
      </trkpt>
      <trkpt lat="46.72825" lon="5.63097">
        <ele>355</ele>
        <time>2025-10-10T08:04:12.532+00:00</time>
      </trkpt>
      <trkpt lat="46.72821" lon="5.63102">
        <ele>351</ele>
        <time>2025-10-10T08:04:16.974+00:00</time>
      </trkpt>
      <trkpt lat="46.72815" lon="5.63102">
        <ele>355</ele>
        <time>2025-10-10T08:04:21.189+00:00</time>
      </trkpt>
      <trkpt lat="46.7281" lon="5.63103">
        <ele>355</ele>
        <time>2025-10-10T08:04:25.532+00:00</time>
      </trkpt>
      <trkpt lat="46.72806" lon="5.63104">
        <ele>355</ele>
        <time>2025-10-10T08:04:29.780+00:00</time>
      </trkpt>
      <trkpt lat="46.72799" lon="5.63106">
        <ele>355</ele>
        <time>2025-10-10T08:04:44.532+00:00</time>
      </trkpt>
      <trkpt lat="46.72796" lon="5.63107">
        <ele>355</ele>
        <time>2025-10-10T08:04:49.380+00:00</time>
      </trkpt>
      <trkpt lat="46.72796" lon="5.63107">
        <ele>355</ele>
        <time>2025-10-10T08:04:53.532+00:00</time>
      </trkpt>
      <trkpt lat="46.72793" lon="5.63107">
        <ele>355</ele>
        <time>2025-10-10T08:04:58.262+00:00</time>
      </trkpt>
      <trkpt lat="46.72791" lon="5.63106">
        <ele>354</ele>
        <time>2025-10-10T08:05:02.532+00:00</time>
      </trkpt>
      <trkpt lat="46.72789" lon="5.63107">
        <ele>354</ele>
        <time>2025-10-10T08:05:06.532+00:00</time>
      </trkpt>
      <trkpt lat="46.72785" lon="5.63107">
        <ele>354</ele>
        <time>2025-10-10T08:05:10.532+00:00</time>
      </trkpt>
      <trkpt lat="46.7278" lon="5.63105">
        <ele>354</ele>
        <time>2025-10-10T08:05:15.532+00:00</time>
      </trkpt>
      <trkpt lat="46.72776" lon="5.63105">
        <ele>354</ele>
        <time>2025-10-10T08:05:20.070+00:00</time>
      </trkpt>
      <trkpt lat="46.72771" lon="5.63103">
        <ele>354</ele>
        <time>2025-10-10T08:05:24.498+00:00</time>
      </trkpt>
      <trkpt lat="46.72766" lon="5.63102">
        <ele>354</ele>
        <time>2025-10-10T08:05:28.918+00:00</time>
      </trkpt>
      <trkpt lat="46.72761" lon="5.63102">
        <ele>351</ele>
        <time>2025-10-10T08:05:33.100+00:00</time>
      </trkpt>
      <trkpt lat="46.72756" lon="5.63102">
        <ele>351</ele>
        <time>2025-10-10T08:05:37.532+00:00</time>
      </trkpt>
      <trkpt lat="46.7275" lon="5.63102">
        <ele>351</ele>
        <time>2025-10-10T08:05:41.954+00:00</time>
      </trkpt>
      <trkpt lat="46.72744" lon="5.63101">
        <ele>351</ele>
        <time>2025-10-10T08:05:46.493+00:00</time>
      </trkpt>
      <trkpt lat="46.72739" lon="5.631">
        <ele>351</ele>
        <time>2025-10-10T08:05:50.532+00:00</time>
      </trkpt>
      <trkpt lat="46.72734" lon="5.631">
        <ele>348</ele>
        <time>2025-10-10T08:05:54.736+00:00</time>
      </trkpt>
      <trkpt lat="46.72729" lon="5.63099">
        <ele>348</ele>
        <time>2025-10-10T08:05:59.035+00:00</time>
      </trkpt>
      <trkpt lat="46.72725" lon="5.63098">
        <ele>348</ele>
        <time>2025-10-10T08:06:03.319+00:00</time>
      </trkpt>
      <trkpt lat="46.7272" lon="5.63097">
        <ele>350</ele>
        <time>2025-10-10T08:06:07.532+00:00</time>
      </trkpt>
      <trkpt lat="46.72715" lon="5.63095">
        <ele>350</ele>
        <time>2025-10-10T08:06:12.056+00:00</time>
      </trkpt>
      <trkpt lat="46.72711" lon="5.63094">
        <ele>350</ele>
        <time>2025-10-10T08:06:16.532+00:00</time>
      </trkpt>
      <trkpt lat="46.72708" lon="5.63089">
        <ele>346</ele>
        <time>2025-10-10T08:06:21.458+00:00</time>
      </trkpt>
      <trkpt lat="46.72701" lon="5.63088">
        <ele>346</ele>
        <time>2025-10-10T08:06:26.056+00:00</time>
      </trkpt>
      <trkpt lat="46.72696" lon="5.63084">
        <ele>346</ele>
        <time>2025-10-10T08:06:30.532+00:00</time>
      </trkpt>
      <trkpt lat="46.72693" lon="5.63078">
        <ele>346</ele>
        <time>2025-10-10T08:06:34.853+00:00</time>
      </trkpt>
      <trkpt lat="46.72691" lon="5.63072">
        <ele>346</ele>
        <time>2025-10-10T08:06:39.298+00:00</time>
      </trkpt>
      <trkpt lat="46.7269" lon="5.63066">
        <ele>350</ele>
        <time>2025-10-10T08:06:43.336+00:00</time>
      </trkpt>
      <trkpt lat="46.72691" lon="5.63065">
        <ele>350</ele>
        <time>2025-10-10T08:06:47.532+00:00</time>
      </trkpt>
      <trkpt lat="46.72689" lon="5.63058">
        <ele>350</ele>
        <time>2025-10-10T08:06:52.155+00:00</time>
      </trkpt>
      <trkpt lat="46.72688" lon="5.63053">
        <ele>350</ele>
        <time>2025-10-10T08:06:56.208+00:00</time>
      </trkpt>
      <trkpt lat="46.72686" lon="5.63049">
        <ele>350</ele>
        <time>2025-10-10T08:07:00.532+00:00</time>
      </trkpt>
      <trkpt lat="46.72686" lon="5.63047">
        <ele>350</ele>
        <time>2025-10-10T08:07:05.147+00:00</time>
      </trkpt>
      <trkpt lat="46.72686" lon="5.63044">
        <ele>350</ele>
        <time>2025-10-10T08:07:10.532+00:00</time>
      </trkpt>
      <trkpt lat="46.72687" lon="5.63039">
        <ele>353</ele>
        <time>2025-10-10T08:13:53.532+00:00</time>
      </trkpt>
      <trkpt lat="46.72687" lon="5.63038">
        <ele>353</ele>
        <time>2025-10-10T08:13:58.532+00:00</time>
      </trkpt>
      <trkpt lat="46.72687" lon="5.63038">
        <ele>353</ele>
        <time>2025-10-10T08:14:03.532+00:00</time>
      </trkpt>
      <trkpt lat="46.72688" lon="5.63034">
        <ele>353</ele>
        <time>2025-10-10T08:14:08.532+00:00</time>
      </trkpt>
      <trkpt lat="46.72689" lon="5.63029">
        <ele>353</ele>
        <time>2025-10-10T08:14:12.532+00:00</time>
      </trkpt>
      <trkpt lat="46.72692" lon="5.63027">
        <ele>353</ele>
        <time>2025-10-10T08:14:17.532+00:00</time>
      </trkpt>
      <trkpt lat="46.72695" lon="5.63025">
        <ele>353</ele>
        <time>2025-10-10T08:14:22.532+00:00</time>
      </trkpt>
      <trkpt lat="46.72699" lon="5.63022">
        <ele>353</ele>
        <time>2025-10-10T08:14:27.532+00:00</time>
      </trkpt>
      <trkpt lat="46.72701" lon="5.6302">
        <ele>353</ele>
        <time>2025-10-10T08:14:32.532+00:00</time>
      </trkpt>
      <trkpt lat="46.72704" lon="5.63017">
        <ele>353</ele>
        <time>2025-10-10T08:14:37.532+00:00</time>
      </trkpt>
      <trkpt lat="46.72705" lon="5.63013">
        <ele>355</ele>
        <time>2025-10-10T08:14:42.532+00:00</time>
      </trkpt>
      <trkpt lat="46.72704" lon="5.6301">
        <ele>355</ele>
        <time>2025-10-10T08:14:46.532+00:00</time>
      </trkpt>
      <trkpt lat="46.72704" lon="5.63004">
        <ele>355</ele>
        <time>2025-10-10T08:14:51.532+00:00</time>
      </trkpt>
      <trkpt lat="46.72705" lon="5.62999">
        <ele>355</ele>
        <time>2025-10-10T08:14:56.532+00:00</time>
      </trkpt>
      <trkpt lat="46.72705" lon="5.62996">
        <ele>355</ele>
        <time>2025-10-10T08:15:01.532+00:00</time>
      </trkpt>
      <trkpt lat="46.72704" lon="5.62994">
        <ele>355</ele>
        <time>2025-10-10T08:15:06.532+00:00</time>
      </trkpt>
      <trkpt lat="46.72704" lon="5.6299">
        <ele>355</ele>
        <time>2025-10-10T08:15:11.532+00:00</time>
      </trkpt>
      <trkpt lat="46.72705" lon="5.62986">
        <ele>359</ele>
        <time>2025-10-10T08:15:16.532+00:00</time>
      </trkpt>
      <trkpt lat="46.72704" lon="5.62982">
        <ele>359</ele>
        <time>2025-10-10T08:15:20.532+00:00</time>
      </trkpt>
      <trkpt lat="46.72703" lon="5.62978">
        <ele>359</ele>
        <time>2025-10-10T08:15:25.532+00:00</time>
      </trkpt>
      <trkpt lat="46.72702" lon="5.62976">
        <ele>359</ele>
        <time>2025-10-10T08:15:29.532+00:00</time>
      </trkpt>
      <trkpt lat="46.727" lon="5.6297">
        <ele>359</ele>
        <time>2025-10-10T08:15:34.532+00:00</time>
      </trkpt>
      <trkpt lat="46.72699" lon="5.62966">
        <ele>359</ele>
        <time>2025-10-10T08:15:38.532+00:00</time>
      </trkpt>
      <trkpt lat="46.72695" lon="5.62962">
        <ele>359</ele>
        <time>2025-10-10T08:15:51.532+00:00</time>
      </trkpt>
      <trkpt lat="46.72694" lon="5.62961">
        <ele>359</ele>
        <time>2025-10-10T08:15:56.532+00:00</time>
      </trkpt>
      <trkpt lat="46.72691" lon="5.62962">
        <ele>359</ele>
        <time>2025-10-10T08:16:00.532+00:00</time>
      </trkpt>
      <trkpt lat="46.72689" lon="5.62963">
        <ele>359</ele>
        <time>2025-10-10T08:16:05.532+00:00</time>
      </trkpt>
      <trkpt lat="46.72687" lon="5.62963">
        <ele>359</ele>
        <time>2025-10-10T08:16:10.532+00:00</time>
      </trkpt>
      <trkpt lat="46.72682" lon="5.62964">
        <ele>359</ele>
        <time>2025-10-10T08:16:15.192+00:00</time>
      </trkpt>
      <trkpt lat="46.72681" lon="5.62965">
        <ele>359</ele>
        <time>2025-10-10T08:16:19.532+00:00</time>
      </trkpt>
      <trkpt lat="46.72678" lon="5.62967">
        <ele>356</ele>
        <time>2025-10-10T08:16:24.006+00:00</time>
      </trkpt>
      <trkpt lat="46.72674" lon="5.62968">
        <ele>356</ele>
        <time>2025-10-10T08:16:28.033+00:00</time>
      </trkpt>
      <trkpt lat="46.7267" lon="5.6297">
        <ele>356</ele>
        <time>2025-10-10T08:16:32.112+00:00</time>
      </trkpt>
      <trkpt lat="46.72667" lon="5.62972">
        <ele>356</ele>
        <time>2025-10-10T08:16:36.328+00:00</time>
      </trkpt>
      <trkpt lat="46.72663" lon="5.62974">
        <ele>356</ele>
        <time>2025-10-10T08:16:40.532+00:00</time>
      </trkpt>
      <trkpt lat="46.72658" lon="5.62976">
        <ele>356</ele>
        <time>2025-10-10T08:16:45.132+00:00</time>
      </trkpt>
      <trkpt lat="46.72654" lon="5.62978">
        <ele>356</ele>
        <time>2025-10-10T08:16:49.532+00:00</time>
      </trkpt>
      <trkpt lat="46.7265" lon="5.62979">
        <ele>354</ele>
        <time>2025-10-10T08:16:53.707+00:00</time>
      </trkpt>
      <trkpt lat="46.72647" lon="5.62981">
        <ele>354</ele>
        <time>2025-10-10T08:16:57.708+00:00</time>
      </trkpt>
      <trkpt lat="46.72643" lon="5.62982">
        <ele>354</ele>
        <time>2025-10-10T08:17:02.369+00:00</time>
      </trkpt>
      <trkpt lat="46.72639" lon="5.62984">
        <ele>354</ele>
        <time>2025-10-10T08:17:06.532+00:00</time>
      </trkpt>
      <trkpt lat="46.72634" lon="5.62985">
        <ele>354</ele>
        <time>2025-10-10T08:17:11.265+00:00</time>
      </trkpt>
      <trkpt lat="46.72629" lon="5.62987">
        <ele>350</ele>
        <time>2025-10-10T08:17:15.532+00:00</time>
      </trkpt>
      <trkpt lat="46.72625" lon="5.62989">
        <ele>352</ele>
        <time>2025-10-10T08:17:19.532+00:00</time>
      </trkpt>
      <trkpt lat="46.72618" lon="5.6299">
        <ele>352</ele>
        <time>2025-10-10T08:17:24.449+00:00</time>
      </trkpt>
      <trkpt lat="46.72614" lon="5.62993">
        <ele>352</ele>
        <time>2025-10-10T08:17:28.532+00:00</time>
      </trkpt>
      <trkpt lat="46.72609" lon="5.62995">
        <ele>352</ele>
        <time>2025-10-10T08:17:33.431+00:00</time>
      </trkpt>
      <trkpt lat="46.72604" lon="5.62996">
        <ele>352</ele>
        <time>2025-10-10T08:17:37.532+00:00</time>
      </trkpt>
      <trkpt lat="46.72599" lon="5.62998">
        <ele>352</ele>
        <time>2025-10-10T08:17:42.032+00:00</time>
      </trkpt>
      <trkpt lat="46.72594" lon="5.63001">
        <ele>353</ele>
        <time>2025-10-10T08:17:46.289+00:00</time>
      </trkpt>
      <trkpt lat="46.72589" lon="5.63003">
        <ele>353</ele>
        <time>2025-10-10T08:17:50.873+00:00</time>
      </trkpt>
      <trkpt lat="46.72586" lon="5.63007">
        <ele>353</ele>
        <time>2025-10-10T08:17:55.152+00:00</time>
      </trkpt>
      <trkpt lat="46.72582" lon="5.63008">
        <ele>353</ele>
        <time>2025-10-10T08:17:59.191+00:00</time>
      </trkpt>
      <trkpt lat="46.72578" lon="5.6301">
        <ele>353</ele>
        <time>2025-10-10T08:18:03.253+00:00</time>
      </trkpt>
      <trkpt lat="46.72574" lon="5.63011">
        <ele>353</ele>
        <time>2025-10-10T08:18:07.532+00:00</time>
      </trkpt>
      <trkpt lat="46.72569" lon="5.63011">
        <ele>360</ele>
        <time>2025-10-10T08:18:11.912+00:00</time>
      </trkpt>
      <trkpt lat="46.72565" lon="5.63011">
        <ele>360</ele>
        <time>2025-10-10T08:18:16.213+00:00</time>
      </trkpt>
      <trkpt lat="46.7256" lon="5.63013">
        <ele>360</ele>
        <time>2025-10-10T08:18:20.309+00:00</time>
      </trkpt>
      <trkpt lat="46.72556" lon="5.63014">
        <ele>354</ele>
        <time>2025-10-10T08:18:24.509+00:00</time>
      </trkpt>
      <trkpt lat="46.72552" lon="5.63015">
        <ele>354</ele>
        <time>2025-10-10T08:18:28.773+00:00</time>
      </trkpt>
      <trkpt lat="46.72547" lon="5.63016">
        <ele>354</ele>
        <time>2025-10-10T08:18:33.532+00:00</time>
      </trkpt>
      <trkpt lat="46.72543" lon="5.63018">
        <ele>354</ele>
        <time>2025-10-10T08:18:38.013+00:00</time>
      </trkpt>
      <trkpt lat="46.72539" lon="5.63019">
        <ele>359</ele>
        <time>2025-10-10T08:18:42.289+00:00</time>
      </trkpt>
      <trkpt lat="46.72536" lon="5.63019">
        <ele>359</ele>
        <time>2025-10-10T08:18:46.769+00:00</time>
      </trkpt>
      <trkpt lat="46.72532" lon="5.63021">
        <ele>359</ele>
        <time>2025-10-10T08:18:51.332+00:00</time>
      </trkpt>
      <trkpt lat="46.72529" lon="5.63022">
        <ele>359</ele>
        <time>2025-10-10T08:18:55.458+00:00</time>
      </trkpt>
      <trkpt lat="46.72526" lon="5.63024">
        <ele>359</ele>
        <time>2025-10-10T08:18:59.489+00:00</time>
      </trkpt>
      <trkpt lat="46.72523" lon="5.63026">
        <ele>359</ele>
        <time>2025-10-10T08:19:03.532+00:00</time>
      </trkpt>
      <trkpt lat="46.72519" lon="5.63028">
        <ele>359</ele>
        <time>2025-10-10T08:19:08.089+00:00</time>
      </trkpt>
      <trkpt lat="46.72516" lon="5.63031">
        <ele>359</ele>
        <time>2025-10-10T08:19:12.532+00:00</time>
      </trkpt>
      <trkpt lat="46.72512" lon="5.63034">
        <ele>359</ele>
        <time>2025-10-10T08:19:17.133+00:00</time>
      </trkpt>
      <trkpt lat="46.72508" lon="5.63036">
        <ele>359</ele>
        <time>2025-10-10T08:19:21.532+00:00</time>
      </trkpt>
      <trkpt lat="46.72505" lon="5.63039">
        <ele>359</ele>
        <time>2025-10-10T08:19:26.110+00:00</time>
      </trkpt>
      <trkpt lat="46.72501" lon="5.63051">
        <ele>358</ele>
        <time>2025-10-10T08:21:20.528+00:00</time>
      </trkpt>
      <trkpt lat="46.72502" lon="5.63054">
        <ele>358</ele>
        <time>2025-10-10T08:21:24.532+00:00</time>
      </trkpt>
      <trkpt lat="46.72501" lon="5.63056">
        <ele>358</ele>
        <time>2025-10-10T08:21:29.077+00:00</time>
      </trkpt>
      <trkpt lat="46.725" lon="5.63059">
        <ele>358</ele>
        <time>2025-10-10T08:21:33.208+00:00</time>
      </trkpt>
      <trkpt lat="46.72498" lon="5.63063">
        <ele>358</ele>
        <time>2025-10-10T08:21:37.993+00:00</time>
      </trkpt>
      <trkpt lat="46.72499" lon="5.63068">
        <ele>358</ele>
        <time>2025-10-10T08:21:42.532+00:00</time>
      </trkpt>
      <trkpt lat="46.72499" lon="5.63074">
        <ele>356</ele>
        <time>2025-10-10T08:21:47.106+00:00</time>
      </trkpt>
      <trkpt lat="46.72499" lon="5.63079">
        <ele>356</ele>
        <time>2025-10-10T08:21:51.253+00:00</time>
      </trkpt>
      <trkpt lat="46.72501" lon="5.63082">
        <ele>356</ele>
        <time>2025-10-10T08:21:55.451+00:00</time>
      </trkpt>
      <trkpt lat="46.72501" lon="5.63085">
        <ele>356</ele>
        <time>2025-10-10T08:21:59.532+00:00</time>
      </trkpt>
      <trkpt lat="46.72499" lon="5.63089">
        <ele>356</ele>
        <time>2025-10-10T08:22:03.813+00:00</time>
      </trkpt>
      <trkpt lat="46.72496" lon="5.63094">
        <ele>356</ele>
        <time>2025-10-10T08:22:08.011+00:00</time>
      </trkpt>
      <trkpt lat="46.72494" lon="5.63097">
        <ele>356</ele>
        <time>2025-10-10T08:22:12.311+00:00</time>
      </trkpt>
      <trkpt lat="46.72479" lon="5.63093">
        <ele>360</ele>
        <time>2025-10-10T08:24:30.532+00:00</time>
      </trkpt>
      <trkpt lat="46.72479" lon="5.63093">
        <ele>360</ele>
        <time>2025-10-10T08:24:35.532+00:00</time>
      </trkpt>
      <trkpt lat="46.72478" lon="5.63094">
        <ele>360</ele>
        <time>2025-10-10T08:24:39.532+00:00</time>
      </trkpt>
      <trkpt lat="46.72478" lon="5.63094">
        <ele>360</ele>
        <time>2025-10-10T08:24:43.532+00:00</time>
      </trkpt>
      <trkpt lat="46.72478" lon="5.63094">
        <ele>360</ele>
        <time>2025-10-10T08:24:48.532+00:00</time>
      </trkpt>
      <trkpt lat="46.72476" lon="5.63095">
        <ele>360</ele>
        <time>2025-10-10T08:25:19.532+00:00</time>
      </trkpt>
      <trkpt lat="46.72476" lon="5.63094">
        <ele>360</ele>
        <time>2025-10-10T08:25:27.532+00:00</time>
      </trkpt>
      <trkpt lat="46.72475" lon="5.63096">
        <ele>360</ele>
        <time>2025-10-10T08:25:32.532+00:00</time>
      </trkpt>
      <trkpt lat="46.72473" lon="5.63099">
        <ele>358</ele>
        <time>2025-10-10T08:25:37.532+00:00</time>
      </trkpt>
      <trkpt lat="46.72471" lon="5.63104">
        <ele>358</ele>
        <time>2025-10-10T08:25:42.532+00:00</time>
      </trkpt>
      <trkpt lat="46.72469" lon="5.63108">
        <ele>358</ele>
        <time>2025-10-10T08:25:47.532+00:00</time>
      </trkpt>
      <trkpt lat="46.72465" lon="5.63111">
        <ele>358</ele>
        <time>2025-10-10T08:25:51.532+00:00</time>
      </trkpt>
      <trkpt lat="46.72459" lon="5.63111">
        <ele>358</ele>
        <time>2025-10-10T08:25:56.532+00:00</time>
      </trkpt>
      <trkpt lat="46.72453" lon="5.63108">
        <ele>357</ele>
        <time>2025-10-10T08:26:01.163+00:00</time>
      </trkpt>
      <trkpt lat="46.7245" lon="5.63109">
        <ele>357</ele>
        <time>2025-10-10T08:26:05.532+00:00</time>
      </trkpt>
      <trkpt lat="46.72447" lon="5.63108">
        <ele>357</ele>
        <time>2025-10-10T08:26:10.276+00:00</time>
      </trkpt>
      <trkpt lat="46.72445" lon="5.63107">
        <ele>357</ele>
        <time>2025-10-10T08:26:15.336+00:00</time>
      </trkpt>
      <trkpt lat="46.72443" lon="5.63106">
        <ele>357</ele>
        <time>2025-10-10T08:26:19.532+00:00</time>
      </trkpt>
      <trkpt lat="46.7244" lon="5.63103">
        <ele>357</ele>
        <time>2025-10-10T08:26:24.249+00:00</time>
      </trkpt>
      <trkpt lat="46.72436" lon="5.63098">
        <ele>357</ele>
        <time>2025-10-10T08:26:28.399+00:00</time>
      </trkpt>
      <trkpt lat="46.72432" lon="5.63095">
        <ele>361</ele>
        <time>2025-10-10T08:26:32.532+00:00</time>
      </trkpt>
      <trkpt lat="46.72429" lon="5.63091">
        <ele>357</ele>
        <time>2025-10-10T08:26:36.998+00:00</time>
      </trkpt>
      <trkpt lat="46.72425" lon="5.63087">
        <ele>357</ele>
        <time>2025-10-10T08:26:41.332+00:00</time>
      </trkpt>
      <trkpt lat="46.72422" lon="5.63085">
        <ele>357</ele>
        <time>2025-10-10T08:26:45.532+00:00</time>
      </trkpt>
      <trkpt lat="46.72417" lon="5.6308">
        <ele>357</ele>
        <time>2025-10-10T08:26:50.153+00:00</time>
      </trkpt>
      <trkpt lat="46.72413" lon="5.63076">
        <ele>357</ele>
        <time>2025-10-10T08:26:54.378+00:00</time>
      </trkpt>
      <trkpt lat="46.72408" lon="5.63072">
        <ele>357</ele>
        <time>2025-10-10T08:26:59.053+00:00</time>
      </trkpt>
      <trkpt lat="46.72403" lon="5.6307">
        <ele>357</ele>
        <time>2025-10-10T08:27:03.440+00:00</time>
      </trkpt>
      <trkpt lat="46.72399" lon="5.63067">
        <ele>354</ele>
        <time>2025-10-10T08:27:07.472+00:00</time>
      </trkpt>
      <trkpt lat="46.72396" lon="5.63061">
        <ele>354</ele>
        <time>2025-10-10T08:27:11.532+00:00</time>
      </trkpt>
      <trkpt lat="46.72392" lon="5.63055">
        <ele>354</ele>
        <time>2025-10-10T08:27:16.490+00:00</time>
      </trkpt>
      <trkpt lat="46.72387" lon="5.63053">
        <ele>354</ele>
        <time>2025-10-10T08:27:21.398+00:00</time>
      </trkpt>
      <trkpt lat="46.72382" lon="5.63048">
        <ele>354</ele>
        <time>2025-10-10T08:27:25.979+00:00</time>
      </trkpt>
      <trkpt lat="46.72379" lon="5.63045">
        <ele>354</ele>
        <time>2025-10-10T08:27:29.998+00:00</time>
      </trkpt>
      <trkpt lat="46.72374" lon="5.63042">
        <ele>349</ele>
        <time>2025-10-10T08:27:34.255+00:00</time>
      </trkpt>
      <trkpt lat="46.72369" lon="5.63039">
        <ele>356</ele>
        <time>2025-10-10T08:27:38.630+00:00</time>
      </trkpt>
      <trkpt lat="46.72364" lon="5.63036">
        <ele>356</ele>
        <time>2025-10-10T08:27:43.478+00:00</time>
      </trkpt>
      <trkpt lat="46.72359" lon="5.63033">
        <ele>356</ele>
        <time>2025-10-10T08:27:47.532+00:00</time>
      </trkpt>
      <trkpt lat="46.72353" lon="5.63031">
        <ele>356</ele>
        <time>2025-10-10T08:27:52.076+00:00</time>
      </trkpt>
      <trkpt lat="46.72348" lon="5.6303">
        <ele>356</ele>
        <time>2025-10-10T08:27:56.532+00:00</time>
      </trkpt>
      <trkpt lat="46.72344" lon="5.63029">
        <ele>355</ele>
        <time>2025-10-10T08:28:00.856+00:00</time>
      </trkpt>
      <trkpt lat="46.72338" lon="5.63029">
        <ele>355</ele>
        <time>2025-10-10T08:28:05.199+00:00</time>
      </trkpt>
      <trkpt lat="46.72333" lon="5.63028">
        <ele>355</ele>
        <time>2025-10-10T08:28:09.975+00:00</time>
      </trkpt>
      <trkpt lat="46.72328" lon="5.63028">
        <ele>355</ele>
        <time>2025-10-10T08:28:14.131+00:00</time>
      </trkpt>
      <trkpt lat="46.72324" lon="5.63025">
        <ele>355</ele>
        <time>2025-10-10T08:28:18.532+00:00</time>
      </trkpt>
      <trkpt lat="46.72319" lon="5.63022">
        <ele>354</ele>
        <time>2025-10-10T08:28:23.276+00:00</time>
      </trkpt>
      <trkpt lat="46.72315" lon="5.63018">
        <ele>354</ele>
        <time>2025-10-10T08:28:27.756+00:00</time>
      </trkpt>
      <trkpt lat="46.72312" lon="5.63011">
        <ele>362</ele>
        <time>2025-10-10T08:28:31.953+00:00</time>
      </trkpt>
      <trkpt lat="46.7231" lon="5.63005">
        <ele>362</ele>
        <time>2025-10-10T08:28:36.354+00:00</time>
      </trkpt>
      <trkpt lat="46.72307" lon="5.62998">
        <ele>362</ele>
        <time>2025-10-10T08:28:41.073+00:00</time>
      </trkpt>
      <trkpt lat="46.72304" lon="5.62992">
        <ele>362</ele>
        <time>2025-10-10T08:28:45.532+00:00</time>
      </trkpt>
      <trkpt lat="46.72303" lon="5.62987">
        <ele>362</ele>
        <time>2025-10-10T08:28:49.532+00:00</time>
      </trkpt>
      <trkpt lat="46.72298" lon="5.62982">
        <ele>370</ele>
        <time>2025-10-10T08:28:54.092+00:00</time>
      </trkpt>
      <trkpt lat="46.72292" lon="5.62982">
        <ele>370</ele>
        <time>2025-10-10T08:28:58.532+00:00</time>
      </trkpt>
      <trkpt lat="46.72286" lon="5.62985">
        <ele>363</ele>
        <time>2025-10-10T08:29:02.989+00:00</time>
      </trkpt>
      <trkpt lat="46.72281" lon="5.62984">
        <ele>363</ele>
        <time>2025-10-10T08:29:07.051+00:00</time>
      </trkpt>
      <trkpt lat="46.72276" lon="5.62985">
        <ele>363</ele>
        <time>2025-10-10T08:29:11.532+00:00</time>
      </trkpt>
      <trkpt lat="46.72272" lon="5.62986">
        <ele>363</ele>
        <time>2025-10-10T08:29:15.532+00:00</time>
      </trkpt>
      <trkpt lat="46.72266" lon="5.62987">
        <ele>359</ele>
        <time>2025-10-10T08:29:20.532+00:00</time>
      </trkpt>
      <trkpt lat="46.7226" lon="5.62987">
        <ele>351</ele>
        <time>2025-10-10T08:29:25.226+00:00</time>
      </trkpt>
      <trkpt lat="46.72255" lon="5.62985">
        <ele>359</ele>
        <time>2025-10-10T08:29:29.532+00:00</time>
      </trkpt>
      <trkpt lat="46.7225" lon="5.62984">
        <ele>359</ele>
        <time>2025-10-10T08:29:33.771+00:00</time>
      </trkpt>
      <trkpt lat="46.72244" lon="5.62983">
        <ele>359</ele>
        <time>2025-10-10T08:29:38.379+00:00</time>
      </trkpt>
      <trkpt lat="46.7224" lon="5.62981">
        <ele>359</ele>
        <time>2025-10-10T08:29:42.401+00:00</time>
      </trkpt>
      <trkpt lat="46.72235" lon="5.62977">
        <ele>353</ele>
        <time>2025-10-10T08:29:46.936+00:00</time>
      </trkpt>
      <trkpt lat="46.7223" lon="5.62975">
        <ele>353</ele>
        <time>2025-10-10T08:29:51.461+00:00</time>
      </trkpt>
      <trkpt lat="46.72225" lon="5.62973">
        <ele>353</ele>
        <time>2025-10-10T08:29:55.532+00:00</time>
      </trkpt>
      <trkpt lat="46.7222" lon="5.62971">
        <ele>353</ele>
        <time>2025-10-10T08:29:59.878+00:00</time>
      </trkpt>
      <trkpt lat="46.72214" lon="5.62971">
        <ele>353</ele>
        <time>2025-10-10T08:30:04.358+00:00</time>
      </trkpt>
      <trkpt lat="46.72209" lon="5.62971">
        <ele>353</ele>
        <time>2025-10-10T08:30:08.775+00:00</time>
      </trkpt>
      <trkpt lat="46.72204" lon="5.62972">
        <ele>348</ele>
        <time>2025-10-10T08:30:13.194+00:00</time>
      </trkpt>
      <trkpt lat="46.72199" lon="5.62972">
        <ele>348</ele>
        <time>2025-10-10T08:30:17.532+00:00</time>
      </trkpt>
      <trkpt lat="46.72194" lon="5.62971">
        <ele>348</ele>
        <time>2025-10-10T08:30:22.532+00:00</time>
      </trkpt>
      <trkpt lat="46.72189" lon="5.62969">
        <ele>348</ele>
        <time>2025-10-10T08:30:27.451+00:00</time>
      </trkpt>
      <trkpt lat="46.72183" lon="5.62967">
        <ele>348</ele>
        <time>2025-10-10T08:30:32.545+00:00</time>
      </trkpt>
      <trkpt lat="46.72178" lon="5.62964">
        <ele>343</ele>
        <time>2025-10-10T08:30:37.385+00:00</time>
      </trkpt>
      <trkpt lat="46.72173" lon="5.6296">
        <ele>343</ele>
        <time>2025-10-10T08:30:41.818+00:00</time>
      </trkpt>
      <trkpt lat="46.72168" lon="5.62956">
        <ele>350</ele>
        <time>2025-10-10T08:30:46.518+00:00</time>
      </trkpt>
      <trkpt lat="46.72163" lon="5.62954">
        <ele>350</ele>
        <time>2025-10-10T08:30:50.819+00:00</time>
      </trkpt>
      <trkpt lat="46.72157" lon="5.62952">
        <ele>350</ele>
        <time>2025-10-10T08:30:55.536+00:00</time>
      </trkpt>
      <trkpt lat="46.72152" lon="5.62952">
        <ele>345</ele>
        <time>2025-10-10T08:30:59.911+00:00</time>
      </trkpt>
      <trkpt lat="46.72147" lon="5.62955">
        <ele>345</ele>
        <time>2025-10-10T08:31:04.179+00:00</time>
      </trkpt>
      <trkpt lat="46.72142" lon="5.6296">
        <ele>338</ele>
        <time>2025-10-10T08:31:08.701+00:00</time>
      </trkpt>
      <trkpt lat="46.72138" lon="5.62967">
        <ele>338</ele>
        <time>2025-10-10T08:31:13.194+00:00</time>
      </trkpt>
      <trkpt lat="46.72134" lon="5.62972">
        <ele>338</ele>
        <time>2025-10-10T08:31:17.532+00:00</time>
      </trkpt>
      <trkpt lat="46.7213" lon="5.62979">
        <ele>338</ele>
        <time>2025-10-10T08:31:22.180+00:00</time>
      </trkpt>
      <trkpt lat="46.72126" lon="5.62983">
        <ele>338</ele>
        <time>2025-10-10T08:31:26.532+00:00</time>
      </trkpt>
      <trkpt lat="46.72121" lon="5.62987">
        <ele>332</ele>
        <time>2025-10-10T08:31:31.152+00:00</time>
      </trkpt>
      <trkpt lat="46.72116" lon="5.62988">
        <ele>332</ele>
        <time>2025-10-10T08:31:35.495+00:00</time>
      </trkpt>
      <trkpt lat="46.7211" lon="5.62988">
        <ele>332</ele>
        <time>2025-10-10T08:31:40.299+00:00</time>
      </trkpt>
      <trkpt lat="46.72105" lon="5.62988">
        <ele>332</ele>
        <time>2025-10-10T08:31:44.532+00:00</time>
      </trkpt>
      <trkpt lat="46.72101" lon="5.62985">
        <ele>337</ele>
        <time>2025-10-10T08:31:48.532+00:00</time>
      </trkpt>
      <trkpt lat="46.72096" lon="5.62981">
        <ele>335</ele>
        <time>2025-10-10T08:31:53.171+00:00</time>
      </trkpt>
      <trkpt lat="46.72091" lon="5.62979">
        <ele>335</ele>
        <time>2025-10-10T08:31:57.351+00:00</time>
      </trkpt>
      <trkpt lat="46.72086" lon="5.62975">
        <ele>335</ele>
        <time>2025-10-10T08:32:01.899+00:00</time>
      </trkpt>
      <trkpt lat="46.72082" lon="5.62971">
        <ele>335</ele>
        <time>2025-10-10T08:32:06.394+00:00</time>
      </trkpt>
      <trkpt lat="46.72077" lon="5.6297">
        <ele>335</ele>
        <time>2025-10-10T08:32:10.532+00:00</time>
      </trkpt>
      <trkpt lat="46.72071" lon="5.62967">
        <ele>335</ele>
        <time>2025-10-10T08:32:15.258+00:00</time>
      </trkpt>
      <trkpt lat="46.72065" lon="5.62967">
        <ele>334</ele>
        <time>2025-10-10T08:32:19.738+00:00</time>
      </trkpt>
      <trkpt lat="46.7206" lon="5.62966">
        <ele>334</ele>
        <time>2025-10-10T08:32:24.012+00:00</time>
      </trkpt>
      <trkpt lat="46.72054" lon="5.62964">
        <ele>334</ele>
        <time>2025-10-10T08:32:28.532+00:00</time>
      </trkpt>
      <trkpt lat="46.72048" lon="5.62964">
        <ele>334</ele>
        <time>2025-10-10T08:32:33.318+00:00</time>
      </trkpt>
      <trkpt lat="46.72043" lon="5.62964">
        <ele>334</ele>
        <time>2025-10-10T08:32:37.890+00:00</time>
      </trkpt>
      <trkpt lat="46.72037" lon="5.62963">
        <ele>333</ele>
        <time>2025-10-10T08:32:42.237+00:00</time>
      </trkpt>
      <trkpt lat="46.72031" lon="5.62962">
        <ele>333</ele>
        <time>2025-10-10T08:32:46.472+00:00</time>
      </trkpt>
      <trkpt lat="46.72026" lon="5.62961">
        <ele>333</ele>
        <time>2025-10-10T08:32:50.532+00:00</time>
      </trkpt>
      <trkpt lat="46.72022" lon="5.62958">
        <ele>339</ele>
        <time>2025-10-10T08:32:55.447+00:00</time>
      </trkpt>
      <trkpt lat="46.72017" lon="5.62953">
        <ele>339</ele>
        <time>2025-10-10T08:32:59.532+00:00</time>
      </trkpt>
      <trkpt lat="46.72012" lon="5.62949">
        <ele>335</ele>
        <time>2025-10-10T08:33:04.516+00:00</time>
      </trkpt>
      <trkpt lat="46.72007" lon="5.62946">
        <ele>335</ele>
        <time>2025-10-10T08:33:08.874+00:00</time>
      </trkpt>
      <trkpt lat="46.72001" lon="5.62944">
        <ele>335</ele>
        <time>2025-10-10T08:33:13.251+00:00</time>
      </trkpt>
      <trkpt lat="46.71995" lon="5.62943">
        <ele>335</ele>
        <time>2025-10-10T08:33:17.532+00:00</time>
      </trkpt>
      <trkpt lat="46.7199" lon="5.62943">
        <ele>335</ele>
        <time>2025-10-10T08:33:22.099+00:00</time>
      </trkpt>
      <trkpt lat="46.71984" lon="5.62943">
        <ele>331</ele>
        <time>2025-10-10T08:33:26.537+00:00</time>
      </trkpt>
      <trkpt lat="46.71979" lon="5.62943">
        <ele>331</ele>
        <time>2025-10-10T08:33:30.532+00:00</time>
      </trkpt>
      <trkpt lat="46.71973" lon="5.62944">
        <ele>331</ele>
        <time>2025-10-10T08:33:35.296+00:00</time>
      </trkpt>
      <trkpt lat="46.71968" lon="5.62944">
        <ele>331</ele>
        <time>2025-10-10T08:33:39.731+00:00</time>
      </trkpt>
      <trkpt lat="46.71962" lon="5.62943">
        <ele>331</ele>
        <time>2025-10-10T08:33:44.192+00:00</time>
      </trkpt>
      <trkpt lat="46.71958" lon="5.62943">
        <ele>328</ele>
        <time>2025-10-10T08:33:48.709+00:00</time>
      </trkpt>
      <trkpt lat="46.71952" lon="5.62942">
        <ele>328</ele>
        <time>2025-10-10T08:33:53.176+00:00</time>
      </trkpt>
      <trkpt lat="46.71947" lon="5.62941">
        <ele>328</ele>
        <time>2025-10-10T08:33:57.459+00:00</time>
      </trkpt>
      <trkpt lat="46.71941" lon="5.6294">
        <ele>328</ele>
        <time>2025-10-10T08:34:01.762+00:00</time>
      </trkpt>
      <trkpt lat="46.71935" lon="5.62938">
        <ele>328</ele>
        <time>2025-10-10T08:34:06.301+00:00</time>
      </trkpt>
      <trkpt lat="46.7193" lon="5.62935">
        <ele>324</ele>
        <time>2025-10-10T08:34:10.532+00:00</time>
      </trkpt>
      <trkpt lat="46.71924" lon="5.62933">
        <ele>324</ele>
        <time>2025-10-10T08:34:15.250+00:00</time>
      </trkpt>
      <trkpt lat="46.71918" lon="5.62933">
        <ele>324</ele>
        <time>2025-10-10T08:34:19.423+00:00</time>
      </trkpt>
      <trkpt lat="46.71912" lon="5.62934">
        <ele>324</ele>
        <time>2025-10-10T08:34:23.780+00:00</time>
      </trkpt>
      <trkpt lat="46.71907" lon="5.62935">
        <ele>324</ele>
        <time>2025-10-10T08:34:28.156+00:00</time>
      </trkpt>
      <trkpt lat="46.71901" lon="5.62936">
        <ele>324</ele>
        <time>2025-10-10T08:34:32.362+00:00</time>
      </trkpt>
      <trkpt lat="46.71895" lon="5.62937">
        <ele>324</ele>
        <time>2025-10-10T08:34:36.679+00:00</time>
      </trkpt>
      <trkpt lat="46.71889" lon="5.62936">
        <ele>324</ele>
        <time>2025-10-10T08:34:41.140+00:00</time>
      </trkpt>
      <trkpt lat="46.71884" lon="5.62936">
        <ele>324</ele>
        <time>2025-10-10T08:34:45.482+00:00</time>
      </trkpt>
      <trkpt lat="46.71878" lon="5.62936">
        <ele>324</ele>
        <time>2025-10-10T08:34:50.021+00:00</time>
      </trkpt>
      <trkpt lat="46.71872" lon="5.62936">
        <ele>322</ele>
        <time>2025-10-10T08:34:54.394+00:00</time>
      </trkpt>
      <trkpt lat="46.71866" lon="5.62935">
        <ele>322</ele>
        <time>2025-10-10T08:34:59.434+00:00</time>
      </trkpt>
      <trkpt lat="46.71861" lon="5.62935">
        <ele>322</ele>
        <time>2025-10-10T08:35:03.532+00:00</time>
      </trkpt>
      <trkpt lat="46.71854" lon="5.62934">
        <ele>322</ele>
        <time>2025-10-10T08:35:08.532+00:00</time>
      </trkpt>
      <trkpt lat="46.71848" lon="5.62931">
        <ele>322</ele>
        <time>2025-10-10T08:35:12.939+00:00</time>
      </trkpt>
      <trkpt lat="46.71844" lon="5.6293">
        <ele>322</ele>
        <time>2025-10-10T08:35:17.025+00:00</time>
      </trkpt>
      <trkpt lat="46.7184" lon="5.62926">
        <ele>322</ele>
        <time>2025-10-10T08:35:21.154+00:00</time>
      </trkpt>
      <trkpt lat="46.71835" lon="5.62921">
        <ele>322</ele>
        <time>2025-10-10T08:35:25.479+00:00</time>
      </trkpt>
      <trkpt lat="46.7183" lon="5.62916">
        <ele>322</ele>
        <time>2025-10-10T08:35:29.958+00:00</time>
      </trkpt>
      <trkpt lat="46.71825" lon="5.62912">
        <ele>322</ele>
        <time>2025-10-10T08:35:34.316+00:00</time>
      </trkpt>
      <trkpt lat="46.71821" lon="5.62907">
        <ele>322</ele>
        <time>2025-10-10T08:35:38.532+00:00</time>
      </trkpt>
      <trkpt lat="46.71816" lon="5.62902">
        <ele>324</ele>
        <time>2025-10-10T08:35:43.019+00:00</time>
      </trkpt>
      <trkpt lat="46.71811" lon="5.62897">
        <ele>324</ele>
        <time>2025-10-10T08:35:47.334+00:00</time>
      </trkpt>
      <trkpt lat="46.71807" lon="5.62894">
        <ele>324</ele>
        <time>2025-10-10T08:35:51.378+00:00</time>
      </trkpt>
      <trkpt lat="46.71801" lon="5.62893">
        <ele>324</ele>
        <time>2025-10-10T08:35:55.443+00:00</time>
      </trkpt>
      <trkpt lat="46.71795" lon="5.62894">
        <ele>324</ele>
        <time>2025-10-10T08:35:59.532+00:00</time>
      </trkpt>
      <trkpt lat="46.71789" lon="5.62896">
        <ele>322</ele>
        <time>2025-10-10T08:36:04.179+00:00</time>
      </trkpt>
      <trkpt lat="46.71783" lon="5.62898">
        <ele>322</ele>
        <time>2025-10-10T08:36:08.418+00:00</time>
      </trkpt>
      <trkpt lat="46.71777" lon="5.629">
        <ele>322</ele>
        <time>2025-10-10T08:36:12.819+00:00</time>
      </trkpt>
      <trkpt lat="46.71772" lon="5.62901">
        <ele>322</ele>
        <time>2025-10-10T08:36:17.195+00:00</time>
      </trkpt>
      <trkpt lat="46.71766" lon="5.62902">
        <ele>322</ele>
        <time>2025-10-10T08:36:21.802+00:00</time>
      </trkpt>
      <trkpt lat="46.71761" lon="5.62902">
        <ele>319</ele>
        <time>2025-10-10T08:36:26.135+00:00</time>
      </trkpt>
      <trkpt lat="46.71755" lon="5.62903">
        <ele>314</ele>
        <time>2025-10-10T08:36:30.532+00:00</time>
      </trkpt>
      <trkpt lat="46.71749" lon="5.62904">
        <ele>314</ele>
        <time>2025-10-10T08:36:35.101+00:00</time>
      </trkpt>
      <trkpt lat="46.71744" lon="5.62903">
        <ele>314</ele>
        <time>2025-10-10T08:36:39.520+00:00</time>
      </trkpt>
      <trkpt lat="46.71739" lon="5.62902">
        <ele>319</ele>
        <time>2025-10-10T08:36:43.532+00:00</time>
      </trkpt>
      <trkpt lat="46.71733" lon="5.629">
        <ele>314</ele>
        <time>2025-10-10T08:36:48.060+00:00</time>
      </trkpt>
      <trkpt lat="46.71727" lon="5.62898">
        <ele>314</ele>
        <time>2025-10-10T08:36:52.532+00:00</time>
      </trkpt>
      <trkpt lat="46.71721" lon="5.62896">
        <ele>314</ele>
        <time>2025-10-10T08:36:56.832+00:00</time>
      </trkpt>
      <trkpt lat="46.71716" lon="5.62894">
        <ele>314</ele>
        <time>2025-10-10T08:37:01.239+00:00</time>
      </trkpt>
      <trkpt lat="46.7171" lon="5.62892">
        <ele>314</ele>
        <time>2025-10-10T08:37:05.532+00:00</time>
      </trkpt>
      <trkpt lat="46.71705" lon="5.62891">
        <ele>312</ele>
        <time>2025-10-10T08:37:09.979+00:00</time>
      </trkpt>
      <trkpt lat="46.717" lon="5.6289">
        <ele>312</ele>
        <time>2025-10-10T08:37:14.337+00:00</time>
      </trkpt>
      <trkpt lat="46.71694" lon="5.6289">
        <ele>312</ele>
        <time>2025-10-10T08:37:18.532+00:00</time>
      </trkpt>
      <trkpt lat="46.71688" lon="5.6289">
        <ele>312</ele>
        <time>2025-10-10T08:37:22.958+00:00</time>
      </trkpt>
      <trkpt lat="46.71682" lon="5.62891">
        <ele>312</ele>
        <time>2025-10-10T08:37:27.401+00:00</time>
      </trkpt>
      <trkpt lat="46.71677" lon="5.62892">
        <ele>310</ele>
        <time>2025-10-10T08:37:31.479+00:00</time>
      </trkpt>
      <trkpt lat="46.71672" lon="5.62893">
        <ele>310</ele>
        <time>2025-10-10T08:37:35.940+00:00</time>
      </trkpt>
      <trkpt lat="46.71666" lon="5.62892">
        <ele>310</ele>
        <time>2025-10-10T08:37:40.402+00:00</time>
      </trkpt>
      <trkpt lat="46.71661" lon="5.62891">
        <ele>310</ele>
        <time>2025-10-10T08:37:44.496+00:00</time>
      </trkpt>
      <trkpt lat="46.71655" lon="5.6289">
        <ele>310</ele>
        <time>2025-10-10T08:37:48.881+00:00</time>
      </trkpt>
      <trkpt lat="46.71649" lon="5.6289">
        <ele>307</ele>
        <time>2025-10-10T08:37:53.436+00:00</time>
      </trkpt>
      <trkpt lat="46.71644" lon="5.62888">
        <ele>307</ele>
        <time>2025-10-10T08:37:57.698+00:00</time>
      </trkpt>
      <trkpt lat="46.71638" lon="5.62886">
        <ele>307</ele>
        <time>2025-10-10T08:38:02.115+00:00</time>
      </trkpt>
      <trkpt lat="46.71633" lon="5.62883">
        <ele>307</ele>
        <time>2025-10-10T08:38:06.532+00:00</time>
      </trkpt>
      <trkpt lat="46.71626" lon="5.62881">
        <ele>307</ele>
        <time>2025-10-10T08:38:11.171+00:00</time>
      </trkpt>
      <trkpt lat="46.71622" lon="5.6288">
        <ele>306</ele>
        <time>2025-10-10T08:38:15.258+00:00</time>
      </trkpt>
      <trkpt lat="46.71616" lon="5.6288">
        <ele>306</ele>
        <time>2025-10-10T08:38:19.532+00:00</time>
      </trkpt>
      <trkpt lat="46.7161" lon="5.62879">
        <ele>306</ele>
        <time>2025-10-10T08:38:24.141+00:00</time>
      </trkpt>
      <trkpt lat="46.71605" lon="5.62879">
        <ele>306</ele>
        <time>2025-10-10T08:38:28.532+00:00</time>
      </trkpt>
      <trkpt lat="46.71598" lon="5.62881">
        <ele>306</ele>
        <time>2025-10-10T08:38:33.099+00:00</time>
      </trkpt>
      <trkpt lat="46.71593" lon="5.62883">
        <ele>305</ele>
        <time>2025-10-10T08:38:37.380+00:00</time>
      </trkpt>
      <trkpt lat="46.71589" lon="5.62886">
        <ele>305</ele>
        <time>2025-10-10T08:38:41.519+00:00</time>
      </trkpt>
      <trkpt lat="46.71583" lon="5.6289">
        <ele>305</ele>
        <time>2025-10-10T08:38:45.902+00:00</time>
      </trkpt>
      <trkpt lat="46.71579" lon="5.62896">
        <ele>305</ele>
        <time>2025-10-10T08:38:50.229+00:00</time>
      </trkpt>
      <trkpt lat="46.71573" lon="5.62901">
        <ele>305</ele>
        <time>2025-10-10T08:38:54.780+00:00</time>
      </trkpt>
      <trkpt lat="46.71569" lon="5.62906">
        <ele>301</ele>
        <time>2025-10-10T08:38:59.171+00:00</time>
      </trkpt>
      <trkpt lat="46.71564" lon="5.62909">
        <ele>301</ele>
        <time>2025-10-10T08:39:03.334+00:00</time>
      </trkpt>
      <trkpt lat="46.71559" lon="5.62912">
        <ele>301</ele>
        <time>2025-10-10T08:39:07.740+00:00</time>
      </trkpt>
      <trkpt lat="46.71553" lon="5.62914">
        <ele>301</ele>
        <time>2025-10-10T08:39:12.080+00:00</time>
      </trkpt>
      <trkpt lat="46.71547" lon="5.62915">
        <ele>301</ele>
        <time>2025-10-10T08:39:16.532+00:00</time>
      </trkpt>
      <trkpt lat="46.71542" lon="5.62916">
        <ele>301</ele>
        <time>2025-10-10T08:39:20.915+00:00</time>
      </trkpt>
      <trkpt lat="46.71536" lon="5.62917">
        <ele>300</ele>
        <time>2025-10-10T08:39:25.428+00:00</time>
      </trkpt>
      <trkpt lat="46.71531" lon="5.62918">
        <ele>300</ele>
        <time>2025-10-10T08:39:29.532+00:00</time>
      </trkpt>
      <trkpt lat="46.71525" lon="5.6292">
        <ele>300</ele>
        <time>2025-10-10T08:39:34.241+00:00</time>
      </trkpt>
      <trkpt lat="46.71519" lon="5.62923">
        <ele>300</ele>
        <time>2025-10-10T08:39:38.532+00:00</time>
      </trkpt>
      <trkpt lat="46.71513" lon="5.62924">
        <ele>298</ele>
        <time>2025-10-10T08:39:43.495+00:00</time>
      </trkpt>
      <trkpt lat="46.71507" lon="5.62926">
        <ele>298</ele>
        <time>2025-10-10T08:39:47.829+00:00</time>
      </trkpt>
      <trkpt lat="46.71502" lon="5.62927">
        <ele>298</ele>
        <time>2025-10-10T08:39:52.112+00:00</time>
      </trkpt>
      <trkpt lat="46.71496" lon="5.62928">
        <ele>298</ele>
        <time>2025-10-10T08:39:56.392+00:00</time>
      </trkpt>
      <trkpt lat="46.7149" lon="5.6293">
        <ele>298</ele>
        <time>2025-10-10T08:40:00.820+00:00</time>
      </trkpt>
      <trkpt lat="46.71484" lon="5.62932">
        <ele>295</ele>
        <time>2025-10-10T08:40:05.093+00:00</time>
      </trkpt>
      <trkpt lat="46.71481" lon="5.62935">
        <ele>295</ele>
        <time>2025-10-10T08:40:09.532+00:00</time>
      </trkpt>
      <trkpt lat="46.7148" lon="5.62935">
        <ele>295</ele>
        <time>2025-10-10T08:40:14.118+00:00</time>
      </trkpt>
      <trkpt lat="46.71475" lon="5.62934">
        <ele>295</ele>
        <time>2025-10-10T08:40:18.434+00:00</time>
      </trkpt>
      <trkpt lat="46.7147" lon="5.62941">
        <ele>295</ele>
        <time>2025-10-10T08:40:22.532+00:00</time>
      </trkpt>
      <trkpt lat="46.71464" lon="5.62942">
        <ele>295</ele>
        <time>2025-10-10T08:40:26.849+00:00</time>
      </trkpt>
      <trkpt lat="46.71459" lon="5.62947">
        <ele>295</ele>
        <time>2025-10-10T08:40:31.474+00:00</time>
      </trkpt>
      <trkpt lat="46.71454" lon="5.6295">
        <ele>297</ele>
        <time>2025-10-10T08:40:35.890+00:00</time>
      </trkpt>
      <trkpt lat="46.71448" lon="5.62953">
        <ele>297</ele>
        <time>2025-10-10T08:40:40.268+00:00</time>
      </trkpt>
      <trkpt lat="46.71444" lon="5.62957">
        <ele>297</ele>
        <time>2025-10-10T08:40:44.532+00:00</time>
      </trkpt>
      <trkpt lat="46.71439" lon="5.62963">
        <ele>294</ele>
        <time>2025-10-10T08:40:49.054+00:00</time>
      </trkpt>
      <trkpt lat="46.71436" lon="5.62969">
        <ele>294</ele>
        <time>2025-10-10T08:40:53.535+00:00</time>
      </trkpt>
      <trkpt lat="46.71432" lon="5.62977">
        <ele>294</ele>
        <time>2025-10-10T08:40:58.472+00:00</time>
      </trkpt>
      <trkpt lat="46.71429" lon="5.62984">
        <ele>296</ele>
        <time>2025-10-10T08:41:02.908+00:00</time>
      </trkpt>
      <trkpt lat="46.71426" lon="5.62991">
        <ele>293</ele>
        <time>2025-10-10T08:41:07.369+00:00</time>
      </trkpt>
      <trkpt lat="46.71423" lon="5.62997">
        <ele>293</ele>
        <time>2025-10-10T08:41:11.609+00:00</time>
      </trkpt>
      <trkpt lat="46.71421" lon="5.63005">
        <ele>293</ele>
        <time>2025-10-10T08:41:16.234+00:00</time>
      </trkpt>
      <trkpt lat="46.71419" lon="5.63012">
        <ele>293</ele>
        <time>2025-10-10T08:41:20.514+00:00</time>
      </trkpt>
      <trkpt lat="46.71416" lon="5.6302">
        <ele>290</ele>
        <time>2025-10-10T08:41:24.968+00:00</time>
      </trkpt>
      <trkpt lat="46.71414" lon="5.63027">
        <ele>290</ele>
        <time>2025-10-10T08:41:29.310+00:00</time>
      </trkpt>
      <trkpt lat="46.71411" lon="5.63034">
        <ele>290</ele>
        <time>2025-10-10T08:41:33.651+00:00</time>
      </trkpt>
      <trkpt lat="46.71408" lon="5.63041">
        <ele>290</ele>
        <time>2025-10-10T08:41:38.130+00:00</time>
      </trkpt>
      <trkpt lat="46.71405" lon="5.63049">
        <ele>289</ele>
        <time>2025-10-10T08:41:42.532+00:00</time>
      </trkpt>
      <trkpt lat="46.71402" lon="5.63056">
        <ele>291</ele>
        <time>2025-10-10T08:41:46.992+00:00</time>
      </trkpt>
      <trkpt lat="46.71399" lon="5.63062">
        <ele>291</ele>
        <time>2025-10-10T08:41:51.113+00:00</time>
      </trkpt>
      <trkpt lat="46.71396" lon="5.63069">
        <ele>291</ele>
        <time>2025-10-10T08:41:55.532+00:00</time>
      </trkpt>
      <trkpt lat="46.71393" lon="5.63074">
        <ele>290</ele>
        <time>2025-10-10T08:41:59.637+00:00</time>
      </trkpt>
      <trkpt lat="46.71388" lon="5.63079">
        <ele>290</ele>
        <time>2025-10-10T08:42:03.936+00:00</time>
      </trkpt>
      <trkpt lat="46.71383" lon="5.63082">
        <ele>290</ele>
        <time>2025-10-10T08:42:07.987+00:00</time>
      </trkpt>
      <trkpt lat="46.71379" lon="5.63086">
        <ele>290</ele>
        <time>2025-10-10T08:42:12.490+00:00</time>
      </trkpt>
      <trkpt lat="46.71374" lon="5.6309">
        <ele>292</ele>
        <time>2025-10-10T08:42:16.730+00:00</time>
      </trkpt>
      <trkpt lat="46.71369" lon="5.63092">
        <ele>292</ele>
        <time>2025-10-10T08:42:20.971+00:00</time>
      </trkpt>
      <trkpt lat="46.71365" lon="5.63097">
        <ele>292</ele>
        <time>2025-10-10T08:42:25.228+00:00</time>
      </trkpt>
      <trkpt lat="46.7136" lon="5.63102">
        <ele>290</ele>
        <time>2025-10-10T08:42:29.434+00:00</time>
      </trkpt>
      <trkpt lat="46.71357" lon="5.63108">
        <ele>290</ele>
        <time>2025-10-10T08:42:33.528+00:00</time>
      </trkpt>
      <trkpt lat="46.71352" lon="5.63114">
        <ele>290</ele>
        <time>2025-10-10T08:42:38.531+00:00</time>
      </trkpt>
      <trkpt lat="46.71347" lon="5.63117">
        <ele>290</ele>
        <time>2025-10-10T08:42:42.532+00:00</time>
      </trkpt>
      <trkpt lat="46.71343" lon="5.63122">
        <ele>294</ele>
        <time>2025-10-10T08:42:47.135+00:00</time>
      </trkpt>
      <trkpt lat="46.71339" lon="5.63127">
        <ele>292</ele>
        <time>2025-10-10T08:42:51.332+00:00</time>
      </trkpt>
      <trkpt lat="46.71334" lon="5.63132">
        <ele>292</ele>
        <time>2025-10-10T08:42:55.437+00:00</time>
      </trkpt>
      <trkpt lat="46.71331" lon="5.63138">
        <ele>292</ele>
        <time>2025-10-10T08:42:59.530+00:00</time>
      </trkpt>
      <trkpt lat="46.71328" lon="5.63143">
        <ele>292</ele>
        <time>2025-10-10T08:43:04.532+00:00</time>
      </trkpt>
      <trkpt lat="46.71325" lon="5.63145">
        <ele>292</ele>
        <time>2025-10-10T08:43:09.532+00:00</time>
      </trkpt>
      <trkpt lat="46.7132" lon="5.63149">
        <ele>292</ele>
        <time>2025-10-10T08:43:14.077+00:00</time>
      </trkpt>
      <trkpt lat="46.71316" lon="5.63154">
        <ele>293</ele>
        <time>2025-10-10T08:43:18.255+00:00</time>
      </trkpt>
      <trkpt lat="46.7131" lon="5.63158">
        <ele>293</ele>
        <time>2025-10-10T08:43:22.394+00:00</time>
      </trkpt>
      <trkpt lat="46.71304" lon="5.6316">
        <ele>293</ele>
        <time>2025-10-10T08:43:26.752+00:00</time>
      </trkpt>
      <trkpt lat="46.71298" lon="5.63161">
        <ele>293</ele>
        <time>2025-10-10T08:43:31.470+00:00</time>
      </trkpt>
      <trkpt lat="46.71294" lon="5.63164">
        <ele>293</ele>
        <time>2025-10-10T08:43:35.532+00:00</time>
      </trkpt>
      <trkpt lat="46.71288" lon="5.63168">
        <ele>294</ele>
        <time>2025-10-10T08:43:40.068+00:00</time>
      </trkpt>
      <trkpt lat="46.71283" lon="5.63169">
        <ele>294</ele>
        <time>2025-10-10T08:43:44.532+00:00</time>
      </trkpt>
      <trkpt lat="46.71277" lon="5.63171">
        <ele>294</ele>
        <time>2025-10-10T08:43:49.154+00:00</time>
      </trkpt>
      <trkpt lat="46.71272" lon="5.63174">
        <ele>294</ele>
        <time>2025-10-10T08:43:54.067+00:00</time>
      </trkpt>
      <trkpt lat="46.71267" lon="5.63177">
        <ele>294</ele>
        <time>2025-10-10T08:43:58.309+00:00</time>
      </trkpt>
      <trkpt lat="46.71263" lon="5.63181">
        <ele>292</ele>
        <time>2025-10-10T08:44:02.335+00:00</time>
      </trkpt>
      <trkpt lat="46.71257" lon="5.63185">
        <ele>292</ele>
        <time>2025-10-10T08:44:06.352+00:00</time>
      </trkpt>
      <trkpt lat="46.71252" lon="5.63188">
        <ele>292</ele>
        <time>2025-10-10T08:44:10.754+00:00</time>
      </trkpt>
      <trkpt lat="46.71247" lon="5.63191">
        <ele>292</ele>
        <time>2025-10-10T08:44:15.532+00:00</time>
      </trkpt>
      <trkpt lat="46.71243" lon="5.63194">
        <ele>292</ele>
        <time>2025-10-10T08:44:19.532+00:00</time>
      </trkpt>
      <trkpt lat="46.71237" lon="5.63197">
        <ele>292</ele>
        <time>2025-10-10T08:44:24.214+00:00</time>
      </trkpt>
      <trkpt lat="46.71233" lon="5.63199">
        <ele>295</ele>
        <time>2025-10-10T08:44:28.490+00:00</time>
      </trkpt>
      <trkpt lat="46.71229" lon="5.632">
        <ele>295</ele>
        <time>2025-10-10T08:44:32.532+00:00</time>
      </trkpt>
      <trkpt lat="46.71226" lon="5.63201">
        <ele>295</ele>
        <time>2025-10-10T08:44:37.532+00:00</time>
      </trkpt>
      <trkpt lat="46.71226" lon="5.63204">
        <ele>295</ele>
        <time>2025-10-10T08:44:41.532+00:00</time>
      </trkpt>
      <trkpt lat="46.71223" lon="5.63207">
        <ele>295</ele>
        <time>2025-10-10T08:44:45.532+00:00</time>
      </trkpt>
      <trkpt lat="46.71218" lon="5.6321">
        <ele>292</ele>
        <time>2025-10-10T08:44:50.532+00:00</time>
      </trkpt>
      <trkpt lat="46.71214" lon="5.63213">
        <ele>292</ele>
        <time>2025-10-10T08:44:55.028+00:00</time>
      </trkpt>
      <trkpt lat="46.71211" lon="5.63217">
        <ele>292</ele>
        <time>2025-10-10T08:44:59.236+00:00</time>
      </trkpt>
      <trkpt lat="46.71207" lon="5.63221">
        <ele>293</ele>
        <time>2025-10-10T08:45:03.747+00:00</time>
      </trkpt>
      <trkpt lat="46.71204" lon="5.63225">
        <ele>293</ele>
        <time>2025-10-10T08:45:08.371+00:00</time>
      </trkpt>
      <trkpt lat="46.71204" lon="5.63226">
        <ele>293</ele>
        <time>2025-10-10T08:45:12.532+00:00</time>
      </trkpt>
      <trkpt lat="46.71203" lon="5.63229">
        <ele>293</ele>
        <time>2025-10-10T08:45:16.851+00:00</time>
      </trkpt>
      <trkpt lat="46.71203" lon="5.63233">
        <ele>293</ele>
        <time>2025-10-10T08:45:19.532+00:00</time>
      </trkpt>
      <trkpt lat="46.71209" lon="5.63238">
        <ele>290</ele>
        <time>2025-10-10T08:45:28.532+00:00</time>
      </trkpt>
      <trkpt lat="46.71211" lon="5.63243">
        <ele>290</ele>
        <time>2025-10-10T08:45:33.532+00:00</time>
      </trkpt>
      <trkpt lat="46.71211" lon="5.63249">
        <ele>290</ele>
        <time>2025-10-10T08:45:38.008+00:00</time>
      </trkpt>
      <trkpt lat="46.71209" lon="5.6326">
        <ele>290</ele>
        <time>2025-10-10T08:45:42.333+00:00</time>
      </trkpt>
      <trkpt lat="46.71209" lon="5.63266">
        <ele>289</ele>
        <time>2025-10-10T08:45:46.532+00:00</time>
      </trkpt>
      <trkpt lat="46.71209" lon="5.63274">
        <ele>289</ele>
        <time>2025-10-10T08:45:51.291+00:00</time>
      </trkpt>
      <trkpt lat="46.7121" lon="5.6328">
        <ele>289</ele>
        <time>2025-10-10T08:45:55.532+00:00</time>
      </trkpt>
      <trkpt lat="46.71211" lon="5.63287">
        <ele>289</ele>
        <time>2025-10-10T08:45:59.831+00:00</time>
      </trkpt>
      <trkpt lat="46.7121" lon="5.63291">
        <ele>289</ele>
        <time>2025-10-10T08:46:02.331+00:00</time>
      </trkpt>
      <trkpt lat="46.71211" lon="5.63304">
        <ele>290</ele>
        <time>2025-10-10T08:46:10.474+00:00</time>
      </trkpt>
      <trkpt lat="46.71209" lon="5.6331">
        <ele>290</ele>
        <time>2025-10-10T08:46:14.532+00:00</time>
      </trkpt>
      <trkpt lat="46.71209" lon="5.63318">
        <ele>290</ele>
        <time>2025-10-10T08:46:19.167+00:00</time>
      </trkpt>
      <trkpt lat="46.71208" lon="5.63327">
        <ele>295</ele>
        <time>2025-10-10T08:46:23.413+00:00</time>
      </trkpt>
      <trkpt lat="46.71207" lon="5.63333">
        <ele>295</ele>
        <time>2025-10-10T08:46:27.532+00:00</time>
      </trkpt>
      <trkpt lat="46.71206" lon="5.6334">
        <ele>295</ele>
        <time>2025-10-10T08:46:32.532+00:00</time>
      </trkpt>
      <trkpt lat="46.71209" lon="5.63349">
        <ele>292</ele>
        <time>2025-10-10T08:46:37.532+00:00</time>
      </trkpt>
      <trkpt lat="46.7121" lon="5.63355">
        <ele>292</ele>
        <time>2025-10-10T08:46:41.627+00:00</time>
      </trkpt>
      <trkpt lat="46.71212" lon="5.63362">
        <ele>292</ele>
        <time>2025-10-10T08:46:45.927+00:00</time>
      </trkpt>
      <trkpt lat="46.71215" lon="5.63367">
        <ele>292</ele>
        <time>2025-10-10T08:46:50.269+00:00</time>
      </trkpt>
      <trkpt lat="46.71216" lon="5.63375">
        <ele>291</ele>
        <time>2025-10-10T08:46:54.432+00:00</time>
      </trkpt>
      <trkpt lat="46.71217" lon="5.63382">
        <ele>291</ele>
        <time>2025-10-10T08:46:58.614+00:00</time>
      </trkpt>
      <trkpt lat="46.71219" lon="5.63389">
        <ele>291</ele>
        <time>2025-10-10T08:47:02.776+00:00</time>
      </trkpt>
      <trkpt lat="46.71222" lon="5.63396">
        <ele>291</ele>
        <time>2025-10-10T08:47:07.316+00:00</time>
      </trkpt>
      <trkpt lat="46.71224" lon="5.63403">
        <ele>292</ele>
        <time>2025-10-10T08:47:11.854+00:00</time>
      </trkpt>
      <trkpt lat="46.71228" lon="5.63409">
        <ele>292</ele>
        <time>2025-10-10T08:47:16.410+00:00</time>
      </trkpt>
      <trkpt lat="46.7123" lon="5.63415">
        <ele>292</ele>
        <time>2025-10-10T08:47:20.557+00:00</time>
      </trkpt>
      <trkpt lat="46.71234" lon="5.6342">
        <ele>292</ele>
        <time>2025-10-10T08:47:25.137+00:00</time>
      </trkpt>
      <trkpt lat="46.71238" lon="5.63424">
        <ele>289</ele>
        <time>2025-10-10T08:47:29.353+00:00</time>
      </trkpt>
      <trkpt lat="46.71237" lon="5.6343">
        <ele>289</ele>
        <time>2025-10-10T08:47:33.532+00:00</time>
      </trkpt>
      <trkpt lat="46.71236" lon="5.63435">
        <ele>291</ele>
        <time>2025-10-10T08:47:37.636+00:00</time>
      </trkpt>
      <trkpt lat="46.71239" lon="5.63441">
        <ele>288</ele>
        <time>2025-10-10T08:47:42.532+00:00</time>
      </trkpt>
      <trkpt lat="46.71241" lon="5.63445">
        <ele>288</ele>
        <time>2025-10-10T08:47:47.342+00:00</time>
      </trkpt>
      <trkpt lat="46.71243" lon="5.6345">
        <ele>288</ele>
        <time>2025-10-10T08:47:51.530+00:00</time>
      </trkpt>
      <trkpt lat="46.71245" lon="5.63456">
        <ele>288</ele>
        <time>2025-10-10T08:47:55.894+00:00</time>
      </trkpt>
      <trkpt lat="46.71246" lon="5.63463">
        <ele>288</ele>
        <time>2025-10-10T08:48:00.417+00:00</time>
      </trkpt>
      <trkpt lat="46.71245" lon="5.63468">
        <ele>288</ele>
        <time>2025-10-10T08:48:05.532+00:00</time>
      </trkpt>
      <trkpt lat="46.71246" lon="5.6347">
        <ele>288</ele>
        <time>2025-10-10T08:48:10.210+00:00</time>
      </trkpt>
      <trkpt lat="46.71247" lon="5.63477">
        <ele>288</ele>
        <time>2025-10-10T08:48:14.531+00:00</time>
      </trkpt>
      <trkpt lat="46.71246" lon="5.63483">
        <ele>288</ele>
        <time>2025-10-10T08:48:19.322+00:00</time>
      </trkpt>
      <trkpt lat="46.71245" lon="5.63493">
        <ele>287</ele>
        <time>2025-10-10T08:48:23.971+00:00</time>
      </trkpt>
      <trkpt lat="46.71243" lon="5.635">
        <ele>287</ele>
        <time>2025-10-10T08:48:28.492+00:00</time>
      </trkpt>
      <trkpt lat="46.71241" lon="5.6351">
        <ele>287</ele>
        <time>2025-10-10T08:48:33.532+00:00</time>
      </trkpt>
      <trkpt lat="46.71241" lon="5.63517">
        <ele>288</ele>
        <time>2025-10-10T08:48:38.194+00:00</time>
      </trkpt>
      <trkpt lat="46.71239" lon="5.63525">
        <ele>288</ele>
        <time>2025-10-10T08:48:42.715+00:00</time>
      </trkpt>
      <trkpt lat="46.71238" lon="5.63531">
        <ele>288</ele>
        <time>2025-10-10T08:48:46.777+00:00</time>
      </trkpt>
      <trkpt lat="46.71237" lon="5.63538">
        <ele>288</ele>
        <time>2025-10-10T08:48:50.837+00:00</time>
      </trkpt>
      <trkpt lat="46.71238" lon="5.63543">
        <ele>288</ele>
        <time>2025-10-10T08:48:54.198+00:00</time>
      </trkpt>
      <trkpt lat="46.71238" lon="5.63561">
        <ele>288</ele>
        <time>2025-10-10T08:49:02.532+00:00</time>
      </trkpt>
      <trkpt lat="46.71239" lon="5.63561">
        <ele>288</ele>
        <time>2025-10-10T08:49:06.532+00:00</time>
      </trkpt>
      <trkpt lat="46.71239" lon="5.63567">
        <ele>288</ele>
        <time>2025-10-10T08:49:11.276+00:00</time>
      </trkpt>
      <trkpt lat="46.71236" lon="5.63576">
        <ele>289</ele>
        <time>2025-10-10T08:49:15.531+00:00</time>
      </trkpt>
      <trkpt lat="46.71234" lon="5.63584">
        <ele>292</ele>
        <time>2025-10-10T08:49:20.010+00:00</time>
      </trkpt>
      <trkpt lat="46.71232" lon="5.6359">
        <ele>292</ele>
        <time>2025-10-10T08:49:24.532+00:00</time>
      </trkpt>
      <trkpt lat="46.71229" lon="5.63597">
        <ele>292</ele>
        <time>2025-10-10T08:49:28.890+00:00</time>
      </trkpt>
      <trkpt lat="46.71227" lon="5.63603">
        <ele>292</ele>
        <time>2025-10-10T08:49:33.037+00:00</time>
      </trkpt>
      <trkpt lat="46.71226" lon="5.63611">
        <ele>292</ele>
        <time>2025-10-10T08:49:37.469+00:00</time>
      </trkpt>
      <trkpt lat="46.71225" lon="5.63616">
        <ele>292</ele>
        <time>2025-10-10T08:49:41.532+00:00</time>
      </trkpt>
      <trkpt lat="46.71223" lon="5.63623">
        <ele>292</ele>
        <time>2025-10-10T08:49:45.797+00:00</time>
      </trkpt>
      <trkpt lat="46.71222" lon="5.63631">
        <ele>293</ele>
        <time>2025-10-10T08:49:50.176+00:00</time>
      </trkpt>
      <trkpt lat="46.7122" lon="5.63638">
        <ele>293</ele>
        <time>2025-10-10T08:49:54.458+00:00</time>
      </trkpt>
      <trkpt lat="46.71219" lon="5.63645">
        <ele>293</ele>
        <time>2025-10-10T08:49:58.502+00:00</time>
      </trkpt>
      <trkpt lat="46.71218" lon="5.6365">
        <ele>293</ele>
        <time>2025-10-10T08:50:00.830+00:00</time>
      </trkpt>
      <trkpt lat="46.71216" lon="5.63666">
        <ele>293</ele>
        <time>2025-10-10T08:50:10.529+00:00</time>
      </trkpt>
      <trkpt lat="46.71214" lon="5.63673">
        <ele>293</ele>
        <time>2025-10-10T08:50:15.210+00:00</time>
      </trkpt>
      <trkpt lat="46.71214" lon="5.63679">
        <ele>293</ele>
        <time>2025-10-10T08:50:19.373+00:00</time>
      </trkpt>
      <trkpt lat="46.71213" lon="5.63686">
        <ele>293</ele>
        <time>2025-10-10T08:50:23.532+00:00</time>
      </trkpt>
      <trkpt lat="46.71212" lon="5.63693">
        <ele>293</ele>
        <time>2025-10-10T08:50:27.532+00:00</time>
      </trkpt>
      <trkpt lat="46.7121" lon="5.637">
        <ele>293</ele>
        <time>2025-10-10T08:50:31.878+00:00</time>
      </trkpt>
      <trkpt lat="46.71208" lon="5.63707">
        <ele>293</ele>
        <time>2025-10-10T08:50:36.454+00:00</time>
      </trkpt>
      <trkpt lat="46.71207" lon="5.63713">
        <ele>293</ele>
        <time>2025-10-10T08:50:40.721+00:00</time>
      </trkpt>
      <trkpt lat="46.71207" lon="5.6372">
        <ele>293</ele>
        <time>2025-10-10T08:50:45.074+00:00</time>
      </trkpt>
      <trkpt lat="46.71206" lon="5.63726">
        <ele>293</ele>
        <time>2025-10-10T08:50:49.233+00:00</time>
      </trkpt>
      <trkpt lat="46.71205" lon="5.63733">
        <ele>293</ele>
        <time>2025-10-10T08:50:53.530+00:00</time>
      </trkpt>
      <trkpt lat="46.71203" lon="5.6374">
        <ele>293</ele>
        <time>2025-10-10T08:50:58.532+00:00</time>
      </trkpt>
      <trkpt lat="46.71201" lon="5.63745">
        <ele>293</ele>
        <time>2025-10-10T08:51:02.775+00:00</time>
      </trkpt>
      <trkpt lat="46.712" lon="5.63753">
        <ele>293</ele>
        <time>2025-10-10T08:51:07.016+00:00</time>
      </trkpt>
      <trkpt lat="46.71198" lon="5.63759">
        <ele>293</ele>
        <time>2025-10-10T08:51:11.199+00:00</time>
      </trkpt>
      <trkpt lat="46.71196" lon="5.63765">
        <ele>293</ele>
        <time>2025-10-10T08:51:15.532+00:00</time>
      </trkpt>
      <trkpt lat="46.71194" lon="5.6377">
        <ele>293</ele>
        <time>2025-10-10T08:51:20.243+00:00</time>
      </trkpt>
      <trkpt lat="46.71191" lon="5.63777">
        <ele>293</ele>
        <time>2025-10-10T08:51:24.532+00:00</time>
      </trkpt>
      <trkpt lat="46.71188" lon="5.63783">
        <ele>293</ele>
        <time>2025-10-10T08:51:29.092+00:00</time>
      </trkpt>
      <trkpt lat="46.71184" lon="5.63789">
        <ele>293</ele>
        <time>2025-10-10T08:51:33.532+00:00</time>
      </trkpt>
      <trkpt lat="46.71182" lon="5.63794">
        <ele>293</ele>
        <time>2025-10-10T08:51:37.532+00:00</time>
      </trkpt>
      <trkpt lat="46.71178" lon="5.63799">
        <ele>295</ele>
        <time>2025-10-10T08:51:41.959+00:00</time>
      </trkpt>
      <trkpt lat="46.71175" lon="5.63804">
        <ele>295</ele>
        <time>2025-10-10T08:51:46.172+00:00</time>
      </trkpt>
      <trkpt lat="46.71173" lon="5.63811">
        <ele>295</ele>
        <time>2025-10-10T08:51:50.532+00:00</time>
      </trkpt>
      <trkpt lat="46.7117" lon="5.63817">
        <ele>295</ele>
        <time>2025-10-10T08:51:54.748+00:00</time>
      </trkpt>
      <trkpt lat="46.71167" lon="5.63823">
        <ele>294</ele>
        <time>2025-10-10T08:51:59.133+00:00</time>
      </trkpt>
      <trkpt lat="46.71164" lon="5.63828">
        <ele>294</ele>
        <time>2025-10-10T08:52:03.357+00:00</time>
      </trkpt>
      <trkpt lat="46.71161" lon="5.63833">
        <ele>294</ele>
        <time>2025-10-10T08:52:07.479+00:00</time>
      </trkpt>
      <trkpt lat="46.71158" lon="5.63838">
        <ele>294</ele>
        <time>2025-10-10T08:52:12.093+00:00</time>
      </trkpt>
      <trkpt lat="46.71159" lon="5.6384">
        <ele>294</ele>
        <time>2025-10-10T08:52:16.532+00:00</time>
      </trkpt>
      <trkpt lat="46.71155" lon="5.63849">
        <ele>294</ele>
        <time>2025-10-10T08:52:21.532+00:00</time>
      </trkpt>
      <trkpt lat="46.71152" lon="5.63856">
        <ele>303</ele>
        <time>2025-10-10T08:52:26.172+00:00</time>
      </trkpt>
      <trkpt lat="46.7115" lon="5.63861">
        <ele>303</ele>
        <time>2025-10-10T08:52:30.277+00:00</time>
      </trkpt>
      <trkpt lat="46.71148" lon="5.63866">
        <ele>303</ele>
        <time>2025-10-10T08:52:34.814+00:00</time>
      </trkpt>
      <trkpt lat="46.71146" lon="5.63875">
        <ele>303</ele>
        <time>2025-10-10T08:52:39.413+00:00</time>
      </trkpt>
      <trkpt lat="46.71143" lon="5.63881">
        <ele>301</ele>
        <time>2025-10-10T08:52:43.532+00:00</time>
      </trkpt>
      <trkpt lat="46.71141" lon="5.63888">
        <ele>301</ele>
        <time>2025-10-10T08:52:48.269+00:00</time>
      </trkpt>
      <trkpt lat="46.71138" lon="5.63895">
        <ele>301</ele>
        <time>2025-10-10T08:52:52.373+00:00</time>
      </trkpt>
      <trkpt lat="46.71136" lon="5.63901">
        <ele>301</ele>
        <time>2025-10-10T08:52:56.392+00:00</time>
      </trkpt>
      <trkpt lat="46.71134" lon="5.63909">
        <ele>299</ele>
        <time>2025-10-10T08:53:01.153+00:00</time>
      </trkpt>
      <trkpt lat="46.71133" lon="5.63916">
        <ele>299</ele>
        <time>2025-10-10T08:53:05.532+00:00</time>
      </trkpt>
      <trkpt lat="46.71134" lon="5.63916">
        <ele>299</ele>
        <time>2025-10-10T08:53:10.532+00:00</time>
      </trkpt>
      <trkpt lat="46.71133" lon="5.63919">
        <ele>299</ele>
        <time>2025-10-10T08:53:14.677+00:00</time>
      </trkpt>
      <trkpt lat="46.71133" lon="5.63927">
        <ele>299</ele>
        <time>2025-10-10T08:53:19.173+00:00</time>
      </trkpt>
      <trkpt lat="46.71133" lon="5.63936">
        <ele>298</ele>
        <time>2025-10-10T08:53:24.296+00:00</time>
      </trkpt>
      <trkpt lat="46.71132" lon="5.63938">
        <ele>298</ele>
        <time>2025-10-10T08:53:33.063+00:00</time>
      </trkpt>
      <trkpt lat="46.7113" lon="5.63945">
        <ele>298</ele>
        <time>2025-10-10T08:53:37.238+00:00</time>
      </trkpt>
      <trkpt lat="46.71127" lon="5.6395">
        <ele>298</ele>
        <time>2025-10-10T08:53:41.532+00:00</time>
      </trkpt>
      <trkpt lat="46.71126" lon="5.63956">
        <ele>298</ele>
        <time>2025-10-10T08:53:46.030+00:00</time>
      </trkpt>
      <trkpt lat="46.71126" lon="5.63962">
        <ele>297</ele>
        <time>2025-10-10T08:53:50.254+00:00</time>
      </trkpt>
      <trkpt lat="46.71126" lon="5.63968">
        <ele>297</ele>
        <time>2025-10-10T08:53:54.776+00:00</time>
      </trkpt>
      <trkpt lat="46.71126" lon="5.63973">
        <ele>297</ele>
        <time>2025-10-10T08:53:59.055+00:00</time>
      </trkpt>
      <trkpt lat="46.71126" lon="5.63981">
        <ele>297</ele>
        <time>2025-10-10T08:54:03.096+00:00</time>
      </trkpt>
      <trkpt lat="46.71126" lon="5.63988">
        <ele>298</ele>
        <time>2025-10-10T08:54:07.250+00:00</time>
      </trkpt>
      <trkpt lat="46.71126" lon="5.63994">
        <ele>298</ele>
        <time>2025-10-10T08:54:11.457+00:00</time>
      </trkpt>
      <trkpt lat="46.71126" lon="5.64001">
        <ele>298</ele>
        <time>2025-10-10T08:54:16.532+00:00</time>
      </trkpt>
      <trkpt lat="46.71127" lon="5.64009">
        <ele>298</ele>
        <time>2025-10-10T08:54:20.532+00:00</time>
      </trkpt>
      <trkpt lat="46.71127" lon="5.64017">
        <ele>299</ele>
        <time>2025-10-10T08:54:25.424+00:00</time>
      </trkpt>
      <trkpt lat="46.71129" lon="5.64026">
        <ele>299</ele>
        <time>2025-10-10T08:54:30.530+00:00</time>
      </trkpt>
      <trkpt lat="46.7113" lon="5.64035">
        <ele>299</ele>
        <time>2025-10-10T08:54:35.532+00:00</time>
      </trkpt>
      <trkpt lat="46.71131" lon="5.64036">
        <ele>299</ele>
        <time>2025-10-10T08:54:39.532+00:00</time>
      </trkpt>
      <trkpt lat="46.7113" lon="5.64036">
        <ele>299</ele>
        <time>2025-10-10T08:54:44.532+00:00</time>
      </trkpt>
      <trkpt lat="46.71131" lon="5.64038">
        <ele>299</ele>
        <time>2025-10-10T08:54:48.532+00:00</time>
      </trkpt>
      <trkpt lat="46.7113" lon="5.64047">
        <ele>299</ele>
        <time>2025-10-10T08:54:53.206+00:00</time>
      </trkpt>
      <trkpt lat="46.71131" lon="5.64057">
        <ele>299</ele>
        <time>2025-10-10T08:54:57.385+00:00</time>
      </trkpt>
      <trkpt lat="46.71131" lon="5.64067">
        <ele>299</ele>
        <time>2025-10-10T08:55:01.908+00:00</time>
      </trkpt>
      <trkpt lat="46.71131" lon="5.64074">
        <ele>300</ele>
        <time>2025-10-10T08:55:06.029+00:00</time>
      </trkpt>
      <trkpt lat="46.71132" lon="5.64082">
        <ele>300</ele>
        <time>2025-10-10T08:55:10.492+00:00</time>
      </trkpt>
      <trkpt lat="46.71133" lon="5.64086">
        <ele>300</ele>
        <time>2025-10-10T08:55:14.532+00:00</time>
      </trkpt>
      <trkpt lat="46.71133" lon="5.64085">
        <ele>300</ele>
        <time>2025-10-10T08:55:30.532+00:00</time>
      </trkpt>
      <trkpt lat="46.71133" lon="5.64085">
        <ele>300</ele>
        <time>2025-10-10T08:55:37.532+00:00</time>
      </trkpt>
      <trkpt lat="46.71134" lon="5.64091">
        <ele>300</ele>
        <time>2025-10-10T08:55:42.532+00:00</time>
      </trkpt>
      <trkpt lat="46.71134" lon="5.64097">
        <ele>300</ele>
        <time>2025-10-10T08:55:46.532+00:00</time>
      </trkpt>
      <trkpt lat="46.71134" lon="5.64102">
        <ele>299</ele>
        <time>2025-10-10T08:55:51.532+00:00</time>
      </trkpt>
      <trkpt lat="46.71136" lon="5.64119">
        <ele>299</ele>
        <time>2025-10-10T08:56:17.532+00:00</time>
      </trkpt>
      <trkpt lat="46.71136" lon="5.64119">
        <ele>299</ele>
        <time>2025-10-10T08:56:22.106+00:00</time>
      </trkpt>
      <trkpt lat="46.71135" lon="5.64125">
        <ele>299</ele>
        <time>2025-10-10T08:56:26.407+00:00</time>
      </trkpt>
      <trkpt lat="46.71135" lon="5.64131">
        <ele>299</ele>
        <time>2025-10-10T08:56:30.532+00:00</time>
      </trkpt>
      <trkpt lat="46.71138" lon="5.64132">
        <ele>299</ele>
        <time>2025-10-10T08:56:35.238+00:00</time>
      </trkpt>
      <trkpt lat="46.71137" lon="5.64139">
        <ele>299</ele>
        <time>2025-10-10T08:56:39.913+00:00</time>
      </trkpt>
      <trkpt lat="46.71134" lon="5.64144">
        <ele>299</ele>
        <time>2025-10-10T08:56:43.410+00:00</time>
      </trkpt>
      <trkpt lat="46.71129" lon="5.64155">
        <ele>298</ele>
        <time>2025-10-10T08:56:52.589+00:00</time>
      </trkpt>
      <trkpt lat="46.71129" lon="5.64161">
        <ele>298</ele>
        <time>2025-10-10T08:56:56.685+00:00</time>
      </trkpt>
      <trkpt lat="46.71128" lon="5.64169">
        <ele>298</ele>
        <time>2025-10-10T08:57:01.532+00:00</time>
      </trkpt>
      <trkpt lat="46.71125" lon="5.64176">
        <ele>298</ele>
        <time>2025-10-10T08:57:05.788+00:00</time>
      </trkpt>
      <trkpt lat="46.71123" lon="5.64183">
        <ele>308</ele>
        <time>2025-10-10T08:57:10.370+00:00</time>
      </trkpt>
      <trkpt lat="46.71122" lon="5.64192">
        <ele>308</ele>
        <time>2025-10-10T08:57:14.926+00:00</time>
      </trkpt>
      <trkpt lat="46.71121" lon="5.642">
        <ele>308</ele>
        <time>2025-10-10T08:57:19.490+00:00</time>
      </trkpt>
      <trkpt lat="46.71121" lon="5.64206">
        <ele>308</ele>
        <time>2025-10-10T08:57:23.530+00:00</time>
      </trkpt>
      <trkpt lat="46.7112" lon="5.64213">
        <ele>306</ele>
        <time>2025-10-10T08:57:28.406+00:00</time>
      </trkpt>
      <trkpt lat="46.71119" lon="5.6422">
        <ele>306</ele>
        <time>2025-10-10T08:57:32.530+00:00</time>
      </trkpt>
      <trkpt lat="46.71118" lon="5.64227">
        <ele>306</ele>
        <time>2025-10-10T08:57:49.427+00:00</time>
      </trkpt>
      <trkpt lat="46.7112" lon="5.6424">
        <ele>305</ele>
        <time>2025-10-10T08:57:58.429+00:00</time>
      </trkpt>
      <trkpt lat="46.7112" lon="5.64247">
        <ele>305</ele>
        <time>2025-10-10T08:58:02.532+00:00</time>
      </trkpt>
      <trkpt lat="46.71119" lon="5.64256">
        <ele>305</ele>
        <time>2025-10-10T08:58:07.030+00:00</time>
      </trkpt>
      <trkpt lat="46.71117" lon="5.64266">
        <ele>302</ele>
        <time>2025-10-10T08:58:11.407+00:00</time>
      </trkpt>
      <trkpt lat="46.71112" lon="5.64275">
        <ele>302</ele>
        <time>2025-10-10T08:58:15.532+00:00</time>
      </trkpt>
      <trkpt lat="46.71107" lon="5.64282">
        <ele>302</ele>
        <time>2025-10-10T08:58:20.532+00:00</time>
      </trkpt>
      <trkpt lat="46.71105" lon="5.64289">
        <ele>302</ele>
        <time>2025-10-10T08:58:24.811+00:00</time>
      </trkpt>
      <trkpt lat="46.71103" lon="5.64297">
        <ele>300</ele>
        <time>2025-10-10T08:58:29.290+00:00</time>
      </trkpt>
      <trkpt lat="46.711" lon="5.64303">
        <ele>300</ele>
        <time>2025-10-10T08:58:33.532+00:00</time>
      </trkpt>
      <trkpt lat="46.71097" lon="5.6431">
        <ele>300</ele>
        <time>2025-10-10T08:58:38.309+00:00</time>
      </trkpt>
      <trkpt lat="46.71094" lon="5.64318">
        <ele>304</ele>
        <time>2025-10-10T08:58:42.532+00:00</time>
      </trkpt>
      <trkpt lat="46.71091" lon="5.64325">
        <ele>301</ele>
        <time>2025-10-10T08:58:47.111+00:00</time>
      </trkpt>
      <trkpt lat="46.71088" lon="5.64332">
        <ele>301</ele>
        <time>2025-10-10T08:58:51.532+00:00</time>
      </trkpt>
      <trkpt lat="46.71084" lon="5.64339">
        <ele>301</ele>
        <time>2025-10-10T08:58:56.386+00:00</time>
      </trkpt>
      <trkpt lat="46.71081" lon="5.64343">
        <ele>301</ele>
        <time>2025-10-10T08:59:00.788+00:00</time>
      </trkpt>
      <trkpt lat="46.71077" lon="5.64349">
        <ele>299</ele>
        <time>2025-10-10T08:59:05.130+00:00</time>
      </trkpt>
      <trkpt lat="46.71072" lon="5.64354">
        <ele>299</ele>
        <time>2025-10-10T08:59:09.532+00:00</time>
      </trkpt>
      <trkpt lat="46.71068" lon="5.6436">
        <ele>311</ele>
        <time>2025-10-10T08:59:14.251+00:00</time>
      </trkpt>
      <trkpt lat="46.71065" lon="5.64365">
        <ele>311</ele>
        <time>2025-10-10T08:59:18.532+00:00</time>
      </trkpt>
      <trkpt lat="46.71061" lon="5.64372">
        <ele>311</ele>
        <time>2025-10-10T08:59:23.029+00:00</time>
      </trkpt>
      <trkpt lat="46.71058" lon="5.64378">
        <ele>304</ele>
        <time>2025-10-10T08:59:27.532+00:00</time>
      </trkpt>
      <trkpt lat="46.71054" lon="5.6438">
        <ele>304</ele>
        <time>2025-10-10T08:59:31.671+00:00</time>
      </trkpt>
      <trkpt lat="46.71051" lon="5.6439">
        <ele>304</ele>
        <time>2025-10-10T08:59:36.532+00:00</time>
      </trkpt>
      <trkpt lat="46.71048" lon="5.64396">
        <ele>304</ele>
        <time>2025-10-10T08:59:40.911+00:00</time>
      </trkpt>
      <trkpt lat="46.71045" lon="5.64401">
        <ele>304</ele>
        <time>2025-10-10T08:59:44.971+00:00</time>
      </trkpt>
      <trkpt lat="46.71041" lon="5.64406">
        <ele>307</ele>
        <time>2025-10-10T08:59:49.188+00:00</time>
      </trkpt>
      <trkpt lat="46.71038" lon="5.64412">
        <ele>307</ele>
        <time>2025-10-10T08:59:53.368+00:00</time>
      </trkpt>
      <trkpt lat="46.71035" lon="5.64417">
        <ele>307</ele>
        <time>2025-10-10T08:59:57.470+00:00</time>
      </trkpt>
      <trkpt lat="46.71031" lon="5.64422">
        <ele>307</ele>
        <time>2025-10-10T09:00:01.532+00:00</time>
      </trkpt>
      <trkpt lat="46.71028" lon="5.64427">
        <ele>307</ele>
        <time>2025-10-10T09:00:05.669+00:00</time>
      </trkpt>
      <trkpt lat="46.71024" lon="5.64432">
        <ele>302</ele>
        <time>2025-10-10T09:00:09.850+00:00</time>
      </trkpt>
      <trkpt lat="46.71021" lon="5.64436">
        <ele>302</ele>
        <time>2025-10-10T09:00:13.910+00:00</time>
      </trkpt>
      <trkpt lat="46.71017" lon="5.6444">
        <ele>302</ele>
        <time>2025-10-10T09:00:17.929+00:00</time>
      </trkpt>
      <trkpt lat="46.71015" lon="5.64445">
        <ele>302</ele>
        <time>2025-10-10T09:00:22.049+00:00</time>
      </trkpt>
      <trkpt lat="46.71011" lon="5.64452">
        <ele>310</ele>
        <time>2025-10-10T09:00:26.532+00:00</time>
      </trkpt>
      <trkpt lat="46.71006" lon="5.64456">
        <ele>310</ele>
        <time>2025-10-10T09:00:31.050+00:00</time>
      </trkpt>
      <trkpt lat="46.71002" lon="5.64459">
        <ele>302</ele>
        <time>2025-10-10T09:00:35.129+00:00</time>
      </trkpt>
      <trkpt lat="46.70998" lon="5.64464">
        <ele>302</ele>
        <time>2025-10-10T09:00:39.444+00:00</time>
      </trkpt>
      <trkpt lat="46.70993" lon="5.64467">
        <ele>302</ele>
        <time>2025-10-10T09:00:43.470+00:00</time>
      </trkpt>
      <trkpt lat="46.70991" lon="5.64472">
        <ele>302</ele>
        <time>2025-10-10T09:00:47.770+00:00</time>
      </trkpt>
      <trkpt lat="46.70987" lon="5.64476">
        <ele>302</ele>
        <time>2025-10-10T09:00:52.250+00:00</time>
      </trkpt>
      <trkpt lat="46.70984" lon="5.6448">
        <ele>312</ele>
        <time>2025-10-10T09:00:55.531+00:00</time>
      </trkpt>
      <trkpt lat="46.70978" lon="5.64492">
        <ele>303</ele>
        <time>2025-10-10T09:01:04.775+00:00</time>
      </trkpt>
      <trkpt lat="46.70979" lon="5.64499">
        <ele>303</ele>
        <time>2025-10-10T09:01:09.530+00:00</time>
      </trkpt>
      <trkpt lat="46.70979" lon="5.64498">
        <ele>303</ele>
        <time>2025-10-10T09:01:13.532+00:00</time>
      </trkpt>
      <trkpt lat="46.7098" lon="5.64498">
        <ele>303</ele>
        <time>2025-10-10T09:01:17.692+00:00</time>
      </trkpt>
      <trkpt lat="46.70982" lon="5.64502">
        <ele>303</ele>
        <time>2025-10-10T09:01:22.289+00:00</time>
      </trkpt>
      <trkpt lat="46.70985" lon="5.64506">
        <ele>303</ele>
        <time>2025-10-10T09:01:26.528+00:00</time>
      </trkpt>
      <trkpt lat="46.70983" lon="5.64514">
        <ele>303</ele>
        <time>2025-10-10T09:01:31.165+00:00</time>
      </trkpt>
      <trkpt lat="46.7098" lon="5.64526">
        <ele>302</ele>
        <time>2025-10-10T09:02:34.532+00:00</time>
      </trkpt>
      <trkpt lat="46.7098" lon="5.64526">
        <ele>302</ele>
        <time>2025-10-10T09:02:38.532+00:00</time>
      </trkpt>
      <trkpt lat="46.70981" lon="5.64526">
        <ele>302</ele>
        <time>2025-10-10T09:02:42.532+00:00</time>
      </trkpt>
      <trkpt lat="46.70984" lon="5.64531">
        <ele>302</ele>
        <time>2025-10-10T09:02:47.364+00:00</time>
      </trkpt>
      <trkpt lat="46.70984" lon="5.64544">
        <ele>304</ele>
        <time>2025-10-10T09:02:51.511+00:00</time>
      </trkpt>
      <trkpt lat="46.7098" lon="5.64527">
        <ele>302</ele>
        <time>2025-10-10T09:08:12.532+00:00</time>
      </trkpt>
      <trkpt lat="46.7098" lon="5.64527">
        <ele>302</ele>
        <time>2025-10-10T09:08:27.532+00:00</time>
      </trkpt>
      <trkpt lat="46.7098" lon="5.64527">
        <ele>302</ele>
        <time>2025-10-10T09:09:57.532+00:00</time>
      </trkpt>
      <trkpt lat="46.7098" lon="5.64527">
        <ele>302</ele>
        <time>2025-10-10T09:10:11.532+00:00</time>
      </trkpt>
      <trkpt lat="46.7098" lon="5.64527">
        <ele>302</ele>
        <time>2025-10-10T09:10:15.532+00:00</time>
      </trkpt>
      <trkpt lat="46.70983" lon="5.64529">
        <ele>302</ele>
        <time>2025-10-10T09:15:05.532+00:00</time>
      </trkpt>
      <trkpt lat="46.70983" lon="5.6453">
        <ele>302</ele>
        <time>2025-10-10T09:15:10.532+00:00</time>
      </trkpt>
      <trkpt lat="46.70984" lon="5.6453">
        <ele>302</ele>
        <time>2025-10-10T09:15:14.532+00:00</time>
      </trkpt>
      <trkpt lat="46.70984" lon="5.64534">
        <ele>302</ele>
        <time>2025-10-10T09:15:19.532+00:00</time>
      </trkpt>
      <trkpt lat="46.70985" lon="5.64539">
        <ele>302</ele>
        <time>2025-10-10T09:15:24.008+00:00</time>
      </trkpt>
      <trkpt lat="46.70985" lon="5.64546">
        <ele>304</ele>
        <time>2025-10-10T09:15:28.368+00:00</time>
      </trkpt>
      <trkpt lat="46.70983" lon="5.64551">
        <ele>304</ele>
        <time>2025-10-10T09:15:32.532+00:00</time>
      </trkpt>
      <trkpt lat="46.70981" lon="5.64554">
        <ele>304</ele>
        <time>2025-10-10T09:15:36.666+00:00</time>
      </trkpt>
      <trkpt lat="46.7098" lon="5.64558">
        <ele>304</ele>
        <time>2025-10-10T09:15:41.043+00:00</time>
      </trkpt>
      <trkpt lat="46.70979" lon="5.64562">
        <ele>304</ele>
        <time>2025-10-10T09:15:45.530+00:00</time>
      </trkpt>
      <trkpt lat="46.70978" lon="5.64566">
        <ele>304</ele>
        <time>2025-10-10T09:15:50.147+00:00</time>
      </trkpt>
      <trkpt lat="46.70975" lon="5.64569">
        <ele>304</ele>
        <time>2025-10-10T09:15:54.532+00:00</time>
      </trkpt>
      <trkpt lat="46.70972" lon="5.64573">
        <ele>307</ele>
        <time>2025-10-10T09:15:58.926+00:00</time>
      </trkpt>
      <trkpt lat="46.7097" lon="5.64577">
        <ele>307</ele>
        <time>2025-10-10T09:16:03.168+00:00</time>
      </trkpt>
      <trkpt lat="46.70967" lon="5.64581">
        <ele>307</ele>
        <time>2025-10-10T09:16:07.203+00:00</time>
      </trkpt>
      <trkpt lat="46.70964" lon="5.64586">
        <ele>307</ele>
        <time>2025-10-10T09:16:11.532+00:00</time>
      </trkpt>
      <trkpt lat="46.70963" lon="5.64594">
        <ele>307</ele>
        <time>2025-10-10T09:16:16.444+00:00</time>
      </trkpt>
      <trkpt lat="46.70967" lon="5.64601">
        <ele>309</ele>
        <time>2025-10-10T09:16:20.531+00:00</time>
      </trkpt>
      <trkpt lat="46.70971" lon="5.64604">
        <ele>309</ele>
        <time>2025-10-10T09:16:25.488+00:00</time>
      </trkpt>
      <trkpt lat="46.70975" lon="5.64611">
        <ele>309</ele>
        <time>2025-10-10T09:16:29.848+00:00</time>
      </trkpt>
      <trkpt lat="46.70977" lon="5.64616">
        <ele>309</ele>
        <time>2025-10-10T09:16:34.029+00:00</time>
      </trkpt>
      <trkpt lat="46.7098" lon="5.64621">
        <ele>309</ele>
        <time>2025-10-10T09:16:38.532+00:00</time>
      </trkpt>
      <trkpt lat="46.70983" lon="5.64627">
        <ele>311</ele>
        <time>2025-10-10T09:16:42.531+00:00</time>
      </trkpt>
      <trkpt lat="46.70984" lon="5.64632">
        <ele>311</ele>
        <time>2025-10-10T09:16:47.532+00:00</time>
      </trkpt>
      <trkpt lat="46.70985" lon="5.64635">
        <ele>311</ele>
        <time>2025-10-10T09:16:50.161+00:00</time>
      </trkpt>
      <trkpt lat="46.70985" lon="5.64635">
        <ele>311</ele>
        <time>2025-10-10T09:16:59.528+00:00</time>
      </trkpt>
      <trkpt lat="46.70987" lon="5.64642">
        <ele>312</ele>
        <time>2025-10-10T09:17:04.532+00:00</time>
      </trkpt>
      <trkpt lat="46.70987" lon="5.64645">
        <ele>312</ele>
        <time>2025-10-10T09:17:09.149+00:00</time>
      </trkpt>
      <trkpt lat="46.70984" lon="5.64649">
        <ele>311</ele>
        <time>2025-10-10T09:17:13.293+00:00</time>
      </trkpt>
      <trkpt lat="46.70979" lon="5.64652">
        <ele>311</ele>
        <time>2025-10-10T09:17:18.305+00:00</time>
      </trkpt>
      <trkpt lat="46.70975" lon="5.64656">
        <ele>312</ele>
        <time>2025-10-10T09:17:22.531+00:00</time>
      </trkpt>
      <trkpt lat="46.7097" lon="5.64663">
        <ele>312</ele>
        <time>2025-10-10T09:17:27.487+00:00</time>
      </trkpt>
      <trkpt lat="46.70967" lon="5.64668">
        <ele>312</ele>
        <time>2025-10-10T09:17:31.532+00:00</time>
      </trkpt>
      <trkpt lat="46.70964" lon="5.64672">
        <ele>312</ele>
        <time>2025-10-10T09:17:35.967+00:00</time>
      </trkpt>
      <trkpt lat="46.70959" lon="5.64676">
        <ele>312</ele>
        <time>2025-10-10T09:17:40.450+00:00</time>
      </trkpt>
      <trkpt lat="46.70954" lon="5.64681">
        <ele>313</ele>
        <time>2025-10-10T09:17:44.781+00:00</time>
      </trkpt>
      <trkpt lat="46.70951" lon="5.64681">
        <ele>313</ele>
        <time>2025-10-10T09:17:49.529+00:00</time>
      </trkpt>
      <trkpt lat="46.70951" lon="5.64681">
        <ele>313</ele>
        <time>2025-10-10T09:17:58.928+00:00</time>
      </trkpt>
      <trkpt lat="46.7095" lon="5.64682">
        <ele>313</ele>
        <time>2025-10-10T09:18:03.532+00:00</time>
      </trkpt>
      <trkpt lat="46.70948" lon="5.64685">
        <ele>313</ele>
        <time>2025-10-10T09:18:08.233+00:00</time>
      </trkpt>
      <trkpt lat="46.70946" lon="5.64691">
        <ele>313</ele>
        <time>2025-10-10T09:18:12.529+00:00</time>
      </trkpt>
      <trkpt lat="46.7094" lon="5.64693">
        <ele>313</ele>
        <time>2025-10-10T09:18:17.090+00:00</time>
      </trkpt>
      <trkpt lat="46.70936" lon="5.64691">
        <ele>313</ele>
        <time>2025-10-10T09:18:21.532+00:00</time>
      </trkpt>
      <trkpt lat="46.70934" lon="5.64689">
        <ele>313</ele>
        <time>2025-10-10T09:18:25.861+00:00</time>
      </trkpt>
      <trkpt lat="46.70931" lon="5.64692">
        <ele>313</ele>
        <time>2025-10-10T09:18:30.528+00:00</time>
      </trkpt>
      <trkpt lat="46.70926" lon="5.64692">
        <ele>310</ele>
        <time>2025-10-10T09:18:35.290+00:00</time>
      </trkpt>
      <trkpt lat="46.70922" lon="5.64696">
        <ele>310</ele>
        <time>2025-10-10T09:18:39.532+00:00</time>
      </trkpt>
      <trkpt lat="46.70917" lon="5.64701">
        <ele>310</ele>
        <time>2025-10-10T09:18:44.532+00:00</time>
      </trkpt>
      <trkpt lat="46.70912" lon="5.64706">
        <ele>310</ele>
        <time>2025-10-10T09:18:49.524+00:00</time>
      </trkpt>
      <trkpt lat="46.70907" lon="5.6471">
        <ele>314</ele>
        <time>2025-10-10T09:18:54.370+00:00</time>
      </trkpt>
      <trkpt lat="46.70902" lon="5.64708">
        <ele>308</ele>
        <time>2025-10-10T09:19:08.504+00:00</time>
      </trkpt>
      <trkpt lat="46.70898" lon="5.64711">
        <ele>311</ele>
        <time>2025-10-10T09:19:13.004+00:00</time>
      </trkpt>
      <trkpt lat="46.70894" lon="5.64715">
        <ele>311</ele>
        <time>2025-10-10T09:19:17.530+00:00</time>
      </trkpt>
      <trkpt lat="46.70892" lon="5.64721">
        <ele>311</ele>
        <time>2025-10-10T09:19:21.532+00:00</time>
      </trkpt>
      <trkpt lat="46.70887" lon="5.64725">
        <ele>311</ele>
        <time>2025-10-10T09:19:26.046+00:00</time>
      </trkpt>
      <trkpt lat="46.7088" lon="5.64732">
        <ele>311</ele>
        <time>2025-10-10T09:19:30.185+00:00</time>
      </trkpt>
      <trkpt lat="46.70878" lon="5.64741">
        <ele>315</ele>
        <time>2025-10-10T09:19:34.526+00:00</time>
      </trkpt>
      <trkpt lat="46.70878" lon="5.64751">
        <ele>315</ele>
        <time>2025-10-10T09:19:39.532+00:00</time>
      </trkpt>
      <trkpt lat="46.70879" lon="5.64752">
        <ele>315</ele>
        <time>2025-10-10T09:19:44.530+00:00</time>
      </trkpt>
      <trkpt lat="46.70881" lon="5.64752">
        <ele>315</ele>
        <time>2025-10-10T09:20:51.532+00:00</time>
      </trkpt>
      <trkpt lat="46.70878" lon="5.64745">
        <ele>315</ele>
        <time>2025-10-10T09:20:56.530+00:00</time>
      </trkpt>
      <trkpt lat="46.70876" lon="5.64738">
        <ele>315</ele>
        <time>2025-10-10T09:21:00.532+00:00</time>
      </trkpt>
      <trkpt lat="46.70876" lon="5.64732">
        <ele>311</ele>
        <time>2025-10-10T09:21:04.532+00:00</time>
      </trkpt>
      <trkpt lat="46.70878" lon="5.64724">
        <ele>311</ele>
        <time>2025-10-10T09:21:09.529+00:00</time>
      </trkpt>
      <trkpt lat="46.70879" lon="5.64719">
        <ele>311</ele>
        <time>2025-10-10T09:21:30.524+00:00</time>
      </trkpt>
      <trkpt lat="46.7088" lon="5.64721">
        <ele>311</ele>
        <time>2025-10-10T09:21:35.308+00:00</time>
      </trkpt>
      <trkpt lat="46.70882" lon="5.64729">
        <ele>311</ele>
        <time>2025-10-10T09:21:39.532+00:00</time>
      </trkpt>
      <trkpt lat="46.70878" lon="5.64738">
        <ele>315</ele>
        <time>2025-10-10T09:21:44.465+00:00</time>
      </trkpt>
      <trkpt lat="46.70878" lon="5.64742">
        <ele>315</ele>
        <time>2025-10-10T09:21:48.505+00:00</time>
      </trkpt>
      <trkpt lat="46.70879" lon="5.64742">
        <ele>315</ele>
        <time>2025-10-10T09:21:52.532+00:00</time>
      </trkpt>
      <trkpt lat="46.70878" lon="5.64742">
        <ele>315</ele>
        <time>2025-10-10T09:21:58.532+00:00</time>
      </trkpt>
      <trkpt lat="46.70877" lon="5.6474">
        <ele>315</ele>
        <time>2025-10-10T09:22:03.236+00:00</time>
      </trkpt>
      <trkpt lat="46.70873" lon="5.64737">
        <ele>311</ele>
        <time>2025-10-10T09:22:07.442+00:00</time>
      </trkpt>
      <trkpt lat="46.70871" lon="5.64731">
        <ele>308</ele>
        <time>2025-10-10T09:22:11.532+00:00</time>
      </trkpt>
      <trkpt lat="46.70861" lon="5.64733">
        <ele>308</ele>
        <time>2025-10-10T09:22:32.529+00:00</time>
      </trkpt>
      <trkpt lat="46.70854" lon="5.64732">
        <ele>308</ele>
        <time>2025-10-10T09:22:36.532+00:00</time>
      </trkpt>
      <trkpt lat="46.70849" lon="5.64739">
        <ele>311</ele>
        <time>2025-10-10T09:22:41.226+00:00</time>
      </trkpt>
      <trkpt lat="46.70845" lon="5.64745">
        <ele>313</ele>
        <time>2025-10-10T09:22:45.243+00:00</time>
      </trkpt>
      <trkpt lat="46.7084" lon="5.6474">
        <ele>313</ele>
        <time>2025-10-10T09:22:49.532+00:00</time>
      </trkpt>
      <trkpt lat="46.70839" lon="5.6474">
        <ele>313</ele>
        <time>2025-10-10T09:22:53.527+00:00</time>
      </trkpt>
      <trkpt lat="46.70839" lon="5.64741">
        <ele>313</ele>
        <time>2025-10-10T09:22:58.526+00:00</time>
      </trkpt>
      <trkpt lat="46.70842" lon="5.64749">
        <ele>313</ele>
        <time>2025-10-10T09:23:02.529+00:00</time>
      </trkpt>
      <trkpt lat="46.70848" lon="5.64753">
        <ele>311</ele>
        <time>2025-10-10T09:23:07.325+00:00</time>
      </trkpt>
      <trkpt lat="46.70845" lon="5.64755">
        <ele>313</ele>
        <time>2025-10-10T09:23:11.391+00:00</time>
      </trkpt>
      <trkpt lat="46.70843" lon="5.64757">
        <ele>313</ele>
        <time>2025-10-10T09:23:15.532+00:00</time>
      </trkpt>
      <trkpt lat="46.70841" lon="5.64763">
        <ele>313</ele>
        <time>2025-10-10T09:23:20.528+00:00</time>
      </trkpt>
      <trkpt lat="46.70845" lon="5.64766">
        <ele>314</ele>
        <time>2025-10-10T09:23:25.528+00:00</time>
      </trkpt>
      <trkpt lat="46.70844" lon="5.64772">
        <ele>314</ele>
        <time>2025-10-10T09:23:29.973+00:00</time>
      </trkpt>
      <trkpt lat="46.70841" lon="5.64778">
        <ele>314</ele>
        <time>2025-10-10T09:23:34.532+00:00</time>
      </trkpt>
      <trkpt lat="46.70836" lon="5.64783">
        <ele>314</ele>
        <time>2025-10-10T09:23:39.449+00:00</time>
      </trkpt>
      <trkpt lat="46.7083" lon="5.64784">
        <ele>314</ele>
        <time>2025-10-10T09:23:43.727+00:00</time>
      </trkpt>
      <trkpt lat="46.70827" lon="5.64786">
        <ele>314</ele>
        <time>2025-10-10T09:23:47.525+00:00</time>
      </trkpt>
      <trkpt lat="46.70826" lon="5.64792">
        <ele>316</ele>
        <time>2025-10-10T09:23:56.527+00:00</time>
      </trkpt>
      <trkpt lat="46.70826" lon="5.64792">
        <ele>316</ele>
        <time>2025-10-10T09:24:00.532+00:00</time>
      </trkpt>
      <trkpt lat="46.70825" lon="5.64792">
        <ele>316</ele>
        <time>2025-10-10T09:24:05.228+00:00</time>
      </trkpt>
      <trkpt lat="46.70822" lon="5.64796">
        <ele>316</ele>
        <time>2025-10-10T09:24:09.527+00:00</time>
      </trkpt>
      <trkpt lat="46.70823" lon="5.64807">
        <ele>316</ele>
        <time>2025-10-10T09:24:13.947+00:00</time>
      </trkpt>
      <trkpt lat="46.70832" lon="5.64817">
        <ele>316</ele>
        <time>2025-10-10T09:24:40.799+00:00</time>
      </trkpt>
      <trkpt lat="46.70831" lon="5.64808">
        <ele>316</ele>
        <time>2025-10-10T09:24:45.303+00:00</time>
      </trkpt>
      <trkpt lat="46.70827" lon="5.64801">
        <ele>316</ele>
        <time>2025-10-10T09:24:50.297+00:00</time>
      </trkpt>
      <trkpt lat="46.70821" lon="5.64801">
        <ele>316</ele>
        <time>2025-10-10T09:24:54.532+00:00</time>
      </trkpt>
      <trkpt lat="46.70816" lon="5.64808">
        <ele>315</ele>
        <time>2025-10-10T09:24:59.496+00:00</time>
      </trkpt>
      <trkpt lat="46.70814" lon="5.64814">
        <ele>315</ele>
        <time>2025-10-10T09:25:03.945+00:00</time>
      </trkpt>
      <trkpt lat="46.70813" lon="5.64818">
        <ele>315</ele>
        <time>2025-10-10T09:25:08.527+00:00</time>
      </trkpt>
      <trkpt lat="46.70812" lon="5.64822">
        <ele>317</ele>
        <time>2025-10-10T09:25:12.899+00:00</time>
      </trkpt>
      <trkpt lat="46.70809" lon="5.64827">
        <ele>317</ele>
        <time>2025-10-10T09:25:16.963+00:00</time>
      </trkpt>
      <trkpt lat="46.70807" lon="5.64833">
        <ele>317</ele>
        <time>2025-10-10T09:25:21.243+00:00</time>
      </trkpt>
      <trkpt lat="46.70803" lon="5.64827">
        <ele>317</ele>
        <time>2025-10-10T09:25:25.843+00:00</time>
      </trkpt>
      <trkpt lat="46.708" lon="5.64824">
        <ele>317</ele>
        <time>2025-10-10T09:25:30.103+00:00</time>
      </trkpt>
      <trkpt lat="46.70799" lon="5.64824">
        <ele>317</ele>
        <time>2025-10-10T09:25:34.532+00:00</time>
      </trkpt>
      <trkpt lat="46.708" lon="5.64827">
        <ele>317</ele>
        <time>2025-10-10T09:25:39.532+00:00</time>
      </trkpt>
      <trkpt lat="46.70797" lon="5.64836">
        <ele>317</ele>
        <time>2025-10-10T09:25:44.494+00:00</time>
      </trkpt>
      <trkpt lat="46.70799" lon="5.64842">
        <ele>317</ele>
        <time>2025-10-10T09:25:48.517+00:00</time>
      </trkpt>
      <trkpt lat="46.708" lon="5.64847">
        <ele>317</ele>
        <time>2025-10-10T09:25:53.479+00:00</time>
      </trkpt>
      <trkpt lat="46.70801" lon="5.64855">
        <ele>320</ele>
        <time>2025-10-10T09:27:10.120+00:00</time>
      </trkpt>
      <trkpt lat="46.70796" lon="5.64859">
        <ele>320</ele>
        <time>2025-10-10T09:27:14.532+00:00</time>
      </trkpt>
      <trkpt lat="46.70798" lon="5.64864">
        <ele>320</ele>
        <time>2025-10-10T09:27:19.123+00:00</time>
      </trkpt>
      <trkpt lat="46.70798" lon="5.64871">
        <ele>320</ele>
        <time>2025-10-10T09:27:23.530+00:00</time>
      </trkpt>
      <trkpt lat="46.70797" lon="5.64872">
        <ele>320</ele>
        <time>2025-10-10T09:27:27.530+00:00</time>
      </trkpt>
      <trkpt lat="46.70795" lon="5.64874">
        <ele>320</ele>
        <time>2025-10-10T09:27:32.530+00:00</time>
      </trkpt>
      <trkpt lat="46.70794" lon="5.64874">
        <ele>320</ele>
        <time>2025-10-10T09:27:36.888+00:00</time>
      </trkpt>
      <trkpt lat="46.70789" lon="5.64879">
        <ele>321</ele>
        <time>2025-10-10T09:27:41.530+00:00</time>
      </trkpt>
      <trkpt lat="46.70785" lon="5.64882">
        <ele>321</ele>
        <time>2025-10-10T09:27:46.159+00:00</time>
      </trkpt>
      <trkpt lat="46.70783" lon="5.64889">
        <ele>321</ele>
        <time>2025-10-10T09:28:25.458+00:00</time>
      </trkpt>
      <trkpt lat="46.70779" lon="5.64891">
        <ele>321</ele>
        <time>2025-10-10T09:28:29.531+00:00</time>
      </trkpt>
      <trkpt lat="46.70781" lon="5.64898">
        <ele>321</ele>
        <time>2025-10-10T09:28:34.528+00:00</time>
      </trkpt>
      <trkpt lat="46.70783" lon="5.649">
        <ele>321</ele>
        <time>2025-10-10T09:28:40.141+00:00</time>
      </trkpt>
      <trkpt lat="46.70781" lon="5.64903">
        <ele>323</ele>
        <time>2025-10-10T09:28:44.532+00:00</time>
      </trkpt>
      <trkpt lat="46.70782" lon="5.64906">
        <ele>323</ele>
        <time>2025-10-10T09:29:01.524+00:00</time>
      </trkpt>
      <trkpt lat="46.70781" lon="5.64901">
        <ele>321</ele>
        <time>2025-10-10T09:29:05.861+00:00</time>
      </trkpt>
      <trkpt lat="46.70781" lon="5.649">
        <ele>321</ele>
        <time>2025-10-10T09:29:10.526+00:00</time>
      </trkpt>
      <trkpt lat="46.70783" lon="5.649">
        <ele>321</ele>
        <time>2025-10-10T09:29:15.065+00:00</time>
      </trkpt>
      <trkpt lat="46.70785" lon="5.6489">
        <ele>321</ele>
        <time>2025-10-10T09:29:19.532+00:00</time>
      </trkpt>
      <trkpt lat="46.70785" lon="5.64879">
        <ele>321</ele>
        <time>2025-10-10T09:29:24.525+00:00</time>
      </trkpt>
      <trkpt lat="46.70787" lon="5.64881">
        <ele>321</ele>
        <time>2025-10-10T09:29:30.381+00:00</time>
      </trkpt>
      <trkpt lat="46.7079" lon="5.64888">
        <ele>321</ele>
        <time>2025-10-10T09:29:35.387+00:00</time>
      </trkpt>
      <trkpt lat="46.70791" lon="5.64897">
        <ele>321</ele>
        <time>2025-10-10T09:29:39.532+00:00</time>
      </trkpt>
      <trkpt lat="46.70789" lon="5.64905">
        <ele>323</ele>
        <time>2025-10-10T09:29:43.528+00:00</time>
      </trkpt>
      <trkpt lat="46.70787" lon="5.64908">
        <ele>323</ele>
        <time>2025-10-10T09:29:48.383+00:00</time>
      </trkpt>
      <trkpt lat="46.70782" lon="5.64912">
        <ele>323</ele>
        <time>2025-10-10T09:29:52.901+00:00</time>
      </trkpt>
      <trkpt lat="46.70779" lon="5.64918">
        <ele>323</ele>
        <time>2025-10-10T09:29:57.014+00:00</time>
      </trkpt>
      <trkpt lat="46.70776" lon="5.64922">
        <ele>323</ele>
        <time>2025-10-10T09:30:01.144+00:00</time>
      </trkpt>
      <trkpt lat="46.70776" lon="5.64921">
        <ele>323</ele>
        <time>2025-10-10T09:30:06.530+00:00</time>
      </trkpt>
      <trkpt lat="46.70773" lon="5.6492">
        <ele>323</ele>
        <time>2025-10-10T09:30:11.044+00:00</time>
      </trkpt>
      <trkpt lat="46.70767" lon="5.64915">
        <ele>323</ele>
        <time>2025-10-10T09:30:15.530+00:00</time>
      </trkpt>
      <trkpt lat="46.70764" lon="5.6491">
        <ele>323</ele>
        <time>2025-10-10T09:30:19.532+00:00</time>
      </trkpt>
      <trkpt lat="46.7076" lon="5.64908">
        <ele>320</ele>
        <time>2025-10-10T09:30:23.997+00:00</time>
      </trkpt>
      <trkpt lat="46.70755" lon="5.64908">
        <ele>320</ele>
        <time>2025-10-10T09:30:28.525+00:00</time>
      </trkpt>
      <trkpt lat="46.70753" lon="5.64905">
        <ele>320</ele>
        <time>2025-10-10T09:30:33.443+00:00</time>
      </trkpt>
      <trkpt lat="46.7075" lon="5.64898">
        <ele>317</ele>
        <time>2025-10-10T09:30:37.965+00:00</time>
      </trkpt>
      <trkpt lat="46.70745" lon="5.64894">
        <ele>317</ele>
        <time>2025-10-10T09:30:42.126+00:00</time>
      </trkpt>
      <trkpt lat="46.7074" lon="5.64894">
        <ele>317</ele>
        <time>2025-10-10T09:30:46.531+00:00</time>
      </trkpt>
      <trkpt lat="46.70734" lon="5.64894">
        <ele>313</ele>
        <time>2025-10-10T09:30:51.097+00:00</time>
      </trkpt>
      <trkpt lat="46.7073" lon="5.64888">
        <ele>313</ele>
        <time>2025-10-10T09:30:55.202+00:00</time>
      </trkpt>
      <trkpt lat="46.70725" lon="5.64883">
        <ele>313</ele>
        <time>2025-10-10T09:30:59.419+00:00</time>
      </trkpt>
      <trkpt lat="46.7072" lon="5.64876">
        <ele>313</ele>
        <time>2025-10-10T09:31:04.529+00:00</time>
      </trkpt>
      <trkpt lat="46.70719" lon="5.64875">
        <ele>313</ele>
        <time>2025-10-10T09:31:05.318+00:00</time>
      </trkpt>
      <trkpt lat="46.70715" lon="5.64869">
        <ele>311</ele>
        <time>2025-10-10T09:31:14.320+00:00</time>
      </trkpt>
      <trkpt lat="46.70713" lon="5.64863">
        <ele>311</ele>
        <time>2025-10-10T09:31:18.525+00:00</time>
      </trkpt>
      <trkpt lat="46.70713" lon="5.64855">
        <ele>311</ele>
        <time>2025-10-10T09:31:23.532+00:00</time>
      </trkpt>
      <trkpt lat="46.70714" lon="5.64851">
        <ele>311</ele>
        <time>2025-10-10T09:31:27.530+00:00</time>
      </trkpt>
      <trkpt lat="46.70716" lon="5.64848">
        <ele>311</ele>
        <time>2025-10-10T09:31:31.528+00:00</time>
      </trkpt>
      <trkpt lat="46.70719" lon="5.64845">
        <ele>308</ele>
        <time>2025-10-10T09:31:36.529+00:00</time>
      </trkpt>
      <trkpt lat="46.7072" lon="5.64841">
        <ele>308</ele>
        <time>2025-10-10T09:31:40.530+00:00</time>
      </trkpt>
      <trkpt lat="46.70721" lon="5.64836">
        <ele>308</ele>
        <time>2025-10-10T09:31:44.941+00:00</time>
      </trkpt>
      <trkpt lat="46.7072" lon="5.64838">
        <ele>308</ele>
        <time>2025-10-10T09:32:04.532+00:00</time>
      </trkpt>
      <trkpt lat="46.70719" lon="5.64826">
        <ele>308</ele>
        <time>2025-10-10T09:32:09.380+00:00</time>
      </trkpt>
      <trkpt lat="46.70711" lon="5.6482">
        <ele>308</ele>
        <time>2025-10-10T09:32:14.523+00:00</time>
      </trkpt>
      <trkpt lat="46.7071" lon="5.6482">
        <ele>308</ele>
        <time>2025-10-10T09:32:19.123+00:00</time>
      </trkpt>
      <trkpt lat="46.70709" lon="5.64809">
        <ele>306</ele>
        <time>2025-10-10T09:32:23.859+00:00</time>
      </trkpt>
      <trkpt lat="46.70707" lon="5.64801">
        <ele>306</ele>
        <time>2025-10-10T09:32:28.532+00:00</time>
      </trkpt>
      <trkpt lat="46.70707" lon="5.64793">
        <ele>306</ele>
        <time>2025-10-10T09:32:33.205+00:00</time>
      </trkpt>
      <trkpt lat="46.70712" lon="5.6479">
        <ele>303</ele>
        <time>2025-10-10T09:32:37.532+00:00</time>
      </trkpt>
      <trkpt lat="46.70716" lon="5.64789">
        <ele>303</ele>
        <time>2025-10-10T09:32:42.525+00:00</time>
      </trkpt>
      <trkpt lat="46.70716" lon="5.6479">
        <ele>303</ele>
        <time>2025-10-10T09:32:47.524+00:00</time>
      </trkpt>
      <trkpt lat="46.70715" lon="5.64791">
        <ele>303</ele>
        <time>2025-10-10T09:32:52.528+00:00</time>
      </trkpt>
      <trkpt lat="46.70709" lon="5.6479">
        <ele>303</ele>
        <time>2025-10-10T09:32:56.745+00:00</time>
      </trkpt>
      <trkpt lat="46.70701" lon="5.64789">
        <ele>304</ele>
        <time>2025-10-10T09:33:01.365+00:00</time>
      </trkpt>
      <trkpt lat="46.70695" lon="5.64788">
        <ele>304</ele>
        <time>2025-10-10T09:33:05.526+00:00</time>
      </trkpt>
      <trkpt lat="46.70689" lon="5.64785">
        <ele>304</ele>
        <time>2025-10-10T09:33:09.782+00:00</time>
      </trkpt>
      <trkpt lat="46.70684" lon="5.64782">
        <ele>304</ele>
        <time>2025-10-10T09:33:13.900+00:00</time>
      </trkpt>
      <trkpt lat="46.70677" lon="5.64782">
        <ele>307</ele>
        <time>2025-10-10T09:33:18.021+00:00</time>
      </trkpt>
      <trkpt lat="46.70671" lon="5.64785">
        <ele>307</ele>
        <time>2025-10-10T09:33:22.176+00:00</time>
      </trkpt>
      <trkpt lat="46.70665" lon="5.64785">
        <ele>307</ele>
        <time>2025-10-10T09:33:26.528+00:00</time>
      </trkpt>
      <trkpt lat="46.70659" lon="5.64789">
        <ele>307</ele>
        <time>2025-10-10T09:33:31.024+00:00</time>
      </trkpt>
      <trkpt lat="46.70657" lon="5.64787">
        <ele>307</ele>
        <time>2025-10-10T09:33:35.529+00:00</time>
      </trkpt>
      <trkpt lat="46.7066" lon="5.64786">
        <ele>307</ele>
        <time>2025-10-10T09:34:41.527+00:00</time>
      </trkpt>
      <trkpt lat="46.70665" lon="5.64784">
        <ele>307</ele>
        <time>2025-10-10T09:34:46.417+00:00</time>
      </trkpt>
      <trkpt lat="46.70669" lon="5.64788">
        <ele>307</ele>
        <time>2025-10-10T09:34:50.759+00:00</time>
      </trkpt>
      <trkpt lat="46.70674" lon="5.6479">
        <ele>307</ele>
        <time>2025-10-10T09:34:55.401+00:00</time>
      </trkpt>
      <trkpt lat="46.7068" lon="5.64791">
        <ele>307</ele>
        <time>2025-10-10T09:35:04.380+00:00</time>
      </trkpt>
      <trkpt lat="46.70692" lon="5.64788">
        <ele>304</ele>
        <time>2025-10-10T09:35:30.101+00:00</time>
      </trkpt>
      <trkpt lat="46.70695" lon="5.64794">
        <ele>306</ele>
        <time>2025-10-10T09:35:34.242+00:00</time>
      </trkpt>
      <trkpt lat="46.70698" lon="5.64795">
        <ele>306</ele>
        <time>2025-10-10T09:35:38.860+00:00</time>
      </trkpt>
      <trkpt lat="46.70701" lon="5.64796">
        <ele>306</ele>
        <time>2025-10-10T09:35:43.204+00:00</time>
      </trkpt>
      <trkpt lat="46.70704" lon="5.64796">
        <ele>306</ele>
        <time>2025-10-10T09:35:47.528+00:00</time>
      </trkpt>
      <trkpt lat="46.70709" lon="5.64797">
        <ele>306</ele>
        <time>2025-10-10T09:35:56.532+00:00</time>
      </trkpt>
      <trkpt lat="46.70711" lon="5.64796">
        <ele>306</ele>
        <time>2025-10-10T09:36:02.526+00:00</time>
      </trkpt>
      <trkpt lat="46.70711" lon="5.64796">
        <ele>306</ele>
        <time>2025-10-10T09:36:07.532+00:00</time>
      </trkpt>
      <trkpt lat="46.70715" lon="5.64795">
        <ele>306</ele>
        <time>2025-10-10T09:36:11.842+00:00</time>
      </trkpt>
      <trkpt lat="46.70718" lon="5.6479">
        <ele>303</ele>
        <time>2025-10-10T09:36:16.532+00:00</time>
      </trkpt>
      <trkpt lat="46.70726" lon="5.64791">
        <ele>303</ele>
        <time>2025-10-10T09:37:36.532+00:00</time>
      </trkpt>
      <trkpt lat="46.70727" lon="5.64791">
        <ele>303</ele>
        <time>2025-10-10T09:37:41.523+00:00</time>
      </trkpt>
      <trkpt lat="46.70727" lon="5.6479">
        <ele>303</ele>
        <time>2025-10-10T09:37:46.527+00:00</time>
      </trkpt>
      <trkpt lat="46.7073" lon="5.64788">
        <ele>303</ele>
        <time>2025-10-10T09:37:50.528+00:00</time>
      </trkpt>
      <trkpt lat="46.70735" lon="5.64787">
        <ele>303</ele>
        <time>2025-10-10T09:37:55.096+00:00</time>
      </trkpt>
      <trkpt lat="46.70738" lon="5.64786">
        <ele>306</ele>
        <time>2025-10-10T09:37:59.421+00:00</time>
      </trkpt>
      <trkpt lat="46.70741" lon="5.64784">
        <ele>306</ele>
        <time>2025-10-10T09:38:03.531+00:00</time>
      </trkpt>
      <trkpt lat="46.70745" lon="5.64783">
        <ele>306</ele>
        <time>2025-10-10T09:38:07.939+00:00</time>
      </trkpt>
      <trkpt lat="46.70748" lon="5.6478">
        <ele>306</ele>
        <time>2025-10-10T09:38:12.137+00:00</time>
      </trkpt>
      <trkpt lat="46.70752" lon="5.64778">
        <ele>306</ele>
        <time>2025-10-10T09:38:16.379+00:00</time>
      </trkpt>
      <trkpt lat="46.70755" lon="5.64776">
        <ele>306</ele>
        <time>2025-10-10T09:38:20.532+00:00</time>
      </trkpt>
      <trkpt lat="46.7076" lon="5.64773">
        <ele>306</ele>
        <time>2025-10-10T09:38:24.597+00:00</time>
      </trkpt>
      <trkpt lat="46.70763" lon="5.64768">
        <ele>306</ele>
        <time>2025-10-10T09:38:29.401+00:00</time>
      </trkpt>
      <trkpt lat="46.70766" lon="5.64766">
        <ele>309</ele>
        <time>2025-10-10T09:38:33.525+00:00</time>
      </trkpt>
      <trkpt lat="46.70768" lon="5.64764">
        <ele>309</ele>
        <time>2025-10-10T09:38:37.529+00:00</time>
      </trkpt>
      <trkpt lat="46.70771" lon="5.64761">
        <ele>306</ele>
        <time>2025-10-10T09:38:42.532+00:00</time>
      </trkpt>
      <trkpt lat="46.70775" lon="5.64755">
        <ele>306</ele>
        <time>2025-10-10T09:38:47.177+00:00</time>
      </trkpt>
      <trkpt lat="46.70779" lon="5.6475">
        <ele>306</ele>
        <time>2025-10-10T09:38:51.529+00:00</time>
      </trkpt>
      <trkpt lat="46.7078" lon="5.64745">
        <ele>306</ele>
        <time>2025-10-10T09:38:55.722+00:00</time>
      </trkpt>
      <trkpt lat="46.7078" lon="5.64739">
        <ele>306</ele>
        <time>2025-10-10T09:39:00.098+00:00</time>
      </trkpt>
      <trkpt lat="46.7078" lon="5.64732">
        <ele>304</ele>
        <time>2025-10-10T09:39:04.459+00:00</time>
      </trkpt>
      <trkpt lat="46.70782" lon="5.64725">
        <ele>304</ele>
        <time>2025-10-10T09:39:08.935+00:00</time>
      </trkpt>
      <trkpt lat="46.70782" lon="5.64719">
        <ele>304</ele>
        <time>2025-10-10T09:39:13.223+00:00</time>
      </trkpt>
      <trkpt lat="46.70783" lon="5.64713">
        <ele>304</ele>
        <time>2025-10-10T09:39:17.522+00:00</time>
      </trkpt>
      <trkpt lat="46.70784" lon="5.64707">
        <ele>300</ele>
        <time>2025-10-10T09:39:21.530+00:00</time>
      </trkpt>
      <trkpt lat="46.70785" lon="5.64699">
        <ele>300</ele>
        <time>2025-10-10T09:39:26.525+00:00</time>
      </trkpt>
      <trkpt lat="46.70783" lon="5.64692">
        <ele>300</ele>
        <time>2025-10-10T09:39:31.526+00:00</time>
      </trkpt>
      <trkpt lat="46.70782" lon="5.64686">
        <ele>300</ele>
        <time>2025-10-10T09:39:36.481+00:00</time>
      </trkpt>
      <trkpt lat="46.70782" lon="5.6468">
        <ele>299</ele>
        <time>2025-10-10T09:39:40.978+00:00</time>
      </trkpt>
      <trkpt lat="46.70781" lon="5.64675">
        <ele>299</ele>
        <time>2025-10-10T09:39:45.527+00:00</time>
      </trkpt>
      <trkpt lat="46.70781" lon="5.64672">
        <ele>299</ele>
        <time>2025-10-10T09:39:54.522+00:00</time>
      </trkpt>
      <trkpt lat="46.7078" lon="5.64666">
        <ele>299</ele>
        <time>2025-10-10T09:39:59.241+00:00</time>
      </trkpt>
      <trkpt lat="46.70777" lon="5.64658">
        <ele>299</ele>
        <time>2025-10-10T09:40:03.524+00:00</time>
      </trkpt>
      <trkpt lat="46.70774" lon="5.64656">
        <ele>299</ele>
        <time>2025-10-10T09:40:08.139+00:00</time>
      </trkpt>
      <trkpt lat="46.70773" lon="5.64648">
        <ele>303</ele>
        <time>2025-10-10T09:40:12.527+00:00</time>
      </trkpt>
      <trkpt lat="46.70773" lon="5.64643">
        <ele>303</ele>
        <time>2025-10-10T09:40:17.086+00:00</time>
      </trkpt>
      <trkpt lat="46.7077" lon="5.64635">
        <ele>303</ele>
        <time>2025-10-10T09:40:21.523+00:00</time>
      </trkpt>
      <trkpt lat="46.70766" lon="5.64628">
        <ele>303</ele>
        <time>2025-10-10T09:40:26.346+00:00</time>
      </trkpt>
      <trkpt lat="46.70761" lon="5.64629">
        <ele>302</ele>
        <time>2025-10-10T09:40:30.532+00:00</time>
      </trkpt>
      <trkpt lat="46.70757" lon="5.64633">
        <ele>302</ele>
        <time>2025-10-10T09:40:34.903+00:00</time>
      </trkpt>
      <trkpt lat="46.70752" lon="5.64636">
        <ele>302</ele>
        <time>2025-10-10T09:40:39.143+00:00</time>
      </trkpt>
      <trkpt lat="46.70747" lon="5.64637">
        <ele>302</ele>
        <time>2025-10-10T09:40:43.554+00:00</time>
      </trkpt>
      <trkpt lat="46.70743" lon="5.6464">
        <ele>302</ele>
        <time>2025-10-10T09:40:47.958+00:00</time>
      </trkpt>
      <trkpt lat="46.70739" lon="5.64643">
        <ele>302</ele>
        <time>2025-10-10T09:40:52.439+00:00</time>
      </trkpt>
      <trkpt lat="46.70735" lon="5.64647">
        <ele>307</ele>
        <time>2025-10-10T09:40:57.532+00:00</time>
      </trkpt>
      <trkpt lat="46.70736" lon="5.64652">
        <ele>307</ele>
        <time>2025-10-10T09:41:02.524+00:00</time>
      </trkpt>
      <trkpt lat="46.70735" lon="5.64651">
        <ele>307</ele>
        <time>2025-10-10T09:41:07.339+00:00</time>
      </trkpt>
      <trkpt lat="46.70728" lon="5.64652">
        <ele>307</ele>
        <time>2025-10-10T09:41:11.525+00:00</time>
      </trkpt>
      <trkpt lat="46.70723" lon="5.64653">
        <ele>301</ele>
        <time>2025-10-10T09:41:16.144+00:00</time>
      </trkpt>
      <trkpt lat="46.70718" lon="5.64654">
        <ele>301</ele>
        <time>2025-10-10T09:41:20.303+00:00</time>
      </trkpt>
      <trkpt lat="46.70715" lon="5.64658">
        <ele>301</ele>
        <time>2025-10-10T09:41:24.532+00:00</time>
      </trkpt>
      <trkpt lat="46.70711" lon="5.64658">
        <ele>301</ele>
        <time>2025-10-10T09:41:29.011+00:00</time>
      </trkpt>
      <trkpt lat="46.70706" lon="5.64662">
        <ele>304</ele>
        <time>2025-10-10T09:41:33.532+00:00</time>
      </trkpt>
      <trkpt lat="46.707" lon="5.64662">
        <ele>304</ele>
        <time>2025-10-10T09:41:38.532+00:00</time>
      </trkpt>
      <trkpt lat="46.70695" lon="5.64664">
        <ele>304</ele>
        <time>2025-10-10T09:41:43.525+00:00</time>
      </trkpt>
      <trkpt lat="46.70694" lon="5.64664">
        <ele>304</ele>
        <time>2025-10-10T09:41:48.506+00:00</time>
      </trkpt>
      <trkpt lat="46.70694" lon="5.64664">
        <ele>304</ele>
        <time>2025-10-10T09:41:52.532+00:00</time>
      </trkpt>
      <trkpt lat="46.70686" lon="5.64664">
        <ele>304</ele>
        <time>2025-10-10T09:41:57.142+00:00</time>
      </trkpt>
      <trkpt lat="46.70686" lon="5.6467">
        <ele>304</ele>
        <time>2025-10-10T09:42:01.526+00:00</time>
      </trkpt>
      <trkpt lat="46.70679" lon="5.64668">
        <ele>305</ele>
        <time>2025-10-10T09:42:06.522+00:00</time>
      </trkpt>
      <trkpt lat="46.70672" lon="5.64665">
        <ele>305</ele>
        <time>2025-10-10T09:42:10.664+00:00</time>
      </trkpt>
      <trkpt lat="46.70668" lon="5.64668">
        <ele>305</ele>
        <time>2025-10-10T09:42:15.523+00:00</time>
      </trkpt>
      <trkpt lat="46.70669" lon="5.64671">
        <ele>305</ele>
        <time>2025-10-10T09:43:01+00:00</time>
      </trkpt>
      <trkpt lat="46.70664" lon="5.64672">
        <ele>305</ele>
        <time>2025-10-10T09:43:05.079+00:00</time>
      </trkpt>
      <trkpt lat="46.70659" lon="5.64668">
        <ele>305</ele>
        <time>2025-10-10T09:43:09.145+00:00</time>
      </trkpt>
      <trkpt lat="46.70655" lon="5.64661">
        <ele>305</ele>
        <time>2025-10-10T09:43:13.365+00:00</time>
      </trkpt>
      <trkpt lat="46.70652" lon="5.64658">
        <ele>305</ele>
        <time>2025-10-10T09:43:17.524+00:00</time>
      </trkpt>
      <trkpt lat="46.70646" lon="5.64657">
        <ele>305</ele>
        <time>2025-10-10T09:43:21.803+00:00</time>
      </trkpt>
      <trkpt lat="46.7064" lon="5.64656">
        <ele>305</ele>
        <time>2025-10-10T09:43:26.408+00:00</time>
      </trkpt>
      <trkpt lat="46.70636" lon="5.64653">
        <ele>305</ele>
        <time>2025-10-10T09:43:30.806+00:00</time>
      </trkpt>
      <trkpt lat="46.70631" lon="5.64651">
        <ele>309</ele>
        <time>2025-10-10T09:43:35.258+00:00</time>
      </trkpt>
      <trkpt lat="46.70628" lon="5.64648">
        <ele>309</ele>
        <time>2025-10-10T09:43:39.427+00:00</time>
      </trkpt>
      <trkpt lat="46.70622" lon="5.64646">
        <ele>309</ele>
        <time>2025-10-10T09:43:43.524+00:00</time>
      </trkpt>
      <trkpt lat="46.70616" lon="5.64647">
        <ele>309</ele>
        <time>2025-10-10T09:43:47.999+00:00</time>
      </trkpt>
      <trkpt lat="46.70611" lon="5.64649">
        <ele>309</ele>
        <time>2025-10-10T09:43:52.165+00:00</time>
      </trkpt>
      <trkpt lat="46.70605" lon="5.64652">
        <ele>309</ele>
        <time>2025-10-10T09:43:56.532+00:00</time>
      </trkpt>
      <trkpt lat="46.706" lon="5.64652">
        <ele>309</ele>
        <time>2025-10-10T09:44:00.768+00:00</time>
      </trkpt>
      <trkpt lat="46.70594" lon="5.64652">
        <ele>313</ele>
        <time>2025-10-10T09:44:05.318+00:00</time>
      </trkpt>
      <trkpt lat="46.70589" lon="5.64653">
        <ele>310</ele>
        <time>2025-10-10T09:44:09.529+00:00</time>
      </trkpt>
      <trkpt lat="46.70585" lon="5.64654">
        <ele>310</ele>
        <time>2025-10-10T09:44:13.788+00:00</time>
      </trkpt>
      <trkpt lat="46.7058" lon="5.64655">
        <ele>310</ele>
        <time>2025-10-10T09:44:17.843+00:00</time>
      </trkpt>
      <trkpt lat="46.70575" lon="5.64656">
        <ele>310</ele>
        <time>2025-10-10T09:44:22.298+00:00</time>
      </trkpt>
      <trkpt lat="46.7057" lon="5.64658">
        <ele>310</ele>
        <time>2025-10-10T09:44:26.532+00:00</time>
      </trkpt>
      <trkpt lat="46.70565" lon="5.64659">
        <ele>312</ele>
        <time>2025-10-10T09:44:30.746+00:00</time>
      </trkpt>
      <trkpt lat="46.70559" lon="5.6466">
        <ele>312</ele>
        <time>2025-10-10T09:44:34.920+00:00</time>
      </trkpt>
      <trkpt lat="46.70553" lon="5.64663">
        <ele>312</ele>
        <time>2025-10-10T09:44:39.479+00:00</time>
      </trkpt>
      <trkpt lat="46.70549" lon="5.64665">
        <ele>312</ele>
        <time>2025-10-10T09:44:43.546+00:00</time>
      </trkpt>
      <trkpt lat="46.70543" lon="5.64666">
        <ele>312</ele>
        <time>2025-10-10T09:44:48.505+00:00</time>
      </trkpt>
      <trkpt lat="46.70537" lon="5.64669">
        <ele>313</ele>
        <time>2025-10-10T09:44:52.530+00:00</time>
      </trkpt>
      <trkpt lat="46.70532" lon="5.64671">
        <ele>313</ele>
        <time>2025-10-10T09:44:57.380+00:00</time>
      </trkpt>
      <trkpt lat="46.70527" lon="5.6467">
        <ele>313</ele>
        <time>2025-10-10T09:45:01.527+00:00</time>
      </trkpt>
      <trkpt lat="46.70522" lon="5.64672">
        <ele>313</ele>
        <time>2025-10-10T09:45:05.984+00:00</time>
      </trkpt>
      <trkpt lat="46.70517" lon="5.64671">
        <ele>313</ele>
        <time>2025-10-10T09:45:10.427+00:00</time>
      </trkpt>
      <trkpt lat="46.70513" lon="5.64668">
        <ele>313</ele>
        <time>2025-10-10T09:45:14.526+00:00</time>
      </trkpt>
      <trkpt lat="46.70508" lon="5.64666">
        <ele>313</ele>
        <time>2025-10-10T09:45:18.665+00:00</time>
      </trkpt>
      <trkpt lat="46.70503" lon="5.64663">
        <ele>313</ele>
        <time>2025-10-10T09:45:23.301+00:00</time>
      </trkpt>
      <trkpt lat="46.70498" lon="5.64661">
        <ele>313</ele>
        <time>2025-10-10T09:45:27.520+00:00</time>
      </trkpt>
      <trkpt lat="46.70493" lon="5.64657">
        <ele>313</ele>
        <time>2025-10-10T09:45:32.202+00:00</time>
      </trkpt>
      <trkpt lat="46.70489" lon="5.64654">
        <ele>313</ele>
        <time>2025-10-10T09:45:36.217+00:00</time>
      </trkpt>
      <trkpt lat="46.70484" lon="5.64651">
        <ele>313</ele>
        <time>2025-10-10T09:45:40.524+00:00</time>
      </trkpt>
      <trkpt lat="46.70478" lon="5.64649">
        <ele>313</ele>
        <time>2025-10-10T09:45:45.163+00:00</time>
      </trkpt>
      <trkpt lat="46.70474" lon="5.64647">
        <ele>313</ele>
        <time>2025-10-10T09:45:49.191+00:00</time>
      </trkpt>
      <trkpt lat="46.70468" lon="5.64645">
        <ele>313</ele>
        <time>2025-10-10T09:45:53.530+00:00</time>
      </trkpt>
      <trkpt lat="46.70462" lon="5.64643">
        <ele>313</ele>
        <time>2025-10-10T09:45:58.139+00:00</time>
      </trkpt>
      <trkpt lat="46.70457" lon="5.64641">
        <ele>315</ele>
        <time>2025-10-10T09:46:02.479+00:00</time>
      </trkpt>
      <trkpt lat="46.70453" lon="5.64638">
        <ele>315</ele>
        <time>2025-10-10T09:46:06.530+00:00</time>
      </trkpt>
      <trkpt lat="46.70448" lon="5.64634">
        <ele>315</ele>
        <time>2025-10-10T09:46:10.765+00:00</time>
      </trkpt>
      <trkpt lat="46.70442" lon="5.64632">
        <ele>315</ele>
        <time>2025-10-10T09:46:15.148+00:00</time>
      </trkpt>
      <trkpt lat="46.70437" lon="5.64628">
        <ele>315</ele>
        <time>2025-10-10T09:46:19.532+00:00</time>
      </trkpt>
      <trkpt lat="46.70432" lon="5.64625">
        <ele>315</ele>
        <time>2025-10-10T09:46:23.965+00:00</time>
      </trkpt>
      <trkpt lat="46.70427" lon="5.64622">
        <ele>314</ele>
        <time>2025-10-10T09:46:28.224+00:00</time>
      </trkpt>
      <trkpt lat="46.70422" lon="5.64619">
        <ele>314</ele>
        <time>2025-10-10T09:46:32.527+00:00</time>
      </trkpt>
      <trkpt lat="46.70417" lon="5.64614">
        <ele>314</ele>
        <time>2025-10-10T09:46:36.903+00:00</time>
      </trkpt>
      <trkpt lat="46.70413" lon="5.64609">
        <ele>314</ele>
        <time>2025-10-10T09:46:41.387+00:00</time>
      </trkpt>
      <trkpt lat="46.7041" lon="5.64611">
        <ele>314</ele>
        <time>2025-10-10T09:46:45.985+00:00</time>
      </trkpt>
      <trkpt lat="46.70407" lon="5.64609">
        <ele>314</ele>
        <time>2025-10-10T09:46:54.532+00:00</time>
      </trkpt>
      <trkpt lat="46.70406" lon="5.64604">
        <ele>314</ele>
        <time>2025-10-10T09:46:59.526+00:00</time>
      </trkpt>
      <trkpt lat="46.70406" lon="5.64602">
        <ele>314</ele>
        <time>2025-10-10T09:47:04.532+00:00</time>
      </trkpt>
      <trkpt lat="46.70405" lon="5.64601">
        <ele>314</ele>
        <time>2025-10-10T09:47:09.532+00:00</time>
      </trkpt>
      <trkpt lat="46.70407" lon="5.64597">
        <ele>313</ele>
        <time>2025-10-10T09:47:14.421+00:00</time>
      </trkpt>
      <trkpt lat="46.70409" lon="5.64594">
        <ele>313</ele>
        <time>2025-10-10T09:47:18.523+00:00</time>
      </trkpt>
      <trkpt lat="46.7041" lon="5.64588">
        <ele>313</ele>
        <time>2025-10-10T09:47:22.904+00:00</time>
      </trkpt>
      <trkpt lat="46.7041" lon="5.64585">
        <ele>313</ele>
        <time>2025-10-10T09:47:27.532+00:00</time>
      </trkpt>
      <trkpt lat="46.70411" lon="5.64584">
        <ele>313</ele>
        <time>2025-10-10T09:47:32.529+00:00</time>
      </trkpt>
      <trkpt lat="46.70414" lon="5.64582">
        <ele>313</ele>
        <time>2025-10-10T09:47:37.257+00:00</time>
      </trkpt>
      <trkpt lat="46.70418" lon="5.64582">
        <ele>313</ele>
        <time>2025-10-10T09:47:45.459+00:00</time>
      </trkpt>
      <trkpt lat="46.70419" lon="5.64581">
        <ele>313</ele>
        <time>2025-10-10T09:47:50.087+00:00</time>
      </trkpt>
      <trkpt lat="46.70421" lon="5.64579">
        <ele>313</ele>
        <time>2025-10-10T09:47:54.532+00:00</time>
      </trkpt>
      <trkpt lat="46.70425" lon="5.64575">
        <ele>313</ele>
        <time>2025-10-10T09:47:58.959+00:00</time>
      </trkpt>
      <trkpt lat="46.70427" lon="5.64571">
        <ele>313</ele>
        <time>2025-10-10T09:48:03.529+00:00</time>
      </trkpt>
      <trkpt lat="46.70428" lon="5.64565">
        <ele>318</ele>
        <time>2025-10-10T09:48:08.530+00:00</time>
      </trkpt>
      <trkpt lat="46.7043" lon="5.6456">
        <ele>318</ele>
        <time>2025-10-10T09:48:13.317+00:00</time>
      </trkpt>
      <trkpt lat="46.70434" lon="5.64558">
        <ele>319</ele>
        <time>2025-10-10T09:48:17.952+00:00</time>
      </trkpt>
      <trkpt lat="46.70437" lon="5.64556">
        <ele>319</ele>
        <time>2025-10-10T09:48:22.525+00:00</time>
      </trkpt>
      <trkpt lat="46.70434" lon="5.6455">
        <ele>319</ele>
        <time>2025-10-10T09:48:36.529+00:00</time>
      </trkpt>
      <trkpt lat="46.70433" lon="5.64545">
        <ele>319</ele>
        <time>2025-10-10T09:48:41.138+00:00</time>
      </trkpt>
      <trkpt lat="46.70432" lon="5.64543">
        <ele>319</ele>
        <time>2025-10-10T09:48:45.365+00:00</time>
      </trkpt>
      <trkpt lat="46.70431" lon="5.64542">
        <ele>319</ele>
        <time>2025-10-10T09:48:49.526+00:00</time>
      </trkpt>
      <trkpt lat="46.70429" lon="5.6454">
        <ele>325</ele>
        <time>2025-10-10T09:48:54.222+00:00</time>
      </trkpt>
      <trkpt lat="46.70425" lon="5.64535">
        <ele>325</ele>
        <time>2025-10-10T09:49:02.522+00:00</time>
      </trkpt>
      <trkpt lat="46.70424" lon="5.64533">
        <ele>325</ele>
        <time>2025-10-10T09:49:06.528+00:00</time>
      </trkpt>
      <trkpt lat="46.70424" lon="5.64533">
        <ele>325</ele>
        <time>2025-10-10T09:49:11.527+00:00</time>
      </trkpt>
      <trkpt lat="46.70422" lon="5.6453">
        <ele>325</ele>
        <time>2025-10-10T09:49:16.527+00:00</time>
      </trkpt>
      <trkpt lat="46.70423" lon="5.64525">
        <ele>325</ele>
        <time>2025-10-10T09:49:21.176+00:00</time>
      </trkpt>
      <trkpt lat="46.70423" lon="5.64523">
        <ele>325</ele>
        <time>2025-10-10T09:49:25.529+00:00</time>
      </trkpt>
      <trkpt lat="46.70422" lon="5.6452">
        <ele>325</ele>
        <time>2025-10-10T09:49:30.477+00:00</time>
      </trkpt>
      <trkpt lat="46.70418" lon="5.6452">
        <ele>325</ele>
        <time>2025-10-10T09:49:34.528+00:00</time>
      </trkpt>
      <trkpt lat="46.70416" lon="5.64518">
        <ele>325</ele>
        <time>2025-10-10T09:49:38.840+00:00</time>
      </trkpt>
      <trkpt lat="46.70413" lon="5.64515">
        <ele>325</ele>
        <time>2025-10-10T09:49:42.961+00:00</time>
      </trkpt>
      <trkpt lat="46.70411" lon="5.64512">
        <ele>337</ele>
        <time>2025-10-10T09:49:47.525+00:00</time>
      </trkpt>
      <trkpt lat="46.70409" lon="5.64509">
        <ele>337</ele>
        <time>2025-10-10T09:49:52.082+00:00</time>
      </trkpt>
      <trkpt lat="46.70408" lon="5.64508">
        <ele>337</ele>
        <time>2025-10-10T09:49:56.532+00:00</time>
      </trkpt>
      <trkpt lat="46.70406" lon="5.64505">
        <ele>337</ele>
        <time>2025-10-10T09:50:01.503+00:00</time>
      </trkpt>
      <trkpt lat="46.70404" lon="5.64503">
        <ele>337</ele>
        <time>2025-10-10T09:50:06.060+00:00</time>
      </trkpt>
      <trkpt lat="46.70402" lon="5.64501">
        <ele>331</ele>
        <time>2025-10-10T09:50:10.523+00:00</time>
      </trkpt>
      <trkpt lat="46.70399" lon="5.645">
        <ele>331</ele>
        <time>2025-10-10T09:50:14.528+00:00</time>
      </trkpt>
      <trkpt lat="46.70396" lon="5.64497">
        <ele>331</ele>
        <time>2025-10-10T09:50:19.250+00:00</time>
      </trkpt>
      <trkpt lat="46.70393" lon="5.64494">
        <ele>331</ele>
        <time>2025-10-10T09:50:23.526+00:00</time>
      </trkpt>
      <trkpt lat="46.7039" lon="5.64491">
        <ele>331</ele>
        <time>2025-10-10T09:50:27.724+00:00</time>
      </trkpt>
      <trkpt lat="46.70388" lon="5.64489">
        <ele>331</ele>
        <time>2025-10-10T09:50:31.777+00:00</time>
      </trkpt>
      <trkpt lat="46.70384" lon="5.64486">
        <ele>339</ele>
        <time>2025-10-10T09:50:36.504+00:00</time>
      </trkpt>
      <trkpt lat="46.70382" lon="5.64484">
        <ele>339</ele>
        <time>2025-10-10T09:50:40.524+00:00</time>
      </trkpt>
      <trkpt lat="46.70379" lon="5.6448">
        <ele>339</ele>
        <time>2025-10-10T09:50:45.258+00:00</time>
      </trkpt>
      <trkpt lat="46.70374" lon="5.64476">
        <ele>334</ele>
        <time>2025-10-10T09:50:49.527+00:00</time>
      </trkpt>
      <trkpt lat="46.7037" lon="5.64472">
        <ele>334</ele>
        <time>2025-10-10T09:50:54.303+00:00</time>
      </trkpt>
      <trkpt lat="46.70366" lon="5.6447">
        <ele>334</ele>
        <time>2025-10-10T09:50:58.739+00:00</time>
      </trkpt>
      <trkpt lat="46.70362" lon="5.64468">
        <ele>334</ele>
        <time>2025-10-10T09:51:03.262+00:00</time>
      </trkpt>
      <trkpt lat="46.70359" lon="5.64466">
        <ele>334</ele>
        <time>2025-10-10T09:51:07.532+00:00</time>
      </trkpt>
      <trkpt lat="46.70359" lon="5.6446">
        <ele>334</ele>
        <time>2025-10-10T09:51:12.524+00:00</time>
      </trkpt>
      <trkpt lat="46.70354" lon="5.64458">
        <ele>341</ele>
        <time>2025-10-10T09:51:16.526+00:00</time>
      </trkpt>
      <trkpt lat="46.70351" lon="5.64455">
        <ele>341</ele>
        <time>2025-10-10T09:51:21.059+00:00</time>
      </trkpt>
      <trkpt lat="46.70347" lon="5.64451">
        <ele>341</ele>
        <time>2025-10-10T09:51:25.257+00:00</time>
      </trkpt>
      <trkpt lat="46.70344" lon="5.64447">
        <ele>335</ele>
        <time>2025-10-10T09:51:29.277+00:00</time>
      </trkpt>
      <trkpt lat="46.70342" lon="5.64442">
        <ele>335</ele>
        <time>2025-10-10T09:51:33.442+00:00</time>
      </trkpt>
      <trkpt lat="46.70343" lon="5.64435">
        <ele>335</ele>
        <time>2025-10-10T09:51:37.528+00:00</time>
      </trkpt>
      <trkpt lat="46.70343" lon="5.64429">
        <ele>342</ele>
        <time>2025-10-10T09:51:41.904+00:00</time>
      </trkpt>
      <trkpt lat="46.70343" lon="5.64423">
        <ele>342</ele>
        <time>2025-10-10T09:51:46.227+00:00</time>
      </trkpt>
      <trkpt lat="46.70342" lon="5.64417">
        <ele>342</ele>
        <time>2025-10-10T09:51:50.420+00:00</time>
      </trkpt>
      <trkpt lat="46.70341" lon="5.64414">
        <ele>342</ele>
        <time>2025-10-10T09:51:54.528+00:00</time>
      </trkpt>
      <trkpt lat="46.70337" lon="5.64412">
        <ele>342</ele>
        <time>2025-10-10T09:51:58.951+00:00</time>
      </trkpt>
      <trkpt lat="46.70334" lon="5.64408">
        <ele>342</ele>
        <time>2025-10-10T09:52:03.529+00:00</time>
      </trkpt>
      <trkpt lat="46.70331" lon="5.64405">
        <ele>342</ele>
        <time>2025-10-10T09:52:08.302+00:00</time>
      </trkpt>
      <trkpt lat="46.70329" lon="5.64402">
        <ele>346</ele>
        <time>2025-10-10T09:52:12.528+00:00</time>
      </trkpt>
      <trkpt lat="46.70326" lon="5.64399">
        <ele>346</ele>
        <time>2025-10-10T09:52:17.184+00:00</time>
      </trkpt>
      <trkpt lat="46.70322" lon="5.64398">
        <ele>346</ele>
        <time>2025-10-10T09:52:21.321+00:00</time>
      </trkpt>
      <trkpt lat="46.70318" lon="5.64395">
        <ele>344</ele>
        <time>2025-10-10T09:52:25.877+00:00</time>
      </trkpt>
      <trkpt lat="46.70315" lon="5.64391">
        <ele>344</ele>
        <time>2025-10-10T09:52:30.258+00:00</time>
      </trkpt>
      <trkpt lat="46.70311" lon="5.64388">
        <ele>344</ele>
        <time>2025-10-10T09:52:34.527+00:00</time>
      </trkpt>
      <trkpt lat="46.70309" lon="5.64386">
        <ele>344</ele>
        <time>2025-10-10T09:52:39.532+00:00</time>
      </trkpt>
      <trkpt lat="46.70306" lon="5.64384">
        <ele>344</ele>
        <time>2025-10-10T09:52:44.043+00:00</time>
      </trkpt>
      <trkpt lat="46.70302" lon="5.64381">
        <ele>344</ele>
        <time>2025-10-10T09:52:47.993+00:00</time>
      </trkpt>
      <trkpt lat="46.70297" lon="5.64379">
        <ele>344</ele>
        <time>2025-10-10T09:52:52.199+00:00</time>
      </trkpt>
      <trkpt lat="46.70294" lon="5.6438">
        <ele>344</ele>
        <time>2025-10-10T09:52:56.528+00:00</time>
      </trkpt>
      <trkpt lat="46.70289" lon="5.64379">
        <ele>337</ele>
        <time>2025-10-10T09:53:01.456+00:00</time>
      </trkpt>
      <trkpt lat="46.70286" lon="5.64378">
        <ele>337</ele>
        <time>2025-10-10T09:53:05.528+00:00</time>
      </trkpt>
      <trkpt lat="46.70283" lon="5.64376">
        <ele>337</ele>
        <time>2025-10-10T09:53:10.059+00:00</time>
      </trkpt>
      <trkpt lat="46.70279" lon="5.64377">
        <ele>337</ele>
        <time>2025-10-10T09:53:14.177+00:00</time>
      </trkpt>
      <trkpt lat="46.70276" lon="5.64379">
        <ele>337</ele>
        <time>2025-10-10T09:53:18.525+00:00</time>
      </trkpt>
      <trkpt lat="46.70271" lon="5.64378">
        <ele>337</ele>
        <time>2025-10-10T09:53:23.204+00:00</time>
      </trkpt>
      <trkpt lat="46.70266" lon="5.64375">
        <ele>344</ele>
        <time>2025-10-10T09:53:27.462+00:00</time>
      </trkpt>
      <trkpt lat="46.70262" lon="5.6437">
        <ele>337</ele>
        <time>2025-10-10T09:53:32.002+00:00</time>
      </trkpt>
      <trkpt lat="46.70259" lon="5.64369">
        <ele>337</ele>
        <time>2025-10-10T09:53:36.525+00:00</time>
      </trkpt>
      <trkpt lat="46.70256" lon="5.64369">
        <ele>337</ele>
        <time>2025-10-10T09:53:41.001+00:00</time>
      </trkpt>
      <trkpt lat="46.70252" lon="5.64372">
        <ele>337</ele>
        <time>2025-10-10T09:53:45.527+00:00</time>
      </trkpt>
      <trkpt lat="46.70248" lon="5.64366">
        <ele>337</ele>
        <time>2025-10-10T09:53:50.275+00:00</time>
      </trkpt>
      <trkpt lat="46.70247" lon="5.64364">
        <ele>337</ele>
        <time>2025-10-10T09:53:54.527+00:00</time>
      </trkpt>
      <trkpt lat="46.70244" lon="5.64365">
        <ele>337</ele>
        <time>2025-10-10T09:53:59.530+00:00</time>
      </trkpt>
      <trkpt lat="46.70241" lon="5.64367">
        <ele>337</ele>
        <time>2025-10-10T09:54:03.757+00:00</time>
      </trkpt>
      <trkpt lat="46.70238" lon="5.64369">
        <ele>337</ele>
        <time>2025-10-10T09:54:08.039+00:00</time>
      </trkpt>
      <trkpt lat="46.70235" lon="5.64369">
        <ele>333</ele>
        <time>2025-10-10T09:54:12.322+00:00</time>
      </trkpt>
      <trkpt lat="46.7023" lon="5.64366">
        <ele>333</ele>
        <time>2025-10-10T09:54:31.532+00:00</time>
      </trkpt>
      <trkpt lat="46.70228" lon="5.64365">
        <ele>333</ele>
        <time>2025-10-10T09:54:36.526+00:00</time>
      </trkpt>
      <trkpt lat="46.70227" lon="5.64364">
        <ele>333</ele>
        <time>2025-10-10T09:54:41.532+00:00</time>
      </trkpt>
      <trkpt lat="46.70226" lon="5.64363">
        <ele>333</ele>
        <time>2025-10-10T09:54:46.532+00:00</time>
      </trkpt>
      <trkpt lat="46.70223" lon="5.64363">
        <ele>333</ele>
        <time>2025-10-10T09:54:51.522+00:00</time>
      </trkpt>
      <trkpt lat="46.70221" lon="5.64364">
        <ele>333</ele>
        <time>2025-10-10T09:54:55.812+00:00</time>
      </trkpt>
      <trkpt lat="46.70216" lon="5.64362">
        <ele>333</ele>
        <time>2025-10-10T09:55:00.367+00:00</time>
      </trkpt>
      <trkpt lat="46.70212" lon="5.64362">
        <ele>333</ele>
        <time>2025-10-10T09:55:04.528+00:00</time>
      </trkpt>
      <trkpt lat="46.70208" lon="5.6436">
        <ele>327</ele>
        <time>2025-10-10T09:55:08.966+00:00</time>
      </trkpt>
      <trkpt lat="46.70204" lon="5.6436">
        <ele>327</ele>
        <time>2025-10-10T09:55:13.012+00:00</time>
      </trkpt>
      <trkpt lat="46.702" lon="5.6436">
        <ele>327</ele>
        <time>2025-10-10T09:55:17.532+00:00</time>
      </trkpt>
      <trkpt lat="46.70198" lon="5.6436">
        <ele>327</ele>
        <time>2025-10-10T09:55:22.208+00:00</time>
      </trkpt>
      <trkpt lat="46.70196" lon="5.64366">
        <ele>327</ele>
        <time>2025-10-10T09:55:26.613+00:00</time>
      </trkpt>
      <trkpt lat="46.70194" lon="5.6437">
        <ele>327</ele>
        <time>2025-10-10T09:55:30.894+00:00</time>
      </trkpt>
      <trkpt lat="46.7019" lon="5.64371">
        <ele>327</ele>
        <time>2025-10-10T09:55:35.288+00:00</time>
      </trkpt>
      <trkpt lat="46.70186" lon="5.64369">
        <ele>327</ele>
        <time>2025-10-10T09:55:39.647+00:00</time>
      </trkpt>
      <trkpt lat="46.70183" lon="5.64365">
        <ele>327</ele>
        <time>2025-10-10T09:55:44.526+00:00</time>
      </trkpt>
      <trkpt lat="46.70179" lon="5.64361">
        <ele>315</ele>
        <time>2025-10-10T09:55:49.245+00:00</time>
      </trkpt>
      <trkpt lat="46.70178" lon="5.64354">
        <ele>315</ele>
        <time>2025-10-10T09:55:53.426+00:00</time>
      </trkpt>
      <trkpt lat="46.70175" lon="5.64348">
        <ele>315</ele>
        <time>2025-10-10T09:55:57.526+00:00</time>
      </trkpt>
      <trkpt lat="46.70171" lon="5.64347">
        <ele>320</ele>
        <time>2025-10-10T09:56:02.129+00:00</time>
      </trkpt>
      <trkpt lat="46.70168" lon="5.64343">
        <ele>320</ele>
        <time>2025-10-10T09:56:06.523+00:00</time>
      </trkpt>
      <trkpt lat="46.70164" lon="5.64339">
        <ele>320</ele>
        <time>2025-10-10T09:56:11.012+00:00</time>
      </trkpt>
      <trkpt lat="46.70161" lon="5.64335">
        <ele>320</ele>
        <time>2025-10-10T09:56:15.507+00:00</time>
      </trkpt>
      <trkpt lat="46.70158" lon="5.64331">
        <ele>320</ele>
        <time>2025-10-10T09:56:19.953+00:00</time>
      </trkpt>
      <trkpt lat="46.70155" lon="5.64327">
        <ele>320</ele>
        <time>2025-10-10T09:56:24.492+00:00</time>
      </trkpt>
      <trkpt lat="46.70152" lon="5.64324">
        <ele>315</ele>
        <time>2025-10-10T09:56:28.529+00:00</time>
      </trkpt>
      <trkpt lat="46.70149" lon="5.6432">
        <ele>315</ele>
        <time>2025-10-10T09:56:33.313+00:00</time>
      </trkpt>
      <trkpt lat="46.70145" lon="5.64317">
        <ele>321</ele>
        <time>2025-10-10T09:56:37.538+00:00</time>
      </trkpt>
      <trkpt lat="46.70143" lon="5.64314">
        <ele>321</ele>
        <time>2025-10-10T09:56:42.033+00:00</time>
      </trkpt>
      <trkpt lat="46.7014" lon="5.6431">
        <ele>321</ele>
        <time>2025-10-10T09:56:46.307+00:00</time>
      </trkpt>
      <trkpt lat="46.70137" lon="5.64307">
        <ele>321</ele>
        <time>2025-10-10T09:56:50.526+00:00</time>
      </trkpt>
      <trkpt lat="46.70133" lon="5.64303">
        <ele>321</ele>
        <time>2025-10-10T09:56:55.293+00:00</time>
      </trkpt>
      <trkpt lat="46.7013" lon="5.643">
        <ele>321</ele>
        <time>2025-10-10T09:56:59.525+00:00</time>
      </trkpt>
      <trkpt lat="46.70125" lon="5.64297">
        <ele>321</ele>
        <time>2025-10-10T09:57:04.233+00:00</time>
      </trkpt>
      <trkpt lat="46.70121" lon="5.64295">
        <ele>315</ele>
        <time>2025-10-10T09:57:08.372+00:00</time>
      </trkpt>
      <trkpt lat="46.70116" lon="5.64292">
        <ele>315</ele>
        <time>2025-10-10T09:57:12.532+00:00</time>
      </trkpt>
      <trkpt lat="46.70113" lon="5.64288">
        <ele>317</ele>
        <time>2025-10-10T09:57:16.767+00:00</time>
      </trkpt>
      <trkpt lat="46.7011" lon="5.64285">
        <ele>317</ele>
        <time>2025-10-10T09:57:21.092+00:00</time>
      </trkpt>
      <trkpt lat="46.70107" lon="5.64282">
        <ele>317</ele>
        <time>2025-10-10T09:57:25.153+00:00</time>
      </trkpt>
      <trkpt lat="46.70104" lon="5.64278">
        <ele>317</ele>
        <time>2025-10-10T09:57:29.308+00:00</time>
      </trkpt>
      <trkpt lat="46.70101" lon="5.64273">
        <ele>317</ele>
        <time>2025-10-10T09:57:33.525+00:00</time>
      </trkpt>
      <trkpt lat="46.70099" lon="5.64269">
        <ele>317</ele>
        <time>2025-10-10T09:57:38.525+00:00</time>
      </trkpt>
      <trkpt lat="46.70096" lon="5.64265">
        <ele>312</ele>
        <time>2025-10-10T09:57:43.253+00:00</time>
      </trkpt>
      <trkpt lat="46.70092" lon="5.64264">
        <ele>317</ele>
        <time>2025-10-10T09:57:47.327+00:00</time>
      </trkpt>
      <trkpt lat="46.70089" lon="5.64265">
        <ele>312</ele>
        <time>2025-10-10T09:57:51.526+00:00</time>
      </trkpt>
      <trkpt lat="46.70085" lon="5.64262">
        <ele>317</ele>
        <time>2025-10-10T09:57:56.522+00:00</time>
      </trkpt>
      <trkpt lat="46.70085" lon="5.64257">
        <ele>317</ele>
        <time>2025-10-10T09:58:04.229+00:00</time>
      </trkpt>
      <trkpt lat="46.70083" lon="5.64254">
        <ele>317</ele>
        <time>2025-10-10T09:58:08.302+00:00</time>
      </trkpt>
      <trkpt lat="46.70076" lon="5.64246">
        <ele>317</ele>
        <time>2025-10-10T09:58:13.114+00:00</time>
      </trkpt>
      <trkpt lat="46.70069" lon="5.6424">
        <ele>316</ele>
        <time>2025-10-10T09:58:17.523+00:00</time>
      </trkpt>
      <trkpt lat="46.70064" lon="5.64239">
        <ele>316</ele>
        <time>2025-10-10T09:58:22.012+00:00</time>
      </trkpt>
      <trkpt lat="46.70062" lon="5.64237">
        <ele>316</ele>
        <time>2025-10-10T09:58:26.408+00:00</time>
      </trkpt>
      <trkpt lat="46.70058" lon="5.64237">
        <ele>316</ele>
        <time>2025-10-10T09:58:30.522+00:00</time>
      </trkpt>
      <trkpt lat="46.70049" lon="5.64235">
        <ele>324</ele>
        <time>2025-10-10T09:58:44.097+00:00</time>
      </trkpt>
      <trkpt lat="46.70045" lon="5.64231">
        <ele>324</ele>
        <time>2025-10-10T09:58:48.530+00:00</time>
      </trkpt>
      <trkpt lat="46.70042" lon="5.64226">
        <ele>324</ele>
        <time>2025-10-10T09:58:52.716+00:00</time>
      </trkpt>
      <trkpt lat="46.70037" lon="5.64227">
        <ele>322</ele>
        <time>2025-10-10T09:58:57.134+00:00</time>
      </trkpt>
      <trkpt lat="46.70033" lon="5.64225">
        <ele>322</ele>
        <time>2025-10-10T09:59:01.250+00:00</time>
      </trkpt>
      <trkpt lat="46.70028" lon="5.64222">
        <ele>322</ele>
        <time>2025-10-10T09:59:05.523+00:00</time>
      </trkpt>
      <trkpt lat="46.70023" lon="5.64221">
        <ele>322</ele>
        <time>2025-10-10T09:59:10.509+00:00</time>
      </trkpt>
      <trkpt lat="46.70019" lon="5.64219">
        <ele>322</ele>
        <time>2025-10-10T09:59:14.529+00:00</time>
      </trkpt>
      <trkpt lat="46.70015" lon="5.64216">
        <ele>322</ele>
        <time>2025-10-10T09:59:18.528+00:00</time>
      </trkpt>
      <trkpt lat="46.70008" lon="5.64215">
        <ele>318</ele>
        <time>2025-10-10T09:59:23.526+00:00</time>
      </trkpt>
      <trkpt lat="46.70004" lon="5.64215">
        <ele>318</ele>
        <time>2025-10-10T09:59:28.139+00:00</time>
      </trkpt>
      <trkpt lat="46.7" lon="5.64212">
        <ele>318</ele>
        <time>2025-10-10T09:59:32.268+00:00</time>
      </trkpt>
      <trkpt lat="46.69995" lon="5.6421">
        <ele>318</ele>
        <time>2025-10-10T09:59:36.523+00:00</time>
      </trkpt>
      <trkpt lat="46.69991" lon="5.64207">
        <ele>324</ele>
        <time>2025-10-10T09:59:40.524+00:00</time>
      </trkpt>
      <trkpt lat="46.69987" lon="5.64203">
        <ele>324</ele>
        <time>2025-10-10T09:59:45.530+00:00</time>
      </trkpt>
      <trkpt lat="46.69982" lon="5.64202">
        <ele>317</ele>
        <time>2025-10-10T09:59:49.949+00:00</time>
      </trkpt>
      <trkpt lat="46.69979" lon="5.642">
        <ele>317</ele>
        <time>2025-10-10T09:59:54.506+00:00</time>
      </trkpt>
      <trkpt lat="46.69976" lon="5.64198">
        <ele>317</ele>
        <time>2025-10-10T09:59:59.174+00:00</time>
      </trkpt>
      <trkpt lat="46.69971" lon="5.64198">
        <ele>317</ele>
        <time>2025-10-10T10:00:04.387+00:00</time>
      </trkpt>
      <trkpt lat="46.69968" lon="5.64196">
        <ele>317</ele>
        <time>2025-10-10T10:00:08.528+00:00</time>
      </trkpt>
      <trkpt lat="46.69963" lon="5.64197">
        <ele>317</ele>
        <time>2025-10-10T10:00:13.526+00:00</time>
      </trkpt>
      <trkpt lat="46.6996" lon="5.64193">
        <ele>317</ele>
        <time>2025-10-10T10:00:17.688+00:00</time>
      </trkpt>
      <trkpt lat="46.69957" lon="5.64187">
        <ele>316</ele>
        <time>2025-10-10T10:00:22.066+00:00</time>
      </trkpt>
      <trkpt lat="46.69956" lon="5.64183">
        <ele>316</ele>
        <time>2025-10-10T10:00:26.196+00:00</time>
      </trkpt>
      <trkpt lat="46.69952" lon="5.64182">
        <ele>316</ele>
        <time>2025-10-10T10:00:30.524+00:00</time>
      </trkpt>
      <trkpt lat="46.69947" lon="5.64179">
        <ele>322</ele>
        <time>2025-10-10T10:00:35.087+00:00</time>
      </trkpt>
      <trkpt lat="46.69943" lon="5.6418">
        <ele>322</ele>
        <time>2025-10-10T10:00:39.527+00:00</time>
      </trkpt>
      <trkpt lat="46.69939" lon="5.64177">
        <ele>322</ele>
        <time>2025-10-10T10:00:44.526+00:00</time>
      </trkpt>
      <trkpt lat="46.69935" lon="5.64175">
        <ele>322</ele>
        <time>2025-10-10T10:00:49.526+00:00</time>
      </trkpt>
      <trkpt lat="46.69931" lon="5.64174">
        <ele>322</ele>
        <time>2025-10-10T10:00:54.070+00:00</time>
      </trkpt>
      <trkpt lat="46.69927" lon="5.64174">
        <ele>322</ele>
        <time>2025-10-10T10:00:58.526+00:00</time>
      </trkpt>
      <trkpt lat="46.69924" lon="5.64176">
        <ele>322</ele>
        <time>2025-10-10T10:01:03.132+00:00</time>
      </trkpt>
      <trkpt lat="46.69919" lon="5.64176">
        <ele>322</ele>
        <time>2025-10-10T10:01:07.372+00:00</time>
      </trkpt>
      <trkpt lat="46.69914" lon="5.64173">
        <ele>322</ele>
        <time>2025-10-10T10:01:11.888+00:00</time>
      </trkpt>
      <trkpt lat="46.69911" lon="5.64172">
        <ele>322</ele>
        <time>2025-10-10T10:01:15.913+00:00</time>
      </trkpt>
      <trkpt lat="46.69907" lon="5.6417">
        <ele>322</ele>
        <time>2025-10-10T10:01:20.170+00:00</time>
      </trkpt>
      <trkpt lat="46.69902" lon="5.6417">
        <ele>324</ele>
        <time>2025-10-10T10:01:24.351+00:00</time>
      </trkpt>
      <trkpt lat="46.69896" lon="5.64172">
        <ele>324</ele>
        <time>2025-10-10T10:01:29.087+00:00</time>
      </trkpt>
      <trkpt lat="46.69891" lon="5.64172">
        <ele>324</ele>
        <time>2025-10-10T10:01:33.446+00:00</time>
      </trkpt>
      <trkpt lat="46.69886" lon="5.64171">
        <ele>324</ele>
        <time>2025-10-10T10:01:37.524+00:00</time>
      </trkpt>
      <trkpt lat="46.69882" lon="5.6417">
        <ele>324</ele>
        <time>2025-10-10T10:01:41.790+00:00</time>
      </trkpt>
      <trkpt lat="46.69877" lon="5.64169">
        <ele>324</ele>
        <time>2025-10-10T10:01:46.287+00:00</time>
      </trkpt>
      <trkpt lat="46.69874" lon="5.64168">
        <ele>325</ele>
        <time>2025-10-10T10:01:50.331+00:00</time>
      </trkpt>
      <trkpt lat="46.69869" lon="5.64169">
        <ele>325</ele>
        <time>2025-10-10T10:01:54.527+00:00</time>
      </trkpt>
      <trkpt lat="46.69865" lon="5.64169">
        <ele>325</ele>
        <time>2025-10-10T10:01:58.932+00:00</time>
      </trkpt>
      <trkpt lat="46.69862" lon="5.6417">
        <ele>325</ele>
        <time>2025-10-10T10:02:02.994+00:00</time>
      </trkpt>
      <trkpt lat="46.69857" lon="5.64171">
        <ele>325</ele>
        <time>2025-10-10T10:02:07.176+00:00</time>
      </trkpt>
      <trkpt lat="46.69853" lon="5.64171">
        <ele>325</ele>
        <time>2025-10-10T10:02:11.521+00:00</time>
      </trkpt>
      <trkpt lat="46.69848" lon="5.64173">
        <ele>325</ele>
        <time>2025-10-10T10:02:16.268+00:00</time>
      </trkpt>
      <trkpt lat="46.69843" lon="5.64175">
        <ele>321</ele>
        <time>2025-10-10T10:02:20.896+00:00</time>
      </trkpt>
      <trkpt lat="46.69838" lon="5.64176">
        <ele>321</ele>
        <time>2025-10-10T10:02:25.312+00:00</time>
      </trkpt>
      <trkpt lat="46.69833" lon="5.64175">
        <ele>321</ele>
        <time>2025-10-10T10:02:29.877+00:00</time>
      </trkpt>
      <trkpt lat="46.69829" lon="5.64174">
        <ele>321</ele>
        <time>2025-10-10T10:02:34.048+00:00</time>
      </trkpt>
      <trkpt lat="46.69824" lon="5.64172">
        <ele>321</ele>
        <time>2025-10-10T10:02:38.524+00:00</time>
      </trkpt>
      <trkpt lat="46.6982" lon="5.64171">
        <ele>321</ele>
        <time>2025-10-10T10:02:43.532+00:00</time>
      </trkpt>
      <trkpt lat="46.69816" lon="5.64172">
        <ele>322</ele>
        <time>2025-10-10T10:02:47.990+00:00</time>
      </trkpt>
      <trkpt lat="46.69812" lon="5.64172">
        <ele>322</ele>
        <time>2025-10-10T10:02:52.274+00:00</time>
      </trkpt>
      <trkpt lat="46.69808" lon="5.64175">
        <ele>322</ele>
        <time>2025-10-10T10:02:56.522+00:00</time>
      </trkpt>
      <trkpt lat="46.69804" lon="5.64177">
        <ele>322</ele>
        <time>2025-10-10T10:03:00.754+00:00</time>
      </trkpt>
      <trkpt lat="46.698" lon="5.64178">
        <ele>322</ele>
        <time>2025-10-10T10:03:04.908+00:00</time>
      </trkpt>
      <trkpt lat="46.69796" lon="5.64182">
        <ele>319</ele>
        <time>2025-10-10T10:03:09.286+00:00</time>
      </trkpt>
      <trkpt lat="46.6979" lon="5.64184">
        <ele>321</ele>
        <time>2025-10-10T10:03:13.986+00:00</time>
      </trkpt>
      <trkpt lat="46.69785" lon="5.64183">
        <ele>321</ele>
        <time>2025-10-10T10:03:18.528+00:00</time>
      </trkpt>
      <trkpt lat="46.69781" lon="5.64183">
        <ele>321</ele>
        <time>2025-10-10T10:03:22.672+00:00</time>
      </trkpt>
      <trkpt lat="46.69775" lon="5.64182">
        <ele>321</ele>
        <time>2025-10-10T10:03:27.525+00:00</time>
      </trkpt>
      <trkpt lat="46.69771" lon="5.64182">
        <ele>321</ele>
        <time>2025-10-10T10:03:32.108+00:00</time>
      </trkpt>
      <trkpt lat="46.69767" lon="5.6418">
        <ele>325</ele>
        <time>2025-10-10T10:03:36.290+00:00</time>
      </trkpt>
      <trkpt lat="46.69763" lon="5.6418">
        <ele>327</ele>
        <time>2025-10-10T10:03:40.394+00:00</time>
      </trkpt>
      <trkpt lat="46.69759" lon="5.6418">
        <ele>327</ele>
        <time>2025-10-10T10:03:44.953+00:00</time>
      </trkpt>
      <trkpt lat="46.69754" lon="5.64181">
        <ele>322</ele>
        <time>2025-10-10T10:03:49.358+00:00</time>
      </trkpt>
      <trkpt lat="46.6975" lon="5.64182">
        <ele>322</ele>
        <time>2025-10-10T10:03:53.473+00:00</time>
      </trkpt>
      <trkpt lat="46.69746" lon="5.64181">
        <ele>322</ele>
        <time>2025-10-10T10:03:57.833+00:00</time>
      </trkpt>
      <trkpt lat="46.69741" lon="5.64181">
        <ele>327</ele>
        <time>2025-10-10T10:04:02.191+00:00</time>
      </trkpt>
      <trkpt lat="46.69737" lon="5.6418">
        <ele>327</ele>
        <time>2025-10-10T10:04:06.287+00:00</time>
      </trkpt>
      <trkpt lat="46.69734" lon="5.6418">
        <ele>323</ele>
        <time>2025-10-10T10:04:10.528+00:00</time>
      </trkpt>
      <trkpt lat="46.6973" lon="5.64178">
        <ele>323</ele>
        <time>2025-10-10T10:04:14.606+00:00</time>
      </trkpt>
      <trkpt lat="46.69725" lon="5.64176">
        <ele>323</ele>
        <time>2025-10-10T10:04:18.905+00:00</time>
      </trkpt>
      <trkpt lat="46.69721" lon="5.64175">
        <ele>323</ele>
        <time>2025-10-10T10:04:23.029+00:00</time>
      </trkpt>
      <trkpt lat="46.69717" lon="5.64175">
        <ele>323</ele>
        <time>2025-10-10T10:04:27.353+00:00</time>
      </trkpt>
      <trkpt lat="46.69713" lon="5.64174">
        <ele>323</ele>
        <time>2025-10-10T10:04:31.523+00:00</time>
      </trkpt>
      <trkpt lat="46.69708" lon="5.64172">
        <ele>323</ele>
        <time>2025-10-10T10:04:36.150+00:00</time>
      </trkpt>
      <trkpt lat="46.69704" lon="5.64171">
        <ele>324</ele>
        <time>2025-10-10T10:04:40.523+00:00</time>
      </trkpt>
      <trkpt lat="46.697" lon="5.64171">
        <ele>324</ele>
        <time>2025-10-10T10:04:44.524+00:00</time>
      </trkpt>
      <trkpt lat="46.69695" lon="5.64172">
        <ele>324</ele>
        <time>2025-10-10T10:04:49.222+00:00</time>
      </trkpt>
      <trkpt lat="46.69691" lon="5.64172">
        <ele>324</ele>
        <time>2025-10-10T10:04:53.526+00:00</time>
      </trkpt>
      <trkpt lat="46.69687" lon="5.64173">
        <ele>324</ele>
        <time>2025-10-10T10:04:58.093+00:00</time>
      </trkpt>
      <trkpt lat="46.69682" lon="5.64173">
        <ele>324</ele>
        <time>2025-10-10T10:05:02.129+00:00</time>
      </trkpt>
      <trkpt lat="46.69677" lon="5.64172">
        <ele>325</ele>
        <time>2025-10-10T10:05:06.522+00:00</time>
      </trkpt>
      <trkpt lat="46.69673" lon="5.64172">
        <ele>325</ele>
        <time>2025-10-10T10:05:10.521+00:00</time>
      </trkpt>
      <trkpt lat="46.69669" lon="5.64171">
        <ele>325</ele>
        <time>2025-10-10T10:05:15.191+00:00</time>
      </trkpt>
      <trkpt lat="46.69665" lon="5.64169">
        <ele>325</ele>
        <time>2025-10-10T10:05:19.524+00:00</time>
      </trkpt>
      <trkpt lat="46.69662" lon="5.64166">
        <ele>325</ele>
        <time>2025-10-10T10:05:24.527+00:00</time>
      </trkpt>
      <trkpt lat="46.69661" lon="5.64166">
        <ele>325</ele>
        <time>2025-10-10T10:05:29.088+00:00</time>
      </trkpt>
      <trkpt lat="46.69659" lon="5.64167">
        <ele>325</ele>
        <time>2025-10-10T10:05:33.331+00:00</time>
      </trkpt>
      <trkpt lat="46.69654" lon="5.64168">
        <ele>325</ele>
        <time>2025-10-10T10:05:37.893+00:00</time>
      </trkpt>
      <trkpt lat="46.69649" lon="5.64171">
        <ele>323</ele>
        <time>2025-10-10T10:05:41.974+00:00</time>
      </trkpt>
      <trkpt lat="46.69644" lon="5.64173">
        <ele>323</ele>
        <time>2025-10-10T10:05:46.305+00:00</time>
      </trkpt>
      <trkpt lat="46.69641" lon="5.64175">
        <ele>323</ele>
        <time>2025-10-10T10:05:50.393+00:00</time>
      </trkpt>
      <trkpt lat="46.69637" lon="5.64174">
        <ele>323</ele>
        <time>2025-10-10T10:05:54.711+00:00</time>
      </trkpt>
      <trkpt lat="46.69633" lon="5.64173">
        <ele>323</ele>
        <time>2025-10-10T10:05:58.891+00:00</time>
      </trkpt>
      <trkpt lat="46.6963" lon="5.64172">
        <ele>323</ele>
        <time>2025-10-10T10:06:03.146+00:00</time>
      </trkpt>
      <trkpt lat="46.69627" lon="5.64168">
        <ele>323</ele>
        <time>2025-10-10T10:06:07.772+00:00</time>
      </trkpt>
      <trkpt lat="46.69624" lon="5.64166">
        <ele>323</ele>
        <time>2025-10-10T10:06:11.952+00:00</time>
      </trkpt>
      <trkpt lat="46.6962" lon="5.64161">
        <ele>323</ele>
        <time>2025-10-10T10:06:16.530+00:00</time>
      </trkpt>
      <trkpt lat="46.69617" lon="5.64158">
        <ele>323</ele>
        <time>2025-10-10T10:06:21.032+00:00</time>
      </trkpt>
      <trkpt lat="46.69613" lon="5.64156">
        <ele>323</ele>
        <time>2025-10-10T10:06:25.531+00:00</time>
      </trkpt>
      <trkpt lat="46.6961" lon="5.64154">
        <ele>323</ele>
        <time>2025-10-10T10:06:29.854+00:00</time>
      </trkpt>
      <trkpt lat="46.69607" lon="5.64151">
        <ele>327</ele>
        <time>2025-10-10T10:06:34.305+00:00</time>
      </trkpt>
      <trkpt lat="46.69604" lon="5.64148">
        <ele>327</ele>
        <time>2025-10-10T10:06:38.351+00:00</time>
      </trkpt>
      <trkpt lat="46.69601" lon="5.64144">
        <ele>327</ele>
        <time>2025-10-10T10:06:42.846+00:00</time>
      </trkpt>
      <trkpt lat="46.69597" lon="5.64145">
        <ele>326</ele>
        <time>2025-10-10T10:06:47.522+00:00</time>
      </trkpt>
      <trkpt lat="46.69592" lon="5.64143">
        <ele>326</ele>
        <time>2025-10-10T10:06:51.711+00:00</time>
      </trkpt>
      <trkpt lat="46.69588" lon="5.64139">
        <ele>326</ele>
        <time>2025-10-10T10:06:56.087+00:00</time>
      </trkpt>
      <trkpt lat="46.69584" lon="5.64137">
        <ele>326</ele>
        <time>2025-10-10T10:07:00.529+00:00</time>
      </trkpt>
      <trkpt lat="46.6958" lon="5.64133">
        <ele>326</ele>
        <time>2025-10-10T10:07:05.253+00:00</time>
      </trkpt>
      <trkpt lat="46.69579" lon="5.64128">
        <ele>326</ele>
        <time>2025-10-10T10:07:09.523+00:00</time>
      </trkpt>
      <trkpt lat="46.69574" lon="5.64126">
        <ele>326</ele>
        <time>2025-10-10T10:07:13.531+00:00</time>
      </trkpt>
      <trkpt lat="46.69569" lon="5.64124">
        <ele>325</ele>
        <time>2025-10-10T10:07:17.928+00:00</time>
      </trkpt>
      <trkpt lat="46.69565" lon="5.64124">
        <ele>325</ele>
        <time>2025-10-10T10:07:22.279+00:00</time>
      </trkpt>
      <trkpt lat="46.6956" lon="5.64121">
        <ele>325</ele>
        <time>2025-10-10T10:07:26.525+00:00</time>
      </trkpt>
      <trkpt lat="46.69557" lon="5.64117">
        <ele>325</ele>
        <time>2025-10-10T10:07:31.153+00:00</time>
      </trkpt>
      <trkpt lat="46.69553" lon="5.64113">
        <ele>325</ele>
        <time>2025-10-10T10:07:35.426+00:00</time>
      </trkpt>
      <trkpt lat="46.6955" lon="5.6411">
        <ele>325</ele>
        <time>2025-10-10T10:07:39.453+00:00</time>
      </trkpt>
      <trkpt lat="46.69548" lon="5.64106">
        <ele>325</ele>
        <time>2025-10-10T10:07:43.532+00:00</time>
      </trkpt>
      <trkpt lat="46.69544" lon="5.64103">
        <ele>325</ele>
        <time>2025-10-10T10:07:47.968+00:00</time>
      </trkpt>
      <trkpt lat="46.69542" lon="5.64101">
        <ele>322</ele>
        <time>2025-10-10T10:07:52.528+00:00</time>
      </trkpt>
      <trkpt lat="46.69538" lon="5.64101">
        <ele>322</ele>
        <time>2025-10-10T10:07:57.234+00:00</time>
      </trkpt>
      <trkpt lat="46.69533" lon="5.64097">
        <ele>322</ele>
        <time>2025-10-10T10:08:01.524+00:00</time>
      </trkpt>
      <trkpt lat="46.69529" lon="5.64097">
        <ele>323</ele>
        <time>2025-10-10T10:08:05.970+00:00</time>
      </trkpt>
      <trkpt lat="46.69526" lon="5.64092">
        <ele>323</ele>
        <time>2025-10-10T10:08:10.520+00:00</time>
      </trkpt>
      <trkpt lat="46.69523" lon="5.64087">
        <ele>323</ele>
        <time>2025-10-10T10:08:14.833+00:00</time>
      </trkpt>
      <trkpt lat="46.69518" lon="5.64087">
        <ele>323</ele>
        <time>2025-10-10T10:08:19.108+00:00</time>
      </trkpt>
      <trkpt lat="46.69516" lon="5.64082">
        <ele>323</ele>
        <time>2025-10-10T10:08:23.530+00:00</time>
      </trkpt>
      <trkpt lat="46.69512" lon="5.6408">
        <ele>326</ele>
        <time>2025-10-10T10:08:28.151+00:00</time>
      </trkpt>
      <trkpt lat="46.69509" lon="5.64077">
        <ele>326</ele>
        <time>2025-10-10T10:08:32.468+00:00</time>
      </trkpt>
      <trkpt lat="46.69504" lon="5.64074">
        <ele>326</ele>
        <time>2025-10-10T10:08:37.392+00:00</time>
      </trkpt>
      <trkpt lat="46.695" lon="5.64073">
        <ele>326</ele>
        <time>2025-10-10T10:08:41.451+00:00</time>
      </trkpt>
      <trkpt lat="46.69496" lon="5.6407">
        <ele>326</ele>
        <time>2025-10-10T10:08:45.531+00:00</time>
      </trkpt>
      <trkpt lat="46.69492" lon="5.64065">
        <ele>334</ele>
        <time>2025-10-10T10:08:49.772+00:00</time>
      </trkpt>
      <trkpt lat="46.69488" lon="5.64062">
        <ele>334</ele>
        <time>2025-10-10T10:08:54.072+00:00</time>
      </trkpt>
      <trkpt lat="46.69484" lon="5.64058">
        <ele>330</ele>
        <time>2025-10-10T10:08:58.386+00:00</time>
      </trkpt>
      <trkpt lat="46.69479" lon="5.64056">
        <ele>330</ele>
        <time>2025-10-10T10:09:02.924+00:00</time>
      </trkpt>
      <trkpt lat="46.69475" lon="5.64054">
        <ele>330</ele>
        <time>2025-10-10T10:09:07.532+00:00</time>
      </trkpt>
      <trkpt lat="46.69472" lon="5.64051">
        <ele>330</ele>
        <time>2025-10-10T10:09:12.386+00:00</time>
      </trkpt>
      <trkpt lat="46.69467" lon="5.6405">
        <ele>330</ele>
        <time>2025-10-10T10:09:17.393+00:00</time>
      </trkpt>
      <trkpt lat="46.69463" lon="5.64047">
        <ele>330</ele>
        <time>2025-10-10T10:09:21.531+00:00</time>
      </trkpt>
      <trkpt lat="46.69459" lon="5.64042">
        <ele>330</ele>
        <time>2025-10-10T10:09:26.054+00:00</time>
      </trkpt>
      <trkpt lat="46.69454" lon="5.64038">
        <ele>328</ele>
        <time>2025-10-10T10:09:30.521+00:00</time>
      </trkpt>
      <trkpt lat="46.69451" lon="5.64034">
        <ele>328</ele>
        <time>2025-10-10T10:09:34.971+00:00</time>
      </trkpt>
      <trkpt lat="46.69448" lon="5.64029">
        <ele>328</ele>
        <time>2025-10-10T10:09:39.413+00:00</time>
      </trkpt>
      <trkpt lat="46.69446" lon="5.64023">
        <ele>328</ele>
        <time>2025-10-10T10:09:43.773+00:00</time>
      </trkpt>
      <trkpt lat="46.69442" lon="5.6402">
        <ele>328</ele>
        <time>2025-10-10T10:09:47.791+00:00</time>
      </trkpt>
      <trkpt lat="46.69438" lon="5.64016">
        <ele>328</ele>
        <time>2025-10-10T10:09:52.393+00:00</time>
      </trkpt>
      <trkpt lat="46.69434" lon="5.64013">
        <ele>333</ele>
        <time>2025-10-10T10:09:57.073+00:00</time>
      </trkpt>
      <trkpt lat="46.69433" lon="5.6401">
        <ele>333</ele>
        <time>2025-10-10T10:10:01.253+00:00</time>
      </trkpt>
      <trkpt lat="46.69431" lon="5.64007">
        <ele>333</ele>
        <time>2025-10-10T10:10:06.253+00:00</time>
      </trkpt>
      <trkpt lat="46.69427" lon="5.64003">
        <ele>334</ele>
        <time>2025-10-10T10:10:10.511+00:00</time>
      </trkpt>
      <trkpt lat="46.69422" lon="5.63999">
        <ele>334</ele>
        <time>2025-10-10T10:10:14.812+00:00</time>
      </trkpt>
      <trkpt lat="46.69418" lon="5.63996">
        <ele>334</ele>
        <time>2025-10-10T10:10:19.525+00:00</time>
      </trkpt>
      <trkpt lat="46.69414" lon="5.63994">
        <ele>334</ele>
        <time>2025-10-10T10:10:24.306+00:00</time>
      </trkpt>
      <trkpt lat="46.69409" lon="5.6399">
        <ele>334</ele>
        <time>2025-10-10T10:10:29.533+00:00</time>
      </trkpt>
      <trkpt lat="46.69407" lon="5.63984">
        <ele>339</ele>
        <time>2025-10-10T10:10:34.347+00:00</time>
      </trkpt>
      <trkpt lat="46.69404" lon="5.63982">
        <ele>339</ele>
        <time>2025-10-10T10:10:38.793+00:00</time>
      </trkpt>
      <trkpt lat="46.694" lon="5.6398">
        <ele>337</ele>
        <time>2025-10-10T10:10:43.373+00:00</time>
      </trkpt>
      <trkpt lat="46.69397" lon="5.63976">
        <ele>337</ele>
        <time>2025-10-10T10:10:47.972+00:00</time>
      </trkpt>
      <trkpt lat="46.69393" lon="5.63973">
        <ele>337</ele>
        <time>2025-10-10T10:10:52.008+00:00</time>
      </trkpt>
      <trkpt lat="46.6939" lon="5.6397">
        <ele>337</ele>
        <time>2025-10-10T10:10:56.292+00:00</time>
      </trkpt>
      <trkpt lat="46.69386" lon="5.63969">
        <ele>337</ele>
        <time>2025-10-10T10:11:00.977+00:00</time>
      </trkpt>
      <trkpt lat="46.69381" lon="5.63969">
        <ele>337</ele>
        <time>2025-10-10T10:11:05.488+00:00</time>
      </trkpt>
      <trkpt lat="46.69377" lon="5.63969">
        <ele>337</ele>
        <time>2025-10-10T10:11:09.524+00:00</time>
      </trkpt>
      <trkpt lat="46.69374" lon="5.63968">
        <ele>336</ele>
        <time>2025-10-10T10:11:13.753+00:00</time>
      </trkpt>
      <trkpt lat="46.69369" lon="5.63969">
        <ele>336</ele>
        <time>2025-10-10T10:11:18.524+00:00</time>
      </trkpt>
      <trkpt lat="46.69365" lon="5.63974">
        <ele>336</ele>
        <time>2025-10-10T10:11:23.522+00:00</time>
      </trkpt>
      <trkpt lat="46.6936" lon="5.63977">
        <ele>336</ele>
        <time>2025-10-10T10:11:27.971+00:00</time>
      </trkpt>
      <trkpt lat="46.69356" lon="5.63976">
        <ele>336</ele>
        <time>2025-10-10T10:11:32.371+00:00</time>
      </trkpt>
      <trkpt lat="46.69352" lon="5.63976">
        <ele>336</ele>
        <time>2025-10-10T10:11:37.240+00:00</time>
      </trkpt>
      <trkpt lat="46.69349" lon="5.63976">
        <ele>336</ele>
        <time>2025-10-10T10:11:41.493+00:00</time>
      </trkpt>
      <trkpt lat="46.69346" lon="5.63975">
        <ele>340</ele>
        <time>2025-10-10T10:11:46.074+00:00</time>
      </trkpt>
      <trkpt lat="46.69345" lon="5.63964">
        <ele>340</ele>
        <time>2025-10-10T10:11:55.091+00:00</time>
      </trkpt>
      <trkpt lat="46.69345" lon="5.63963">
        <ele>340</ele>
        <time>2025-10-10T10:11:59.529+00:00</time>
      </trkpt>
      <trkpt lat="46.69345" lon="5.63962">
        <ele>340</ele>
        <time>2025-10-10T10:12:04.033+00:00</time>
      </trkpt>
      <trkpt lat="46.69342" lon="5.63958">
        <ele>341</ele>
        <time>2025-10-10T10:12:08.525+00:00</time>
      </trkpt>
      <trkpt lat="46.6934" lon="5.63956">
        <ele>341</ele>
        <time>2025-10-10T10:12:13.476+00:00</time>
      </trkpt>
      <trkpt lat="46.69335" lon="5.63946">
        <ele>341</ele>
        <time>2025-10-10T10:12:37.368+00:00</time>
      </trkpt>
      <trkpt lat="46.69335" lon="5.63945">
        <ele>341</ele>
        <time>2025-10-10T10:12:41.525+00:00</time>
      </trkpt>
      <trkpt lat="46.69334" lon="5.63945">
        <ele>341</ele>
        <time>2025-10-10T10:12:46.530+00:00</time>
      </trkpt>
      <trkpt lat="46.69333" lon="5.63945">
        <ele>341</ele>
        <time>2025-10-10T10:12:50.907+00:00</time>
      </trkpt>
      <trkpt lat="46.69329" lon="5.63945">
        <ele>341</ele>
        <time>2025-10-10T10:12:55.525+00:00</time>
      </trkpt>
      <trkpt lat="46.69327" lon="5.63945">
        <ele>341</ele>
        <time>2025-10-10T10:13:04.529+00:00</time>
      </trkpt>
      <trkpt lat="46.69325" lon="5.63946">
        <ele>341</ele>
        <time>2025-10-10T10:13:09.524+00:00</time>
      </trkpt>
      <trkpt lat="46.69324" lon="5.63946">
        <ele>341</ele>
        <time>2025-10-10T10:13:14.527+00:00</time>
      </trkpt>
      <trkpt lat="46.69322" lon="5.63946">
        <ele>341</ele>
        <time>2025-10-10T10:13:18.530+00:00</time>
      </trkpt>
      <trkpt lat="46.69319" lon="5.63949">
        <ele>348</ele>
        <time>2025-10-10T10:13:22.934+00:00</time>
      </trkpt>
      <trkpt lat="46.69313" lon="5.63947">
        <ele>348</ele>
        <time>2025-10-10T10:13:27.174+00:00</time>
      </trkpt>
      <trkpt lat="46.6931" lon="5.63944">
        <ele>348</ele>
        <time>2025-10-10T10:13:31.746+00:00</time>
      </trkpt>
      <trkpt lat="46.69306" lon="5.63947">
        <ele>348</ele>
        <time>2025-10-10T10:13:36.245+00:00</time>
      </trkpt>
      <trkpt lat="46.69302" lon="5.63949">
        <ele>348</ele>
        <time>2025-10-10T10:13:40.448+00:00</time>
      </trkpt>
      <trkpt lat="46.69298" lon="5.63946">
        <ele>348</ele>
        <time>2025-10-10T10:13:44.715+00:00</time>
      </trkpt>
      <trkpt lat="46.69295" lon="5.63946">
        <ele>348</ele>
        <time>2025-10-10T10:13:49.056+00:00</time>
      </trkpt>
      <trkpt lat="46.69291" lon="5.63945">
        <ele>352</ele>
        <time>2025-10-10T10:13:53.193+00:00</time>
      </trkpt>
      <trkpt lat="46.69287" lon="5.63944">
        <ele>352</ele>
        <time>2025-10-10T10:13:57.521+00:00</time>
      </trkpt>
      <trkpt lat="46.69283" lon="5.63943">
        <ele>352</ele>
        <time>2025-10-10T10:14:02.528+00:00</time>
      </trkpt>
      <trkpt lat="46.69279" lon="5.63942">
        <ele>352</ele>
        <time>2025-10-10T10:14:07.053+00:00</time>
      </trkpt>
      <trkpt lat="46.69276" lon="5.6394">
        <ele>352</ele>
        <time>2025-10-10T10:14:11.527+00:00</time>
      </trkpt>
      <trkpt lat="46.69274" lon="5.6394">
        <ele>352</ele>
        <time>2025-10-10T10:14:16.526+00:00</time>
      </trkpt>
      <trkpt lat="46.6927" lon="5.6394">
        <ele>352</ele>
        <time>2025-10-10T10:14:21.078+00:00</time>
      </trkpt>
      <trkpt lat="46.69267" lon="5.63941">
        <ele>352</ele>
        <time>2025-10-10T10:14:25.521+00:00</time>
      </trkpt>
      <trkpt lat="46.69264" lon="5.63941">
        <ele>354</ele>
        <time>2025-10-10T10:14:29.538+00:00</time>
      </trkpt>
      <trkpt lat="46.6926" lon="5.63939">
        <ele>354</ele>
        <time>2025-10-10T10:14:34.522+00:00</time>
      </trkpt>
      <trkpt lat="46.69257" lon="5.63936">
        <ele>354</ele>
        <time>2025-10-10T10:14:39.472+00:00</time>
      </trkpt>
      <trkpt lat="46.69254" lon="5.63934">
        <ele>354</ele>
        <time>2025-10-10T10:14:44.036+00:00</time>
      </trkpt>
      <trkpt lat="46.69253" lon="5.63932">
        <ele>354</ele>
        <time>2025-10-10T10:14:48.522+00:00</time>
      </trkpt>
      <trkpt lat="46.69251" lon="5.63928">
        <ele>351</ele>
        <time>2025-10-10T10:14:53.437+00:00</time>
      </trkpt>
      <trkpt lat="46.69249" lon="5.63927">
        <ele>351</ele>
        <time>2025-10-10T10:14:57.526+00:00</time>
      </trkpt>
      <trkpt lat="46.69245" lon="5.63928">
        <ele>351</ele>
        <time>2025-10-10T10:15:02.332+00:00</time>
      </trkpt>
      <trkpt lat="46.69242" lon="5.63927">
        <ele>351</ele>
        <time>2025-10-10T10:15:06.392+00:00</time>
      </trkpt>
      <trkpt lat="46.6924" lon="5.63929">
        <ele>351</ele>
        <time>2025-10-10T10:15:10.523+00:00</time>
      </trkpt>
      <trkpt lat="46.69238" lon="5.63929">
        <ele>351</ele>
        <time>2025-10-10T10:15:14.528+00:00</time>
      </trkpt>
      <trkpt lat="46.69235" lon="5.63927">
        <ele>356</ele>
        <time>2025-10-10T10:15:19.524+00:00</time>
      </trkpt>
      <trkpt lat="46.69232" lon="5.63927">
        <ele>356</ele>
        <time>2025-10-10T10:15:24.337+00:00</time>
      </trkpt>
      <trkpt lat="46.6923" lon="5.63927">
        <ele>356</ele>
        <time>2025-10-10T10:15:29.132+00:00</time>
      </trkpt>
      <trkpt lat="46.69227" lon="5.63927">
        <ele>356</ele>
        <time>2025-10-10T10:15:33.457+00:00</time>
      </trkpt>
      <trkpt lat="46.69224" lon="5.63927">
        <ele>356</ele>
        <time>2025-10-10T10:15:38.085+00:00</time>
      </trkpt>
      <trkpt lat="46.69219" lon="5.63927">
        <ele>356</ele>
        <time>2025-10-10T10:15:42.333+00:00</time>
      </trkpt>
      <trkpt lat="46.69216" lon="5.63926">
        <ele>356</ele>
        <time>2025-10-10T10:15:47.035+00:00</time>
      </trkpt>
      <trkpt lat="46.69215" lon="5.63927">
        <ele>356</ele>
        <time>2025-10-10T10:15:51.513+00:00</time>
      </trkpt>
      <trkpt lat="46.69212" lon="5.63922">
        <ele>356</ele>
        <time>2025-10-10T10:15:56.530+00:00</time>
      </trkpt>
      <trkpt lat="46.6921" lon="5.63917">
        <ele>356</ele>
        <time>2025-10-10T10:16:01.521+00:00</time>
      </trkpt>
      <trkpt lat="46.69207" lon="5.63915">
        <ele>363</ele>
        <time>2025-10-10T10:16:06.497+00:00</time>
      </trkpt>
      <trkpt lat="46.69205" lon="5.63913">
        <ele>363</ele>
        <time>2025-10-10T10:16:10.523+00:00</time>
      </trkpt>
      <trkpt lat="46.69203" lon="5.6391">
        <ele>363</ele>
        <time>2025-10-10T10:16:15.396+00:00</time>
      </trkpt>
      <trkpt lat="46.69201" lon="5.63909">
        <ele>363</ele>
        <time>2025-10-10T10:16:19.516+00:00</time>
      </trkpt>
      <trkpt lat="46.69197" lon="5.63907">
        <ele>363</ele>
        <time>2025-10-10T10:16:24.529+00:00</time>
      </trkpt>
      <trkpt lat="46.69194" lon="5.63907">
        <ele>363</ele>
        <time>2025-10-10T10:16:29.067+00:00</time>
      </trkpt>
      <trkpt lat="46.6919" lon="5.63906">
        <ele>363</ele>
        <time>2025-10-10T10:16:33.531+00:00</time>
      </trkpt>
      <trkpt lat="46.69187" lon="5.63904">
        <ele>363</ele>
        <time>2025-10-10T10:16:37.978+00:00</time>
      </trkpt>
      <trkpt lat="46.69186" lon="5.639">
        <ele>364</ele>
        <time>2025-10-10T10:16:42.034+00:00</time>
      </trkpt>
      <trkpt lat="46.69184" lon="5.63897">
        <ele>364</ele>
        <time>2025-10-10T10:16:46.189+00:00</time>
      </trkpt>
      <trkpt lat="46.69182" lon="5.63894">
        <ele>364</ele>
        <time>2025-10-10T10:16:50.526+00:00</time>
      </trkpt>
      <trkpt lat="46.69181" lon="5.63889">
        <ele>364</ele>
        <time>2025-10-10T10:16:55.211+00:00</time>
      </trkpt>
      <trkpt lat="46.69178" lon="5.63886">
        <ele>370</ele>
        <time>2025-10-10T10:16:59.264+00:00</time>
      </trkpt>
      <trkpt lat="46.69174" lon="5.63884">
        <ele>370</ele>
        <time>2025-10-10T10:17:03.937+00:00</time>
      </trkpt>
      <trkpt lat="46.69173" lon="5.63881">
        <ele>370</ele>
        <time>2025-10-10T10:17:08.524+00:00</time>
      </trkpt>
      <trkpt lat="46.69171" lon="5.63878">
        <ele>370</ele>
        <time>2025-10-10T10:17:13.326+00:00</time>
      </trkpt>
      <trkpt lat="46.69168" lon="5.63877">
        <ele>370</ele>
        <time>2025-10-10T10:17:17.533+00:00</time>
      </trkpt>
      <trkpt lat="46.69165" lon="5.63877">
        <ele>370</ele>
        <time>2025-10-10T10:17:22.442+00:00</time>
      </trkpt>
      <trkpt lat="46.69163" lon="5.63875">
        <ele>374</ele>
        <time>2025-10-10T10:17:26.524+00:00</time>
      </trkpt>
      <trkpt lat="46.69162" lon="5.63872">
        <ele>374</ele>
        <time>2025-10-10T10:17:32.524+00:00</time>
      </trkpt>
      <trkpt lat="46.6916" lon="5.6387">
        <ele>374</ele>
        <time>2025-10-10T10:17:37.477+00:00</time>
      </trkpt>
      <trkpt lat="46.69155" lon="5.63866">
        <ele>374</ele>
        <time>2025-10-10T10:17:41.528+00:00</time>
      </trkpt>
      <trkpt lat="46.69151" lon="5.63867">
        <ele>373</ele>
        <time>2025-10-10T10:17:46.107+00:00</time>
      </trkpt>
      <trkpt lat="46.69147" lon="5.63868">
        <ele>373</ele>
        <time>2025-10-10T10:17:50.523+00:00</time>
      </trkpt>
      <trkpt lat="46.6914" lon="5.63869">
        <ele>373</ele>
        <time>2025-10-10T10:17:59.092+00:00</time>
      </trkpt>
      <trkpt lat="46.69139" lon="5.63865">
        <ele>373</ele>
        <time>2025-10-10T10:18:03.212+00:00</time>
      </trkpt>
      <trkpt lat="46.69138" lon="5.63862">
        <ele>373</ele>
        <time>2025-10-10T10:18:07.520+00:00</time>
      </trkpt>
      <trkpt lat="46.69138" lon="5.63861">
        <ele>373</ele>
        <time>2025-10-10T10:18:11.526+00:00</time>
      </trkpt>
      <trkpt lat="46.69137" lon="5.63859">
        <ele>373</ele>
        <time>2025-10-10T10:18:15.971+00:00</time>
      </trkpt>
      <trkpt lat="46.69127" lon="5.63851">
        <ele>373</ele>
        <time>2025-10-10T10:18:38.524+00:00</time>
      </trkpt>
      <trkpt lat="46.69127" lon="5.6385">
        <ele>373</ele>
        <time>2025-10-10T10:18:43.521+00:00</time>
      </trkpt>
      <trkpt lat="46.69126" lon="5.6385">
        <ele>373</ele>
        <time>2025-10-10T10:18:48.525+00:00</time>
      </trkpt>
      <trkpt lat="46.69125" lon="5.63851">
        <ele>373</ele>
        <time>2025-10-10T10:18:52.991+00:00</time>
      </trkpt>
      <trkpt lat="46.69123" lon="5.63851">
        <ele>374</ele>
        <time>2025-10-10T10:18:57.530+00:00</time>
      </trkpt>
      <trkpt lat="46.69118" lon="5.63856">
        <ele>374</ele>
        <time>2025-10-10T10:19:02.176+00:00</time>
      </trkpt>
      <trkpt lat="46.69115" lon="5.63858">
        <ele>374</ele>
        <time>2025-10-10T10:19:06.432+00:00</time>
      </trkpt>
      <trkpt lat="46.69112" lon="5.63861">
        <ele>374</ele>
        <time>2025-10-10T10:19:10.522+00:00</time>
      </trkpt>
      <trkpt lat="46.6911" lon="5.63863">
        <ele>374</ele>
        <time>2025-10-10T10:19:15.118+00:00</time>
      </trkpt>
      <trkpt lat="46.69106" lon="5.63862">
        <ele>374</ele>
        <time>2025-10-10T10:19:19.208+00:00</time>
      </trkpt>
      <trkpt lat="46.69103" lon="5.63864">
        <ele>374</ele>
        <time>2025-10-10T10:19:23.722+00:00</time>
      </trkpt>
      <trkpt lat="46.69101" lon="5.63864">
        <ele>374</ele>
        <time>2025-10-10T10:19:28.523+00:00</time>
      </trkpt>
      <trkpt lat="46.69096" lon="5.63863">
        <ele>383</ele>
        <time>2025-10-10T10:19:33.472+00:00</time>
      </trkpt>
      <trkpt lat="46.69092" lon="5.63868">
        <ele>383</ele>
        <time>2025-10-10T10:19:37.524+00:00</time>
      </trkpt>
      <trkpt lat="46.69089" lon="5.63874">
        <ele>383</ele>
        <time>2025-10-10T10:19:41.993+00:00</time>
      </trkpt>
      <trkpt lat="46.69087" lon="5.63883">
        <ele>378</ele>
        <time>2025-10-10T10:19:46.047+00:00</time>
      </trkpt>
      <trkpt lat="46.69086" lon="5.63887">
        <ele>378</ele>
        <time>2025-10-10T10:19:49.517+00:00</time>
      </trkpt>
      <trkpt lat="46.69083" lon="5.63894">
        <ele>378</ele>
        <time>2025-10-10T10:19:58.012+00:00</time>
      </trkpt>
      <trkpt lat="46.69078" lon="5.63899">
        <ele>378</ele>
        <time>2025-10-10T10:20:02.131+00:00</time>
      </trkpt>
      <trkpt lat="46.69069" lon="5.63897">
        <ele>378</ele>
        <time>2025-10-10T10:20:06.652+00:00</time>
      </trkpt>
      <trkpt lat="46.69063" lon="5.63895">
        <ele>384</ele>
        <time>2025-10-10T10:20:11.330+00:00</time>
      </trkpt>
      <trkpt lat="46.69058" lon="5.63894">
        <ele>384</ele>
        <time>2025-10-10T10:20:15.522+00:00</time>
      </trkpt>
      <trkpt lat="46.69053" lon="5.63898">
        <ele>384</ele>
        <time>2025-10-10T10:20:20.473+00:00</time>
      </trkpt>
      <trkpt lat="46.6905" lon="5.639">
        <ele>384</ele>
        <time>2025-10-10T10:20:24.518+00:00</time>
      </trkpt>
      <trkpt lat="46.69046" lon="5.63901">
        <ele>384</ele>
        <time>2025-10-10T10:20:29.076+00:00</time>
      </trkpt>
      <trkpt lat="46.69044" lon="5.63904">
        <ele>378</ele>
        <time>2025-10-10T10:20:33.518+00:00</time>
      </trkpt>
      <trkpt lat="46.69043" lon="5.63905">
        <ele>378</ele>
        <time>2025-10-10T10:20:37.789+00:00</time>
      </trkpt>
      <trkpt lat="46.69036" lon="5.63908">
        <ele>379</ele>
        <time>2025-10-10T10:20:42.528+00:00</time>
      </trkpt>
      <trkpt lat="46.69035" lon="5.63906">
        <ele>379</ele>
        <time>2025-10-10T10:20:47.525+00:00</time>
      </trkpt>
      <trkpt lat="46.6903" lon="5.63906">
        <ele>379</ele>
        <time>2025-10-10T10:20:52.519+00:00</time>
      </trkpt>
      <trkpt lat="46.69028" lon="5.63906">
        <ele>379</ele>
        <time>2025-10-10T10:20:56.522+00:00</time>
      </trkpt>
      <trkpt lat="46.69029" lon="5.63909">
        <ele>379</ele>
        <time>2025-10-10T10:21:01.494+00:00</time>
      </trkpt>
      <trkpt lat="46.69028" lon="5.63918">
        <ele>379</ele>
        <time>2025-10-10T10:21:05.521+00:00</time>
      </trkpt>
      <trkpt lat="46.69025" lon="5.63922">
        <ele>379</ele>
        <time>2025-10-10T10:21:10.517+00:00</time>
      </trkpt>
      <trkpt lat="46.69028" lon="5.63922">
        <ele>379</ele>
        <time>2025-10-10T10:24:35.524+00:00</time>
      </trkpt>
      <trkpt lat="46.69028" lon="5.63921">
        <ele>379</ele>
        <time>2025-10-10T10:24:40.516+00:00</time>
      </trkpt>
      <trkpt lat="46.69027" lon="5.63918">
        <ele>379</ele>
        <time>2025-10-10T10:24:49.525+00:00</time>
      </trkpt>
      <trkpt lat="46.69028" lon="5.63915">
        <ele>379</ele>
        <time>2025-10-10T10:24:54.519+00:00</time>
      </trkpt>
      <trkpt lat="46.69027" lon="5.6391">
        <ele>379</ele>
        <time>2025-10-10T10:24:59.340+00:00</time>
      </trkpt>
      <trkpt lat="46.6903" lon="5.6391">
        <ele>379</ele>
        <time>2025-10-10T10:25:42.522+00:00</time>
      </trkpt>
      <trkpt lat="46.69031" lon="5.63911">
        <ele>379</ele>
        <time>2025-10-10T10:25:47.527+00:00</time>
      </trkpt>
      <trkpt lat="46.69032" lon="5.63911">
        <ele>379</ele>
        <time>2025-10-10T10:25:51.817+00:00</time>
      </trkpt>
      <trkpt lat="46.69035" lon="5.63909">
        <ele>379</ele>
        <time>2025-10-10T10:25:56.523+00:00</time>
      </trkpt>
      <trkpt lat="46.69039" lon="5.63903">
        <ele>379</ele>
        <time>2025-10-10T10:26:01.521+00:00</time>
      </trkpt>
      <trkpt lat="46.69039" lon="5.63899">
        <ele>386</ele>
        <time>2025-10-10T10:26:05.524+00:00</time>
      </trkpt>
      <trkpt lat="46.69038" lon="5.63898">
        <ele>386</ele>
        <time>2025-10-10T10:26:09.882+00:00</time>
      </trkpt>
      <trkpt lat="46.69034" lon="5.63894">
        <ele>386</ele>
        <time>2025-10-10T10:26:14.523+00:00</time>
      </trkpt>
      <trkpt lat="46.69055" lon="5.6389">
        <ele>384</ele>
        <time>2025-10-10T10:26:19.202+00:00</time>
      </trkpt>
      <trkpt lat="46.69058" lon="5.63898">
        <ele>384</ele>
        <time>2025-10-10T10:26:23.523+00:00</time>
      </trkpt>
      <trkpt lat="46.69063" lon="5.639">
        <ele>384</ele>
        <time>2025-10-10T10:26:28.249+00:00</time>
      </trkpt>
      <trkpt lat="46.69068" lon="5.63895">
        <ele>384</ele>
        <time>2025-10-10T10:26:32.821+00:00</time>
      </trkpt>
      <trkpt lat="46.69072" lon="5.63893">
        <ele>378</ele>
        <time>2025-10-10T10:26:36.856+00:00</time>
      </trkpt>
      <trkpt lat="46.69077" lon="5.63891">
        <ele>378</ele>
        <time>2025-10-10T10:26:41.183+00:00</time>
      </trkpt>
      <trkpt lat="46.69081" lon="5.63891">
        <ele>378</ele>
        <time>2025-10-10T10:26:45.521+00:00</time>
      </trkpt>
      <trkpt lat="46.69085" lon="5.63887">
        <ele>378</ele>
        <time>2025-10-10T10:26:50.208+00:00</time>
      </trkpt>
      <trkpt lat="46.69086" lon="5.6388">
        <ele>378</ele>
        <time>2025-10-10T10:26:54.342+00:00</time>
      </trkpt>
      <trkpt lat="46.69085" lon="5.63868">
        <ele>383</ele>
        <time>2025-10-10T10:27:11.527+00:00</time>
      </trkpt>
      <trkpt lat="46.69084" lon="5.63864">
        <ele>383</ele>
        <time>2025-10-10T10:27:16.078+00:00</time>
      </trkpt>
      <trkpt lat="46.69085" lon="5.6386">
        <ele>383</ele>
        <time>2025-10-10T10:27:20.520+00:00</time>
      </trkpt>
      <trkpt lat="46.69085" lon="5.63856">
        <ele>383</ele>
        <time>2025-10-10T10:27:24.962+00:00</time>
      </trkpt>
      <trkpt lat="46.69086" lon="5.63853">
        <ele>383</ele>
        <time>2025-10-10T10:27:29.524+00:00</time>
      </trkpt>
      <trkpt lat="46.6908" lon="5.63865">
        <ele>383</ele>
        <time>2025-10-10T10:27:52.532+00:00</time>
      </trkpt>
      <trkpt lat="46.69079" lon="5.63865">
        <ele>383</ele>
        <time>2025-10-10T10:27:57.520+00:00</time>
      </trkpt>
      <trkpt lat="46.69079" lon="5.63865">
        <ele>383</ele>
        <time>2025-10-10T10:28:02.527+00:00</time>
      </trkpt>
      <trkpt lat="46.69077" lon="5.63865">
        <ele>383</ele>
        <time>2025-10-10T10:28:07.098+00:00</time>
      </trkpt>
      <trkpt lat="46.69076" lon="5.63866">
        <ele>383</ele>
        <time>2025-10-10T10:28:11.520+00:00</time>
      </trkpt>
      <trkpt lat="46.69072" lon="5.63867">
        <ele>383</ele>
        <time>2025-10-10T10:28:25.062+00:00</time>
      </trkpt>
      <trkpt lat="46.69069" lon="5.63866">
        <ele>394</ele>
        <time>2025-10-10T10:28:29.529+00:00</time>
      </trkpt>
      <trkpt lat="46.69067" lon="5.63866">
        <ele>394</ele>
        <time>2025-10-10T10:28:34.522+00:00</time>
      </trkpt>
      <trkpt lat="46.69066" lon="5.63866">
        <ele>394</ele>
        <time>2025-10-10T10:28:38.528+00:00</time>
      </trkpt>
      <trkpt lat="46.69065" lon="5.63865">
        <ele>394</ele>
        <time>2025-10-10T10:28:43.525+00:00</time>
      </trkpt>
      <trkpt lat="46.69061" lon="5.63864">
        <ele>394</ele>
        <time>2025-10-10T10:29:03.522+00:00</time>
      </trkpt>
      <trkpt lat="46.69059" lon="5.63864">
        <ele>394</ele>
        <time>2025-10-10T10:29:07.527+00:00</time>
      </trkpt>
      <trkpt lat="46.69058" lon="5.63864">
        <ele>394</ele>
        <time>2025-10-10T10:29:12.529+00:00</time>
      </trkpt>
      <trkpt lat="46.69058" lon="5.63864">
        <ele>394</ele>
        <time>2025-10-10T10:29:15.050+00:00</time>
      </trkpt>
      <trkpt lat="46.69053" lon="5.63863">
        <ele>394</ele>
        <time>2025-10-10T10:29:23.529+00:00</time>
      </trkpt>
      <trkpt lat="46.69049" lon="5.63861">
        <ele>394</ele>
        <time>2025-10-10T10:29:32.528+00:00</time>
      </trkpt>
      <trkpt lat="46.69049" lon="5.63861">
        <ele>394</ele>
        <time>2025-10-10T10:29:37.016+00:00</time>
      </trkpt>
      <trkpt lat="46.69046" lon="5.63858">
        <ele>394</ele>
        <time>2025-10-10T10:29:41.532+00:00</time>
      </trkpt>
      <trkpt lat="46.69042" lon="5.63857">
        <ele>394</ele>
        <time>2025-10-10T10:29:45.991+00:00</time>
      </trkpt>
      <trkpt lat="46.69039" lon="5.63854">
        <ele>397</ele>
        <time>2025-10-10T10:29:50.014+00:00</time>
      </trkpt>
      <trkpt lat="46.69035" lon="5.63849">
        <ele>397</ele>
        <time>2025-10-10T10:30:27.524+00:00</time>
      </trkpt>
      <trkpt lat="46.69034" lon="5.63848">
        <ele>397</ele>
        <time>2025-10-10T10:30:31.525+00:00</time>
      </trkpt>
      <trkpt lat="46.69032" lon="5.63847">
        <ele>397</ele>
        <time>2025-10-10T10:30:36.516+00:00</time>
      </trkpt>
      <trkpt lat="46.6903" lon="5.63844">
        <ele>405</ele>
        <time>2025-10-10T10:30:40.525+00:00</time>
      </trkpt>
      <trkpt lat="46.69025" lon="5.63842">
        <ele>405</ele>
        <time>2025-10-10T10:30:44.727+00:00</time>
      </trkpt>
      <trkpt lat="46.69019" lon="5.63841">
        <ele>405</ele>
        <time>2025-10-10T10:30:49.046+00:00</time>
      </trkpt>
      <trkpt lat="46.69015" lon="5.63841">
        <ele>405</ele>
        <time>2025-10-10T10:30:52.518+00:00</time>
      </trkpt>
      <trkpt lat="46.69011" lon="5.63836">
        <ele>409</ele>
        <time>2025-10-10T10:31:00.986+00:00</time>
      </trkpt>
      <trkpt lat="46.69009" lon="5.63831">
        <ele>409</ele>
        <time>2025-10-10T10:31:05.188+00:00</time>
      </trkpt>
      <trkpt lat="46.69007" lon="5.63827">
        <ele>409</ele>
        <time>2025-10-10T10:31:09.517+00:00</time>
      </trkpt>
      <trkpt lat="46.69005" lon="5.63821">
        <ele>409</ele>
        <time>2025-10-10T10:31:14.185+00:00</time>
      </trkpt>
      <trkpt lat="46.69005" lon="5.63813">
        <ele>417</ele>
        <time>2025-10-10T10:31:18.528+00:00</time>
      </trkpt>
      <trkpt lat="46.69003" lon="5.63808">
        <ele>417</ele>
        <time>2025-10-10T10:31:23.517+00:00</time>
      </trkpt>
      <trkpt lat="46.69001" lon="5.63801">
        <ele>417</ele>
        <time>2025-10-10T10:31:28.106+00:00</time>
      </trkpt>
      <trkpt lat="46.69" lon="5.63793">
        <ele>417</ele>
        <time>2025-10-10T10:31:32.186+00:00</time>
      </trkpt>
      <trkpt lat="46.68998" lon="5.63787">
        <ele>430</ele>
        <time>2025-10-10T10:31:36.326+00:00</time>
      </trkpt>
      <trkpt lat="46.68995" lon="5.63782">
        <ele>430</ele>
        <time>2025-10-10T10:31:40.522+00:00</time>
      </trkpt>
      <trkpt lat="46.6899" lon="5.63774">
        <ele>430</ele>
        <time>2025-10-10T10:31:47.330+00:00</time>
      </trkpt>
      <trkpt lat="46.68986" lon="5.6377">
        <ele>430</ele>
        <time>2025-10-10T10:31:51.453+00:00</time>
      </trkpt>
      <trkpt lat="46.68983" lon="5.63766">
        <ele>453</ele>
        <time>2025-10-10T10:31:55.993+00:00</time>
      </trkpt>
      <trkpt lat="46.68981" lon="5.63763">
        <ele>498</ele>
        <time>2025-10-10T10:32:00.191+00:00</time>
      </trkpt>
      <trkpt lat="46.68978" lon="5.63755">
        <ele>498</ele>
        <time>2025-10-10T10:32:08.247+00:00</time>
      </trkpt>
      <trkpt lat="46.68976" lon="5.63751">
        <ele>498</ele>
        <time>2025-10-10T10:32:12.521+00:00</time>
      </trkpt>
      <trkpt lat="46.68976" lon="5.63749">
        <ele>498</ele>
        <time>2025-10-10T10:32:14.516+00:00</time>
      </trkpt>
      <trkpt lat="46.68976" lon="5.63748">
        <ele>498</ele>
        <time>2025-10-10T10:32:23.107+00:00</time>
      </trkpt>
      <trkpt lat="46.68976" lon="5.63746">
        <ele>498</ele>
        <time>2025-10-10T10:32:27.516+00:00</time>
      </trkpt>
      <trkpt lat="46.68974" lon="5.63744">
        <ele>498</ele>
        <time>2025-10-10T10:32:32.010+00:00</time>
      </trkpt>
      <trkpt lat="46.68969" lon="5.63742">
        <ele>498</ele>
        <time>2025-10-10T10:32:36.523+00:00</time>
      </trkpt>
      <trkpt lat="46.68966" lon="5.63745">
        <ele>498</ele>
        <time>2025-10-10T10:32:41.107+00:00</time>
      </trkpt>
      <trkpt lat="46.68963" lon="5.63749">
        <ele>498</ele>
        <time>2025-10-10T10:32:45.530+00:00</time>
      </trkpt>
      <trkpt lat="46.68957" lon="5.63746">
        <ele>477</ele>
        <time>2025-10-10T10:32:49.986+00:00</time>
      </trkpt>
      <trkpt lat="46.68956" lon="5.63741">
        <ele>477</ele>
        <time>2025-10-10T10:32:54.351+00:00</time>
      </trkpt>
      <trkpt lat="46.68955" lon="5.63737">
        <ele>477</ele>
        <time>2025-10-10T10:32:58.523+00:00</time>
      </trkpt>
      <trkpt lat="46.68954" lon="5.63736">
        <ele>504</ele>
        <time>2025-10-10T10:33:02.517+00:00</time>
      </trkpt>
      <trkpt lat="46.68954" lon="5.63733">
        <ele>504</ele>
        <time>2025-10-10T10:33:07.009+00:00</time>
      </trkpt>
      <trkpt lat="46.68953" lon="5.6373">
        <ele>504</ele>
        <time>2025-10-10T10:33:11.428+00:00</time>
      </trkpt>
      <trkpt lat="46.68952" lon="5.63728">
        <ele>504</ele>
        <time>2025-10-10T10:33:15.525+00:00</time>
      </trkpt>
      <trkpt lat="46.68949" lon="5.63727">
        <ele>504</ele>
        <time>2025-10-10T10:33:20.520+00:00</time>
      </trkpt>
      <trkpt lat="46.68947" lon="5.63725">
        <ele>504</ele>
        <time>2025-10-10T10:33:24.523+00:00</time>
      </trkpt>
      <trkpt lat="46.68943" lon="5.63725">
        <ele>504</ele>
        <time>2025-10-10T10:33:29.522+00:00</time>
      </trkpt>
      <trkpt lat="46.68941" lon="5.63724">
        <ele>504</ele>
        <time>2025-10-10T10:33:34.192+00:00</time>
      </trkpt>
      <trkpt lat="46.68936" lon="5.63723">
        <ele>504</ele>
        <time>2025-10-10T10:33:38.291+00:00</time>
      </trkpt>
      <trkpt lat="46.68934" lon="5.63723">
        <ele>504</ele>
        <time>2025-10-10T10:33:42.522+00:00</time>
      </trkpt>
      <trkpt lat="46.68931" lon="5.63723">
        <ele>504</ele>
        <time>2025-10-10T10:33:47.251+00:00</time>
      </trkpt>
      <trkpt lat="46.68927" lon="5.63727">
        <ele>494</ele>
        <time>2025-10-10T10:34:00.523+00:00</time>
      </trkpt>
      <trkpt lat="46.68926" lon="5.63728">
        <ele>494</ele>
        <time>2025-10-10T10:34:05.072+00:00</time>
      </trkpt>
      <trkpt lat="46.68925" lon="5.6373">
        <ele>494</ele>
        <time>2025-10-10T10:34:09.519+00:00</time>
      </trkpt>
      <trkpt lat="46.68924" lon="5.63732">
        <ele>494</ele>
        <time>2025-10-10T10:34:14.313+00:00</time>
      </trkpt>
      <trkpt lat="46.6892" lon="5.63736">
        <ele>494</ele>
        <time>2025-10-10T10:34:18.527+00:00</time>
      </trkpt>
      <trkpt lat="46.68917" lon="5.6374">
        <ele>482</ele>
        <time>2025-10-10T10:34:22.968+00:00</time>
      </trkpt>
      <trkpt lat="46.68914" lon="5.63744">
        <ele>482</ele>
        <time>2025-10-10T10:34:27.491+00:00</time>
      </trkpt>
      <trkpt lat="46.68912" lon="5.63748">
        <ele>482</ele>
        <time>2025-10-10T10:34:31.522+00:00</time>
      </trkpt>
      <trkpt lat="46.6891" lon="5.6375">
        <ele>482</ele>
        <time>2025-10-10T10:34:36.367+00:00</time>
      </trkpt>
      <trkpt lat="46.68901" lon="5.6375">
        <ele>489</ele>
        <time>2025-10-10T10:34:55.519+00:00</time>
      </trkpt>
      <trkpt lat="46.689" lon="5.63752">
        <ele>489</ele>
        <time>2025-10-10T10:35:00.522+00:00</time>
      </trkpt>
      <trkpt lat="46.68898" lon="5.63753">
        <ele>489</ele>
        <time>2025-10-10T10:35:05.309+00:00</time>
      </trkpt>
      <trkpt lat="46.68894" lon="5.63756">
        <ele>489</ele>
        <time>2025-10-10T10:35:09.521+00:00</time>
      </trkpt>
      <trkpt lat="46.6889" lon="5.63757">
        <ele>489</ele>
        <time>2025-10-10T10:35:14.046+00:00</time>
      </trkpt>
      <trkpt lat="46.68887" lon="5.63758">
        <ele>489</ele>
        <time>2025-10-10T10:35:18.523+00:00</time>
      </trkpt>
      <trkpt lat="46.68884" lon="5.63758">
        <ele>489</ele>
        <time>2025-10-10T10:35:22.518+00:00</time>
      </trkpt>
      <trkpt lat="46.68881" lon="5.63759">
        <ele>489</ele>
        <time>2025-10-10T10:35:26.526+00:00</time>
      </trkpt>
      <trkpt lat="46.68879" lon="5.63761">
        <ele>489</ele>
        <time>2025-10-10T10:35:31.029+00:00</time>
      </trkpt>
      <trkpt lat="46.68877" lon="5.63764">
        <ele>489</ele>
        <time>2025-10-10T10:35:35.269+00:00</time>
      </trkpt>
      <trkpt lat="46.68875" lon="5.63765">
        <ele>497</ele>
        <time>2025-10-10T10:35:39.520+00:00</time>
      </trkpt>
      <trkpt lat="46.68872" lon="5.63768">
        <ele>497</ele>
        <time>2025-10-10T10:35:43.992+00:00</time>
      </trkpt>
      <trkpt lat="46.6887" lon="5.63771">
        <ele>497</ele>
        <time>2025-10-10T10:35:48.387+00:00</time>
      </trkpt>
      <trkpt lat="46.68869" lon="5.63774">
        <ele>497</ele>
        <time>2025-10-10T10:35:52.517+00:00</time>
      </trkpt>
      <trkpt lat="46.68866" lon="5.63776">
        <ele>497</ele>
        <time>2025-10-10T10:35:57.049+00:00</time>
      </trkpt>
      <trkpt lat="46.68865" lon="5.63777">
        <ele>497</ele>
        <time>2025-10-10T10:36:03.031+00:00</time>
      </trkpt>
      <trkpt lat="46.68862" lon="5.63779">
        <ele>497</ele>
        <time>2025-10-10T10:36:07.451+00:00</time>
      </trkpt>
      <trkpt lat="46.68861" lon="5.63784">
        <ele>497</ele>
        <time>2025-10-10T10:36:11.523+00:00</time>
      </trkpt>
      <trkpt lat="46.68859" lon="5.63789">
        <ele>497</ele>
        <time>2025-10-10T10:36:16.310+00:00</time>
      </trkpt>
      <trkpt lat="46.68855" lon="5.63793">
        <ele>486</ele>
        <time>2025-10-10T10:36:24.525+00:00</time>
      </trkpt>
      <trkpt lat="46.68854" lon="5.63792">
        <ele>486</ele>
        <time>2025-10-10T10:36:29.521+00:00</time>
      </trkpt>
      <trkpt lat="46.68854" lon="5.63792">
        <ele>486</ele>
        <time>2025-10-10T10:36:34.350+00:00</time>
      </trkpt>
      <trkpt lat="46.68853" lon="5.63793">
        <ele>486</ele>
        <time>2025-10-10T10:36:38.471+00:00</time>
      </trkpt>
      <trkpt lat="46.68848" lon="5.63799">
        <ele>486</ele>
        <time>2025-10-10T10:36:42.517+00:00</time>
      </trkpt>
      <trkpt lat="46.68845" lon="5.63802">
        <ele>500</ele>
        <time>2025-10-10T10:36:47.287+00:00</time>
      </trkpt>
      <trkpt lat="46.68844" lon="5.63804">
        <ele>500</ele>
        <time>2025-10-10T10:36:52.185+00:00</time>
      </trkpt>
      <trkpt lat="46.68841" lon="5.6381">
        <ele>500</ele>
        <time>2025-10-10T10:36:56.350+00:00</time>
      </trkpt>
      <trkpt lat="46.68838" lon="5.63813">
        <ele>500</ele>
        <time>2025-10-10T10:37:00.525+00:00</time>
      </trkpt>
      <trkpt lat="46.68837" lon="5.63818">
        <ele>500</ele>
        <time>2025-10-10T10:37:05.209+00:00</time>
      </trkpt>
      <trkpt lat="46.68837" lon="5.63824">
        <ele>500</ele>
        <time>2025-10-10T10:37:10.527+00:00</time>
      </trkpt>
      <trkpt lat="46.68838" lon="5.63831">
        <ele>500</ele>
        <time>2025-10-10T10:37:14.944+00:00</time>
      </trkpt>
      <trkpt lat="46.68837" lon="5.63837">
        <ele>500</ele>
        <time>2025-10-10T10:37:19.365+00:00</time>
      </trkpt>
      <trkpt lat="46.68835" lon="5.63843">
        <ele>500</ele>
        <time>2025-10-10T10:37:23.472+00:00</time>
      </trkpt>
      <trkpt lat="46.68834" lon="5.63848">
        <ele>502</ele>
        <time>2025-10-10T10:37:27.519+00:00</time>
      </trkpt>
      <trkpt lat="46.68832" lon="5.63854">
        <ele>502</ele>
        <time>2025-10-10T10:37:32.012+00:00</time>
      </trkpt>
      <trkpt lat="46.68831" lon="5.63859">
        <ele>502</ele>
        <time>2025-10-10T10:37:36.051+00:00</time>
      </trkpt>
      <trkpt lat="46.6883" lon="5.63864">
        <ele>502</ele>
        <time>2025-10-10T10:37:40.289+00:00</time>
      </trkpt>
      <trkpt lat="46.6883" lon="5.63869">
        <ele>502</ele>
        <time>2025-10-10T10:37:44.352+00:00</time>
      </trkpt>
      <trkpt lat="46.68828" lon="5.63871">
        <ele>502</ele>
        <time>2025-10-10T10:37:47.933+00:00</time>
      </trkpt>
      <trkpt lat="46.68827" lon="5.6388">
        <ele>494</ele>
        <time>2025-10-10T10:37:57.428+00:00</time>
      </trkpt>
      <trkpt lat="46.68825" lon="5.63885">
        <ele>494</ele>
        <time>2025-10-10T10:38:01.518+00:00</time>
      </trkpt>
      <trkpt lat="46.68825" lon="5.63891">
        <ele>494</ele>
        <time>2025-10-10T10:38:06.232+00:00</time>
      </trkpt>
      <trkpt lat="46.68821" lon="5.63896">
        <ele>494</ele>
        <time>2025-10-10T10:38:10.515+00:00</time>
      </trkpt>
      <trkpt lat="46.68822" lon="5.63902">
        <ele>494</ele>
        <time>2025-10-10T10:38:15.056+00:00</time>
      </trkpt>
      <trkpt lat="46.68826" lon="5.63908">
        <ele>488</ele>
        <time>2025-10-10T10:38:19.217+00:00</time>
      </trkpt>
      <trkpt lat="46.68831" lon="5.63914">
        <ele>488</ele>
        <time>2025-10-10T10:38:23.434+00:00</time>
      </trkpt>
      <trkpt lat="46.68833" lon="5.63921">
        <ele>488</ele>
        <time>2025-10-10T10:38:27.521+00:00</time>
      </trkpt>
      <trkpt lat="46.68834" lon="5.63924">
        <ele>488</ele>
        <time>2025-10-10T10:38:31.890+00:00</time>
      </trkpt>
      <trkpt lat="46.68837" lon="5.6393">
        <ele>488</ele>
        <time>2025-10-10T10:38:36.515+00:00</time>
      </trkpt>
      <trkpt lat="46.68838" lon="5.63935">
        <ele>492</ele>
        <time>2025-10-10T10:38:40.988+00:00</time>
      </trkpt>
      <trkpt lat="46.68838" lon="5.63938">
        <ele>492</ele>
        <time>2025-10-10T10:38:45.246+00:00</time>
      </trkpt>
      <trkpt lat="46.68839" lon="5.63941">
        <ele>492</ele>
        <time>2025-10-10T10:38:49.515+00:00</time>
      </trkpt>
      <trkpt lat="46.68841" lon="5.63947">
        <ele>492</ele>
        <time>2025-10-10T10:38:54.008+00:00</time>
      </trkpt>
      <trkpt lat="46.68843" lon="5.63953">
        <ele>492</ele>
        <time>2025-10-10T10:38:58.429+00:00</time>
      </trkpt>
      <trkpt lat="46.68845" lon="5.63958">
        <ele>492</ele>
        <time>2025-10-10T10:39:02.517+00:00</time>
      </trkpt>
      <trkpt lat="46.68847" lon="5.63964">
        <ele>489</ele>
        <time>2025-10-10T10:39:06.874+00:00</time>
      </trkpt>
      <trkpt lat="46.68849" lon="5.63969">
        <ele>489</ele>
        <time>2025-10-10T10:39:10.931+00:00</time>
      </trkpt>
      <trkpt lat="46.6885" lon="5.63974">
        <ele>489</ele>
        <time>2025-10-10T10:39:15.251+00:00</time>
      </trkpt>
      <trkpt lat="46.6885" lon="5.63977">
        <ele>489</ele>
        <time>2025-10-10T10:39:19.525+00:00</time>
      </trkpt>
      <trkpt lat="46.68851" lon="5.63982">
        <ele>489</ele>
        <time>2025-10-10T10:39:24.522+00:00</time>
      </trkpt>
      <trkpt lat="46.68852" lon="5.63987">
        <ele>491</ele>
        <time>2025-10-10T10:39:28.915+00:00</time>
      </trkpt>
      <trkpt lat="46.68852" lon="5.63994">
        <ele>491</ele>
        <time>2025-10-10T10:40:00.513+00:00</time>
      </trkpt>
      <trkpt lat="46.68857" lon="5.63998">
        <ele>491</ele>
        <time>2025-10-10T10:40:05.070+00:00</time>
      </trkpt>
      <trkpt lat="46.6886" lon="5.64002">
        <ele>491</ele>
        <time>2025-10-10T10:40:09.371+00:00</time>
      </trkpt>
      <trkpt lat="46.68862" lon="5.64007">
        <ele>491</ele>
        <time>2025-10-10T10:40:13.518+00:00</time>
      </trkpt>
      <trkpt lat="46.68861" lon="5.64013">
        <ele>491</ele>
        <time>2025-10-10T10:40:18.098+00:00</time>
      </trkpt>
      <trkpt lat="46.68861" lon="5.64019">
        <ele>498</ele>
        <time>2025-10-10T10:40:22.514+00:00</time>
      </trkpt>
      <trkpt lat="46.68863" lon="5.64023">
        <ele>498</ele>
        <time>2025-10-10T10:40:26.517+00:00</time>
      </trkpt>
      <trkpt lat="46.68864" lon="5.64028">
        <ele>498</ele>
        <time>2025-10-10T10:40:31.430+00:00</time>
      </trkpt>
      <trkpt lat="46.68866" lon="5.64031">
        <ele>498</ele>
        <time>2025-10-10T10:40:35.522+00:00</time>
      </trkpt>
      <trkpt lat="46.68867" lon="5.64035">
        <ele>498</ele>
        <time>2025-10-10T10:40:48.521+00:00</time>
      </trkpt>
      <trkpt lat="46.68862" lon="5.64037">
        <ele>498</ele>
        <time>2025-10-10T10:40:53.431+00:00</time>
      </trkpt>
      <trkpt lat="46.68858" lon="5.64036">
        <ele>498</ele>
        <time>2025-10-10T10:40:57.525+00:00</time>
      </trkpt>
      <trkpt lat="46.68857" lon="5.64038">
        <ele>498</ele>
        <time>2025-10-10T10:41:01.973+00:00</time>
      </trkpt>
      <trkpt lat="46.68856" lon="5.64041">
        <ele>498</ele>
        <time>2025-10-10T10:41:06.248+00:00</time>
      </trkpt>
      <trkpt lat="46.68855" lon="5.64042">
        <ele>504</ele>
        <time>2025-10-10T10:41:10.520+00:00</time>
      </trkpt>
      <trkpt lat="46.68857" lon="5.64046">
        <ele>504</ele>
        <time>2025-10-10T10:41:15.413+00:00</time>
      </trkpt>
      <trkpt lat="46.68863" lon="5.6405">
        <ele>504</ele>
        <time>2025-10-10T10:41:20.048+00:00</time>
      </trkpt>
      <trkpt lat="46.68863" lon="5.64051">
        <ele>504</ele>
        <time>2025-10-10T10:41:24.271+00:00</time>
      </trkpt>
      <trkpt lat="46.68864" lon="5.64054">
        <ele>504</ele>
        <time>2025-10-10T10:41:51.524+00:00</time>
      </trkpt>
      <trkpt lat="46.68864" lon="5.64057">
        <ele>504</ele>
        <time>2025-10-10T10:41:56.509+00:00</time>
      </trkpt>
      <trkpt lat="46.68867" lon="5.64061">
        <ele>504</ele>
        <time>2025-10-10T10:42:00.519+00:00</time>
      </trkpt>
      <trkpt lat="46.68868" lon="5.64063">
        <ele>504</ele>
        <time>2025-10-10T10:42:04.521+00:00</time>
      </trkpt>
      <trkpt lat="46.68866" lon="5.64067">
        <ele>504</ele>
        <time>2025-10-10T10:42:09.519+00:00</time>
      </trkpt>
      <trkpt lat="46.68866" lon="5.64068">
        <ele>504</ele>
        <time>2025-10-10T10:42:32.953+00:00</time>
      </trkpt>
      <trkpt lat="46.68865" lon="5.64066">
        <ele>504</ele>
        <time>2025-10-10T10:42:37.520+00:00</time>
      </trkpt>
      <trkpt lat="46.68863" lon="5.64064">
        <ele>504</ele>
        <time>2025-10-10T10:42:42.152+00:00</time>
      </trkpt>
      <trkpt lat="46.68862" lon="5.6406">
        <ele>504</ele>
        <time>2025-10-10T10:42:46.518+00:00</time>
      </trkpt>
      <trkpt lat="46.68861" lon="5.64057">
        <ele>504</ele>
        <time>2025-10-10T10:42:51.529+00:00</time>
      </trkpt>
      <trkpt lat="46.68862" lon="5.64054">
        <ele>504</ele>
        <time>2025-10-10T10:42:56.372+00:00</time>
      </trkpt>
      <trkpt lat="46.68862" lon="5.64052">
        <ele>504</ele>
        <time>2025-10-10T10:43:02.295+00:00</time>
      </trkpt>
      <trkpt lat="46.68864" lon="5.64049">
        <ele>504</ele>
        <time>2025-10-10T10:43:06.522+00:00</time>
      </trkpt>
      <trkpt lat="46.68866" lon="5.64046">
        <ele>504</ele>
        <time>2025-10-10T10:43:10.988+00:00</time>
      </trkpt>
      <trkpt lat="46.68865" lon="5.64038">
        <ele>498</ele>
        <time>2025-10-10T10:43:15.517+00:00</time>
      </trkpt>
      <trkpt lat="46.68865" lon="5.64033">
        <ele>498</ele>
        <time>2025-10-10T10:43:34.520+00:00</time>
      </trkpt>
      <trkpt lat="46.68862" lon="5.64034">
        <ele>498</ele>
        <time>2025-10-10T10:43:39.268+00:00</time>
      </trkpt>
      <trkpt lat="46.6886" lon="5.64034">
        <ele>498</ele>
        <time>2025-10-10T10:43:43.518+00:00</time>
      </trkpt>
      <trkpt lat="46.68857" lon="5.64038">
        <ele>498</ele>
        <time>2025-10-10T10:43:48.329+00:00</time>
      </trkpt>
      <trkpt lat="46.68856" lon="5.64039">
        <ele>498</ele>
        <time>2025-10-10T10:43:52.517+00:00</time>
      </trkpt>
      <trkpt lat="46.68854" lon="5.6404">
        <ele>498</ele>
        <time>2025-10-10T10:43:56.519+00:00</time>
      </trkpt>
      <trkpt lat="46.68852" lon="5.64042">
        <ele>504</ele>
        <time>2025-10-10T10:44:01.523+00:00</time>
      </trkpt>
      <trkpt lat="46.6885" lon="5.64045">
        <ele>504</ele>
        <time>2025-10-10T10:44:06.234+00:00</time>
      </trkpt>
      <trkpt lat="46.68848" lon="5.64048">
        <ele>504</ele>
        <time>2025-10-10T10:44:10.519+00:00</time>
      </trkpt>
      <trkpt lat="46.68847" lon="5.64051">
        <ele>504</ele>
        <time>2025-10-10T10:44:15.520+00:00</time>
      </trkpt>
      <trkpt lat="46.68844" lon="5.64053">
        <ele>504</ele>
        <time>2025-10-10T10:44:20.377+00:00</time>
      </trkpt>
      <trkpt lat="46.68843" lon="5.64048">
        <ele>504</ele>
        <time>2025-10-10T10:44:24.518+00:00</time>
      </trkpt>
      <trkpt lat="46.68842" lon="5.6404">
        <ele>502</ele>
        <time>2025-10-10T10:44:28.733+00:00</time>
      </trkpt>
      <trkpt lat="46.68842" lon="5.64034">
        <ele>502</ele>
        <time>2025-10-10T10:44:33.248+00:00</time>
      </trkpt>
      <trkpt lat="46.68845" lon="5.64029">
        <ele>502</ele>
        <time>2025-10-10T10:44:37.518+00:00</time>
      </trkpt>
      <trkpt lat="46.68846" lon="5.64024">
        <ele>502</ele>
        <time>2025-10-10T10:44:42.011+00:00</time>
      </trkpt>
      <trkpt lat="46.68847" lon="5.64019">
        <ele>502</ele>
        <time>2025-10-10T10:44:46.251+00:00</time>
      </trkpt>
      <trkpt lat="46.68847" lon="5.64013">
        <ele>498</ele>
        <time>2025-10-10T10:44:50.522+00:00</time>
      </trkpt>
      <trkpt lat="46.68846" lon="5.64001">
        <ele>498</ele>
        <time>2025-10-10T10:46:01.295+00:00</time>
      </trkpt>
      <trkpt lat="46.68841" lon="5.64004">
        <ele>498</ele>
        <time>2025-10-10T10:46:05.532+00:00</time>
      </trkpt>
      <trkpt lat="46.68839" lon="5.64004">
        <ele>498</ele>
        <time>2025-10-10T10:46:10.514+00:00</time>
      </trkpt>
      <trkpt lat="46.68836" lon="5.64002">
        <ele>498</ele>
        <time>2025-10-10T10:46:14.688+00:00</time>
      </trkpt>
      <trkpt lat="46.68835" lon="5.63994">
        <ele>498</ele>
        <time>2025-10-10T10:46:19.376+00:00</time>
      </trkpt>
      <trkpt lat="46.68831" lon="5.63987">
        <ele>498</ele>
        <time>2025-10-10T10:50:44.518+00:00</time>
      </trkpt>
      <trkpt lat="46.68832" lon="5.63993">
        <ele>498</ele>
        <time>2025-10-10T10:50:49.522+00:00</time>
      </trkpt>
      <trkpt lat="46.68835" lon="5.64001">
        <ele>498</ele>
        <time>2025-10-10T10:50:54.524+00:00</time>
      </trkpt>
      <trkpt lat="46.6884" lon="5.64008">
        <ele>498</ele>
        <time>2025-10-10T10:50:59.523+00:00</time>
      </trkpt>
      <trkpt lat="46.68846" lon="5.6401">
        <ele>498</ele>
        <time>2025-10-10T10:51:03.523+00:00</time>
      </trkpt>
      <trkpt lat="46.6885" lon="5.64009">
        <ele>491</ele>
        <time>2025-10-10T10:51:07.516+00:00</time>
      </trkpt>
      <trkpt lat="46.68848" lon="5.64008">
        <ele>491</ele>
        <time>2025-10-10T10:51:12.212+00:00</time>
      </trkpt>
      <trkpt lat="46.68842" lon="5.64007">
        <ele>498</ele>
        <time>2025-10-10T10:51:16.519+00:00</time>
      </trkpt>
      <trkpt lat="46.68837" lon="5.64004">
        <ele>498</ele>
        <time>2025-10-10T10:51:21.212+00:00</time>
      </trkpt>
      <trkpt lat="46.68835" lon="5.63997">
        <ele>498</ele>
        <time>2025-10-10T10:51:25.690+00:00</time>
      </trkpt>
      <trkpt lat="46.68833" lon="5.6399">
        <ele>498</ele>
        <time>2025-10-10T10:51:30.050+00:00</time>
      </trkpt>
      <trkpt lat="46.68831" lon="5.63984">
        <ele>495</ele>
        <time>2025-10-10T10:51:34.249+00:00</time>
      </trkpt>
      <trkpt lat="46.68829" lon="5.6398">
        <ele>495</ele>
        <time>2025-10-10T10:51:38.652+00:00</time>
      </trkpt>
      <trkpt lat="46.68821" lon="5.6398">
        <ele>495</ele>
        <time>2025-10-10T10:51:43.132+00:00</time>
      </trkpt>
      <trkpt lat="46.68816" lon="5.63981">
        <ele>500</ele>
        <time>2025-10-10T10:51:47.375+00:00</time>
      </trkpt>
      <trkpt lat="46.68807" lon="5.63979">
        <ele>500</ele>
        <time>2025-10-10T10:51:51.794+00:00</time>
      </trkpt>
      <trkpt lat="46.68801" lon="5.63979">
        <ele>500</ele>
        <time>2025-10-10T10:51:55.934+00:00</time>
      </trkpt>
      <trkpt lat="46.68794" lon="5.63978">
        <ele>500</ele>
        <time>2025-10-10T10:52:00.515+00:00</time>
      </trkpt>
      <trkpt lat="46.68792" lon="5.63966">
        <ele>500</ele>
        <time>2025-10-10T10:52:05.191+00:00</time>
      </trkpt>
      <trkpt lat="46.68793" lon="5.63956">
        <ele>500</ele>
        <time>2025-10-10T10:52:09.210+00:00</time>
      </trkpt>
      <trkpt lat="46.68795" lon="5.63947">
        <ele>500</ele>
        <time>2025-10-10T10:52:13.516+00:00</time>
      </trkpt>
      <trkpt lat="46.68797" lon="5.63939">
        <ele>500</ele>
        <time>2025-10-10T10:52:17.520+00:00</time>
      </trkpt>
      <trkpt lat="46.688" lon="5.6393">
        <ele>502</ele>
        <time>2025-10-10T10:52:22.527+00:00</time>
      </trkpt>
      <trkpt lat="46.68804" lon="5.63926">
        <ele>502</ele>
        <time>2025-10-10T10:52:27.251+00:00</time>
      </trkpt>
      <trkpt lat="46.68809" lon="5.63926">
        <ele>502</ele>
        <time>2025-10-10T10:52:31.909+00:00</time>
      </trkpt>
      <trkpt lat="46.68813" lon="5.63916">
        <ele>502</ele>
        <time>2025-10-10T11:34:43.510+00:00</time>
      </trkpt>
      <trkpt lat="46.68813" lon="5.63915">
        <ele>502</ele>
        <time>2025-10-10T11:34:47.508+00:00</time>
      </trkpt>
      <trkpt lat="46.68813" lon="5.63911">
        <ele>502</ele>
        <time>2025-10-10T11:34:51.516+00:00</time>
      </trkpt>
      <trkpt lat="46.68811" lon="5.63907">
        <ele>502</ele>
        <time>2025-10-10T11:34:56.335+00:00</time>
      </trkpt>
      <trkpt lat="46.68812" lon="5.63903">
        <ele>504</ele>
        <time>2025-10-10T11:35:00.509+00:00</time>
      </trkpt>
      <trkpt lat="46.68812" lon="5.63901">
        <ele>504</ele>
        <time>2025-10-10T11:35:05.297+00:00</time>
      </trkpt>
      <trkpt lat="46.68813" lon="5.639">
        <ele>504</ele>
        <time>2025-10-10T11:35:09.509+00:00</time>
      </trkpt>
      <trkpt lat="46.68812" lon="5.63893">
        <ele>504</ele>
        <time>2025-10-10T11:35:14.513+00:00</time>
      </trkpt>
      <trkpt lat="46.68812" lon="5.63888">
        <ele>504</ele>
        <time>2025-10-10T11:35:19.514+00:00</time>
      </trkpt>
      <trkpt lat="46.68812" lon="5.63881">
        <ele>504</ele>
        <time>2025-10-10T11:35:24.128+00:00</time>
      </trkpt>
      <trkpt lat="46.68811" lon="5.63878">
        <ele>504</ele>
        <time>2025-10-10T11:35:26.504+00:00</time>
      </trkpt>
      <trkpt lat="46.68812" lon="5.63871">
        <ele>506</ele>
        <time>2025-10-10T11:35:35.015+00:00</time>
      </trkpt>
      <trkpt lat="46.68812" lon="5.63866">
        <ele>506</ele>
        <time>2025-10-10T11:35:39.293+00:00</time>
      </trkpt>
      <trkpt lat="46.68813" lon="5.63862">
        <ele>506</ele>
        <time>2025-10-10T11:35:43.506+00:00</time>
      </trkpt>
      <trkpt lat="46.68814" lon="5.63853">
        <ele>506</ele>
        <time>2025-10-10T11:37:58.506+00:00</time>
      </trkpt>
      <trkpt lat="46.68815" lon="5.63853">
        <ele>506</ele>
        <time>2025-10-10T11:38:04.505+00:00</time>
      </trkpt>
      <trkpt lat="46.68813" lon="5.6385">
        <ele>506</ele>
        <time>2025-10-10T11:38:08.511+00:00</time>
      </trkpt>
      <trkpt lat="46.68813" lon="5.63845">
        <ele>504</ele>
        <time>2025-10-10T11:38:12.509+00:00</time>
      </trkpt>
      <trkpt lat="46.68815" lon="5.63842">
        <ele>504</ele>
        <time>2025-10-10T11:38:17.351+00:00</time>
      </trkpt>
      <trkpt lat="46.68815" lon="5.63842">
        <ele>504</ele>
        <time>2025-10-10T11:38:26.518+00:00</time>
      </trkpt>
      <trkpt lat="46.68814" lon="5.63839">
        <ele>504</ele>
        <time>2025-10-10T11:38:31.518+00:00</time>
      </trkpt>
      <trkpt lat="46.68813" lon="5.63839">
        <ele>504</ele>
        <time>2025-10-10T11:38:36.453+00:00</time>
      </trkpt>
      <trkpt lat="46.68811" lon="5.63836">
        <ele>504</ele>
        <time>2025-10-10T11:38:40.830+00:00</time>
      </trkpt>
      <trkpt lat="46.6881" lon="5.63829">
        <ele>504</ele>
        <time>2025-10-10T11:38:45.506+00:00</time>
      </trkpt>
      <trkpt lat="46.68811" lon="5.63824">
        <ele>504</ele>
        <time>2025-10-10T11:38:49.733+00:00</time>
      </trkpt>
      <trkpt lat="46.6881" lon="5.63819">
        <ele>505</ele>
        <time>2025-10-10T11:38:53.811+00:00</time>
      </trkpt>
      <trkpt lat="46.68809" lon="5.63813">
        <ele>505</ele>
        <time>2025-10-10T11:38:58.520+00:00</time>
      </trkpt>
      <trkpt lat="46.68808" lon="5.63808">
        <ele>505</ele>
        <time>2025-10-10T11:39:03.514+00:00</time>
      </trkpt>
      <trkpt lat="46.6881" lon="5.63802">
        <ele>505</ele>
        <time>2025-10-10T11:39:07.873+00:00</time>
      </trkpt>
      <trkpt lat="46.6881" lon="5.63795">
        <ele>505</ele>
        <time>2025-10-10T11:39:11.951+00:00</time>
      </trkpt>
      <trkpt lat="46.6881" lon="5.63788">
        <ele>507</ele>
        <time>2025-10-10T11:39:16.107+00:00</time>
      </trkpt>
      <trkpt lat="46.68811" lon="5.63781">
        <ele>507</ele>
        <time>2025-10-10T11:39:20.511+00:00</time>
      </trkpt>
      <trkpt lat="46.68812" lon="5.63773">
        <ele>507</ele>
        <time>2025-10-10T11:39:25.508+00:00</time>
      </trkpt>
      <trkpt lat="46.68814" lon="5.63767">
        <ele>507</ele>
        <time>2025-10-10T11:39:29.994+00:00</time>
      </trkpt>
      <trkpt lat="46.68816" lon="5.63762">
        <ele>507</ele>
        <time>2025-10-10T11:39:34.512+00:00</time>
      </trkpt>
      <trkpt lat="46.68818" lon="5.63757">
        <ele>507</ele>
        <time>2025-10-10T11:39:39.508+00:00</time>
      </trkpt>
      <trkpt lat="46.68821" lon="5.63754">
        <ele>506</ele>
        <time>2025-10-10T11:39:43.896+00:00</time>
      </trkpt>
      <trkpt lat="46.68826" lon="5.63748">
        <ele>506</ele>
        <time>2025-10-10T11:39:48.218+00:00</time>
      </trkpt>
      <trkpt lat="46.68831" lon="5.63744">
        <ele>506</ele>
        <time>2025-10-10T11:39:52.293+00:00</time>
      </trkpt>
      <trkpt lat="46.68835" lon="5.63741">
        <ele>506</ele>
        <time>2025-10-10T11:39:56.506+00:00</time>
      </trkpt>
      <trkpt lat="46.68839" lon="5.63738">
        <ele>506</ele>
        <time>2025-10-10T11:40:01.036+00:00</time>
      </trkpt>
      <trkpt lat="46.68842" lon="5.63735">
        <ele>505</ele>
        <time>2025-10-10T11:40:05.512+00:00</time>
      </trkpt>
      <trkpt lat="46.68845" lon="5.63732">
        <ele>505</ele>
        <time>2025-10-10T11:40:10.079+00:00</time>
      </trkpt>
      <trkpt lat="46.68849" lon="5.63729">
        <ele>504</ele>
        <time>2025-10-10T11:40:14.508+00:00</time>
      </trkpt>
      <trkpt lat="46.68853" lon="5.63727">
        <ele>504</ele>
        <time>2025-10-10T11:40:19.098+00:00</time>
      </trkpt>
      <trkpt lat="46.68857" lon="5.63725">
        <ele>504</ele>
        <time>2025-10-10T11:40:23.136+00:00</time>
      </trkpt>
      <trkpt lat="46.6886" lon="5.63722">
        <ele>504</ele>
        <time>2025-10-10T11:40:27.292+00:00</time>
      </trkpt>
      <trkpt lat="46.68863" lon="5.63719">
        <ele>504</ele>
        <time>2025-10-10T11:40:31.509+00:00</time>
      </trkpt>
      <trkpt lat="46.68866" lon="5.63716">
        <ele>504</ele>
        <time>2025-10-10T11:40:35.621+00:00</time>
      </trkpt>
      <trkpt lat="46.68869" lon="5.63711">
        <ele>504</ele>
        <time>2025-10-10T11:40:40.332+00:00</time>
      </trkpt>
      <trkpt lat="46.68871" lon="5.63705">
        <ele>505</ele>
        <time>2025-10-10T11:40:45.452+00:00</time>
      </trkpt>
      <trkpt lat="46.68872" lon="5.637">
        <ele>505</ele>
        <time>2025-10-10T11:40:49.507+00:00</time>
      </trkpt>
      <trkpt lat="46.68876" lon="5.6369">
        <ele>501</ele>
        <time>2025-10-10T11:40:58.295+00:00</time>
      </trkpt>
      <trkpt lat="46.68877" lon="5.63688">
        <ele>501</ele>
        <time>2025-10-10T11:41:02.511+00:00</time>
      </trkpt>
      <trkpt lat="46.68877" lon="5.63688">
        <ele>501</ele>
        <time>2025-10-10T11:41:06.518+00:00</time>
      </trkpt>
      <trkpt lat="46.68877" lon="5.63687">
        <ele>501</ele>
        <time>2025-10-10T11:41:12.507+00:00</time>
      </trkpt>
      <trkpt lat="46.68878" lon="5.63683">
        <ele>501</ele>
        <time>2025-10-10T11:41:16.515+00:00</time>
      </trkpt>
      <trkpt lat="46.6888" lon="5.63677">
        <ele>506</ele>
        <time>2025-10-10T11:41:20.757+00:00</time>
      </trkpt>
      <trkpt lat="46.68881" lon="5.6367">
        <ele>506</ele>
        <time>2025-10-10T11:41:25.297+00:00</time>
      </trkpt>
      <trkpt lat="46.68883" lon="5.63663">
        <ele>506</ele>
        <time>2025-10-10T11:41:29.495+00:00</time>
      </trkpt>
      <trkpt lat="46.68885" lon="5.63657">
        <ele>506</ele>
        <time>2025-10-10T11:41:33.788+00:00</time>
      </trkpt>
      <trkpt lat="46.68886" lon="5.6365">
        <ele>508</ele>
        <time>2025-10-10T11:41:38.245+00:00</time>
      </trkpt>
      <trkpt lat="46.68887" lon="5.63644">
        <ele>508</ele>
        <time>2025-10-10T11:41:42.507+00:00</time>
      </trkpt>
      <trkpt lat="46.68887" lon="5.63638">
        <ele>508</ele>
        <time>2025-10-10T11:41:47.512+00:00</time>
      </trkpt>
      <trkpt lat="46.68887" lon="5.63631">
        <ele>508</ele>
        <time>2025-10-10T11:41:51.795+00:00</time>
      </trkpt>
      <trkpt lat="46.68888" lon="5.63624">
        <ele>511</ele>
        <time>2025-10-10T11:41:55.917+00:00</time>
      </trkpt>
      <trkpt lat="46.6889" lon="5.63618">
        <ele>511</ele>
        <time>2025-10-10T11:42:00.037+00:00</time>
      </trkpt>
      <trkpt lat="46.68891" lon="5.63612">
        <ele>511</ele>
        <time>2025-10-10T11:42:04.509+00:00</time>
      </trkpt>
      <trkpt lat="46.68892" lon="5.63605">
        <ele>511</ele>
        <time>2025-10-10T11:42:08.942+00:00</time>
      </trkpt>
      <trkpt lat="46.68893" lon="5.63599">
        <ele>511</ele>
        <time>2025-10-10T11:42:13.255+00:00</time>
      </trkpt>
      <trkpt lat="46.68894" lon="5.63593">
        <ele>514</ele>
        <time>2025-10-10T11:42:17.413+00:00</time>
      </trkpt>
      <trkpt lat="46.68895" lon="5.63586">
        <ele>514</ele>
        <time>2025-10-10T11:42:21.978+00:00</time>
      </trkpt>
      <trkpt lat="46.68895" lon="5.63579">
        <ele>514</ele>
        <time>2025-10-10T11:42:26.475+00:00</time>
      </trkpt>
      <trkpt lat="46.68894" lon="5.63578">
        <ele>514</ele>
        <time>2025-10-10T11:44:05.515+00:00</time>
      </trkpt>
      <trkpt lat="46.68893" lon="5.63571">
        <ele>514</ele>
        <time>2025-10-10T11:44:10.290+00:00</time>
      </trkpt>
      <trkpt lat="46.68893" lon="5.63568">
        <ele>516</ele>
        <time>2025-10-10T11:44:14.509+00:00</time>
      </trkpt>
      <trkpt lat="46.68893" lon="5.63566">
        <ele>516</ele>
        <time>2025-10-10T11:44:19.511+00:00</time>
      </trkpt>
      <trkpt lat="46.68894" lon="5.63562">
        <ele>516</ele>
        <time>2025-10-10T11:44:23.507+00:00</time>
      </trkpt>
      <trkpt lat="46.68896" lon="5.63552">
        <ele>516</ele>
        <time>2025-10-10T11:44:47.510+00:00</time>
      </trkpt>
      <trkpt lat="46.68896" lon="5.63549">
        <ele>516</ele>
        <time>2025-10-10T11:44:52.508+00:00</time>
      </trkpt>
      <trkpt lat="46.68898" lon="5.63544">
        <ele>516</ele>
        <time>2025-10-10T11:44:56.653+00:00</time>
      </trkpt>
      <trkpt lat="46.68903" lon="5.6354">
        <ele>520</ele>
        <time>2025-10-10T11:45:00.934+00:00</time>
      </trkpt>
      <trkpt lat="46.68904" lon="5.63533">
        <ele>518</ele>
        <time>2025-10-10T11:45:05.278+00:00</time>
      </trkpt>
      <trkpt lat="46.68902" lon="5.63526">
        <ele>520</ele>
        <time>2025-10-10T11:45:10.416+00:00</time>
      </trkpt>
      <trkpt lat="46.689" lon="5.6352">
        <ele>520</ele>
        <time>2025-10-10T11:45:14.508+00:00</time>
      </trkpt>
      <trkpt lat="46.689" lon="5.63513">
        <ele>523</ele>
        <time>2025-10-10T11:45:18.510+00:00</time>
      </trkpt>
      <trkpt lat="46.689" lon="5.63506">
        <ele>523</ele>
        <time>2025-10-10T11:45:22.634+00:00</time>
      </trkpt>
      <trkpt lat="46.68899" lon="5.63498">
        <ele>523</ele>
        <time>2025-10-10T11:45:26.738+00:00</time>
      </trkpt>
      <trkpt lat="46.68899" lon="5.63491">
        <ele>523</ele>
        <time>2025-10-10T11:45:31.296+00:00</time>
      </trkpt>
      <trkpt lat="46.68896" lon="5.63485">
        <ele>521</ele>
        <time>2025-10-10T11:45:35.374+00:00</time>
      </trkpt>
      <trkpt lat="46.68891" lon="5.63481">
        <ele>521</ele>
        <time>2025-10-10T11:45:40.240+00:00</time>
      </trkpt>
      <trkpt lat="46.68885" lon="5.63479">
        <ele>521</ele>
        <time>2025-10-10T11:45:44.359+00:00</time>
      </trkpt>
      <trkpt lat="46.6888" lon="5.63476">
        <ele>521</ele>
        <time>2025-10-10T11:45:48.617+00:00</time>
      </trkpt>
      <trkpt lat="46.68876" lon="5.63472">
        <ele>521</ele>
        <time>2025-10-10T11:45:53.013+00:00</time>
      </trkpt>
      <trkpt lat="46.68872" lon="5.63468">
        <ele>522</ele>
        <time>2025-10-10T11:45:57.193+00:00</time>
      </trkpt>
      <trkpt lat="46.68868" lon="5.63467">
        <ele>522</ele>
        <time>2025-10-10T11:46:01.331+00:00</time>
      </trkpt>
      <trkpt lat="46.68862" lon="5.63467">
        <ele>522</ele>
        <time>2025-10-10T11:46:05.915+00:00</time>
      </trkpt>
      <trkpt lat="46.68856" lon="5.63468">
        <ele>522</ele>
        <time>2025-10-10T11:46:09.977+00:00</time>
      </trkpt>
      <trkpt lat="46.68851" lon="5.63468">
        <ele>522</ele>
        <time>2025-10-10T11:46:14.505+00:00</time>
      </trkpt>
      <trkpt lat="46.68845" lon="5.63469">
        <ele>521</ele>
        <time>2025-10-10T11:46:19.013+00:00</time>
      </trkpt>
      <trkpt lat="46.6884" lon="5.6347">
        <ele>521</ele>
        <time>2025-10-10T11:46:23.507+00:00</time>
      </trkpt>
      <trkpt lat="46.68834" lon="5.6347">
        <ele>521</ele>
        <time>2025-10-10T11:46:28.039+00:00</time>
      </trkpt>
      <trkpt lat="46.68829" lon="5.63475">
        <ele>521</ele>
        <time>2025-10-10T11:46:32.024+00:00</time>
      </trkpt>
      <trkpt lat="46.68823" lon="5.63475">
        <ele>521</ele>
        <time>2025-10-10T11:46:36.244+00:00</time>
      </trkpt>
      <trkpt lat="46.68818" lon="5.63472">
        <ele>523</ele>
        <time>2025-10-10T11:46:40.694+00:00</time>
      </trkpt>
      <trkpt lat="46.68813" lon="5.6347">
        <ele>523</ele>
        <time>2025-10-10T11:46:45.158+00:00</time>
      </trkpt>
      <trkpt lat="46.68808" lon="5.63468">
        <ele>523</ele>
        <time>2025-10-10T11:46:49.506+00:00</time>
      </trkpt>
      <trkpt lat="46.68803" lon="5.63468">
        <ele>523</ele>
        <time>2025-10-10T11:46:53.673+00:00</time>
      </trkpt>
      <trkpt lat="46.68798" lon="5.63471">
        <ele>523</ele>
        <time>2025-10-10T11:46:58.060+00:00</time>
      </trkpt>
      <trkpt lat="46.68796" lon="5.63463">
        <ele>523</ele>
        <time>2025-10-10T11:47:02.502+00:00</time>
      </trkpt>
      <trkpt lat="46.68792" lon="5.6346">
        <ele>523</ele>
        <time>2025-10-10T11:47:06.517+00:00</time>
      </trkpt>
      <trkpt lat="46.68789" lon="5.63455">
        <ele>522</ele>
        <time>2025-10-10T11:47:11.036+00:00</time>
      </trkpt>
      <trkpt lat="46.68785" lon="5.63451">
        <ele>522</ele>
        <time>2025-10-10T11:47:15.456+00:00</time>
      </trkpt>
      <trkpt lat="46.68782" lon="5.63445">
        <ele>522</ele>
        <time>2025-10-10T11:47:19.893+00:00</time>
      </trkpt>
      <trkpt lat="46.68777" lon="5.6344">
        <ele>522</ele>
        <time>2025-10-10T11:47:24.416+00:00</time>
      </trkpt>
      <trkpt lat="46.68773" lon="5.63436">
        <ele>522</ele>
        <time>2025-10-10T11:47:28.639+00:00</time>
      </trkpt>
      <trkpt lat="46.68769" lon="5.63433">
        <ele>522</ele>
        <time>2025-10-10T11:47:33.119+00:00</time>
      </trkpt>
      <trkpt lat="46.68764" lon="5.63431">
        <ele>522</ele>
        <time>2025-10-10T11:47:37.276+00:00</time>
      </trkpt>
      <trkpt lat="46.6876" lon="5.63426">
        <ele>522</ele>
        <time>2025-10-10T11:47:41.797+00:00</time>
      </trkpt>
      <trkpt lat="46.6876" lon="5.63419">
        <ele>522</ele>
        <time>2025-10-10T11:47:45.953+00:00</time>
      </trkpt>
      <trkpt lat="46.68762" lon="5.63413">
        <ele>522</ele>
        <time>2025-10-10T11:47:50.355+00:00</time>
      </trkpt>
      <trkpt lat="46.68763" lon="5.63408">
        <ele>522</ele>
        <time>2025-10-10T11:47:54.512+00:00</time>
      </trkpt>
      <trkpt lat="46.68761" lon="5.63402">
        <ele>522</ele>
        <time>2025-10-10T11:47:58.760+00:00</time>
      </trkpt>
      <trkpt lat="46.68759" lon="5.63398">
        <ele>522</ele>
        <time>2025-10-10T11:48:03.507+00:00</time>
      </trkpt>
      <trkpt lat="46.6876" lon="5.63391">
        <ele>522</ele>
        <time>2025-10-10T11:48:08.119+00:00</time>
      </trkpt>
      <trkpt lat="46.68761" lon="5.63388">
        <ele>522</ele>
        <time>2025-10-10T11:48:12.506+00:00</time>
      </trkpt>
      <trkpt lat="46.68761" lon="5.63385">
        <ele>522</ele>
        <time>2025-10-10T11:48:17.514+00:00</time>
      </trkpt>
      <trkpt lat="46.68757" lon="5.6338">
        <ele>522</ele>
        <time>2025-10-10T11:48:22.114+00:00</time>
      </trkpt>
      <trkpt lat="46.68754" lon="5.63376">
        <ele>522</ele>
        <time>2025-10-10T11:48:26.321+00:00</time>
      </trkpt>
      <trkpt lat="46.68753" lon="5.63371">
        <ele>519</ele>
        <time>2025-10-10T11:48:30.506+00:00</time>
      </trkpt>
      <trkpt lat="46.68751" lon="5.63368">
        <ele>519</ele>
        <time>2025-10-10T11:48:35.508+00:00</time>
      </trkpt>
      <trkpt lat="46.68749" lon="5.63365">
        <ele>519</ele>
        <time>2025-10-10T11:48:40.158+00:00</time>
      </trkpt>
      <trkpt lat="46.68747" lon="5.63359">
        <ele>519</ele>
        <time>2025-10-10T11:48:44.180+00:00</time>
      </trkpt>
      <trkpt lat="46.68745" lon="5.63354">
        <ele>519</ele>
        <time>2025-10-10T11:48:48.508+00:00</time>
      </trkpt>
      <trkpt lat="46.68742" lon="5.63349">
        <ele>519</ele>
        <time>2025-10-10T11:48:52.933+00:00</time>
      </trkpt>
      <trkpt lat="46.6874" lon="5.63344">
        <ele>521</ele>
        <time>2025-10-10T11:48:57.507+00:00</time>
      </trkpt>
      <trkpt lat="46.68741" lon="5.63339">
        <ele>521</ele>
        <time>2025-10-10T11:49:02.113+00:00</time>
      </trkpt>
      <trkpt lat="46.68744" lon="5.63333">
        <ele>521</ele>
        <time>2025-10-10T11:49:06.319+00:00</time>
      </trkpt>
      <trkpt lat="46.68745" lon="5.63328">
        <ele>521</ele>
        <time>2025-10-10T11:49:10.738+00:00</time>
      </trkpt>
      <trkpt lat="46.68744" lon="5.63322">
        <ele>521</ele>
        <time>2025-10-10T11:49:15.314+00:00</time>
      </trkpt>
      <trkpt lat="46.68745" lon="5.63318">
        <ele>524</ele>
        <time>2025-10-10T11:49:19.514+00:00</time>
      </trkpt>
      <trkpt lat="46.68746" lon="5.63312">
        <ele>524</ele>
        <time>2025-10-10T11:49:24.494+00:00</time>
      </trkpt>
      <trkpt lat="46.68748" lon="5.63308">
        <ele>524</ele>
        <time>2025-10-10T11:49:29.134+00:00</time>
      </trkpt>
      <trkpt lat="46.68752" lon="5.63306">
        <ele>524</ele>
        <time>2025-10-10T11:49:33.509+00:00</time>
      </trkpt>
      <trkpt lat="46.68753" lon="5.633">
        <ele>524</ele>
        <time>2025-10-10T11:49:38.238+00:00</time>
      </trkpt>
      <trkpt lat="46.68752" lon="5.63295">
        <ele>524</ele>
        <time>2025-10-10T11:49:42.368+00:00</time>
      </trkpt>
      <trkpt lat="46.68752" lon="5.6329">
        <ele>525</ele>
        <time>2025-10-10T11:49:46.506+00:00</time>
      </trkpt>
      <trkpt lat="46.68753" lon="5.63285">
        <ele>525</ele>
        <time>2025-10-10T11:49:51.518+00:00</time>
      </trkpt>
      <trkpt lat="46.68755" lon="5.63283">
        <ele>525</ele>
        <time>2025-10-10T11:49:56.510+00:00</time>
      </trkpt>
      <trkpt lat="46.68758" lon="5.6328">
        <ele>525</ele>
        <time>2025-10-10T11:50:00.994+00:00</time>
      </trkpt>
      <trkpt lat="46.68759" lon="5.63274">
        <ele>525</ele>
        <time>2025-10-10T11:50:05.508+00:00</time>
      </trkpt>
      <trkpt lat="46.6876" lon="5.63268">
        <ele>525</ele>
        <time>2025-10-10T11:50:09.696+00:00</time>
      </trkpt>
      <trkpt lat="46.68761" lon="5.63263">
        <ele>525</ele>
        <time>2025-10-10T11:50:13.854+00:00</time>
      </trkpt>
      <trkpt lat="46.68763" lon="5.63258">
        <ele>525</ele>
        <time>2025-10-10T11:50:18.356+00:00</time>
      </trkpt>
      <trkpt lat="46.68763" lon="5.63252">
        <ele>525</ele>
        <time>2025-10-10T11:50:23.339+00:00</time>
      </trkpt>
      <trkpt lat="46.68764" lon="5.63248">
        <ele>524</ele>
        <time>2025-10-10T11:50:27.507+00:00</time>
      </trkpt>
      <trkpt lat="46.68765" lon="5.63245">
        <ele>524</ele>
        <time>2025-10-10T11:50:32.275+00:00</time>
      </trkpt>
      <trkpt lat="46.68769" lon="5.63243">
        <ele>524</ele>
        <time>2025-10-10T11:50:36.634+00:00</time>
      </trkpt>
      <trkpt lat="46.68772" lon="5.63239">
        <ele>524</ele>
        <time>2025-10-10T11:50:40.977+00:00</time>
      </trkpt>
      <trkpt lat="46.68774" lon="5.63233">
        <ele>525</ele>
        <time>2025-10-10T11:50:45.509+00:00</time>
      </trkpt>
      <trkpt lat="46.68778" lon="5.63233">
        <ele>525</ele>
        <time>2025-10-10T11:50:50.156+00:00</time>
      </trkpt>
      <trkpt lat="46.68782" lon="5.63237">
        <ele>524</ele>
        <time>2025-10-10T11:50:54.498+00:00</time>
      </trkpt>
      <trkpt lat="46.68786" lon="5.63241">
        <ele>524</ele>
        <time>2025-10-10T11:50:58.935+00:00</time>
      </trkpt>
      <trkpt lat="46.68789" lon="5.63244">
        <ele>524</ele>
        <time>2025-10-10T11:51:02.996+00:00</time>
      </trkpt>
      <trkpt lat="46.68793" lon="5.63245">
        <ele>524</ele>
        <time>2025-10-10T11:51:07.274+00:00</time>
      </trkpt>
      <trkpt lat="46.68798" lon="5.63246">
        <ele>524</ele>
        <time>2025-10-10T11:51:11.699+00:00</time>
      </trkpt>
      <trkpt lat="46.68802" lon="5.63244">
        <ele>524</ele>
        <time>2025-10-10T11:51:16.298+00:00</time>
      </trkpt>
      <trkpt lat="46.68806" lon="5.6324">
        <ele>524</ele>
        <time>2025-10-10T11:51:21.196+00:00</time>
      </trkpt>
      <trkpt lat="46.6881" lon="5.63236">
        <ele>526</ele>
        <time>2025-10-10T11:51:25.394+00:00</time>
      </trkpt>
      <trkpt lat="46.68814" lon="5.63233">
        <ele>526</ele>
        <time>2025-10-10T11:51:29.508+00:00</time>
      </trkpt>
      <trkpt lat="46.68818" lon="5.6323">
        <ele>526</ele>
        <time>2025-10-10T11:51:34.053+00:00</time>
      </trkpt>
      <trkpt lat="46.68821" lon="5.63228">
        <ele>528</ele>
        <time>2025-10-10T11:51:38.504+00:00</time>
      </trkpt>
      <trkpt lat="46.68824" lon="5.63226">
        <ele>528</ele>
        <time>2025-10-10T11:51:42.995+00:00</time>
      </trkpt>
      <trkpt lat="46.68826" lon="5.63223">
        <ele>528</ele>
        <time>2025-10-10T11:51:47.253+00:00</time>
      </trkpt>
      <trkpt lat="46.68828" lon="5.6322">
        <ele>528</ele>
        <time>2025-10-10T11:51:51.400+00:00</time>
      </trkpt>
      <trkpt lat="46.6883" lon="5.63217">
        <ele>528</ele>
        <time>2025-10-10T11:51:55.512+00:00</time>
      </trkpt>
      <trkpt lat="46.68833" lon="5.63213">
        <ele>528</ele>
        <time>2025-10-10T11:52:00.477+00:00</time>
      </trkpt>
      <trkpt lat="46.68835" lon="5.6321">
        <ele>528</ele>
        <time>2025-10-10T11:52:04.751+00:00</time>
      </trkpt>
      <trkpt lat="46.68838" lon="5.63208">
        <ele>528</ele>
        <time>2025-10-10T11:52:09.273+00:00</time>
      </trkpt>
      <trkpt lat="46.6884" lon="5.63205">
        <ele>529</ele>
        <time>2025-10-10T11:52:13.777+00:00</time>
      </trkpt>
      <trkpt lat="46.68843" lon="5.63201">
        <ele>529</ele>
        <time>2025-10-10T11:52:18.054+00:00</time>
      </trkpt>
      <trkpt lat="46.68846" lon="5.632">
        <ele>529</ele>
        <time>2025-10-10T11:52:22.258+00:00</time>
      </trkpt>
      <trkpt lat="46.68849" lon="5.632">
        <ele>530</ele>
        <time>2025-10-10T11:52:26.278+00:00</time>
      </trkpt>
      <trkpt lat="46.68852" lon="5.63198">
        <ele>530</ele>
        <time>2025-10-10T11:52:30.507+00:00</time>
      </trkpt>
      <trkpt lat="46.68855" lon="5.63194">
        <ele>530</ele>
        <time>2025-10-10T11:52:34.937+00:00</time>
      </trkpt>
      <trkpt lat="46.68857" lon="5.63189">
        <ele>530</ele>
        <time>2025-10-10T11:52:38.998+00:00</time>
      </trkpt>
      <trkpt lat="46.68858" lon="5.63183">
        <ele>530</ele>
        <time>2025-10-10T11:52:43.510+00:00</time>
      </trkpt>
      <trkpt lat="46.68857" lon="5.63177">
        <ele>530</ele>
        <time>2025-10-10T11:52:48.196+00:00</time>
      </trkpt>
      <trkpt lat="46.68856" lon="5.63172">
        <ele>530</ele>
        <time>2025-10-10T11:52:52.502+00:00</time>
      </trkpt>
      <trkpt lat="46.68857" lon="5.63166">
        <ele>530</ele>
        <time>2025-10-10T11:52:57.196+00:00</time>
      </trkpt>
      <trkpt lat="46.68859" lon="5.63161">
        <ele>530</ele>
        <time>2025-10-10T11:53:01.508+00:00</time>
      </trkpt>
      <trkpt lat="46.68859" lon="5.63156">
        <ele>530</ele>
        <time>2025-10-10T11:53:06.377+00:00</time>
      </trkpt>
      <trkpt lat="46.68856" lon="5.63153">
        <ele>529</ele>
        <time>2025-10-10T11:53:11.197+00:00</time>
      </trkpt>
      <trkpt lat="46.68853" lon="5.63152">
        <ele>529</ele>
        <time>2025-10-10T11:53:15.509+00:00</time>
      </trkpt>
      <trkpt lat="46.68852" lon="5.63152">
        <ele>529</ele>
        <time>2025-10-10T11:53:19.518+00:00</time>
      </trkpt>
      <trkpt lat="46.68849" lon="5.63149">
        <ele>529</ele>
        <time>2025-10-10T11:53:23.716+00:00</time>
      </trkpt>
      <trkpt lat="46.68844" lon="5.63147">
        <ele>529</ele>
        <time>2025-10-10T11:53:28.193+00:00</time>
      </trkpt>
      <trkpt lat="46.6884" lon="5.63144">
        <ele>529</ele>
        <time>2025-10-10T11:53:32.399+00:00</time>
      </trkpt>
      <trkpt lat="46.68835" lon="5.6314">
        <ele>529</ele>
        <time>2025-10-10T11:53:37.373+00:00</time>
      </trkpt>
      <trkpt lat="46.68831" lon="5.63138">
        <ele>529</ele>
        <time>2025-10-10T11:53:41.819+00:00</time>
      </trkpt>
      <trkpt lat="46.68827" lon="5.63137">
        <ele>529</ele>
        <time>2025-10-10T11:53:46.118+00:00</time>
      </trkpt>
      <trkpt lat="46.68823" lon="5.63135">
        <ele>529</ele>
        <time>2025-10-10T11:53:50.478+00:00</time>
      </trkpt>
      <trkpt lat="46.68819" lon="5.63135">
        <ele>529</ele>
        <time>2025-10-10T11:53:54.496+00:00</time>
      </trkpt>
      <trkpt lat="46.68814" lon="5.63133">
        <ele>529</ele>
        <time>2025-10-10T11:53:58.694+00:00</time>
      </trkpt>
      <trkpt lat="46.68809" lon="5.63132">
        <ele>529</ele>
        <time>2025-10-10T11:54:03.114+00:00</time>
      </trkpt>
      <trkpt lat="46.68805" lon="5.6313">
        <ele>529</ele>
        <time>2025-10-10T11:54:07.439+00:00</time>
      </trkpt>
      <trkpt lat="46.68801" lon="5.63128">
        <ele>529</ele>
        <time>2025-10-10T11:54:11.773+00:00</time>
      </trkpt>
      <trkpt lat="46.68796" lon="5.63127">
        <ele>529</ele>
        <time>2025-10-10T11:54:16.073+00:00</time>
      </trkpt>
      <trkpt lat="46.68792" lon="5.63126">
        <ele>529</ele>
        <time>2025-10-10T11:54:20.314+00:00</time>
      </trkpt>
      <trkpt lat="46.68787" lon="5.63124">
        <ele>532</ele>
        <time>2025-10-10T11:54:24.508+00:00</time>
      </trkpt>
      <trkpt lat="46.68783" lon="5.63123">
        <ele>532</ele>
        <time>2025-10-10T11:54:28.966+00:00</time>
      </trkpt>
      <trkpt lat="46.68779" lon="5.63123">
        <ele>532</ele>
        <time>2025-10-10T11:54:33.505+00:00</time>
      </trkpt>
      <trkpt lat="46.68774" lon="5.63121">
        <ele>532</ele>
        <time>2025-10-10T11:54:37.846+00:00</time>
      </trkpt>
      <trkpt lat="46.68769" lon="5.63121">
        <ele>532</ele>
        <time>2025-10-10T11:54:42.087+00:00</time>
      </trkpt>
      <trkpt lat="46.68764" lon="5.63121">
        <ele>532</ele>
        <time>2025-10-10T11:54:46.508+00:00</time>
      </trkpt>
      <trkpt lat="46.68759" lon="5.63121">
        <ele>533</ele>
        <time>2025-10-10T11:54:50.986+00:00</time>
      </trkpt>
      <trkpt lat="46.68755" lon="5.6312">
        <ele>533</ele>
        <time>2025-10-10T11:54:55.328+00:00</time>
      </trkpt>
      <trkpt lat="46.6875" lon="5.6312">
        <ele>533</ele>
        <time>2025-10-10T11:54:59.748+00:00</time>
      </trkpt>
      <trkpt lat="46.68746" lon="5.6312">
        <ele>533</ele>
        <time>2025-10-10T11:55:04.406+00:00</time>
      </trkpt>
      <trkpt lat="46.68742" lon="5.6312">
        <ele>533</ele>
        <time>2025-10-10T11:55:08.487+00:00</time>
      </trkpt>
      <trkpt lat="46.68738" lon="5.63119">
        <ele>533</ele>
        <time>2025-10-10T11:55:12.504+00:00</time>
      </trkpt>
      <trkpt lat="46.68735" lon="5.63119">
        <ele>533</ele>
        <time>2025-10-10T11:55:16.510+00:00</time>
      </trkpt>
      <trkpt lat="46.6873" lon="5.63118">
        <ele>533</ele>
        <time>2025-10-10T11:55:21.044+00:00</time>
      </trkpt>
      <trkpt lat="46.68727" lon="5.63115">
        <ele>533</ele>
        <time>2025-10-10T11:55:25.387+00:00</time>
      </trkpt>
      <trkpt lat="46.68722" lon="5.63114">
        <ele>533</ele>
        <time>2025-10-10T11:55:29.483+00:00</time>
      </trkpt>
      <trkpt lat="46.68718" lon="5.63113">
        <ele>533</ele>
        <time>2025-10-10T11:55:33.987+00:00</time>
      </trkpt>
      <trkpt lat="46.68715" lon="5.63109">
        <ele>533</ele>
        <time>2025-10-10T11:55:38.507+00:00</time>
      </trkpt>
      <trkpt lat="46.6871" lon="5.63106">
        <ele>533</ele>
        <time>2025-10-10T11:55:43.125+00:00</time>
      </trkpt>
      <trkpt lat="46.68706" lon="5.63103">
        <ele>534</ele>
        <time>2025-10-10T11:55:47.511+00:00</time>
      </trkpt>
      <trkpt lat="46.68702" lon="5.631">
        <ele>534</ele>
        <time>2025-10-10T11:55:51.909+00:00</time>
      </trkpt>
      <trkpt lat="46.68699" lon="5.63098">
        <ele>534</ele>
        <time>2025-10-10T11:55:56.341+00:00</time>
      </trkpt>
      <trkpt lat="46.68694" lon="5.63095">
        <ele>534</ele>
        <time>2025-10-10T11:56:00.863+00:00</time>
      </trkpt>
      <trkpt lat="46.68691" lon="5.63092">
        <ele>534</ele>
        <time>2025-10-10T11:56:05.211+00:00</time>
      </trkpt>
      <trkpt lat="46.68686" lon="5.63088">
        <ele>534</ele>
        <time>2025-10-10T11:56:09.468+00:00</time>
      </trkpt>
      <trkpt lat="46.68682" lon="5.63084">
        <ele>534</ele>
        <time>2025-10-10T11:56:13.828+00:00</time>
      </trkpt>
      <trkpt lat="46.68679" lon="5.63081">
        <ele>535</ele>
        <time>2025-10-10T11:56:18.184+00:00</time>
      </trkpt>
      <trkpt lat="46.68675" lon="5.63077">
        <ele>535</ele>
        <time>2025-10-10T11:56:22.723+00:00</time>
      </trkpt>
      <trkpt lat="46.68671" lon="5.63073">
        <ele>535</ele>
        <time>2025-10-10T11:56:27.130+00:00</time>
      </trkpt>
      <trkpt lat="46.68667" lon="5.63069">
        <ele>537</ele>
        <time>2025-10-10T11:56:31.310+00:00</time>
      </trkpt>
      <trkpt lat="46.68664" lon="5.63064">
        <ele>537</ele>
        <time>2025-10-10T11:56:35.688+00:00</time>
      </trkpt>
      <trkpt lat="46.6866" lon="5.6306">
        <ele>537</ele>
        <time>2025-10-10T11:56:40.508+00:00</time>
      </trkpt>
      <trkpt lat="46.68656" lon="5.63054">
        <ele>537</ele>
        <time>2025-10-10T11:56:45.044+00:00</time>
      </trkpt>
      <trkpt lat="46.68653" lon="5.6305">
        <ele>537</ele>
        <time>2025-10-10T11:56:49.284+00:00</time>
      </trkpt>
      <trkpt lat="46.68649" lon="5.63045">
        <ele>537</ele>
        <time>2025-10-10T11:56:53.507+00:00</time>
      </trkpt>
      <trkpt lat="46.68646" lon="5.6304">
        <ele>539</ele>
        <time>2025-10-10T11:56:57.871+00:00</time>
      </trkpt>
      <trkpt lat="46.68644" lon="5.63035">
        <ele>539</ele>
        <time>2025-10-10T11:57:02.143+00:00</time>
      </trkpt>
      <trkpt lat="46.68641" lon="5.63029">
        <ele>539</ele>
        <time>2025-10-10T11:57:06.468+00:00</time>
      </trkpt>
      <trkpt lat="46.68638" lon="5.63023">
        <ele>539</ele>
        <time>2025-10-10T11:57:10.768+00:00</time>
      </trkpt>
      <trkpt lat="46.68636" lon="5.63016">
        <ele>539</ele>
        <time>2025-10-10T11:57:14.949+00:00</time>
      </trkpt>
      <trkpt lat="46.68634" lon="5.63011">
        <ele>541</ele>
        <time>2025-10-10T11:57:19.266+00:00</time>
      </trkpt>
      <trkpt lat="46.68631" lon="5.63005">
        <ele>541</ele>
        <time>2025-10-10T11:57:23.505+00:00</time>
      </trkpt>
      <trkpt lat="46.68631" lon="5.62999">
        <ele>541</ele>
        <time>2025-10-10T11:57:27.884+00:00</time>
      </trkpt>
      <trkpt lat="46.68629" lon="5.62992">
        <ele>541</ele>
        <time>2025-10-10T11:57:32.026+00:00</time>
      </trkpt>
      <trkpt lat="46.68628" lon="5.62986">
        <ele>541</ele>
        <time>2025-10-10T11:57:36.369+00:00</time>
      </trkpt>
      <trkpt lat="46.68626" lon="5.6298">
        <ele>543</ele>
        <time>2025-10-10T11:57:40.508+00:00</time>
      </trkpt>
      <trkpt lat="46.68623" lon="5.62974">
        <ele>538</ele>
        <time>2025-10-10T11:57:44.670+00:00</time>
      </trkpt>
      <trkpt lat="46.6862" lon="5.62969">
        <ele>538</ele>
        <time>2025-10-10T11:57:48.689+00:00</time>
      </trkpt>
      <trkpt lat="46.68618" lon="5.62963">
        <ele>538</ele>
        <time>2025-10-10T11:57:52.751+00:00</time>
      </trkpt>
      <trkpt lat="46.68616" lon="5.62956">
        <ele>540</ele>
        <time>2025-10-10T11:57:56.830+00:00</time>
      </trkpt>
      <trkpt lat="46.68614" lon="5.6295">
        <ele>540</ele>
        <time>2025-10-10T11:58:00.874+00:00</time>
      </trkpt>
      <trkpt lat="46.68611" lon="5.62943">
        <ele>540</ele>
        <time>2025-10-10T11:58:05.013+00:00</time>
      </trkpt>
      <trkpt lat="46.68609" lon="5.62936">
        <ele>540</ele>
        <time>2025-10-10T11:58:09.269+00:00</time>
      </trkpt>
      <trkpt lat="46.68606" lon="5.62929">
        <ele>541</ele>
        <time>2025-10-10T11:58:13.853+00:00</time>
      </trkpt>
      <trkpt lat="46.68603" lon="5.62922">
        <ele>541</ele>
        <time>2025-10-10T11:58:18.347+00:00</time>
      </trkpt>
      <trkpt lat="46.686" lon="5.62916">
        <ele>541</ele>
        <time>2025-10-10T11:58:22.853+00:00</time>
      </trkpt>
      <trkpt lat="46.68597" lon="5.62909">
        <ele>541</ele>
        <time>2025-10-10T11:58:27.008+00:00</time>
      </trkpt>
      <trkpt lat="46.68595" lon="5.62903">
        <ele>543</ele>
        <time>2025-10-10T11:58:31.266+00:00</time>
      </trkpt>
      <trkpt lat="46.68592" lon="5.62896">
        <ele>543</ele>
        <time>2025-10-10T11:58:35.506+00:00</time>
      </trkpt>
      <trkpt lat="46.68588" lon="5.6289">
        <ele>543</ele>
        <time>2025-10-10T11:58:40.387+00:00</time>
      </trkpt>
      <trkpt lat="46.68584" lon="5.62885">
        <ele>543</ele>
        <time>2025-10-10T11:58:44.905+00:00</time>
      </trkpt>
      <trkpt lat="46.6858" lon="5.6288">
        <ele>543</ele>
        <time>2025-10-10T11:58:49.009+00:00</time>
      </trkpt>
      <trkpt lat="46.68576" lon="5.62875">
        <ele>543</ele>
        <time>2025-10-10T11:58:53.489+00:00</time>
      </trkpt>
      <trkpt lat="46.68572" lon="5.62871">
        <ele>543</ele>
        <time>2025-10-10T11:58:57.512+00:00</time>
      </trkpt>
      <trkpt lat="46.68566" lon="5.62868">
        <ele>543</ele>
        <time>2025-10-10T11:59:01.842+00:00</time>
      </trkpt>
      <trkpt lat="46.68561" lon="5.62862">
        <ele>543</ele>
        <time>2025-10-10T11:59:06.505+00:00</time>
      </trkpt>
      <trkpt lat="46.68557" lon="5.62858">
        <ele>543</ele>
        <time>2025-10-10T11:59:10.728+00:00</time>
      </trkpt>
      <trkpt lat="46.68553" lon="5.62854">
        <ele>543</ele>
        <time>2025-10-10T11:59:15.130+00:00</time>
      </trkpt>
      <trkpt lat="46.68549" lon="5.6285">
        <ele>543</ele>
        <time>2025-10-10T11:59:19.133+00:00</time>
      </trkpt>
      <trkpt lat="46.68545" lon="5.62846">
        <ele>543</ele>
        <time>2025-10-10T11:59:23.685+00:00</time>
      </trkpt>
      <trkpt lat="46.68542" lon="5.62842">
        <ele>543</ele>
        <time>2025-10-10T11:59:27.788+00:00</time>
      </trkpt>
      <trkpt lat="46.68541" lon="5.62836">
        <ele>542</ele>
        <time>2025-10-10T11:59:32.333+00:00</time>
      </trkpt>
      <trkpt lat="46.68542" lon="5.62828">
        <ele>543</ele>
        <time>2025-10-10T11:59:37.510+00:00</time>
      </trkpt>
      <trkpt lat="46.68544" lon="5.62822">
        <ele>543</ele>
        <time>2025-10-10T11:59:42.153+00:00</time>
      </trkpt>
      <trkpt lat="46.68546" lon="5.62815">
        <ele>543</ele>
        <time>2025-10-10T11:59:46.330+00:00</time>
      </trkpt>
      <trkpt lat="46.68547" lon="5.62809">
        <ele>543</ele>
        <time>2025-10-10T11:59:50.484+00:00</time>
      </trkpt>
      <trkpt lat="46.68548" lon="5.62802">
        <ele>543</ele>
        <time>2025-10-10T11:59:54.508+00:00</time>
      </trkpt>
      <trkpt lat="46.68549" lon="5.62796">
        <ele>543</ele>
        <time>2025-10-10T11:59:58.727+00:00</time>
      </trkpt>
      <trkpt lat="46.6855" lon="5.62788">
        <ele>543</ele>
        <time>2025-10-10T12:00:02.870+00:00</time>
      </trkpt>
      <trkpt lat="46.68552" lon="5.62782">
        <ele>543</ele>
        <time>2025-10-10T12:00:06.926+00:00</time>
      </trkpt>
      <trkpt lat="46.68553" lon="5.62776">
        <ele>543</ele>
        <time>2025-10-10T12:00:11.083+00:00</time>
      </trkpt>
      <trkpt lat="46.68555" lon="5.62768">
        <ele>543</ele>
        <time>2025-10-10T12:00:15.468+00:00</time>
      </trkpt>
      <trkpt lat="46.68556" lon="5.62761">
        <ele>543</ele>
        <time>2025-10-10T12:00:19.503+00:00</time>
      </trkpt>
      <trkpt lat="46.68558" lon="5.62754">
        <ele>543</ele>
        <time>2025-10-10T12:00:23.889+00:00</time>
      </trkpt>
      <trkpt lat="46.6856" lon="5.62747">
        <ele>543</ele>
        <time>2025-10-10T12:00:28.466+00:00</time>
      </trkpt>
      <trkpt lat="46.68561" lon="5.62739">
        <ele>543</ele>
        <time>2025-10-10T12:00:32.653+00:00</time>
      </trkpt>
      <trkpt lat="46.68562" lon="5.62732">
        <ele>544</ele>
        <time>2025-10-10T12:00:36.752+00:00</time>
      </trkpt>
      <trkpt lat="46.68564" lon="5.62726">
        <ele>544</ele>
        <time>2025-10-10T12:00:40.910+00:00</time>
      </trkpt>
      <trkpt lat="46.68566" lon="5.62719">
        <ele>544</ele>
        <time>2025-10-10T12:00:45.330+00:00</time>
      </trkpt>
      <trkpt lat="46.68566" lon="5.62712">
        <ele>544</ele>
        <time>2025-10-10T12:00:49.366+00:00</time>
      </trkpt>
      <trkpt lat="46.68564" lon="5.62704">
        <ele>546</ele>
        <time>2025-10-10T12:00:53.888+00:00</time>
      </trkpt>
      <trkpt lat="46.68559" lon="5.627">
        <ele>546</ele>
        <time>2025-10-10T12:00:57.967+00:00</time>
      </trkpt>
      <trkpt lat="46.68555" lon="5.62698">
        <ele>546</ele>
        <time>2025-10-10T12:01:02.130+00:00</time>
      </trkpt>
      <trkpt lat="46.68549" lon="5.62696">
        <ele>546</ele>
        <time>2025-10-10T12:01:06.653+00:00</time>
      </trkpt>
      <trkpt lat="46.68544" lon="5.62695">
        <ele>546</ele>
        <time>2025-10-10T12:01:10.684+00:00</time>
      </trkpt>
      <trkpt lat="46.68539" lon="5.62695">
        <ele>547</ele>
        <time>2025-10-10T12:01:14.730+00:00</time>
      </trkpt>
      <trkpt lat="46.68534" lon="5.62693">
        <ele>547</ele>
        <time>2025-10-10T12:01:18.866+00:00</time>
      </trkpt>
      <trkpt lat="46.68528" lon="5.62692">
        <ele>547</ele>
        <time>2025-10-10T12:01:23.513+00:00</time>
      </trkpt>
      <trkpt lat="46.68523" lon="5.6269">
        <ele>547</ele>
        <time>2025-10-10T12:01:28.124+00:00</time>
      </trkpt>
      <trkpt lat="46.68517" lon="5.62688">
        <ele>547</ele>
        <time>2025-10-10T12:01:32.664+00:00</time>
      </trkpt>
      <trkpt lat="46.68511" lon="5.62685">
        <ele>547</ele>
        <time>2025-10-10T12:01:37.347+00:00</time>
      </trkpt>
      <trkpt lat="46.68506" lon="5.62683">
        <ele>547</ele>
        <time>2025-10-10T12:01:41.504+00:00</time>
      </trkpt>
      <trkpt lat="46.685" lon="5.62681">
        <ele>547</ele>
        <time>2025-10-10T12:01:46.169+00:00</time>
      </trkpt>
      <trkpt lat="46.68494" lon="5.6268">
        <ele>549</ele>
        <time>2025-10-10T12:01:50.444+00:00</time>
      </trkpt>
      <trkpt lat="46.68488" lon="5.6268">
        <ele>549</ele>
        <time>2025-10-10T12:01:54.889+00:00</time>
      </trkpt>
      <trkpt lat="46.68482" lon="5.6268">
        <ele>549</ele>
        <time>2025-10-10T12:01:59.189+00:00</time>
      </trkpt>
      <trkpt lat="46.68476" lon="5.62681">
        <ele>546</ele>
        <time>2025-10-10T12:02:03.310+00:00</time>
      </trkpt>
      <trkpt lat="46.68469" lon="5.62682">
        <ele>546</ele>
        <time>2025-10-10T12:02:07.985+00:00</time>
      </trkpt>
      <trkpt lat="46.68464" lon="5.62683">
        <ele>546</ele>
        <time>2025-10-10T12:02:12.504+00:00</time>
      </trkpt>
      <trkpt lat="46.68458" lon="5.62684">
        <ele>547</ele>
        <time>2025-10-10T12:02:17.063+00:00</time>
      </trkpt>
      <trkpt lat="46.68452" lon="5.62684">
        <ele>547</ele>
        <time>2025-10-10T12:02:21.506+00:00</time>
      </trkpt>
      <trkpt lat="46.68446" lon="5.62686">
        <ele>547</ele>
        <time>2025-10-10T12:02:26.506+00:00</time>
      </trkpt>
      <trkpt lat="46.6844" lon="5.62688">
        <ele>547</ele>
        <time>2025-10-10T12:02:30.963+00:00</time>
      </trkpt>
      <trkpt lat="46.68435" lon="5.62689">
        <ele>547</ele>
        <time>2025-10-10T12:02:35.507+00:00</time>
      </trkpt>
      <trkpt lat="46.68431" lon="5.62689">
        <ele>547</ele>
        <time>2025-10-10T12:02:39.611+00:00</time>
      </trkpt>
      <trkpt lat="46.68425" lon="5.6269">
        <ele>548</ele>
        <time>2025-10-10T12:02:44.025+00:00</time>
      </trkpt>
      <trkpt lat="46.6842" lon="5.62692">
        <ele>548</ele>
        <time>2025-10-10T12:02:48.487+00:00</time>
      </trkpt>
      <trkpt lat="46.68414" lon="5.62693">
        <ele>548</ele>
        <time>2025-10-10T12:02:52.966+00:00</time>
      </trkpt>
      <trkpt lat="46.68409" lon="5.62694">
        <ele>548</ele>
        <time>2025-10-10T12:02:56.988+00:00</time>
      </trkpt>
      <trkpt lat="46.68404" lon="5.62695">
        <ele>548</ele>
        <time>2025-10-10T12:03:01.408+00:00</time>
      </trkpt>
      <trkpt lat="46.68397" lon="5.62696">
        <ele>548</ele>
        <time>2025-10-10T12:03:06.434+00:00</time>
      </trkpt>
      <trkpt lat="46.68392" lon="5.62697">
        <ele>548</ele>
        <time>2025-10-10T12:03:10.508+00:00</time>
      </trkpt>
      <trkpt lat="46.68387" lon="5.62698">
        <ele>548</ele>
        <time>2025-10-10T12:03:15.345+00:00</time>
      </trkpt>
      <trkpt lat="46.68381" lon="5.62698">
        <ele>548</ele>
        <time>2025-10-10T12:03:19.506+00:00</time>
      </trkpt>
      <trkpt lat="46.68376" lon="5.62697">
        <ele>548</ele>
        <time>2025-10-10T12:03:24.188+00:00</time>
      </trkpt>
      <trkpt lat="46.6837" lon="5.62696">
        <ele>545</ele>
        <time>2025-10-10T12:03:28.928+00:00</time>
      </trkpt>
      <trkpt lat="46.68364" lon="5.62694">
        <ele>545</ele>
        <time>2025-10-10T12:03:33.505+00:00</time>
      </trkpt>
      <trkpt lat="46.68359" lon="5.62692">
        <ele>545</ele>
        <time>2025-10-10T12:03:38.185+00:00</time>
      </trkpt>
      <trkpt lat="46.68354" lon="5.62691">
        <ele>545</ele>
        <time>2025-10-10T12:03:42.509+00:00</time>
      </trkpt>
      <trkpt lat="46.6835" lon="5.6269">
        <ele>545</ele>
        <time>2025-10-10T12:03:46.503+00:00</time>
      </trkpt>
      <trkpt lat="46.68344" lon="5.62688">
        <ele>545</ele>
        <time>2025-10-10T12:03:51.009+00:00</time>
      </trkpt>
      <trkpt lat="46.68339" lon="5.62687">
        <ele>545</ele>
        <time>2025-10-10T12:03:55.061+00:00</time>
      </trkpt>
      <trkpt lat="46.68334" lon="5.62686">
        <ele>545</ele>
        <time>2025-10-10T12:03:59.502+00:00</time>
      </trkpt>
      <trkpt lat="46.68328" lon="5.62684">
        <ele>545</ele>
        <time>2025-10-10T12:04:04.154+00:00</time>
      </trkpt>
      <trkpt lat="46.68322" lon="5.62682">
        <ele>545</ele>
        <time>2025-10-10T12:04:08.707+00:00</time>
      </trkpt>
      <trkpt lat="46.68317" lon="5.62679">
        <ele>550</ele>
        <time>2025-10-10T12:04:13.214+00:00</time>
      </trkpt>
      <trkpt lat="46.68312" lon="5.62677">
        <ele>550</ele>
        <time>2025-10-10T12:04:17.694+00:00</time>
      </trkpt>
      <trkpt lat="46.68307" lon="5.62674">
        <ele>550</ele>
        <time>2025-10-10T12:04:22.503+00:00</time>
      </trkpt>
      <trkpt lat="46.68302" lon="5.62671">
        <ele>550</ele>
        <time>2025-10-10T12:04:27.146+00:00</time>
      </trkpt>
      <trkpt lat="46.68297" lon="5.62668">
        <ele>550</ele>
        <time>2025-10-10T12:04:31.635+00:00</time>
      </trkpt>
      <trkpt lat="46.68293" lon="5.62665">
        <ele>550</ele>
        <time>2025-10-10T12:04:35.746+00:00</time>
      </trkpt>
      <trkpt lat="46.68288" lon="5.62662">
        <ele>548</ele>
        <time>2025-10-10T12:04:40.208+00:00</time>
      </trkpt>
      <trkpt lat="46.68283" lon="5.62659">
        <ele>548</ele>
        <time>2025-10-10T12:04:44.654+00:00</time>
      </trkpt>
      <trkpt lat="46.68278" lon="5.62657">
        <ele>548</ele>
        <time>2025-10-10T12:04:49.313+00:00</time>
      </trkpt>
      <trkpt lat="46.68273" lon="5.62654">
        <ele>548</ele>
        <time>2025-10-10T12:04:53.348+00:00</time>
      </trkpt>
      <trkpt lat="46.68269" lon="5.6265">
        <ele>550</ele>
        <time>2025-10-10T12:04:57.691+00:00</time>
      </trkpt>
      <trkpt lat="46.68264" lon="5.62647">
        <ele>550</ele>
        <time>2025-10-10T12:05:02.214+00:00</time>
      </trkpt>
      <trkpt lat="46.68259" lon="5.62644">
        <ele>546</ele>
        <time>2025-10-10T12:05:06.663+00:00</time>
      </trkpt>
      <trkpt lat="46.68254" lon="5.62641">
        <ele>546</ele>
        <time>2025-10-10T12:05:10.749+00:00</time>
      </trkpt>
      <trkpt lat="46.68248" lon="5.62639">
        <ele>546</ele>
        <time>2025-10-10T12:05:15.293+00:00</time>
      </trkpt>
      <trkpt lat="46.68244" lon="5.62637">
        <ele>546</ele>
        <time>2025-10-10T12:05:19.506+00:00</time>
      </trkpt>
      <trkpt lat="46.68239" lon="5.62635">
        <ele>546</ele>
        <time>2025-10-10T12:05:23.628+00:00</time>
      </trkpt>
      <trkpt lat="46.68234" lon="5.62632">
        <ele>542</ele>
        <time>2025-10-10T12:05:27.689+00:00</time>
      </trkpt>
      <trkpt lat="46.6823" lon="5.6263">
        <ele>542</ele>
        <time>2025-10-10T12:05:31.900+00:00</time>
      </trkpt>
      <trkpt lat="46.68225" lon="5.62627">
        <ele>542</ele>
        <time>2025-10-10T12:05:35.961+00:00</time>
      </trkpt>
      <trkpt lat="46.6822" lon="5.62623">
        <ele>544</ele>
        <time>2025-10-10T12:05:40.511+00:00</time>
      </trkpt>
      <trkpt lat="46.68214" lon="5.6262">
        <ele>544</ele>
        <time>2025-10-10T12:05:45.507+00:00</time>
      </trkpt>
      <trkpt lat="46.68209" lon="5.62616">
        <ele>544</ele>
        <time>2025-10-10T12:05:49.965+00:00</time>
      </trkpt>
      <trkpt lat="46.68204" lon="5.62613">
        <ele>541</ele>
        <time>2025-10-10T12:05:54.366+00:00</time>
      </trkpt>
      <trkpt lat="46.68199" lon="5.62609">
        <ele>541</ele>
        <time>2025-10-10T12:05:58.784+00:00</time>
      </trkpt>
      <trkpt lat="46.68194" lon="5.62606">
        <ele>541</ele>
        <time>2025-10-10T12:06:03.384+00:00</time>
      </trkpt>
      <trkpt lat="46.6819" lon="5.62603">
        <ele>541</ele>
        <time>2025-10-10T12:06:07.667+00:00</time>
      </trkpt>
      <trkpt lat="46.68186" lon="5.626">
        <ele>541</ele>
        <time>2025-10-10T12:06:11.704+00:00</time>
      </trkpt>
      <trkpt lat="46.68181" lon="5.62596">
        <ele>544</ele>
        <time>2025-10-10T12:06:16.123+00:00</time>
      </trkpt>
      <trkpt lat="46.68177" lon="5.62591">
        <ele>540</ele>
        <time>2025-10-10T12:06:20.627+00:00</time>
      </trkpt>
      <trkpt lat="46.68172" lon="5.62587">
        <ele>540</ele>
        <time>2025-10-10T12:06:25.107+00:00</time>
      </trkpt>
      <trkpt lat="46.68168" lon="5.62582">
        <ele>540</ele>
        <time>2025-10-10T12:06:29.383+00:00</time>
      </trkpt>
      <trkpt lat="46.68164" lon="5.62578">
        <ele>540</ele>
        <time>2025-10-10T12:06:33.468+00:00</time>
      </trkpt>
      <trkpt lat="46.6816" lon="5.62572">
        <ele>540</ele>
        <time>2025-10-10T12:06:38.008+00:00</time>
      </trkpt>
      <trkpt lat="46.68157" lon="5.62566">
        <ele>543</ele>
        <time>2025-10-10T12:06:42.504+00:00</time>
      </trkpt>
      <trkpt lat="46.68154" lon="5.62561">
        <ele>543</ele>
        <time>2025-10-10T12:06:46.507+00:00</time>
      </trkpt>
      <trkpt lat="46.68151" lon="5.62554">
        <ele>538</ele>
        <time>2025-10-10T12:06:51.028+00:00</time>
      </trkpt>
      <trkpt lat="46.68148" lon="5.62547">
        <ele>538</ele>
        <time>2025-10-10T12:06:55.507+00:00</time>
      </trkpt>
      <trkpt lat="46.68144" lon="5.62541">
        <ele>540</ele>
        <time>2025-10-10T12:07:00.390+00:00</time>
      </trkpt>
      <trkpt lat="46.6814" lon="5.62536">
        <ele>540</ele>
        <time>2025-10-10T12:07:04.503+00:00</time>
      </trkpt>
      <trkpt lat="46.68136" lon="5.6253">
        <ele>540</ele>
        <time>2025-10-10T12:07:08.908+00:00</time>
      </trkpt>
      <trkpt lat="46.68131" lon="5.62526">
        <ele>540</ele>
        <time>2025-10-10T12:07:13.324+00:00</time>
      </trkpt>
      <trkpt lat="46.68126" lon="5.62523">
        <ele>540</ele>
        <time>2025-10-10T12:07:17.511+00:00</time>
      </trkpt>
      <trkpt lat="46.68121" lon="5.62521">
        <ele>538</ele>
        <time>2025-10-10T12:07:21.762+00:00</time>
      </trkpt>
      <trkpt lat="46.68114" lon="5.62518">
        <ele>538</ele>
        <time>2025-10-10T12:07:26.506+00:00</time>
      </trkpt>
      <trkpt lat="46.68109" lon="5.62515">
        <ele>538</ele>
        <time>2025-10-10T12:07:30.824+00:00</time>
      </trkpt>
      <trkpt lat="46.68104" lon="5.62512">
        <ele>543</ele>
        <time>2025-10-10T12:07:35.267+00:00</time>
      </trkpt>
      <trkpt lat="46.68098" lon="5.62509">
        <ele>543</ele>
        <time>2025-10-10T12:07:39.765+00:00</time>
      </trkpt>
      <trkpt lat="46.68094" lon="5.62506">
        <ele>545</ele>
        <time>2025-10-10T12:07:43.809+00:00</time>
      </trkpt>
      <trkpt lat="46.68089" lon="5.62503">
        <ele>545</ele>
        <time>2025-10-10T12:07:48.349+00:00</time>
      </trkpt>
      <trkpt lat="46.68084" lon="5.62501">
        <ele>545</ele>
        <time>2025-10-10T12:07:52.384+00:00</time>
      </trkpt>
      <trkpt lat="46.68079" lon="5.62497">
        <ele>545</ele>
        <time>2025-10-10T12:07:57.068+00:00</time>
      </trkpt>
      <trkpt lat="46.68074" lon="5.62494">
        <ele>545</ele>
        <time>2025-10-10T12:08:01.429+00:00</time>
      </trkpt>
      <trkpt lat="46.68069" lon="5.62491">
        <ele>548</ele>
        <time>2025-10-10T12:08:05.968+00:00</time>
      </trkpt>
      <trkpt lat="46.68064" lon="5.62488">
        <ele>548</ele>
        <time>2025-10-10T12:08:10.293+00:00</time>
      </trkpt>
      <trkpt lat="46.68058" lon="5.62484">
        <ele>548</ele>
        <time>2025-10-10T12:08:15.430+00:00</time>
      </trkpt>
      <trkpt lat="46.68053" lon="5.6248">
        <ele>548</ele>
        <time>2025-10-10T12:08:19.949+00:00</time>
      </trkpt>
      <trkpt lat="46.68048" lon="5.62476">
        <ele>548</ele>
        <time>2025-10-10T12:08:24.506+00:00</time>
      </trkpt>
      <trkpt lat="46.68043" lon="5.62473">
        <ele>548</ele>
        <time>2025-10-10T12:08:29.184+00:00</time>
      </trkpt>
      <trkpt lat="46.68038" lon="5.62472">
        <ele>547</ele>
        <time>2025-10-10T12:08:33.505+00:00</time>
      </trkpt>
      <trkpt lat="46.68033" lon="5.6247">
        <ele>547</ele>
        <time>2025-10-10T12:08:37.826+00:00</time>
      </trkpt>
      <trkpt lat="46.68028" lon="5.62468">
        <ele>547</ele>
        <time>2025-10-10T12:08:42.505+00:00</time>
      </trkpt>
      <trkpt lat="46.68022" lon="5.62465">
        <ele>547</ele>
        <time>2025-10-10T12:08:47.506+00:00</time>
      </trkpt>
      <trkpt lat="46.68016" lon="5.62463">
        <ele>547</ele>
        <time>2025-10-10T12:08:52.504+00:00</time>
      </trkpt>
      <trkpt lat="46.6801" lon="5.62461">
        <ele>544</ele>
        <time>2025-10-10T12:08:57.008+00:00</time>
      </trkpt>
      <trkpt lat="46.68005" lon="5.62459">
        <ele>544</ele>
        <time>2025-10-10T12:09:01.185+00:00</time>
      </trkpt>
      <trkpt lat="46.67999" lon="5.62457">
        <ele>545</ele>
        <time>2025-10-10T12:09:05.770+00:00</time>
      </trkpt>
      <trkpt lat="46.67993" lon="5.62455">
        <ele>545</ele>
        <time>2025-10-10T12:09:10.506+00:00</time>
      </trkpt>
      <trkpt lat="46.67991" lon="5.62455">
        <ele>545</ele>
        <time>2025-10-10T12:09:14.506+00:00</time>
      </trkpt>
      <trkpt lat="46.67989" lon="5.62454">
        <ele>545</ele>
        <time>2025-10-10T12:09:19.110+00:00</time>
      </trkpt>
      <trkpt lat="46.67984" lon="5.6245">
        <ele>542</ele>
        <time>2025-10-10T12:09:23.504+00:00</time>
      </trkpt>
      <trkpt lat="46.67979" lon="5.62448">
        <ele>542</ele>
        <time>2025-10-10T12:09:28.189+00:00</time>
      </trkpt>
      <trkpt lat="46.67974" lon="5.62446">
        <ele>542</ele>
        <time>2025-10-10T12:09:32.369+00:00</time>
      </trkpt>
      <trkpt lat="46.67969" lon="5.62443">
        <ele>542</ele>
        <time>2025-10-10T12:09:36.505+00:00</time>
      </trkpt>
      <trkpt lat="46.67967" lon="5.62439">
        <ele>542</ele>
        <time>2025-10-10T12:09:41.511+00:00</time>
      </trkpt>
      <trkpt lat="46.67966" lon="5.62438">
        <ele>542</ele>
        <time>2025-10-10T12:09:46.505+00:00</time>
      </trkpt>
      <trkpt lat="46.67966" lon="5.62437">
        <ele>542</ele>
        <time>2025-10-10T12:09:50.521+00:00</time>
      </trkpt>
      <trkpt lat="46.67967" lon="5.62437">
        <ele>542</ele>
        <time>2025-10-10T12:09:55.505+00:00</time>
      </trkpt>
      <trkpt lat="46.67966" lon="5.62436">
        <ele>542</ele>
        <time>2025-10-10T12:10:00.107+00:00</time>
      </trkpt>
      <trkpt lat="46.6796" lon="5.62431">
        <ele>542</ele>
        <time>2025-10-10T12:10:04.505+00:00</time>
      </trkpt>
      <trkpt lat="46.67954" lon="5.6243">
        <ele>545</ele>
        <time>2025-10-10T12:10:08.987+00:00</time>
      </trkpt>
      <trkpt lat="46.67948" lon="5.62428">
        <ele>545</ele>
        <time>2025-10-10T12:10:13.505+00:00</time>
      </trkpt>
      <trkpt lat="46.67942" lon="5.62427">
        <ele>545</ele>
        <time>2025-10-10T12:10:18.327+00:00</time>
      </trkpt>
      <trkpt lat="46.67937" lon="5.62427">
        <ele>545</ele>
        <time>2025-10-10T12:10:22.470+00:00</time>
      </trkpt>
      <trkpt lat="46.67932" lon="5.62426">
        <ele>545</ele>
        <time>2025-10-10T12:10:26.504+00:00</time>
      </trkpt>
      <trkpt lat="46.67927" lon="5.62425">
        <ele>543</ele>
        <time>2025-10-10T12:10:31.185+00:00</time>
      </trkpt>
      <trkpt lat="46.67922" lon="5.62427">
        <ele>543</ele>
        <time>2025-10-10T12:10:35.204+00:00</time>
      </trkpt>
      <trkpt lat="46.67917" lon="5.62428">
        <ele>543</ele>
        <time>2025-10-10T12:10:39.624+00:00</time>
      </trkpt>
      <trkpt lat="46.67912" lon="5.62428">
        <ele>543</ele>
        <time>2025-10-10T12:10:44.090+00:00</time>
      </trkpt>
      <trkpt lat="46.67907" lon="5.62428">
        <ele>543</ele>
        <time>2025-10-10T12:10:48.109+00:00</time>
      </trkpt>
      <trkpt lat="46.67902" lon="5.62428">
        <ele>542</ele>
        <time>2025-10-10T12:10:52.883+00:00</time>
      </trkpt>
      <trkpt lat="46.679" lon="5.62428">
        <ele>542</ele>
        <time>2025-10-10T12:10:57.505+00:00</time>
      </trkpt>
      <trkpt lat="46.67896" lon="5.62426">
        <ele>542</ele>
        <time>2025-10-10T12:11:01.688+00:00</time>
      </trkpt>
      <trkpt lat="46.67892" lon="5.62425">
        <ele>542</ele>
        <time>2025-10-10T12:11:05.767+00:00</time>
      </trkpt>
      <trkpt lat="46.67887" lon="5.62423">
        <ele>542</ele>
        <time>2025-10-10T12:11:10.165+00:00</time>
      </trkpt>
      <trkpt lat="46.67882" lon="5.6242">
        <ele>542</ele>
        <time>2025-10-10T12:11:14.509+00:00</time>
      </trkpt>
      <trkpt lat="46.67877" lon="5.62417">
        <ele>542</ele>
        <time>2025-10-10T12:11:19.505+00:00</time>
      </trkpt>
      <trkpt lat="46.67872" lon="5.62412">
        <ele>539</ele>
        <time>2025-10-10T12:11:23.928+00:00</time>
      </trkpt>
      <trkpt lat="46.67869" lon="5.62406">
        <ele>539</ele>
        <time>2025-10-10T12:11:28.083+00:00</time>
      </trkpt>
      <trkpt lat="46.67865" lon="5.624">
        <ele>543</ele>
        <time>2025-10-10T12:11:32.501+00:00</time>
      </trkpt>
      <trkpt lat="46.67863" lon="5.62395">
        <ele>543</ele>
        <time>2025-10-10T12:11:37.127+00:00</time>
      </trkpt>
      <trkpt lat="46.6786" lon="5.62388">
        <ele>543</ele>
        <time>2025-10-10T12:11:41.507+00:00</time>
      </trkpt>
      <trkpt lat="46.67856" lon="5.62382">
        <ele>543</ele>
        <time>2025-10-10T12:11:46.086+00:00</time>
      </trkpt>
      <trkpt lat="46.67852" lon="5.62375">
        <ele>543</ele>
        <time>2025-10-10T12:11:50.508+00:00</time>
      </trkpt>
      <trkpt lat="46.67848" lon="5.62369">
        <ele>545</ele>
        <time>2025-10-10T12:11:54.926+00:00</time>
      </trkpt>
      <trkpt lat="46.67843" lon="5.62364">
        <ele>540</ele>
        <time>2025-10-10T12:11:59.253+00:00</time>
      </trkpt>
      <trkpt lat="46.67839" lon="5.62359">
        <ele>540</ele>
        <time>2025-10-10T12:12:03.504+00:00</time>
      </trkpt>
      <trkpt lat="46.67834" lon="5.62354">
        <ele>540</ele>
        <time>2025-10-10T12:12:08.104+00:00</time>
      </trkpt>
      <trkpt lat="46.6783" lon="5.6235">
        <ele>540</ele>
        <time>2025-10-10T12:12:12.404+00:00</time>
      </trkpt>
      <trkpt lat="46.67825" lon="5.62346">
        <ele>541</ele>
        <time>2025-10-10T12:12:16.505+00:00</time>
      </trkpt>
      <trkpt lat="46.6782" lon="5.62341">
        <ele>541</ele>
        <time>2025-10-10T12:12:21.086+00:00</time>
      </trkpt>
      <trkpt lat="46.67815" lon="5.62337">
        <ele>538</ele>
        <time>2025-10-10T12:12:25.445+00:00</time>
      </trkpt>
      <trkpt lat="46.67811" lon="5.62334">
        <ele>538</ele>
        <time>2025-10-10T12:12:29.510+00:00</time>
      </trkpt>
      <trkpt lat="46.67805" lon="5.62329">
        <ele>538</ele>
        <time>2025-10-10T12:12:34.444+00:00</time>
      </trkpt>
      <trkpt lat="46.678" lon="5.62323">
        <ele>538</ele>
        <time>2025-10-10T12:12:39.280+00:00</time>
      </trkpt>
      <trkpt lat="46.67796" lon="5.62319">
        <ele>541</ele>
        <time>2025-10-10T12:12:43.300+00:00</time>
      </trkpt>
      <trkpt lat="46.67791" lon="5.62313">
        <ele>538</ele>
        <time>2025-10-10T12:12:48.164+00:00</time>
      </trkpt>
      <trkpt lat="46.67787" lon="5.62308">
        <ele>538</ele>
        <time>2025-10-10T12:12:52.574+00:00</time>
      </trkpt>
      <trkpt lat="46.67783" lon="5.62304">
        <ele>538</ele>
        <time>2025-10-10T12:12:56.724+00:00</time>
      </trkpt>
      <trkpt lat="46.67778" lon="5.62299">
        <ele>538</ele>
        <time>2025-10-10T12:13:01.105+00:00</time>
      </trkpt>
      <trkpt lat="46.67774" lon="5.62294">
        <ele>538</ele>
        <time>2025-10-10T12:13:05.487+00:00</time>
      </trkpt>
      <trkpt lat="46.6777" lon="5.62289">
        <ele>540</ele>
        <time>2025-10-10T12:13:09.506+00:00</time>
      </trkpt>
      <trkpt lat="46.67767" lon="5.62283">
        <ele>540</ele>
        <time>2025-10-10T12:13:13.819+00:00</time>
      </trkpt>
      <trkpt lat="46.67763" lon="5.62278">
        <ele>537</ele>
        <time>2025-10-10T12:13:18.145+00:00</time>
      </trkpt>
      <trkpt lat="46.67758" lon="5.62272">
        <ele>537</ele>
        <time>2025-10-10T12:13:22.510+00:00</time>
      </trkpt>
      <trkpt lat="46.67753" lon="5.62266">
        <ele>537</ele>
        <time>2025-10-10T12:13:27.505+00:00</time>
      </trkpt>
      <trkpt lat="46.6775" lon="5.62261">
        <ele>536</ele>
        <time>2025-10-10T12:13:31.505+00:00</time>
      </trkpt>
      <trkpt lat="46.67747" lon="5.62255">
        <ele>536</ele>
        <time>2025-10-10T12:13:35.507+00:00</time>
      </trkpt>
      <trkpt lat="46.67746" lon="5.62248">
        <ele>536</ele>
        <time>2025-10-10T12:13:40.068+00:00</time>
      </trkpt>
      <trkpt lat="46.67748" lon="5.62241">
        <ele>536</ele>
        <time>2025-10-10T12:13:44.507+00:00</time>
      </trkpt>
      <trkpt lat="46.6775" lon="5.62233">
        <ele>536</ele>
        <time>2025-10-10T12:13:49.488+00:00</time>
      </trkpt>
      <trkpt lat="46.67752" lon="5.62227">
        <ele>536</ele>
        <time>2025-10-10T12:13:53.508+00:00</time>
      </trkpt>
      <trkpt lat="46.67754" lon="5.62221">
        <ele>536</ele>
        <time>2025-10-10T12:13:57.999+00:00</time>
      </trkpt>
      <trkpt lat="46.67756" lon="5.62216">
        <ele>536</ele>
        <time>2025-10-10T12:14:02.406+00:00</time>
      </trkpt>
      <trkpt lat="46.67758" lon="5.62212">
        <ele>536</ele>
        <time>2025-10-10T12:14:06.510+00:00</time>
      </trkpt>
      <trkpt lat="46.67761" lon="5.62204">
        <ele>536</ele>
        <time>2025-10-10T12:14:11.104+00:00</time>
      </trkpt>
      <trkpt lat="46.67764" lon="5.62196">
        <ele>536</ele>
        <time>2025-10-10T12:14:15.465+00:00</time>
      </trkpt>
      <trkpt lat="46.6777" lon="5.62174">
        <ele>540</ele>
        <time>2025-10-10T12:14:38.508+00:00</time>
      </trkpt>
      <trkpt lat="46.6777" lon="5.62173">
        <ele>540</ele>
        <time>2025-10-10T12:14:45.506+00:00</time>
      </trkpt>
      <trkpt lat="46.67772" lon="5.62166">
        <ele>540</ele>
        <time>2025-10-10T12:14:50.003+00:00</time>
      </trkpt>
      <trkpt lat="46.67775" lon="5.62159">
        <ele>540</ele>
        <time>2025-10-10T12:14:54.465+00:00</time>
      </trkpt>
      <trkpt lat="46.67777" lon="5.62152">
        <ele>539</ele>
        <time>2025-10-10T12:14:58.950+00:00</time>
      </trkpt>
      <trkpt lat="46.6778" lon="5.62146">
        <ele>539</ele>
        <time>2025-10-10T12:15:03.265+00:00</time>
      </trkpt>
      <trkpt lat="46.67782" lon="5.62139">
        <ele>539</ele>
        <time>2025-10-10T12:15:07.685+00:00</time>
      </trkpt>
      <trkpt lat="46.67784" lon="5.62131">
        <ele>539</ele>
        <time>2025-10-10T12:15:12.087+00:00</time>
      </trkpt>
      <trkpt lat="46.67786" lon="5.62124">
        <ele>541</ele>
        <time>2025-10-10T12:15:16.444+00:00</time>
      </trkpt>
      <trkpt lat="46.67788" lon="5.62116">
        <ele>541</ele>
        <time>2025-10-10T12:15:20.939+00:00</time>
      </trkpt>
      <trkpt lat="46.6779" lon="5.62109">
        <ele>541</ele>
        <time>2025-10-10T12:15:25.507+00:00</time>
      </trkpt>
      <trkpt lat="46.67792" lon="5.62102">
        <ele>546</ele>
        <time>2025-10-10T12:15:29.873+00:00</time>
      </trkpt>
      <trkpt lat="46.67794" lon="5.62095">
        <ele>546</ele>
        <time>2025-10-10T12:15:34.284+00:00</time>
      </trkpt>
      <trkpt lat="46.67796" lon="5.62088">
        <ele>546</ele>
        <time>2025-10-10T12:15:38.704+00:00</time>
      </trkpt>
      <trkpt lat="46.67798" lon="5.6208">
        <ele>546</ele>
        <time>2025-10-10T12:15:43.105+00:00</time>
      </trkpt>
      <trkpt lat="46.678" lon="5.62073">
        <ele>546</ele>
        <time>2025-10-10T12:15:47.507+00:00</time>
      </trkpt>
      <trkpt lat="46.67802" lon="5.62066">
        <ele>545</ele>
        <time>2025-10-10T12:15:51.918+00:00</time>
      </trkpt>
      <trkpt lat="46.67804" lon="5.62059">
        <ele>545</ele>
        <time>2025-10-10T12:15:56.303+00:00</time>
      </trkpt>
      <trkpt lat="46.67807" lon="5.62051">
        <ele>545</ele>
        <time>2025-10-10T12:16:00.724+00:00</time>
      </trkpt>
      <trkpt lat="46.67808" lon="5.62043">
        <ele>545</ele>
        <time>2025-10-10T12:16:05.143+00:00</time>
      </trkpt>
      <trkpt lat="46.6781" lon="5.62035">
        <ele>543</ele>
        <time>2025-10-10T12:16:09.504+00:00</time>
      </trkpt>
      <trkpt lat="46.67813" lon="5.62027">
        <ele>543</ele>
        <time>2025-10-10T12:16:14.464+00:00</time>
      </trkpt>
      <trkpt lat="46.67815" lon="5.62019">
        <ele>543</ele>
        <time>2025-10-10T12:16:18.865+00:00</time>
      </trkpt>
      <trkpt lat="46.67817" lon="5.62012">
        <ele>542</ele>
        <time>2025-10-10T12:16:23.383+00:00</time>
      </trkpt>
      <trkpt lat="46.67819" lon="5.62004">
        <ele>542</ele>
        <time>2025-10-10T12:16:27.628+00:00</time>
      </trkpt>
      <trkpt lat="46.67821" lon="5.61996">
        <ele>544</ele>
        <time>2025-10-10T12:16:31.963+00:00</time>
      </trkpt>
      <trkpt lat="46.67823" lon="5.61988">
        <ele>544</ele>
        <time>2025-10-10T12:16:36.449+00:00</time>
      </trkpt>
      <trkpt lat="46.67825" lon="5.6198">
        <ele>542</ele>
        <time>2025-10-10T12:16:40.784+00:00</time>
      </trkpt>
      <trkpt lat="46.67827" lon="5.61972">
        <ele>542</ele>
        <time>2025-10-10T12:16:45.284+00:00</time>
      </trkpt>
      <trkpt lat="46.67829" lon="5.61965">
        <ele>542</ele>
        <time>2025-10-10T12:16:49.500+00:00</time>
      </trkpt>
      <trkpt lat="46.67831" lon="5.61956">
        <ele>540</ele>
        <time>2025-10-10T12:16:54.323+00:00</time>
      </trkpt>
      <trkpt lat="46.67833" lon="5.61949">
        <ele>540</ele>
        <time>2025-10-10T12:16:58.500+00:00</time>
      </trkpt>
      <trkpt lat="46.67835" lon="5.61941">
        <ele>540</ele>
        <time>2025-10-10T12:17:03.044+00:00</time>
      </trkpt>
      <trkpt lat="46.67836" lon="5.61934">
        <ele>540</ele>
        <time>2025-10-10T12:17:07.487+00:00</time>
      </trkpt>
      <trkpt lat="46.67839" lon="5.61928">
        <ele>538</ele>
        <time>2025-10-10T12:17:11.507+00:00</time>
      </trkpt>
      <trkpt lat="46.67842" lon="5.6192">
        <ele>538</ele>
        <time>2025-10-10T12:17:16.084+00:00</time>
      </trkpt>
      <trkpt lat="46.67844" lon="5.61913">
        <ele>538</ele>
        <time>2025-10-10T12:17:20.384+00:00</time>
      </trkpt>
      <trkpt lat="46.67847" lon="5.61906">
        <ele>538</ele>
        <time>2025-10-10T12:17:24.581+00:00</time>
      </trkpt>
      <trkpt lat="46.67849" lon="5.61897">
        <ele>542</ele>
        <time>2025-10-10T12:17:29.502+00:00</time>
      </trkpt>
      <trkpt lat="46.67851" lon="5.61889">
        <ele>542</ele>
        <time>2025-10-10T12:17:34.305+00:00</time>
      </trkpt>
      <trkpt lat="46.67854" lon="5.61881">
        <ele>542</ele>
        <time>2025-10-10T12:17:38.606+00:00</time>
      </trkpt>
      <trkpt lat="46.67855" lon="5.61873">
        <ele>541</ele>
        <time>2025-10-10T12:17:43.508+00:00</time>
      </trkpt>
      <trkpt lat="46.67858" lon="5.61865">
        <ele>541</ele>
        <time>2025-10-10T12:17:47.662+00:00</time>
      </trkpt>
      <trkpt lat="46.6786" lon="5.61857">
        <ele>541</ele>
        <time>2025-10-10T12:17:51.972+00:00</time>
      </trkpt>
      <trkpt lat="46.67862" lon="5.6185">
        <ele>541</ele>
        <time>2025-10-10T12:17:56.287+00:00</time>
      </trkpt>
      <trkpt lat="46.67864" lon="5.61842">
        <ele>540</ele>
        <time>2025-10-10T12:18:00.749+00:00</time>
      </trkpt>
      <trkpt lat="46.67866" lon="5.61835">
        <ele>540</ele>
        <time>2025-10-10T12:18:05.044+00:00</time>
      </trkpt>
      <trkpt lat="46.67869" lon="5.61827">
        <ele>540</ele>
        <time>2025-10-10T12:18:09.404+00:00</time>
      </trkpt>
      <trkpt lat="46.67871" lon="5.61819">
        <ele>536</ele>
        <time>2025-10-10T12:18:13.721+00:00</time>
      </trkpt>
      <trkpt lat="46.67874" lon="5.61812">
        <ele>536</ele>
        <time>2025-10-10T12:18:18.004+00:00</time>
      </trkpt>
      <trkpt lat="46.67876" lon="5.61804">
        <ele>539</ele>
        <time>2025-10-10T12:18:22.278+00:00</time>
      </trkpt>
      <trkpt lat="46.67878" lon="5.61797">
        <ele>539</ele>
        <time>2025-10-10T12:18:26.511+00:00</time>
      </trkpt>
      <trkpt lat="46.67876" lon="5.61795">
        <ele>539</ele>
        <time>2025-10-10T12:18:31.129+00:00</time>
      </trkpt>
      <trkpt lat="46.67879" lon="5.61788">
        <ele>536</ele>
        <time>2025-10-10T12:18:35.506+00:00</time>
      </trkpt>
      <trkpt lat="46.67881" lon="5.61779">
        <ele>536</ele>
        <time>2025-10-10T12:18:40.190+00:00</time>
      </trkpt>
      <trkpt lat="46.67884" lon="5.61771">
        <ele>536</ele>
        <time>2025-10-10T12:18:44.403+00:00</time>
      </trkpt>
      <trkpt lat="46.67886" lon="5.61763">
        <ele>534</ele>
        <time>2025-10-10T12:18:48.490+00:00</time>
      </trkpt>
      <trkpt lat="46.67888" lon="5.61756">
        <ele>534</ele>
        <time>2025-10-10T12:18:52.823+00:00</time>
      </trkpt>
      <trkpt lat="46.6789" lon="5.61748">
        <ele>534</ele>
        <time>2025-10-10T12:18:57.044+00:00</time>
      </trkpt>
      <trkpt lat="46.67892" lon="5.61741">
        <ele>534</ele>
        <time>2025-10-10T12:19:01.344+00:00</time>
      </trkpt>
      <trkpt lat="46.67895" lon="5.61734">
        <ele>533</ele>
        <time>2025-10-10T12:19:05.501+00:00</time>
      </trkpt>
      <trkpt lat="46.67898" lon="5.61725">
        <ele>533</ele>
        <time>2025-10-10T12:19:10.326+00:00</time>
      </trkpt>
      <trkpt lat="46.679" lon="5.61717">
        <ele>533</ele>
        <time>2025-10-10T12:19:14.643+00:00</time>
      </trkpt>
      <trkpt lat="46.67902" lon="5.61709">
        <ele>533</ele>
        <time>2025-10-10T12:19:19.048+00:00</time>
      </trkpt>
      <trkpt lat="46.67902" lon="5.61703">
        <ele>531</ele>
        <time>2025-10-10T12:19:23.502+00:00</time>
      </trkpt>
      <trkpt lat="46.67902" lon="5.61701">
        <ele>531</ele>
        <time>2025-10-10T12:19:27.505+00:00</time>
      </trkpt>
      <trkpt lat="46.67906" lon="5.61694">
        <ele>536</ele>
        <time>2025-10-10T12:19:32.500+00:00</time>
      </trkpt>
      <trkpt lat="46.67909" lon="5.61686">
        <ele>536</ele>
        <time>2025-10-10T12:19:36.786+00:00</time>
      </trkpt>
      <trkpt lat="46.67912" lon="5.61679">
        <ele>534</ele>
        <time>2025-10-10T12:19:41.209+00:00</time>
      </trkpt>
      <trkpt lat="46.67914" lon="5.61672">
        <ele>534</ele>
        <time>2025-10-10T12:19:45.463+00:00</time>
      </trkpt>
      <trkpt lat="46.67916" lon="5.61665">
        <ele>534</ele>
        <time>2025-10-10T12:19:49.787+00:00</time>
      </trkpt>
      <trkpt lat="46.67918" lon="5.61657">
        <ele>534</ele>
        <time>2025-10-10T12:19:54.070+00:00</time>
      </trkpt>
      <trkpt lat="46.6792" lon="5.6165">
        <ele>530</ele>
        <time>2025-10-10T12:19:58.503+00:00</time>
      </trkpt>
      <trkpt lat="46.67923" lon="5.61641">
        <ele>530</ele>
        <time>2025-10-10T12:20:03.190+00:00</time>
      </trkpt>
      <trkpt lat="46.67924" lon="5.61634">
        <ele>530</ele>
        <time>2025-10-10T12:20:07.387+00:00</time>
      </trkpt>
      <trkpt lat="46.67927" lon="5.61626">
        <ele>530</ele>
        <time>2025-10-10T12:20:11.510+00:00</time>
      </trkpt>
      <trkpt lat="46.6793" lon="5.61617">
        <ele>526</ele>
        <time>2025-10-10T12:20:16.298+00:00</time>
      </trkpt>
      <trkpt lat="46.67933" lon="5.6161">
        <ele>530</ele>
        <time>2025-10-10T12:20:20.501+00:00</time>
      </trkpt>
      <trkpt lat="46.67935" lon="5.61603">
        <ele>530</ele>
        <time>2025-10-10T12:20:24.502+00:00</time>
      </trkpt>
      <trkpt lat="46.67937" lon="5.61594">
        <ele>527</ele>
        <time>2025-10-10T12:20:28.945+00:00</time>
      </trkpt>
      <trkpt lat="46.67939" lon="5.61586">
        <ele>527</ele>
        <time>2025-10-10T12:20:33.144+00:00</time>
      </trkpt>
      <trkpt lat="46.67942" lon="5.61579">
        <ele>527</ele>
        <time>2025-10-10T12:20:37.500+00:00</time>
      </trkpt>
      <trkpt lat="46.67944" lon="5.61571">
        <ele>527</ele>
        <time>2025-10-10T12:20:41.903+00:00</time>
      </trkpt>
      <trkpt lat="46.67946" lon="5.61562">
        <ele>523</ele>
        <time>2025-10-10T12:20:46.501+00:00</time>
      </trkpt>
      <trkpt lat="46.67948" lon="5.61554">
        <ele>523</ele>
        <time>2025-10-10T12:20:51.054+00:00</time>
      </trkpt>
      <trkpt lat="46.67951" lon="5.61546">
        <ele>523</ele>
        <time>2025-10-10T12:20:55.328+00:00</time>
      </trkpt>
      <trkpt lat="46.67953" lon="5.61539">
        <ele>519</ele>
        <time>2025-10-10T12:20:59.525+00:00</time>
      </trkpt>
      <trkpt lat="46.67956" lon="5.6153">
        <ele>519</ele>
        <time>2025-10-10T12:21:04.464+00:00</time>
      </trkpt>
      <trkpt lat="46.67957" lon="5.61523">
        <ele>519</ele>
        <time>2025-10-10T12:21:08.501+00:00</time>
      </trkpt>
      <trkpt lat="46.67959" lon="5.61514">
        <ele>523</ele>
        <time>2025-10-10T12:21:13.029+00:00</time>
      </trkpt>
      <trkpt lat="46.67961" lon="5.61506">
        <ele>520</ele>
        <time>2025-10-10T12:21:17.303+00:00</time>
      </trkpt>
      <trkpt lat="46.67963" lon="5.61499">
        <ele>520</ele>
        <time>2025-10-10T12:21:21.480+00:00</time>
      </trkpt>
      <trkpt lat="46.67966" lon="5.61492">
        <ele>520</ele>
        <time>2025-10-10T12:21:25.685+00:00</time>
      </trkpt>
      <trkpt lat="46.67968" lon="5.61484">
        <ele>520</ele>
        <time>2025-10-10T12:21:29.904+00:00</time>
      </trkpt>
      <trkpt lat="46.67969" lon="5.61476">
        <ele>520</ele>
        <time>2025-10-10T12:21:34.083+00:00</time>
      </trkpt>
      <trkpt lat="46.6797" lon="5.6147">
        <ele>520</ele>
        <time>2025-10-10T12:21:38.503+00:00</time>
      </trkpt>
      <trkpt lat="46.67973" lon="5.61462">
        <ele>520</ele>
        <time>2025-10-10T12:21:43.501+00:00</time>
      </trkpt>
      <trkpt lat="46.67976" lon="5.61455">
        <ele>520</ele>
        <time>2025-10-10T12:21:48.040+00:00</time>
      </trkpt>
      <trkpt lat="46.67978" lon="5.61448">
        <ele>520</ele>
        <time>2025-10-10T12:21:52.504+00:00</time>
      </trkpt>
      <trkpt lat="46.6798" lon="5.61441">
        <ele>520</ele>
        <time>2025-10-10T12:21:56.566+00:00</time>
      </trkpt>
      <trkpt lat="46.67982" lon="5.61434">
        <ele>520</ele>
        <time>2025-10-10T12:22:00.646+00:00</time>
      </trkpt>
      <trkpt lat="46.67985" lon="5.61427">
        <ele>521</ele>
        <time>2025-10-10T12:22:05.106+00:00</time>
      </trkpt>
      <trkpt lat="46.67986" lon="5.61422">
        <ele>521</ele>
        <time>2025-10-10T12:22:09.505+00:00</time>
      </trkpt>
      <trkpt lat="46.67987" lon="5.61416">
        <ele>520</ele>
        <time>2025-10-10T12:22:13.867+00:00</time>
      </trkpt>
      <trkpt lat="46.67989" lon="5.61408">
        <ele>520</ele>
        <time>2025-10-10T12:22:18.329+00:00</time>
      </trkpt>
      <trkpt lat="46.67991" lon="5.61403">
        <ele>522</ele>
        <time>2025-10-10T12:22:22.724+00:00</time>
      </trkpt>
      <trkpt lat="46.67994" lon="5.61396">
        <ele>522</ele>
        <time>2025-10-10T12:22:27.346+00:00</time>
      </trkpt>
      <trkpt lat="46.67996" lon="5.6139">
        <ele>522</ele>
        <time>2025-10-10T12:22:31.360+00:00</time>
      </trkpt>
      <trkpt lat="46.67996" lon="5.61385">
        <ele>522</ele>
        <time>2025-10-10T12:22:35.512+00:00</time>
      </trkpt>
      <trkpt lat="46.67997" lon="5.6138">
        <ele>522</ele>
        <time>2025-10-10T12:22:40.254+00:00</time>
      </trkpt>
      <trkpt lat="46.67998" lon="5.61375">
        <ele>525</ele>
        <time>2025-10-10T12:22:44.438+00:00</time>
      </trkpt>
      <trkpt lat="46.67999" lon="5.61371">
        <ele>525</ele>
        <time>2025-10-10T12:22:48.501+00:00</time>
      </trkpt>
      <trkpt lat="46.68" lon="5.61366">
        <ele>525</ele>
        <time>2025-10-10T12:22:52.704+00:00</time>
      </trkpt>
      <trkpt lat="46.68002" lon="5.6136">
        <ele>525</ele>
        <time>2025-10-10T12:22:57.485+00:00</time>
      </trkpt>
      <trkpt lat="46.68001" lon="5.61355">
        <ele>525</ele>
        <time>2025-10-10T12:23:02.257+00:00</time>
      </trkpt>
      <trkpt lat="46.68001" lon="5.61351">
        <ele>525</ele>
        <time>2025-10-10T12:23:07.006+00:00</time>
      </trkpt>
      <trkpt lat="46.68002" lon="5.61347">
        <ele>528</ele>
        <time>2025-10-10T12:23:11.066+00:00</time>
      </trkpt>
      <trkpt lat="46.68004" lon="5.61343">
        <ele>528</ele>
        <time>2025-10-10T12:23:15.409+00:00</time>
      </trkpt>
      <trkpt lat="46.68006" lon="5.6134">
        <ele>528</ele>
        <time>2025-10-10T12:23:20.502+00:00</time>
      </trkpt>
      <trkpt lat="46.68007" lon="5.61339">
        <ele>528</ele>
        <time>2025-10-10T12:23:25.409+00:00</time>
      </trkpt>
      <trkpt lat="46.68009" lon="5.61335">
        <ele>528</ele>
        <time>2025-10-10T12:23:29.500+00:00</time>
      </trkpt>
      <trkpt lat="46.6801" lon="5.6133">
        <ele>528</ele>
        <time>2025-10-10T12:23:34.503+00:00</time>
      </trkpt>
      <trkpt lat="46.6801" lon="5.61328">
        <ele>528</ele>
        <time>2025-10-10T12:23:38.505+00:00</time>
      </trkpt>
      <trkpt lat="46.68011" lon="5.61325">
        <ele>528</ele>
        <time>2025-10-10T12:23:43.125+00:00</time>
      </trkpt>
      <trkpt lat="46.68011" lon="5.61321">
        <ele>528</ele>
        <time>2025-10-10T12:23:47.500+00:00</time>
      </trkpt>
      <trkpt lat="46.68012" lon="5.61318">
        <ele>532</ele>
        <time>2025-10-10T12:23:52.501+00:00</time>
      </trkpt>
      <trkpt lat="46.68014" lon="5.61315">
        <ele>532</ele>
        <time>2025-10-10T12:23:57.479+00:00</time>
      </trkpt>
      <trkpt lat="46.68015" lon="5.61311">
        <ele>531</ele>
        <time>2025-10-10T12:24:01.504+00:00</time>
      </trkpt>
      <trkpt lat="46.68016" lon="5.61309">
        <ele>531</ele>
        <time>2025-10-10T12:24:06.044+00:00</time>
      </trkpt>
      <trkpt lat="46.68018" lon="5.61305">
        <ele>531</ele>
        <time>2025-10-10T12:24:10.501+00:00</time>
      </trkpt>
      <trkpt lat="46.68018" lon="5.61301">
        <ele>531</ele>
        <time>2025-10-10T12:24:15.284+00:00</time>
      </trkpt>
      <trkpt lat="46.68019" lon="5.61299">
        <ele>531</ele>
        <time>2025-10-10T12:24:19.503+00:00</time>
      </trkpt>
      <trkpt lat="46.6802" lon="5.61297">
        <ele>531</ele>
        <time>2025-10-10T12:24:23.502+00:00</time>
      </trkpt>
      <trkpt lat="46.68021" lon="5.61294">
        <ele>531</ele>
        <time>2025-10-10T12:24:28.505+00:00</time>
      </trkpt>
      <trkpt lat="46.68021" lon="5.61292">
        <ele>531</ele>
        <time>2025-10-10T12:24:33.475+00:00</time>
      </trkpt>
      <trkpt lat="46.68022" lon="5.61286">
        <ele>537</ele>
        <time>2025-10-10T12:24:37.509+00:00</time>
      </trkpt>
      <trkpt lat="46.68022" lon="5.61282">
        <ele>537</ele>
        <time>2025-10-10T12:24:42.504+00:00</time>
      </trkpt>
      <trkpt lat="46.68024" lon="5.61276">
        <ele>537</ele>
        <time>2025-10-10T12:24:56.296+00:00</time>
      </trkpt>
      <trkpt lat="46.68023" lon="5.61276">
        <ele>537</ele>
        <time>2025-10-10T12:25:01.191+00:00</time>
      </trkpt>
      <trkpt lat="46.68024" lon="5.61274">
        <ele>537</ele>
        <time>2025-10-10T12:25:05.955+00:00</time>
      </trkpt>
      <trkpt lat="46.68024" lon="5.61271">
        <ele>537</ele>
        <time>2025-10-10T12:25:10.135+00:00</time>
      </trkpt>
      <trkpt lat="46.68025" lon="5.61267">
        <ele>537</ele>
        <time>2025-10-10T12:25:14.474+00:00</time>
      </trkpt>
      <trkpt lat="46.68027" lon="5.61263">
        <ele>546</ele>
        <time>2025-10-10T12:25:19.110+00:00</time>
      </trkpt>
      <trkpt lat="46.68029" lon="5.6126">
        <ele>546</ele>
        <time>2025-10-10T12:25:23.503+00:00</time>
      </trkpt>
      <trkpt lat="46.6803" lon="5.61256">
        <ele>546</ele>
        <time>2025-10-10T12:25:27.847+00:00</time>
      </trkpt>
      <trkpt lat="46.68031" lon="5.61252">
        <ele>546</ele>
        <time>2025-10-10T12:25:32.367+00:00</time>
      </trkpt>
      <trkpt lat="46.68033" lon="5.61249">
        <ele>546</ele>
        <time>2025-10-10T12:25:36.508+00:00</time>
      </trkpt>
      <trkpt lat="46.68033" lon="5.61244">
        <ele>546</ele>
        <time>2025-10-10T12:25:40.788+00:00</time>
      </trkpt>
      <trkpt lat="46.68034" lon="5.6124">
        <ele>546</ele>
        <time>2025-10-10T12:25:45.390+00:00</time>
      </trkpt>
      <trkpt lat="46.68036" lon="5.61235">
        <ele>551</ele>
        <time>2025-10-10T12:25:50.030+00:00</time>
      </trkpt>
      <trkpt lat="46.68038" lon="5.6123">
        <ele>551</ele>
        <time>2025-10-10T12:25:54.501+00:00</time>
      </trkpt>
      <trkpt lat="46.6804" lon="5.61224">
        <ele>551</ele>
        <time>2025-10-10T12:25:59.502+00:00</time>
      </trkpt>
      <trkpt lat="46.68041" lon="5.61219">
        <ele>551</ele>
        <time>2025-10-10T12:26:03.996+00:00</time>
      </trkpt>
      <trkpt lat="46.68043" lon="5.61215">
        <ele>554</ele>
        <time>2025-10-10T12:26:08.182+00:00</time>
      </trkpt>
      <trkpt lat="46.68045" lon="5.61211">
        <ele>554</ele>
        <time>2025-10-10T12:26:12.501+00:00</time>
      </trkpt>
      <trkpt lat="46.68047" lon="5.61207">
        <ele>555</ele>
        <time>2025-10-10T12:26:17.094+00:00</time>
      </trkpt>
      <trkpt lat="46.68048" lon="5.61202">
        <ele>555</ele>
        <time>2025-10-10T12:26:21.214+00:00</time>
      </trkpt>
      <trkpt lat="46.6805" lon="5.61198">
        <ele>555</ele>
        <time>2025-10-10T12:26:25.736+00:00</time>
      </trkpt>
      <trkpt lat="46.68052" lon="5.61193">
        <ele>555</ele>
        <time>2025-10-10T12:26:30.154+00:00</time>
      </trkpt>
      <trkpt lat="46.68054" lon="5.61188">
        <ele>555</ele>
        <time>2025-10-10T12:26:34.663+00:00</time>
      </trkpt>
      <trkpt lat="46.68055" lon="5.61182">
        <ele>555</ele>
        <time>2025-10-10T12:26:38.994+00:00</time>
      </trkpt>
      <trkpt lat="46.68056" lon="5.61176">
        <ele>556</ele>
        <time>2025-10-10T12:26:43.245+00:00</time>
      </trkpt>
      <trkpt lat="46.68054" lon="5.61169">
        <ele>556</ele>
        <time>2025-10-10T12:26:47.798+00:00</time>
      </trkpt>
      <trkpt lat="46.68053" lon="5.61162">
        <ele>556</ele>
        <time>2025-10-10T12:26:52.289+00:00</time>
      </trkpt>
      <trkpt lat="46.68054" lon="5.61154">
        <ele>556</ele>
        <time>2025-10-10T12:26:56.689+00:00</time>
      </trkpt>
      <trkpt lat="46.68054" lon="5.61147">
        <ele>557</ele>
        <time>2025-10-10T12:27:01.211+00:00</time>
      </trkpt>
      <trkpt lat="46.68058" lon="5.61142">
        <ele>557</ele>
        <time>2025-10-10T12:27:05.467+00:00</time>
      </trkpt>
      <trkpt lat="46.68062" lon="5.61139">
        <ele>557</ele>
        <time>2025-10-10T12:27:09.507+00:00</time>
      </trkpt>
      <trkpt lat="46.68064" lon="5.61134">
        <ele>557</ele>
        <time>2025-10-10T12:27:13.504+00:00</time>
      </trkpt>
      <trkpt lat="46.68066" lon="5.61131">
        <ele>557</ele>
        <time>2025-10-10T12:27:18.510+00:00</time>
      </trkpt>
      <trkpt lat="46.6807" lon="5.61129">
        <ele>560</ele>
        <time>2025-10-10T12:27:23.289+00:00</time>
      </trkpt>
      <trkpt lat="46.68073" lon="5.61128">
        <ele>560</ele>
        <time>2025-10-10T12:27:27.411+00:00</time>
      </trkpt>
      <trkpt lat="46.68076" lon="5.6113">
        <ele>560</ele>
        <time>2025-10-10T12:27:31.512+00:00</time>
      </trkpt>
      <trkpt lat="46.6808" lon="5.61134">
        <ele>560</ele>
        <time>2025-10-10T12:27:36.504+00:00</time>
      </trkpt>
      <trkpt lat="46.68083" lon="5.61136">
        <ele>560</ele>
        <time>2025-10-10T12:27:41.152+00:00</time>
      </trkpt>
      <trkpt lat="46.68086" lon="5.61136">
        <ele>560</ele>
        <time>2025-10-10T12:27:45.502+00:00</time>
      </trkpt>
      <trkpt lat="46.6809" lon="5.61135">
        <ele>560</ele>
        <time>2025-10-10T12:27:50.409+00:00</time>
      </trkpt>
      <trkpt lat="46.68094" lon="5.61131">
        <ele>560</ele>
        <time>2025-10-10T12:27:54.504+00:00</time>
      </trkpt>
      <trkpt lat="46.68097" lon="5.61127">
        <ele>560</ele>
        <time>2025-10-10T12:27:59.024+00:00</time>
      </trkpt>
      <trkpt lat="46.68101" lon="5.61126">
        <ele>559</ele>
        <time>2025-10-10T12:28:03.508+00:00</time>
      </trkpt>
      <trkpt lat="46.68105" lon="5.61127">
        <ele>559</ele>
        <time>2025-10-10T12:28:07.750+00:00</time>
      </trkpt>
      <trkpt lat="46.68109" lon="5.61126">
        <ele>559</ele>
        <time>2025-10-10T12:28:12.086+00:00</time>
      </trkpt>
      <trkpt lat="46.68113" lon="5.61123">
        <ele>563</ele>
        <time>2025-10-10T12:28:16.469+00:00</time>
      </trkpt>
      <trkpt lat="46.68117" lon="5.61117">
        <ele>563</ele>
        <time>2025-10-10T12:28:20.666+00:00</time>
      </trkpt>
      <trkpt lat="46.68121" lon="5.61113">
        <ele>563</ele>
        <time>2025-10-10T12:28:24.968+00:00</time>
      </trkpt>
      <trkpt lat="46.68124" lon="5.61108">
        <ele>563</ele>
        <time>2025-10-10T12:28:29.010+00:00</time>
      </trkpt>
      <trkpt lat="46.68127" lon="5.61101">
        <ele>560</ele>
        <time>2025-10-10T12:28:33.489+00:00</time>
      </trkpt>
      <trkpt lat="46.6813" lon="5.61092">
        <ele>562</ele>
        <time>2025-10-10T12:28:37.950+00:00</time>
      </trkpt>
      <trkpt lat="46.68132" lon="5.61085">
        <ele>562</ele>
        <time>2025-10-10T12:28:42.250+00:00</time>
      </trkpt>
      <trkpt lat="46.68135" lon="5.61078">
        <ele>562</ele>
        <time>2025-10-10T12:28:46.490+00:00</time>
      </trkpt>
      <trkpt lat="46.68136" lon="5.61071">
        <ele>562</ele>
        <time>2025-10-10T12:28:50.918+00:00</time>
      </trkpt>
      <trkpt lat="46.6814" lon="5.61063">
        <ele>561</ele>
        <time>2025-10-10T12:28:55.158+00:00</time>
      </trkpt>
      <trkpt lat="46.68142" lon="5.61055">
        <ele>561</ele>
        <time>2025-10-10T12:28:59.592+00:00</time>
      </trkpt>
      <trkpt lat="46.68145" lon="5.61048">
        <ele>561</ele>
        <time>2025-10-10T12:29:03.816+00:00</time>
      </trkpt>
      <trkpt lat="46.68147" lon="5.61041">
        <ele>560</ele>
        <time>2025-10-10T12:29:08.337+00:00</time>
      </trkpt>
      <trkpt lat="46.68145" lon="5.61032">
        <ele>560</ele>
        <time>2025-10-10T12:29:12.432+00:00</time>
      </trkpt>
      <trkpt lat="46.68146" lon="5.61026">
        <ele>560</ele>
        <time>2025-10-10T12:29:16.511+00:00</time>
      </trkpt>
      <trkpt lat="46.68145" lon="5.61018">
        <ele>560</ele>
        <time>2025-10-10T12:29:21.116+00:00</time>
      </trkpt>
      <trkpt lat="46.68145" lon="5.61011">
        <ele>559</ele>
        <time>2025-10-10T12:29:25.314+00:00</time>
      </trkpt>
      <trkpt lat="46.68143" lon="5.61005">
        <ele>559</ele>
        <time>2025-10-10T12:29:29.896+00:00</time>
      </trkpt>
      <trkpt lat="46.68141" lon="5.61">
        <ele>559</ele>
        <time>2025-10-10T12:29:33.940+00:00</time>
      </trkpt>
      <trkpt lat="46.68137" lon="5.60995">
        <ele>559</ele>
        <time>2025-10-10T12:29:38.093+00:00</time>
      </trkpt>
      <trkpt lat="46.68133" lon="5.6099">
        <ele>559</ele>
        <time>2025-10-10T12:29:42.246+00:00</time>
      </trkpt>
      <trkpt lat="46.68132" lon="5.60985">
        <ele>558</ele>
        <time>2025-10-10T12:29:46.480+00:00</time>
      </trkpt>
      <trkpt lat="46.68129" lon="5.60979">
        <ele>558</ele>
        <time>2025-10-10T12:29:50.504+00:00</time>
      </trkpt>
      <trkpt lat="46.68125" lon="5.60975">
        <ele>558</ele>
        <time>2025-10-10T12:29:55.080+00:00</time>
      </trkpt>
      <trkpt lat="46.68121" lon="5.6097">
        <ele>557</ele>
        <time>2025-10-10T12:29:59.097+00:00</time>
      </trkpt>
      <trkpt lat="46.68117" lon="5.60969">
        <ele>557</ele>
        <time>2025-10-10T12:31:23.502+00:00</time>
      </trkpt>
      <trkpt lat="46.68116" lon="5.60968">
        <ele>557</ele>
        <time>2025-10-10T12:31:28.501+00:00</time>
      </trkpt>
      <trkpt lat="46.68113" lon="5.60967">
        <ele>557</ele>
        <time>2025-10-10T12:31:33.503+00:00</time>
      </trkpt>
      <trkpt lat="46.68109" lon="5.60963">
        <ele>557</ele>
        <time>2025-10-10T12:31:38.006+00:00</time>
      </trkpt>
      <trkpt lat="46.68105" lon="5.60958">
        <ele>556</ele>
        <time>2025-10-10T12:31:42.400+00:00</time>
      </trkpt>
      <trkpt lat="46.681" lon="5.60953">
        <ele>556</ele>
        <time>2025-10-10T12:31:46.878+00:00</time>
      </trkpt>
      <trkpt lat="46.68097" lon="5.60949">
        <ele>554</ele>
        <time>2025-10-10T12:31:51.077+00:00</time>
      </trkpt>
      <trkpt lat="46.68093" lon="5.60946">
        <ele>554</ele>
        <time>2025-10-10T12:31:55.377+00:00</time>
      </trkpt>
      <trkpt lat="46.68088" lon="5.60944">
        <ele>554</ele>
        <time>2025-10-10T12:31:59.778+00:00</time>
      </trkpt>
      <trkpt lat="46.68084" lon="5.60941">
        <ele>554</ele>
        <time>2025-10-10T12:32:04.508+00:00</time>
      </trkpt>
      <trkpt lat="46.68081" lon="5.60935">
        <ele>554</ele>
        <time>2025-10-10T12:32:09.060+00:00</time>
      </trkpt>
      <trkpt lat="46.6808" lon="5.60929">
        <ele>553</ele>
        <time>2025-10-10T12:32:13.505+00:00</time>
      </trkpt>
      <trkpt lat="46.68078" lon="5.60922">
        <ele>553</ele>
        <time>2025-10-10T12:32:17.779+00:00</time>
      </trkpt>
      <trkpt lat="46.68076" lon="5.60915">
        <ele>553</ele>
        <time>2025-10-10T12:32:22.217+00:00</time>
      </trkpt>
      <trkpt lat="46.68075" lon="5.60908">
        <ele>553</ele>
        <time>2025-10-10T12:32:26.500+00:00</time>
      </trkpt>
      <trkpt lat="46.68073" lon="5.60901">
        <ele>553</ele>
        <time>2025-10-10T12:32:30.740+00:00</time>
      </trkpt>
      <trkpt lat="46.68071" lon="5.60895">
        <ele>553</ele>
        <time>2025-10-10T12:32:35.262+00:00</time>
      </trkpt>
      <trkpt lat="46.68069" lon="5.60888">
        <ele>553</ele>
        <time>2025-10-10T12:32:39.355+00:00</time>
      </trkpt>
      <trkpt lat="46.68067" lon="5.60882">
        <ele>553</ele>
        <time>2025-10-10T12:32:43.862+00:00</time>
      </trkpt>
      <trkpt lat="46.68065" lon="5.60875">
        <ele>553</ele>
        <time>2025-10-10T12:32:48.311+00:00</time>
      </trkpt>
      <trkpt lat="46.68063" lon="5.60868">
        <ele>553</ele>
        <time>2025-10-10T12:32:52.920+00:00</time>
      </trkpt>
      <trkpt lat="46.68061" lon="5.60861">
        <ele>553</ele>
        <time>2025-10-10T12:32:57.505+00:00</time>
      </trkpt>
      <trkpt lat="46.68059" lon="5.60853">
        <ele>553</ele>
        <time>2025-10-10T12:33:02.440+00:00</time>
      </trkpt>
      <trkpt lat="46.68058" lon="5.60847">
        <ele>553</ele>
        <time>2025-10-10T12:33:06.501+00:00</time>
      </trkpt>
      <trkpt lat="46.68056" lon="5.60839">
        <ele>553</ele>
        <time>2025-10-10T12:33:11.337+00:00</time>
      </trkpt>
      <trkpt lat="46.68054" lon="5.60832">
        <ele>553</ele>
        <time>2025-10-10T12:33:16.416+00:00</time>
      </trkpt>
      <trkpt lat="46.68053" lon="5.60826">
        <ele>553</ele>
        <time>2025-10-10T12:33:20.500+00:00</time>
      </trkpt>
      <trkpt lat="46.68051" lon="5.6082">
        <ele>553</ele>
        <time>2025-10-10T12:33:24.876+00:00</time>
      </trkpt>
      <trkpt lat="46.6805" lon="5.60814">
        <ele>554</ele>
        <time>2025-10-10T12:33:29.116+00:00</time>
      </trkpt>
      <trkpt lat="46.68048" lon="5.6081">
        <ele>554</ele>
        <time>2025-10-10T12:33:33.503+00:00</time>
      </trkpt>
      <trkpt lat="46.68045" lon="5.60803">
        <ele>554</ele>
        <time>2025-10-10T12:33:38.236+00:00</time>
      </trkpt>
      <trkpt lat="46.68044" lon="5.60797">
        <ele>554</ele>
        <time>2025-10-10T12:33:42.504+00:00</time>
      </trkpt>
      <trkpt lat="46.6804" lon="5.6079">
        <ele>556</ele>
        <time>2025-10-10T12:33:46.998+00:00</time>
      </trkpt>
      <trkpt lat="46.6804" lon="5.60783">
        <ele>556</ele>
        <time>2025-10-10T12:33:51.506+00:00</time>
      </trkpt>
      <trkpt lat="46.68039" lon="5.60776">
        <ele>556</ele>
        <time>2025-10-10T12:33:56.016+00:00</time>
      </trkpt>
      <trkpt lat="46.68039" lon="5.60768">
        <ele>556</ele>
        <time>2025-10-10T12:34:00.418+00:00</time>
      </trkpt>
      <trkpt lat="46.68037" lon="5.60761">
        <ele>554</ele>
        <time>2025-10-10T12:34:04.778+00:00</time>
      </trkpt>
      <trkpt lat="46.68036" lon="5.60755">
        <ele>554</ele>
        <time>2025-10-10T12:34:09.137+00:00</time>
      </trkpt>
      <trkpt lat="46.68034" lon="5.60748">
        <ele>554</ele>
        <time>2025-10-10T12:34:13.503+00:00</time>
      </trkpt>
      <trkpt lat="46.68033" lon="5.60742">
        <ele>554</ele>
        <time>2025-10-10T12:34:17.823+00:00</time>
      </trkpt>
      <trkpt lat="46.68032" lon="5.60735">
        <ele>553</ele>
        <time>2025-10-10T12:34:22.413+00:00</time>
      </trkpt>
      <trkpt lat="46.68031" lon="5.60729">
        <ele>553</ele>
        <time>2025-10-10T12:34:26.502+00:00</time>
      </trkpt>
      <trkpt lat="46.68029" lon="5.60722">
        <ele>553</ele>
        <time>2025-10-10T12:34:31.037+00:00</time>
      </trkpt>
      <trkpt lat="46.68027" lon="5.60715">
        <ele>553</ele>
        <time>2025-10-10T12:34:35.252+00:00</time>
      </trkpt>
      <trkpt lat="46.68024" lon="5.60708">
        <ele>553</ele>
        <time>2025-10-10T12:34:39.799+00:00</time>
      </trkpt>
      <trkpt lat="46.68021" lon="5.60703">
        <ele>553</ele>
        <time>2025-10-10T12:34:44.193+00:00</time>
      </trkpt>
      <trkpt lat="46.68018" lon="5.60698">
        <ele>553</ele>
        <time>2025-10-10T12:34:48.698+00:00</time>
      </trkpt>
      <trkpt lat="46.68015" lon="5.60692">
        <ele>553</ele>
        <time>2025-10-10T12:34:53.279+00:00</time>
      </trkpt>
      <trkpt lat="46.68013" lon="5.60686">
        <ele>555</ele>
        <time>2025-10-10T12:34:57.894+00:00</time>
      </trkpt>
      <trkpt lat="46.68011" lon="5.60683">
        <ele>555</ele>
        <time>2025-10-10T12:35:02.399+00:00</time>
      </trkpt>
      <trkpt lat="46.68006" lon="5.60678">
        <ele>555</ele>
        <time>2025-10-10T12:35:06.818+00:00</time>
      </trkpt>
      <trkpt lat="46.68001" lon="5.60672">
        <ele>555</ele>
        <time>2025-10-10T12:35:11.375+00:00</time>
      </trkpt>
      <trkpt lat="46.67999" lon="5.60666">
        <ele>555</ele>
        <time>2025-10-10T12:35:15.699+00:00</time>
      </trkpt>
      <trkpt lat="46.67995" lon="5.60662">
        <ele>555</ele>
        <time>2025-10-10T12:35:20.196+00:00</time>
      </trkpt>
      <trkpt lat="46.67992" lon="5.60655">
        <ele>555</ele>
        <time>2025-10-10T12:35:24.676+00:00</time>
      </trkpt>
      <trkpt lat="46.67991" lon="5.60647">
        <ele>556</ele>
        <time>2025-10-10T12:35:28.856+00:00</time>
      </trkpt>
      <trkpt lat="46.67991" lon="5.60639">
        <ele>556</ele>
        <time>2025-10-10T12:35:33.197+00:00</time>
      </trkpt>
      <trkpt lat="46.67989" lon="5.60632">
        <ele>556</ele>
        <time>2025-10-10T12:35:37.501+00:00</time>
      </trkpt>
      <trkpt lat="46.67986" lon="5.60626">
        <ele>556</ele>
        <time>2025-10-10T12:35:41.772+00:00</time>
      </trkpt>
      <trkpt lat="46.67983" lon="5.6062">
        <ele>558</ele>
        <time>2025-10-10T12:35:46.056+00:00</time>
      </trkpt>
      <trkpt lat="46.6798" lon="5.60613">
        <ele>558</ele>
        <time>2025-10-10T12:35:50.235+00:00</time>
      </trkpt>
      <trkpt lat="46.67978" lon="5.60607">
        <ele>558</ele>
        <time>2025-10-10T12:35:54.500+00:00</time>
      </trkpt>
      <trkpt lat="46.67976" lon="5.606">
        <ele>558</ele>
        <time>2025-10-10T12:35:58.776+00:00</time>
      </trkpt>
      <trkpt lat="46.67974" lon="5.60594">
        <ele>557</ele>
        <time>2025-10-10T12:36:03.058+00:00</time>
      </trkpt>
      <trkpt lat="46.67971" lon="5.60588">
        <ele>557</ele>
        <time>2025-10-10T12:36:07.256+00:00</time>
      </trkpt>
      <trkpt lat="46.67969" lon="5.60581">
        <ele>557</ele>
        <time>2025-10-10T12:36:11.507+00:00</time>
      </trkpt>
      <trkpt lat="46.67966" lon="5.60575">
        <ele>557</ele>
        <time>2025-10-10T12:36:15.798+00:00</time>
      </trkpt>
      <trkpt lat="46.67965" lon="5.60568">
        <ele>557</ele>
        <time>2025-10-10T12:36:19.935+00:00</time>
      </trkpt>
      <trkpt lat="46.67964" lon="5.6056">
        <ele>557</ele>
        <time>2025-10-10T12:36:24.502+00:00</time>
      </trkpt>
      <trkpt lat="46.67963" lon="5.60552">
        <ele>557</ele>
        <time>2025-10-10T12:36:29.253+00:00</time>
      </trkpt>
      <trkpt lat="46.67963" lon="5.60544">
        <ele>557</ele>
        <time>2025-10-10T12:36:33.977+00:00</time>
      </trkpt>
      <trkpt lat="46.67964" lon="5.60535">
        <ele>556</ele>
        <time>2025-10-10T12:36:38.503+00:00</time>
      </trkpt>
      <trkpt lat="46.67963" lon="5.60527">
        <ele>556</ele>
        <time>2025-10-10T12:36:43.011+00:00</time>
      </trkpt>
      <trkpt lat="46.67962" lon="5.6052">
        <ele>556</ele>
        <time>2025-10-10T12:36:47.158+00:00</time>
      </trkpt>
      <trkpt lat="46.6796" lon="5.60513">
        <ele>556</ele>
        <time>2025-10-10T12:36:51.278+00:00</time>
      </trkpt>
      <trkpt lat="46.67959" lon="5.60505">
        <ele>556</ele>
        <time>2025-10-10T12:36:55.757+00:00</time>
      </trkpt>
      <trkpt lat="46.67957" lon="5.60497">
        <ele>554</ele>
        <time>2025-10-10T12:37:00.315+00:00</time>
      </trkpt>
      <trkpt lat="46.67955" lon="5.60488">
        <ele>554</ele>
        <time>2025-10-10T12:37:05.372+00:00</time>
      </trkpt>
      <trkpt lat="46.67952" lon="5.6048">
        <ele>552</ele>
        <time>2025-10-10T12:37:09.505+00:00</time>
      </trkpt>
      <trkpt lat="46.67949" lon="5.60474">
        <ele>552</ele>
        <time>2025-10-10T12:37:13.998+00:00</time>
      </trkpt>
      <trkpt lat="46.67945" lon="5.60467">
        <ele>552</ele>
        <time>2025-10-10T12:37:18.501+00:00</time>
      </trkpt>
      <trkpt lat="46.67942" lon="5.6046">
        <ele>552</ele>
        <time>2025-10-10T12:37:23.357+00:00</time>
      </trkpt>
      <trkpt lat="46.67939" lon="5.60452">
        <ele>553</ele>
        <time>2025-10-10T12:37:28.501+00:00</time>
      </trkpt>
      <trkpt lat="46.67938" lon="5.60444">
        <ele>553</ele>
        <time>2025-10-10T12:37:33.031+00:00</time>
      </trkpt>
      <trkpt lat="46.67936" lon="5.60438">
        <ele>553</ele>
        <time>2025-10-10T12:37:37.375+00:00</time>
      </trkpt>
      <trkpt lat="46.67933" lon="5.60432">
        <ele>553</ele>
        <time>2025-10-10T12:37:41.500+00:00</time>
      </trkpt>
      <trkpt lat="46.6793" lon="5.60426">
        <ele>553</ele>
        <time>2025-10-10T12:37:46.332+00:00</time>
      </trkpt>
      <trkpt lat="46.67929" lon="5.60419">
        <ele>553</ele>
        <time>2025-10-10T12:37:50.777+00:00</time>
      </trkpt>
      <trkpt lat="46.67928" lon="5.60411">
        <ele>553</ele>
        <time>2025-10-10T12:37:54.872+00:00</time>
      </trkpt>
      <trkpt lat="46.67926" lon="5.60403">
        <ele>553</ele>
        <time>2025-10-10T12:37:59.502+00:00</time>
      </trkpt>
      <trkpt lat="46.67922" lon="5.60396">
        <ele>553</ele>
        <time>2025-10-10T12:38:03.839+00:00</time>
      </trkpt>
      <trkpt lat="46.67919" lon="5.60389">
        <ele>553</ele>
        <time>2025-10-10T12:38:08.292+00:00</time>
      </trkpt>
      <trkpt lat="46.67916" lon="5.60384">
        <ele>553</ele>
        <time>2025-10-10T12:38:12.379+00:00</time>
      </trkpt>
      <trkpt lat="46.67912" lon="5.60378">
        <ele>553</ele>
        <time>2025-10-10T12:38:16.918+00:00</time>
      </trkpt>
      <trkpt lat="46.67909" lon="5.60372">
        <ele>551</ele>
        <time>2025-10-10T12:38:21.502+00:00</time>
      </trkpt>
      <trkpt lat="46.67905" lon="5.60365">
        <ele>551</ele>
        <time>2025-10-10T12:38:26.355+00:00</time>
      </trkpt>
      <trkpt lat="46.67902" lon="5.60359">
        <ele>547</ele>
        <time>2025-10-10T12:38:30.501+00:00</time>
      </trkpt>
      <trkpt lat="46.67899" lon="5.60352">
        <ele>547</ele>
        <time>2025-10-10T12:38:34.919+00:00</time>
      </trkpt>
      <trkpt lat="46.67895" lon="5.60345">
        <ele>546</ele>
        <time>2025-10-10T12:38:39.457+00:00</time>
      </trkpt>
      <trkpt lat="46.67891" lon="5.60338">
        <ele>546</ele>
        <time>2025-10-10T12:38:44.116+00:00</time>
      </trkpt>
      <trkpt lat="46.67888" lon="5.60333">
        <ele>546</ele>
        <time>2025-10-10T12:38:48.255+00:00</time>
      </trkpt>
      <trkpt lat="46.67886" lon="5.60326">
        <ele>546</ele>
        <time>2025-10-10T12:38:52.315+00:00</time>
      </trkpt>
      <trkpt lat="46.67883" lon="5.60321">
        <ele>546</ele>
        <time>2025-10-10T12:38:56.879+00:00</time>
      </trkpt>
      <trkpt lat="46.67879" lon="5.60316">
        <ele>546</ele>
        <time>2025-10-10T12:39:01.505+00:00</time>
      </trkpt>
      <trkpt lat="46.67874" lon="5.60311">
        <ele>543</ele>
        <time>2025-10-10T12:39:06.095+00:00</time>
      </trkpt>
      <trkpt lat="46.6787" lon="5.60306">
        <ele>543</ele>
        <time>2025-10-10T12:39:10.506+00:00</time>
      </trkpt>
      <trkpt lat="46.67866" lon="5.60301">
        <ele>543</ele>
        <time>2025-10-10T12:39:14.812+00:00</time>
      </trkpt>
      <trkpt lat="46.67862" lon="5.60297">
        <ele>543</ele>
        <time>2025-10-10T12:39:18.976+00:00</time>
      </trkpt>
      <trkpt lat="46.67858" lon="5.60292">
        <ele>543</ele>
        <time>2025-10-10T12:39:23.002+00:00</time>
      </trkpt>
      <trkpt lat="46.67855" lon="5.60288">
        <ele>542</ele>
        <time>2025-10-10T12:39:27.013+00:00</time>
      </trkpt>
      <trkpt lat="46.67851" lon="5.60283">
        <ele>542</ele>
        <time>2025-10-10T12:39:31.295+00:00</time>
      </trkpt>
      <trkpt lat="46.67847" lon="5.60279">
        <ele>542</ele>
        <time>2025-10-10T12:39:35.417+00:00</time>
      </trkpt>
      <trkpt lat="46.67843" lon="5.60275">
        <ele>542</ele>
        <time>2025-10-10T12:39:39.496+00:00</time>
      </trkpt>
      <trkpt lat="46.67839" lon="5.60269">
        <ele>542</ele>
        <time>2025-10-10T12:39:44.169+00:00</time>
      </trkpt>
      <trkpt lat="46.67836" lon="5.60264">
        <ele>542</ele>
        <time>2025-10-10T12:39:48.350+00:00</time>
      </trkpt>
      <trkpt lat="46.67833" lon="5.60258">
        <ele>542</ele>
        <time>2025-10-10T12:39:52.976+00:00</time>
      </trkpt>
      <trkpt lat="46.67829" lon="5.60253">
        <ele>542</ele>
        <time>2025-10-10T12:39:57.053+00:00</time>
      </trkpt>
      <trkpt lat="46.67826" lon="5.60247">
        <ele>542</ele>
        <time>2025-10-10T12:40:01.189+00:00</time>
      </trkpt>
      <trkpt lat="46.67822" lon="5.60242">
        <ele>542</ele>
        <time>2025-10-10T12:40:05.277+00:00</time>
      </trkpt>
      <trkpt lat="46.67817" lon="5.60238">
        <ele>542</ele>
        <time>2025-10-10T12:40:09.789+00:00</time>
      </trkpt>
      <trkpt lat="46.67814" lon="5.60233">
        <ele>541</ele>
        <time>2025-10-10T12:40:13.970+00:00</time>
      </trkpt>
      <trkpt lat="46.67811" lon="5.60226">
        <ele>541</ele>
        <time>2025-10-10T12:40:18.416+00:00</time>
      </trkpt>
      <trkpt lat="46.67811" lon="5.60219">
        <ele>541</ele>
        <time>2025-10-10T12:40:22.503+00:00</time>
      </trkpt>
      <trkpt lat="46.6781" lon="5.60211">
        <ele>541</ele>
        <time>2025-10-10T12:40:27.075+00:00</time>
      </trkpt>
      <trkpt lat="46.6781" lon="5.60205">
        <ele>541</ele>
        <time>2025-10-10T12:40:31.095+00:00</time>
      </trkpt>
      <trkpt lat="46.67809" lon="5.60197">
        <ele>541</ele>
        <time>2025-10-10T12:40:35.501+00:00</time>
      </trkpt>
      <trkpt lat="46.67808" lon="5.60189">
        <ele>541</ele>
        <time>2025-10-10T12:40:39.702+00:00</time>
      </trkpt>
      <trkpt lat="46.67808" lon="5.60182">
        <ele>541</ele>
        <time>2025-10-10T12:40:44.155+00:00</time>
      </trkpt>
      <trkpt lat="46.67808" lon="5.60174">
        <ele>542</ele>
        <time>2025-10-10T12:40:48.489+00:00</time>
      </trkpt>
      <trkpt lat="46.67809" lon="5.60167">
        <ele>542</ele>
        <time>2025-10-10T12:40:52.501+00:00</time>
      </trkpt>
      <trkpt lat="46.67809" lon="5.60159">
        <ele>542</ele>
        <time>2025-10-10T12:40:57.056+00:00</time>
      </trkpt>
      <trkpt lat="46.67807" lon="5.60151">
        <ele>542</ele>
        <time>2025-10-10T12:41:01.270+00:00</time>
      </trkpt>
      <trkpt lat="46.67807" lon="5.60143">
        <ele>542</ele>
        <time>2025-10-10T12:41:05.502+00:00</time>
      </trkpt>
      <trkpt lat="46.67805" lon="5.60135">
        <ele>542</ele>
        <time>2025-10-10T12:41:09.852+00:00</time>
      </trkpt>
      <trkpt lat="46.67803" lon="5.60127">
        <ele>542</ele>
        <time>2025-10-10T12:41:14.152+00:00</time>
      </trkpt>
      <trkpt lat="46.67801" lon="5.60119">
        <ele>543</ele>
        <time>2025-10-10T12:41:18.411+00:00</time>
      </trkpt>
      <trkpt lat="46.678" lon="5.60111">
        <ele>543</ele>
        <time>2025-10-10T12:41:22.814+00:00</time>
      </trkpt>
      <trkpt lat="46.67798" lon="5.60104">
        <ele>543</ele>
        <time>2025-10-10T12:41:27.053+00:00</time>
      </trkpt>
      <trkpt lat="46.67796" lon="5.60096">
        <ele>544</ele>
        <time>2025-10-10T12:41:31.502+00:00</time>
      </trkpt>
      <trkpt lat="46.67794" lon="5.60089">
        <ele>544</ele>
        <time>2025-10-10T12:41:35.832+00:00</time>
      </trkpt>
      <trkpt lat="46.67792" lon="5.60082">
        <ele>544</ele>
        <time>2025-10-10T12:41:40.395+00:00</time>
      </trkpt>
      <trkpt lat="46.6779" lon="5.60074">
        <ele>546</ele>
        <time>2025-10-10T12:41:44.501+00:00</time>
      </trkpt>
      <trkpt lat="46.67788" lon="5.60068">
        <ele>547</ele>
        <time>2025-10-10T12:41:48.875+00:00</time>
      </trkpt>
      <trkpt lat="46.67786" lon="5.60061">
        <ele>547</ele>
        <time>2025-10-10T12:41:53.331+00:00</time>
      </trkpt>
      <trkpt lat="46.67783" lon="5.60054">
        <ele>547</ele>
        <time>2025-10-10T12:41:57.971+00:00</time>
      </trkpt>
      <trkpt lat="46.67781" lon="5.60047">
        <ele>547</ele>
        <time>2025-10-10T12:42:02.501+00:00</time>
      </trkpt>
      <trkpt lat="46.67776" lon="5.60039">
        <ele>547</ele>
        <time>2025-10-10T12:42:07.073+00:00</time>
      </trkpt>
      <trkpt lat="46.67773" lon="5.60034">
        <ele>547</ele>
        <time>2025-10-10T12:42:11.075+00:00</time>
      </trkpt>
      <trkpt lat="46.67769" lon="5.60028">
        <ele>547</ele>
        <time>2025-10-10T12:42:15.507+00:00</time>
      </trkpt>
      <trkpt lat="46.67767" lon="5.60021">
        <ele>547</ele>
        <time>2025-10-10T12:42:20.153+00:00</time>
      </trkpt>
      <trkpt lat="46.67764" lon="5.60016">
        <ele>547</ele>
        <time>2025-10-10T12:42:24.237+00:00</time>
      </trkpt>
      <trkpt lat="46.67761" lon="5.60008">
        <ele>545</ele>
        <time>2025-10-10T12:42:28.830+00:00</time>
      </trkpt>
      <trkpt lat="46.67759" lon="5.6">
        <ele>545</ele>
        <time>2025-10-10T12:42:33.256+00:00</time>
      </trkpt>
      <trkpt lat="46.67756" lon="5.59994">
        <ele>545</ele>
        <time>2025-10-10T12:42:37.497+00:00</time>
      </trkpt>
      <trkpt lat="46.67753" lon="5.59987">
        <ele>545</ele>
        <time>2025-10-10T12:42:41.992+00:00</time>
      </trkpt>
      <trkpt lat="46.6775" lon="5.59979">
        <ele>542</ele>
        <time>2025-10-10T12:42:46.505+00:00</time>
      </trkpt>
      <trkpt lat="46.67749" lon="5.59971">
        <ele>542</ele>
        <time>2025-10-10T12:42:50.611+00:00</time>
      </trkpt>
      <trkpt lat="46.67747" lon="5.59963">
        <ele>542</ele>
        <time>2025-10-10T12:42:54.952+00:00</time>
      </trkpt>
      <trkpt lat="46.67746" lon="5.59955">
        <ele>540</ele>
        <time>2025-10-10T12:42:59.271+00:00</time>
      </trkpt>
      <trkpt lat="46.67743" lon="5.59948">
        <ele>540</ele>
        <time>2025-10-10T12:43:03.731+00:00</time>
      </trkpt>
      <trkpt lat="46.6774" lon="5.59941">
        <ele>540</ele>
        <time>2025-10-10T12:43:08.211+00:00</time>
      </trkpt>
      <trkpt lat="46.67737" lon="5.59934">
        <ele>540</ele>
        <time>2025-10-10T12:43:12.654+00:00</time>
      </trkpt>
      <trkpt lat="46.67736" lon="5.59926">
        <ele>539</ele>
        <time>2025-10-10T12:43:17.014+00:00</time>
      </trkpt>
      <trkpt lat="46.67735" lon="5.59918">
        <ele>539</ele>
        <time>2025-10-10T12:43:21.356+00:00</time>
      </trkpt>
      <trkpt lat="46.67735" lon="5.59911">
        <ele>539</ele>
        <time>2025-10-10T12:43:25.502+00:00</time>
      </trkpt>
      <trkpt lat="46.67734" lon="5.59904">
        <ele>539</ele>
        <time>2025-10-10T12:43:29.675+00:00</time>
      </trkpt>
      <trkpt lat="46.67733" lon="5.59896">
        <ele>537</ele>
        <time>2025-10-10T12:43:34.052+00:00</time>
      </trkpt>
      <trkpt lat="46.67732" lon="5.59888">
        <ele>537</ele>
        <time>2025-10-10T12:43:38.453+00:00</time>
      </trkpt>
      <trkpt lat="46.67731" lon="5.5988">
        <ele>537</ele>
        <time>2025-10-10T12:43:42.992+00:00</time>
      </trkpt>
      <trkpt lat="46.67729" lon="5.59873">
        <ele>534</ele>
        <time>2025-10-10T12:43:47.472+00:00</time>
      </trkpt>
      <trkpt lat="46.67727" lon="5.59866">
        <ele>534</ele>
        <time>2025-10-10T12:43:51.592+00:00</time>
      </trkpt>
      <trkpt lat="46.67725" lon="5.59861">
        <ele>534</ele>
        <time>2025-10-10T12:43:55.993+00:00</time>
      </trkpt>
      <trkpt lat="46.67721" lon="5.59856">
        <ele>534</ele>
        <time>2025-10-10T12:44:00.311+00:00</time>
      </trkpt>
      <trkpt lat="46.67719" lon="5.5985">
        <ele>534</ele>
        <time>2025-10-10T12:44:04.696+00:00</time>
      </trkpt>
      <trkpt lat="46.67718" lon="5.59843">
        <ele>530</ele>
        <time>2025-10-10T12:44:08.714+00:00</time>
      </trkpt>
      <trkpt lat="46.67717" lon="5.59835">
        <ele>530</ele>
        <time>2025-10-10T12:44:13.133+00:00</time>
      </trkpt>
      <trkpt lat="46.67715" lon="5.59828">
        <ele>530</ele>
        <time>2025-10-10T12:44:17.613+00:00</time>
      </trkpt>
      <trkpt lat="46.67712" lon="5.59822">
        <ele>530</ele>
        <time>2025-10-10T12:44:22.074+00:00</time>
      </trkpt>
      <trkpt lat="46.6771" lon="5.59814">
        <ele>524</ele>
        <time>2025-10-10T12:44:26.314+00:00</time>
      </trkpt>
      <trkpt lat="46.67709" lon="5.59807">
        <ele>524</ele>
        <time>2025-10-10T12:44:30.498+00:00</time>
      </trkpt>
      <trkpt lat="46.67708" lon="5.59801">
        <ele>524</ele>
        <time>2025-10-10T12:44:34.871+00:00</time>
      </trkpt>
      <trkpt lat="46.67706" lon="5.59793">
        <ele>524</ele>
        <time>2025-10-10T12:44:39.010+00:00</time>
      </trkpt>
      <trkpt lat="46.67704" lon="5.59786">
        <ele>521</ele>
        <time>2025-10-10T12:44:43.095+00:00</time>
      </trkpt>
      <trkpt lat="46.67702" lon="5.5978">
        <ele>521</ele>
        <time>2025-10-10T12:44:47.179+00:00</time>
      </trkpt>
      <trkpt lat="46.67701" lon="5.59773">
        <ele>521</ele>
        <time>2025-10-10T12:44:51.353+00:00</time>
      </trkpt>
      <trkpt lat="46.677" lon="5.59766">
        <ele>521</ele>
        <time>2025-10-10T12:44:55.474+00:00</time>
      </trkpt>
      <trkpt lat="46.67699" lon="5.59758">
        <ele>520</ele>
        <time>2025-10-10T12:44:59.493+00:00</time>
      </trkpt>
      <trkpt lat="46.67699" lon="5.5975">
        <ele>520</ele>
        <time>2025-10-10T12:45:03.656+00:00</time>
      </trkpt>
      <trkpt lat="46.67698" lon="5.59742">
        <ele>520</ele>
        <time>2025-10-10T12:45:07.931+00:00</time>
      </trkpt>
      <trkpt lat="46.67697" lon="5.59735">
        <ele>520</ele>
        <time>2025-10-10T12:45:12.112+00:00</time>
      </trkpt>
      <trkpt lat="46.67696" lon="5.59727">
        <ele>520</ele>
        <time>2025-10-10T12:45:16.230+00:00</time>
      </trkpt>
      <trkpt lat="46.67695" lon="5.59719">
        <ele>520</ele>
        <time>2025-10-10T12:45:20.557+00:00</time>
      </trkpt>
      <trkpt lat="46.67695" lon="5.5971">
        <ele>520</ele>
        <time>2025-10-10T12:45:24.754+00:00</time>
      </trkpt>
      <trkpt lat="46.67695" lon="5.59701">
        <ele>518</ele>
        <time>2025-10-10T12:45:28.792+00:00</time>
      </trkpt>
      <trkpt lat="46.67696" lon="5.59692">
        <ele>518</ele>
        <time>2025-10-10T12:45:33.311+00:00</time>
      </trkpt>
      <trkpt lat="46.67696" lon="5.59684">
        <ele>518</ele>
        <time>2025-10-10T12:45:37.641+00:00</time>
      </trkpt>
      <trkpt lat="46.67695" lon="5.59676">
        <ele>518</ele>
        <time>2025-10-10T12:45:41.821+00:00</time>
      </trkpt>
      <trkpt lat="46.67695" lon="5.59668">
        <ele>518</ele>
        <time>2025-10-10T12:45:45.895+00:00</time>
      </trkpt>
      <trkpt lat="46.67694" lon="5.5966">
        <ele>518</ele>
        <time>2025-10-10T12:45:50.016+00:00</time>
      </trkpt>
      <trkpt lat="46.67694" lon="5.59652">
        <ele>515</ele>
        <time>2025-10-10T12:45:54.051+00:00</time>
      </trkpt>
      <trkpt lat="46.67693" lon="5.59644">
        <ele>515</ele>
        <time>2025-10-10T12:45:58.116+00:00</time>
      </trkpt>
      <trkpt lat="46.67693" lon="5.59635">
        <ele>515</ele>
        <time>2025-10-10T12:46:02.416+00:00</time>
      </trkpt>
      <trkpt lat="46.67693" lon="5.59627">
        <ele>515</ele>
        <time>2025-10-10T12:46:06.554+00:00</time>
      </trkpt>
      <trkpt lat="46.67692" lon="5.59618">
        <ele>513</ele>
        <time>2025-10-10T12:46:11.375+00:00</time>
      </trkpt>
      <trkpt lat="46.67691" lon="5.5961">
        <ele>513</ele>
        <time>2025-10-10T12:46:15.581+00:00</time>
      </trkpt>
      <trkpt lat="46.67692" lon="5.59601">
        <ele>513</ele>
        <time>2025-10-10T12:46:19.761+00:00</time>
      </trkpt>
      <trkpt lat="46.67693" lon="5.59593">
        <ele>511</ele>
        <time>2025-10-10T12:46:24.056+00:00</time>
      </trkpt>
      <trkpt lat="46.67692" lon="5.59585">
        <ele>511</ele>
        <time>2025-10-10T12:46:28.296+00:00</time>
      </trkpt>
      <trkpt lat="46.6769" lon="5.59578">
        <ele>511</ele>
        <time>2025-10-10T12:46:32.501+00:00</time>
      </trkpt>
      <trkpt lat="46.6769" lon="5.59569">
        <ele>509</ele>
        <time>2025-10-10T12:46:37.075+00:00</time>
      </trkpt>
      <trkpt lat="46.6769" lon="5.59561">
        <ele>509</ele>
        <time>2025-10-10T12:46:41.315+00:00</time>
      </trkpt>
      <trkpt lat="46.6769" lon="5.59553">
        <ele>509</ele>
        <time>2025-10-10T12:46:45.500+00:00</time>
      </trkpt>
      <trkpt lat="46.67689" lon="5.59545">
        <ele>509</ele>
        <time>2025-10-10T12:46:49.855+00:00</time>
      </trkpt>
      <trkpt lat="46.67689" lon="5.59537">
        <ele>508</ele>
        <time>2025-10-10T12:46:54.197+00:00</time>
      </trkpt>
      <trkpt lat="46.67688" lon="5.59529">
        <ele>508</ele>
        <time>2025-10-10T12:46:58.504+00:00</time>
      </trkpt>
      <trkpt lat="46.67688" lon="5.5952">
        <ele>508</ele>
        <time>2025-10-10T12:47:03.095+00:00</time>
      </trkpt>
      <trkpt lat="46.67688" lon="5.59512">
        <ele>506</ele>
        <time>2025-10-10T12:47:07.502+00:00</time>
      </trkpt>
      <trkpt lat="46.67689" lon="5.59504">
        <ele>506</ele>
        <time>2025-10-10T12:47:12.275+00:00</time>
      </trkpt>
      <trkpt lat="46.67692" lon="5.59496">
        <ele>506</ele>
        <time>2025-10-10T12:47:16.677+00:00</time>
      </trkpt>
      <trkpt lat="46.67693" lon="5.59491">
        <ele>506</ele>
        <time>2025-10-10T12:47:21.036+00:00</time>
      </trkpt>
      <trkpt lat="46.67694" lon="5.59484">
        <ele>504</ele>
        <time>2025-10-10T12:47:25.056+00:00</time>
      </trkpt>
      <trkpt lat="46.67697" lon="5.59478">
        <ele>504</ele>
        <time>2025-10-10T12:47:29.237+00:00</time>
      </trkpt>
      <trkpt lat="46.67699" lon="5.59474">
        <ele>504</ele>
        <time>2025-10-10T12:47:33.757+00:00</time>
      </trkpt>
      <trkpt lat="46.67697" lon="5.59469">
        <ele>504</ele>
        <time>2025-10-10T12:47:38.116+00:00</time>
      </trkpt>
      <trkpt lat="46.67696" lon="5.59462">
        <ele>504</ele>
        <time>2025-10-10T12:47:42.432+00:00</time>
      </trkpt>
      <trkpt lat="46.67697" lon="5.59453">
        <ele>500</ele>
        <time>2025-10-10T12:47:46.852+00:00</time>
      </trkpt>
      <trkpt lat="46.67699" lon="5.59446">
        <ele>500</ele>
        <time>2025-10-10T12:47:51.265+00:00</time>
      </trkpt>
      <trkpt lat="46.67703" lon="5.5944">
        <ele>500</ele>
        <time>2025-10-10T12:47:55.677+00:00</time>
      </trkpt>
      <trkpt lat="46.67707" lon="5.59436">
        <ele>500</ele>
        <time>2025-10-10T12:48:00.024+00:00</time>
      </trkpt>
      <trkpt lat="46.67711" lon="5.5943">
        <ele>490</ele>
        <time>2025-10-10T12:48:04.498+00:00</time>
      </trkpt>
      <trkpt lat="46.67715" lon="5.59425">
        <ele>490</ele>
        <time>2025-10-10T12:48:09.249+00:00</time>
      </trkpt>
      <trkpt lat="46.67718" lon="5.59419">
        <ele>490</ele>
        <time>2025-10-10T12:48:13.501+00:00</time>
      </trkpt>
      <trkpt lat="46.6772" lon="5.59413">
        <ele>490</ele>
        <time>2025-10-10T12:48:17.857+00:00</time>
      </trkpt>
      <trkpt lat="46.67724" lon="5.59405">
        <ele>490</ele>
        <time>2025-10-10T12:49:31.499+00:00</time>
      </trkpt>
      <trkpt lat="46.67725" lon="5.59405">
        <ele>490</ele>
        <time>2025-10-10T12:49:36.504+00:00</time>
      </trkpt>
      <trkpt lat="46.67725" lon="5.59405">
        <ele>490</ele>
        <time>2025-10-10T12:49:41.501+00:00</time>
      </trkpt>
      <trkpt lat="46.67726" lon="5.5941">
        <ele>490</ele>
        <time>2025-10-10T12:49:45.993+00:00</time>
      </trkpt>
      <trkpt lat="46.67725" lon="5.59418">
        <ele>490</ele>
        <time>2025-10-10T12:49:49.952+00:00</time>
      </trkpt>
      <trkpt lat="46.67725" lon="5.59428">
        <ele>490</ele>
        <time>2025-10-10T12:49:54.150+00:00</time>
      </trkpt>
      <trkpt lat="46.67727" lon="5.59435">
        <ele>495</ele>
        <time>2025-10-10T12:49:58.499+00:00</time>
      </trkpt>
      <trkpt lat="46.67731" lon="5.59436">
        <ele>495</ele>
        <time>2025-10-10T12:50:02.504+00:00</time>
      </trkpt>
      <trkpt lat="46.67734" lon="5.59439">
        <ele>495</ele>
        <time>2025-10-10T12:50:07.228+00:00</time>
      </trkpt>
      <trkpt lat="46.67734" lon="5.59438">
        <ele>495</ele>
        <time>2025-10-10T12:51:02.646+00:00</time>
      </trkpt>
      <trkpt lat="46.67735" lon="5.59444">
        <ele>495</ele>
        <time>2025-10-10T12:51:07.092+00:00</time>
      </trkpt>
      <trkpt lat="46.67729" lon="5.5945">
        <ele>495</ele>
        <time>2025-10-10T12:51:11.135+00:00</time>
      </trkpt>
      <trkpt lat="46.67722" lon="5.59451">
        <ele>495</ele>
        <time>2025-10-10T12:51:15.256+00:00</time>
      </trkpt>
      <trkpt lat="46.67716" lon="5.59454">
        <ele>495</ele>
        <time>2025-10-10T12:51:20.033+00:00</time>
      </trkpt>
      <trkpt lat="46.67713" lon="5.59455">
        <ele>495</ele>
        <time>2025-10-10T12:51:24.249+00:00</time>
      </trkpt>
      <trkpt lat="46.67713" lon="5.5945">
        <ele>495</ele>
        <time>2025-10-10T12:51:26.497+00:00</time>
      </trkpt>
      <trkpt lat="46.67714" lon="5.59443">
        <ele>495</ele>
        <time>2025-10-10T12:51:35.498+00:00</time>
      </trkpt>
      <trkpt lat="46.67717" lon="5.59435">
        <ele>495</ele>
        <time>2025-10-10T12:51:40.505+00:00</time>
      </trkpt>
      <trkpt lat="46.6772" lon="5.59427">
        <ele>490</ele>
        <time>2025-10-10T12:51:45.121+00:00</time>
      </trkpt>
      <trkpt lat="46.67722" lon="5.59419">
        <ele>490</ele>
        <time>2025-10-10T12:51:49.396+00:00</time>
      </trkpt>
      <trkpt lat="46.67724" lon="5.59412">
        <ele>490</ele>
        <time>2025-10-10T12:51:53.500+00:00</time>
      </trkpt>
      <trkpt lat="46.67726" lon="5.59406">
        <ele>490</ele>
        <time>2025-10-10T12:51:58.498+00:00</time>
      </trkpt>
      <trkpt lat="46.67724" lon="5.59407">
        <ele>490</ele>
        <time>2025-10-10T12:52:33.497+00:00</time>
      </trkpt>
      <trkpt lat="46.67724" lon="5.59407">
        <ele>490</ele>
        <time>2025-10-10T12:52:38.499+00:00</time>
      </trkpt>
      <trkpt lat="46.67724" lon="5.59407">
        <ele>490</ele>
        <time>2025-10-10T12:52:44.509+00:00</time>
      </trkpt>
      <trkpt lat="46.67721" lon="5.5941">
        <ele>490</ele>
        <time>2025-10-10T12:52:49.251+00:00</time>
      </trkpt>
      <trkpt lat="46.6772" lon="5.5942">
        <ele>490</ele>
        <time>2025-10-10T12:52:53.335+00:00</time>
      </trkpt>
      <trkpt lat="46.6772" lon="5.5943">
        <ele>490</ele>
        <time>2025-10-10T12:52:57.891+00:00</time>
      </trkpt>
      <trkpt lat="46.67719" lon="5.59438">
        <ele>495</ele>
        <time>2025-10-10T12:53:02.298+00:00</time>
      </trkpt>
      <trkpt lat="46.67716" lon="5.59446">
        <ele>495</ele>
        <time>2025-10-10T12:53:06.503+00:00</time>
      </trkpt>
      <trkpt lat="46.67714" lon="5.59455">
        <ele>495</ele>
        <time>2025-10-10T12:53:11.313+00:00</time>
      </trkpt>
      <trkpt lat="46.67712" lon="5.59448">
        <ele>495</ele>
        <time>2025-10-10T12:53:15.528+00:00</time>
      </trkpt>
      <trkpt lat="46.67714" lon="5.59439">
        <ele>495</ele>
        <time>2025-10-10T12:53:19.702+00:00</time>
      </trkpt>
      <trkpt lat="46.67719" lon="5.59431">
        <ele>495</ele>
        <time>2025-10-10T12:53:24.498+00:00</time>
      </trkpt>
      <trkpt lat="46.67722" lon="5.59423">
        <ele>490</ele>
        <time>2025-10-10T12:53:28.814+00:00</time>
      </trkpt>
      <trkpt lat="46.67722" lon="5.59413">
        <ele>490</ele>
        <time>2025-10-10T12:55:12.254+00:00</time>
      </trkpt>
      <trkpt lat="46.67721" lon="5.59413">
        <ele>490</ele>
        <time>2025-10-10T12:55:16.504+00:00</time>
      </trkpt>
      <trkpt lat="46.6772" lon="5.59414">
        <ele>490</ele>
        <time>2025-10-10T12:55:20.504+00:00</time>
      </trkpt>
      <trkpt lat="46.67715" lon="5.59416">
        <ele>490</ele>
        <time>2025-10-10T12:55:25.308+00:00</time>
      </trkpt>
      <trkpt lat="46.67713" lon="5.59422">
        <ele>490</ele>
        <time>2025-10-10T12:55:29.907+00:00</time>
      </trkpt>
      <trkpt lat="46.67711" lon="5.59428">
        <ele>490</ele>
        <time>2025-10-10T12:55:34.429+00:00</time>
      </trkpt>
      <trkpt lat="46.67708" lon="5.59429">
        <ele>494</ele>
        <time>2025-10-10T12:55:38.790+00:00</time>
      </trkpt>
      <trkpt lat="46.67705" lon="5.59425">
        <ele>494</ele>
        <time>2025-10-10T12:55:42.894+00:00</time>
      </trkpt>
      <trkpt lat="46.67701" lon="5.59421">
        <ele>494</ele>
        <time>2025-10-10T12:55:47.497+00:00</time>
      </trkpt>
      <trkpt lat="46.67698" lon="5.59415">
        <ele>494</ele>
        <time>2025-10-10T12:55:51.694+00:00</time>
      </trkpt>
      <trkpt lat="46.67694" lon="5.59408">
        <ele>494</ele>
        <time>2025-10-10T12:55:56.499+00:00</time>
      </trkpt>
      <trkpt lat="46.67693" lon="5.59403">
        <ele>494</ele>
        <time>2025-10-10T12:56:00.500+00:00</time>
      </trkpt>
      <trkpt lat="46.67691" lon="5.594">
        <ele>488</ele>
        <time>2025-10-10T12:56:05.329+00:00</time>
      </trkpt>
      <trkpt lat="46.67687" lon="5.59395">
        <ele>488</ele>
        <time>2025-10-10T12:56:14.504+00:00</time>
      </trkpt>
      <trkpt lat="46.67686" lon="5.59398">
        <ele>488</ele>
        <time>2025-10-10T12:56:19.504+00:00</time>
      </trkpt>
      <trkpt lat="46.67686" lon="5.59399">
        <ele>488</ele>
        <time>2025-10-10T12:56:25.499+00:00</time>
      </trkpt>
      <trkpt lat="46.67684" lon="5.59394">
        <ele>488</ele>
        <time>2025-10-10T12:56:30.030+00:00</time>
      </trkpt>
      <trkpt lat="46.67681" lon="5.59388">
        <ele>488</ele>
        <time>2025-10-10T12:56:34.377+00:00</time>
      </trkpt>
      <trkpt lat="46.67679" lon="5.59383">
        <ele>494</ele>
        <time>2025-10-10T12:56:38.410+00:00</time>
      </trkpt>
      <trkpt lat="46.67677" lon="5.59377">
        <ele>494</ele>
        <time>2025-10-10T12:56:42.500+00:00</time>
      </trkpt>
      <trkpt lat="46.67674" lon="5.59372">
        <ele>485</ele>
        <time>2025-10-10T12:56:46.500+00:00</time>
      </trkpt>
      <trkpt lat="46.67669" lon="5.59368">
        <ele>485</ele>
        <time>2025-10-10T12:56:51.193+00:00</time>
      </trkpt>
      <trkpt lat="46.67668" lon="5.59367">
        <ele>485</ele>
        <time>2025-10-10T12:56:55.502+00:00</time>
      </trkpt>
      <trkpt lat="46.67665" lon="5.59363">
        <ele>485</ele>
        <time>2025-10-10T12:57:00.433+00:00</time>
      </trkpt>
      <trkpt lat="46.6766" lon="5.59359">
        <ele>485</ele>
        <time>2025-10-10T12:57:04.499+00:00</time>
      </trkpt>
      <trkpt lat="46.67655" lon="5.59359">
        <ele>485</ele>
        <time>2025-10-10T12:57:08.728+00:00</time>
      </trkpt>
      <trkpt lat="46.67649" lon="5.5936">
        <ele>487</ele>
        <time>2025-10-10T12:57:12.774+00:00</time>
      </trkpt>
      <trkpt lat="46.67644" lon="5.5936">
        <ele>487</ele>
        <time>2025-10-10T12:57:17.012+00:00</time>
      </trkpt>
      <trkpt lat="46.6764" lon="5.5936">
        <ele>487</ele>
        <time>2025-10-10T12:57:21.091+00:00</time>
      </trkpt>
      <trkpt lat="46.67635" lon="5.5936">
        <ele>487</ele>
        <time>2025-10-10T12:57:25.374+00:00</time>
      </trkpt>
      <trkpt lat="46.67631" lon="5.59359">
        <ele>487</ele>
        <time>2025-10-10T12:57:29.693+00:00</time>
      </trkpt>
      <trkpt lat="46.67626" lon="5.59358">
        <ele>487</ele>
        <time>2025-10-10T12:57:33.933+00:00</time>
      </trkpt>
      <trkpt lat="46.67622" lon="5.59357">
        <ele>485</ele>
        <time>2025-10-10T12:57:38.130+00:00</time>
      </trkpt>
      <trkpt lat="46.67618" lon="5.59356">
        <ele>485</ele>
        <time>2025-10-10T12:57:42.258+00:00</time>
      </trkpt>
      <trkpt lat="46.67614" lon="5.59355">
        <ele>485</ele>
        <time>2025-10-10T12:57:46.290+00:00</time>
      </trkpt>
      <trkpt lat="46.67609" lon="5.59354">
        <ele>485</ele>
        <time>2025-10-10T12:57:50.853+00:00</time>
      </trkpt>
      <trkpt lat="46.67604" lon="5.59353">
        <ele>485</ele>
        <time>2025-10-10T12:57:55.367+00:00</time>
      </trkpt>
      <trkpt lat="46.67599" lon="5.59351">
        <ele>485</ele>
        <time>2025-10-10T12:57:59.394+00:00</time>
      </trkpt>
      <trkpt lat="46.67594" lon="5.59349">
        <ele>486</ele>
        <time>2025-10-10T12:58:03.413+00:00</time>
      </trkpt>
      <trkpt lat="46.67589" lon="5.59347">
        <ele>477</ele>
        <time>2025-10-10T12:58:07.952+00:00</time>
      </trkpt>
      <trkpt lat="46.67584" lon="5.59346">
        <ele>477</ele>
        <time>2025-10-10T12:58:12.014+00:00</time>
      </trkpt>
      <trkpt lat="46.6758" lon="5.59345">
        <ele>477</ele>
        <time>2025-10-10T12:58:16.092+00:00</time>
      </trkpt>
      <trkpt lat="46.67576" lon="5.59346">
        <ele>477</ele>
        <time>2025-10-10T12:58:20.290+00:00</time>
      </trkpt>
      <trkpt lat="46.67571" lon="5.59345">
        <ele>477</ele>
        <time>2025-10-10T12:58:24.430+00:00</time>
      </trkpt>
      <trkpt lat="46.67566" lon="5.59344">
        <ele>476</ele>
        <time>2025-10-10T12:58:28.500+00:00</time>
      </trkpt>
      <trkpt lat="46.67561" lon="5.59343">
        <ele>476</ele>
        <time>2025-10-10T12:58:33.132+00:00</time>
      </trkpt>
      <trkpt lat="46.67556" lon="5.59342">
        <ele>476</ele>
        <time>2025-10-10T12:58:37.150+00:00</time>
      </trkpt>
      <trkpt lat="46.67551" lon="5.59341">
        <ele>476</ele>
        <time>2025-10-10T12:58:41.196+00:00</time>
      </trkpt>
      <trkpt lat="46.67546" lon="5.5934">
        <ele>476</ele>
        <time>2025-10-10T12:58:45.367+00:00</time>
      </trkpt>
      <trkpt lat="46.67542" lon="5.59338">
        <ele>476</ele>
        <time>2025-10-10T12:58:49.505+00:00</time>
      </trkpt>
      <trkpt lat="46.67536" lon="5.59337">
        <ele>476</ele>
        <time>2025-10-10T12:58:54.250+00:00</time>
      </trkpt>
      <trkpt lat="46.67532" lon="5.59336">
        <ele>476</ele>
        <time>2025-10-10T12:58:58.270+00:00</time>
      </trkpt>
      <trkpt lat="46.67527" lon="5.59335">
        <ele>476</ele>
        <time>2025-10-10T12:59:02.287+00:00</time>
      </trkpt>
      <trkpt lat="46.67522" lon="5.59334">
        <ele>476</ele>
        <time>2025-10-10T12:59:06.349+00:00</time>
      </trkpt>
      <trkpt lat="46.67517" lon="5.59332">
        <ele>476</ele>
        <time>2025-10-10T12:59:10.913+00:00</time>
      </trkpt>
      <trkpt lat="46.67512" lon="5.5933">
        <ele>481</ele>
        <time>2025-10-10T12:59:14.932+00:00</time>
      </trkpt>
      <trkpt lat="46.67507" lon="5.59329">
        <ele>481</ele>
        <time>2025-10-10T12:59:18.934+00:00</time>
      </trkpt>
      <trkpt lat="46.67502" lon="5.59328">
        <ele>481</ele>
        <time>2025-10-10T12:59:22.995+00:00</time>
      </trkpt>
      <trkpt lat="46.675" lon="5.59329">
        <ele>481</ele>
        <time>2025-10-10T12:59:27.073+00:00</time>
      </trkpt>
      <trkpt lat="46.67493" lon="5.59328">
        <ele>481</ele>
        <time>2025-10-10T12:59:31.499+00:00</time>
      </trkpt>
      <trkpt lat="46.67487" lon="5.59327">
        <ele>481</ele>
        <time>2025-10-10T12:59:35.502+00:00</time>
      </trkpt>
      <trkpt lat="46.67481" lon="5.59325">
        <ele>484</ele>
        <time>2025-10-10T12:59:40.188+00:00</time>
      </trkpt>
      <trkpt lat="46.67476" lon="5.59322">
        <ele>484</ele>
        <time>2025-10-10T12:59:44.735+00:00</time>
      </trkpt>
      <trkpt lat="46.67471" lon="5.59319">
        <ele>474</ele>
        <time>2025-10-10T12:59:49.351+00:00</time>
      </trkpt>
      <trkpt lat="46.67466" lon="5.59316">
        <ele>474</ele>
        <time>2025-10-10T12:59:53.889+00:00</time>
      </trkpt>
      <trkpt lat="46.67462" lon="5.59314">
        <ele>474</ele>
        <time>2025-10-10T12:59:57.909+00:00</time>
      </trkpt>
      <trkpt lat="46.67457" lon="5.59312">
        <ele>473</ele>
        <time>2025-10-10T13:00:02.015+00:00</time>
      </trkpt>
      <trkpt lat="46.67453" lon="5.59309">
        <ele>473</ele>
        <time>2025-10-10T13:00:06.031+00:00</time>
      </trkpt>
      <trkpt lat="46.67447" lon="5.59307">
        <ele>473</ele>
        <time>2025-10-10T13:00:10.497+00:00</time>
      </trkpt>
      <trkpt lat="46.67442" lon="5.59306">
        <ele>473</ele>
        <time>2025-10-10T13:00:14.499+00:00</time>
      </trkpt>
      <trkpt lat="46.67437" lon="5.59305">
        <ele>473</ele>
        <time>2025-10-10T13:00:18.500+00:00</time>
      </trkpt>
      <trkpt lat="46.67432" lon="5.59304">
        <ele>473</ele>
        <time>2025-10-10T13:00:23.069+00:00</time>
      </trkpt>
      <trkpt lat="46.67427" lon="5.59303">
        <ele>470</ele>
        <time>2025-10-10T13:00:27.114+00:00</time>
      </trkpt>
      <trkpt lat="46.67422" lon="5.59304">
        <ele>470</ele>
        <time>2025-10-10T13:00:31.499+00:00</time>
      </trkpt>
      <trkpt lat="46.67417" lon="5.59305">
        <ele>470</ele>
        <time>2025-10-10T13:00:35.850+00:00</time>
      </trkpt>
      <trkpt lat="46.67412" lon="5.59305">
        <ele>470</ele>
        <time>2025-10-10T13:00:39.988+00:00</time>
      </trkpt>
      <trkpt lat="46.67408" lon="5.59305">
        <ele>470</ele>
        <time>2025-10-10T13:00:44.331+00:00</time>
      </trkpt>
      <trkpt lat="46.67403" lon="5.59306">
        <ele>470</ele>
        <time>2025-10-10T13:00:48.501+00:00</time>
      </trkpt>
      <trkpt lat="46.67399" lon="5.59308">
        <ele>467</ele>
        <time>2025-10-10T13:00:53.253+00:00</time>
      </trkpt>
      <trkpt lat="46.67394" lon="5.59309">
        <ele>467</ele>
        <time>2025-10-10T13:00:57.413+00:00</time>
      </trkpt>
      <trkpt lat="46.6739" lon="5.59311">
        <ele>467</ele>
        <time>2025-10-10T13:01:01.770+00:00</time>
      </trkpt>
      <trkpt lat="46.67387" lon="5.59313">
        <ele>467</ele>
        <time>2025-10-10T13:01:06.250+00:00</time>
      </trkpt>
      <trkpt lat="46.67383" lon="5.59316">
        <ele>467</ele>
        <time>2025-10-10T13:01:10.501+00:00</time>
      </trkpt>
      <trkpt lat="46.67378" lon="5.5932">
        <ele>476</ele>
        <time>2025-10-10T13:01:14.955+00:00</time>
      </trkpt>
      <trkpt lat="46.67373" lon="5.59322">
        <ele>473</ele>
        <time>2025-10-10T13:01:19.015+00:00</time>
      </trkpt>
      <trkpt lat="46.67369" lon="5.59324">
        <ele>473</ele>
        <time>2025-10-10T13:01:23.084+00:00</time>
      </trkpt>
      <trkpt lat="46.67363" lon="5.59326">
        <ele>473</ele>
        <time>2025-10-10T13:01:27.349+00:00</time>
      </trkpt>
      <trkpt lat="46.67358" lon="5.59328">
        <ele>473</ele>
        <time>2025-10-10T13:01:31.498+00:00</time>
      </trkpt>
      <trkpt lat="46.67353" lon="5.5933">
        <ele>473</ele>
        <time>2025-10-10T13:01:35.992+00:00</time>
      </trkpt>
      <trkpt lat="46.67346" lon="5.59331">
        <ele>472</ele>
        <time>2025-10-10T13:01:40.428+00:00</time>
      </trkpt>
      <trkpt lat="46.6734" lon="5.59333">
        <ele>472</ele>
        <time>2025-10-10T13:01:44.873+00:00</time>
      </trkpt>
      <trkpt lat="46.67334" lon="5.59332">
        <ele>472</ele>
        <time>2025-10-10T13:01:49.499+00:00</time>
      </trkpt>
      <trkpt lat="46.67328" lon="5.59331">
        <ele>472</ele>
        <time>2025-10-10T13:01:53.788+00:00</time>
      </trkpt>
      <trkpt lat="46.67322" lon="5.5933">
        <ele>472</ele>
        <time>2025-10-10T13:01:58.255+00:00</time>
      </trkpt>
      <trkpt lat="46.67316" lon="5.59329">
        <ele>470</ele>
        <time>2025-10-10T13:02:02.653+00:00</time>
      </trkpt>
      <trkpt lat="46.6731" lon="5.59327">
        <ele>470</ele>
        <time>2025-10-10T13:02:07.192+00:00</time>
      </trkpt>
      <trkpt lat="46.67304" lon="5.59326">
        <ele>470</ele>
        <time>2025-10-10T13:02:11.656+00:00</time>
      </trkpt>
      <trkpt lat="46.67299" lon="5.59323">
        <ele>470</ele>
        <time>2025-10-10T13:02:16.243+00:00</time>
      </trkpt>
      <trkpt lat="46.67293" lon="5.59322">
        <ele>470</ele>
        <time>2025-10-10T13:02:20.749+00:00</time>
      </trkpt>
      <trkpt lat="46.67287" lon="5.59319">
        <ele>469</ele>
        <time>2025-10-10T13:02:25.433+00:00</time>
      </trkpt>
      <trkpt lat="46.67282" lon="5.59317">
        <ele>459</ele>
        <time>2025-10-10T13:02:29.499+00:00</time>
      </trkpt>
      <trkpt lat="46.67278" lon="5.59315">
        <ele>459</ele>
        <time>2025-10-10T13:02:33.632+00:00</time>
      </trkpt>
      <trkpt lat="46.67273" lon="5.59314">
        <ele>459</ele>
        <time>2025-10-10T13:02:38.157+00:00</time>
      </trkpt>
      <trkpt lat="46.67268" lon="5.59312">
        <ele>459</ele>
        <time>2025-10-10T13:02:42.173+00:00</time>
      </trkpt>
      <trkpt lat="46.67264" lon="5.5931">
        <ele>459</ele>
        <time>2025-10-10T13:02:46.250+00:00</time>
      </trkpt>
      <trkpt lat="46.67259" lon="5.59308">
        <ele>459</ele>
        <time>2025-10-10T13:02:50.449+00:00</time>
      </trkpt>
      <trkpt lat="46.67255" lon="5.59307">
        <ele>459</ele>
        <time>2025-10-10T13:02:54.512+00:00</time>
      </trkpt>
      <trkpt lat="46.67257" lon="5.59303">
        <ele>459</ele>
        <time>2025-10-10T13:02:58.750+00:00</time>
      </trkpt>
      <trkpt lat="46.67254" lon="5.59295">
        <ele>459</ele>
        <time>2025-10-10T13:03:03.433+00:00</time>
      </trkpt>
      <trkpt lat="46.67253" lon="5.59294">
        <ele>459</ele>
        <time>2025-10-10T13:03:07.859+00:00</time>
      </trkpt>
      <trkpt lat="46.67251" lon="5.5929">
        <ele>449</ele>
        <time>2025-10-10T13:03:12.155+00:00</time>
      </trkpt>
      <trkpt lat="46.67246" lon="5.59291">
        <ele>449</ele>
        <time>2025-10-10T13:03:16.500+00:00</time>
      </trkpt>
      <trkpt lat="46.67243" lon="5.5929">
        <ele>449</ele>
        <time>2025-10-10T13:03:20.916+00:00</time>
      </trkpt>
      <trkpt lat="46.67239" lon="5.59287">
        <ele>449</ele>
        <time>2025-10-10T13:03:25.070+00:00</time>
      </trkpt>
      <trkpt lat="46.67234" lon="5.59286">
        <ele>449</ele>
        <time>2025-10-10T13:03:29.504+00:00</time>
      </trkpt>
      <trkpt lat="46.6723" lon="5.59283">
        <ele>449</ele>
        <time>2025-10-10T13:03:34.088+00:00</time>
      </trkpt>
      <trkpt lat="46.67226" lon="5.59281">
        <ele>449</ele>
        <time>2025-10-10T13:03:38.758+00:00</time>
      </trkpt>
      <trkpt lat="46.67223" lon="5.59276">
        <ele>449</ele>
        <time>2025-10-10T13:03:43.238+00:00</time>
      </trkpt>
      <trkpt lat="46.67219" lon="5.59274">
        <ele>449</ele>
        <time>2025-10-10T13:03:47.501+00:00</time>
      </trkpt>
      <trkpt lat="46.67215" lon="5.59271">
        <ele>449</ele>
        <time>2025-10-10T13:03:51.807+00:00</time>
      </trkpt>
      <trkpt lat="46.67212" lon="5.59268">
        <ele>449</ele>
        <time>2025-10-10T13:03:56.014+00:00</time>
      </trkpt>
      <trkpt lat="46.67208" lon="5.59266">
        <ele>450</ele>
        <time>2025-10-10T13:04:00.468+00:00</time>
      </trkpt>
      <trkpt lat="46.67204" lon="5.59263">
        <ele>443</ele>
        <time>2025-10-10T13:04:05.091+00:00</time>
      </trkpt>
      <trkpt lat="46.67201" lon="5.5926">
        <ele>443</ele>
        <time>2025-10-10T13:04:09.256+00:00</time>
      </trkpt>
      <trkpt lat="46.67198" lon="5.59258">
        <ele>443</ele>
        <time>2025-10-10T13:04:13.506+00:00</time>
      </trkpt>
      <trkpt lat="46.67194" lon="5.59256">
        <ele>443</ele>
        <time>2025-10-10T13:04:18.396+00:00</time>
      </trkpt>
      <trkpt lat="46.6719" lon="5.59253">
        <ele>443</ele>
        <time>2025-10-10T13:04:22.494+00:00</time>
      </trkpt>
      <trkpt lat="46.67186" lon="5.5925">
        <ele>443</ele>
        <time>2025-10-10T13:04:26.728+00:00</time>
      </trkpt>
      <trkpt lat="46.67182" lon="5.59247">
        <ele>443</ele>
        <time>2025-10-10T13:04:31.113+00:00</time>
      </trkpt>
      <trkpt lat="46.67177" lon="5.59243">
        <ele>440</ele>
        <time>2025-10-10T13:04:35.501+00:00</time>
      </trkpt>
      <trkpt lat="46.67172" lon="5.5924">
        <ele>440</ele>
        <time>2025-10-10T13:04:40.185+00:00</time>
      </trkpt>
      <trkpt lat="46.67169" lon="5.59234">
        <ele>433</ele>
        <time>2025-10-10T13:04:44.497+00:00</time>
      </trkpt>
      <trkpt lat="46.67167" lon="5.59227">
        <ele>433</ele>
        <time>2025-10-10T13:04:48.731+00:00</time>
      </trkpt>
      <trkpt lat="46.67163" lon="5.59221">
        <ele>433</ele>
        <time>2025-10-10T13:04:53.476+00:00</time>
      </trkpt>
      <trkpt lat="46.6716" lon="5.59216">
        <ele>433</ele>
        <time>2025-10-10T13:04:57.749+00:00</time>
      </trkpt>
      <trkpt lat="46.67158" lon="5.5921">
        <ele>433</ele>
        <time>2025-10-10T13:05:01.793+00:00</time>
      </trkpt>
      <trkpt lat="46.67156" lon="5.59205">
        <ele>428</ele>
        <time>2025-10-10T13:05:06.032+00:00</time>
      </trkpt>
      <trkpt lat="46.67154" lon="5.59201">
        <ele>428</ele>
        <time>2025-10-10T13:05:10.350+00:00</time>
      </trkpt>
      <trkpt lat="46.67152" lon="5.59195">
        <ele>425</ele>
        <time>2025-10-10T13:05:15.154+00:00</time>
      </trkpt>
      <trkpt lat="46.6715" lon="5.5919">
        <ele>425</ele>
        <time>2025-10-10T13:05:19.172+00:00</time>
      </trkpt>
      <trkpt lat="46.6715" lon="5.59185">
        <ele>425</ele>
        <time>2025-10-10T13:05:23.327+00:00</time>
      </trkpt>
      <trkpt lat="46.67148" lon="5.59181">
        <ele>425</ele>
        <time>2025-10-10T13:05:27.772+00:00</time>
      </trkpt>
      <trkpt lat="46.67147" lon="5.59178">
        <ele>418</ele>
        <time>2025-10-10T13:05:32.294+00:00</time>
      </trkpt>
      <trkpt lat="46.67145" lon="5.59175">
        <ele>418</ele>
        <time>2025-10-10T13:05:36.498+00:00</time>
      </trkpt>
      <trkpt lat="46.67142" lon="5.59171">
        <ele>418</ele>
        <time>2025-10-10T13:05:41.415+00:00</time>
      </trkpt>
      <trkpt lat="46.6714" lon="5.59166">
        <ele>418</ele>
        <time>2025-10-10T13:05:45.931+00:00</time>
      </trkpt>
      <trkpt lat="46.67137" lon="5.59162">
        <ele>418</ele>
        <time>2025-10-10T13:05:50.390+00:00</time>
      </trkpt>
      <trkpt lat="46.67136" lon="5.59156">
        <ele>418</ele>
        <time>2025-10-10T13:05:54.842+00:00</time>
      </trkpt>
      <trkpt lat="46.67134" lon="5.59153">
        <ele>412</ele>
        <time>2025-10-10T13:05:59.035+00:00</time>
      </trkpt>
      <trkpt lat="46.67131" lon="5.59149">
        <ele>412</ele>
        <time>2025-10-10T13:06:03.251+00:00</time>
      </trkpt>
      <trkpt lat="46.67129" lon="5.59145">
        <ele>412</ele>
        <time>2025-10-10T13:06:07.403+00:00</time>
      </trkpt>
      <trkpt lat="46.67126" lon="5.59141">
        <ele>412</ele>
        <time>2025-10-10T13:06:11.499+00:00</time>
      </trkpt>
      <trkpt lat="46.67124" lon="5.59135">
        <ele>413</ele>
        <time>2025-10-10T13:06:16.149+00:00</time>
      </trkpt>
      <trkpt lat="46.67122" lon="5.59128">
        <ele>413</ele>
        <time>2025-10-10T13:06:21.113+00:00</time>
      </trkpt>
      <trkpt lat="46.67121" lon="5.59121">
        <ele>407</ele>
        <time>2025-10-10T13:06:25.509+00:00</time>
      </trkpt>
      <trkpt lat="46.67121" lon="5.59116">
        <ele>407</ele>
        <time>2025-10-10T13:06:30.208+00:00</time>
      </trkpt>
      <trkpt lat="46.67119" lon="5.5911">
        <ele>407</ele>
        <time>2025-10-10T13:06:34.499+00:00</time>
      </trkpt>
      <trkpt lat="46.67117" lon="5.59104">
        <ele>407</ele>
        <time>2025-10-10T13:06:38.988+00:00</time>
      </trkpt>
      <trkpt lat="46.67114" lon="5.59099">
        <ele>407</ele>
        <time>2025-10-10T13:06:43.476+00:00</time>
      </trkpt>
      <trkpt lat="46.67112" lon="5.59095">
        <ele>401</ele>
        <time>2025-10-10T13:06:47.500+00:00</time>
      </trkpt>
      <trkpt lat="46.6711" lon="5.59091">
        <ele>401</ele>
        <time>2025-10-10T13:06:51.501+00:00</time>
      </trkpt>
      <trkpt lat="46.67109" lon="5.59086">
        <ele>401</ele>
        <time>2025-10-10T13:06:56.500+00:00</time>
      </trkpt>
      <trkpt lat="46.67106" lon="5.59083">
        <ele>401</ele>
        <time>2025-10-10T13:07:00.692+00:00</time>
      </trkpt>
      <trkpt lat="46.67104" lon="5.59077">
        <ele>401</ele>
        <time>2025-10-10T13:07:05.333+00:00</time>
      </trkpt>
      <trkpt lat="46.67103" lon="5.59072">
        <ele>401</ele>
        <time>2025-10-10T13:07:09.907+00:00</time>
      </trkpt>
      <trkpt lat="46.67101" lon="5.59067">
        <ele>396</ele>
        <time>2025-10-10T13:07:14.292+00:00</time>
      </trkpt>
      <trkpt lat="46.67099" lon="5.59061">
        <ele>396</ele>
        <time>2025-10-10T13:07:18.559+00:00</time>
      </trkpt>
      <trkpt lat="46.67097" lon="5.59056">
        <ele>399</ele>
        <time>2025-10-10T13:07:23.116+00:00</time>
      </trkpt>
      <trkpt lat="46.67095" lon="5.59049">
        <ele>399</ele>
        <time>2025-10-10T13:07:27.501+00:00</time>
      </trkpt>
      <trkpt lat="46.67093" lon="5.59043">
        <ele>399</ele>
        <time>2025-10-10T13:07:32.073+00:00</time>
      </trkpt>
      <trkpt lat="46.67092" lon="5.59036">
        <ele>395</ele>
        <time>2025-10-10T13:07:36.500+00:00</time>
      </trkpt>
      <trkpt lat="46.67091" lon="5.5903">
        <ele>395</ele>
        <time>2025-10-10T13:07:40.673+00:00</time>
      </trkpt>
      <trkpt lat="46.6709" lon="5.59023">
        <ele>395</ele>
        <time>2025-10-10T13:07:44.854+00:00</time>
      </trkpt>
      <trkpt lat="46.67088" lon="5.59017">
        <ele>395</ele>
        <time>2025-10-10T13:07:49.368+00:00</time>
      </trkpt>
      <trkpt lat="46.67086" lon="5.59011">
        <ele>391</ele>
        <time>2025-10-10T13:07:53.888+00:00</time>
      </trkpt>
      <trkpt lat="46.67084" lon="5.59006">
        <ele>391</ele>
        <time>2025-10-10T13:07:58.501+00:00</time>
      </trkpt>
      <trkpt lat="46.67082" lon="5.58999">
        <ele>391</ele>
        <time>2025-10-10T13:08:03.096+00:00</time>
      </trkpt>
      <trkpt lat="46.6708" lon="5.58993">
        <ele>391</ele>
        <time>2025-10-10T13:08:07.499+00:00</time>
      </trkpt>
      <trkpt lat="46.67078" lon="5.58986">
        <ele>391</ele>
        <time>2025-10-10T13:08:12.034+00:00</time>
      </trkpt>
      <trkpt lat="46.67076" lon="5.5898">
        <ele>387</ele>
        <time>2025-10-10T13:08:16.499+00:00</time>
      </trkpt>
      <trkpt lat="46.67074" lon="5.58974">
        <ele>387</ele>
        <time>2025-10-10T13:08:20.611+00:00</time>
      </trkpt>
      <trkpt lat="46.67071" lon="5.58968">
        <ele>387</ele>
        <time>2025-10-10T13:08:25.074+00:00</time>
      </trkpt>
      <trkpt lat="46.6707" lon="5.58962">
        <ele>387</ele>
        <time>2025-10-10T13:08:29.373+00:00</time>
      </trkpt>
      <trkpt lat="46.67067" lon="5.58956">
        <ele>384</ele>
        <time>2025-10-10T13:08:34.049+00:00</time>
      </trkpt>
      <trkpt lat="46.67065" lon="5.5895">
        <ele>384</ele>
        <time>2025-10-10T13:08:38.502+00:00</time>
      </trkpt>
      <trkpt lat="46.67063" lon="5.58943">
        <ele>384</ele>
        <time>2025-10-10T13:08:43.068+00:00</time>
      </trkpt>
      <trkpt lat="46.67061" lon="5.58937">
        <ele>384</ele>
        <time>2025-10-10T13:08:47.500+00:00</time>
      </trkpt>
      <trkpt lat="46.67059" lon="5.58931">
        <ele>384</ele>
        <time>2025-10-10T13:08:51.504+00:00</time>
      </trkpt>
      <trkpt lat="46.67057" lon="5.58924">
        <ele>380</ele>
        <time>2025-10-10T13:08:56.502+00:00</time>
      </trkpt>
      <trkpt lat="46.67055" lon="5.58919">
        <ele>380</ele>
        <time>2025-10-10T13:09:00.710+00:00</time>
      </trkpt>
      <trkpt lat="46.67053" lon="5.58913">
        <ele>380</ele>
        <time>2025-10-10T13:09:05.251+00:00</time>
      </trkpt>
      <trkpt lat="46.67052" lon="5.58908">
        <ele>380</ele>
        <time>2025-10-10T13:09:09.498+00:00</time>
      </trkpt>
      <trkpt lat="46.67049" lon="5.58901">
        <ele>377</ele>
        <time>2025-10-10T13:09:14.311+00:00</time>
      </trkpt>
      <trkpt lat="46.67047" lon="5.58895">
        <ele>377</ele>
        <time>2025-10-10T13:09:18.927+00:00</time>
      </trkpt>
      <trkpt lat="46.67046" lon="5.5889">
        <ele>377</ele>
        <time>2025-10-10T13:09:23.031+00:00</time>
      </trkpt>
      <trkpt lat="46.67044" lon="5.58885">
        <ele>377</ele>
        <time>2025-10-10T13:09:27.183+00:00</time>
      </trkpt>
      <trkpt lat="46.67043" lon="5.58879">
        <ele>377</ele>
        <time>2025-10-10T13:09:31.506+00:00</time>
      </trkpt>
      <trkpt lat="46.6704" lon="5.58872">
        <ele>373</ele>
        <time>2025-10-10T13:09:36.376+00:00</time>
      </trkpt>
      <trkpt lat="46.67038" lon="5.58866">
        <ele>373</ele>
        <time>2025-10-10T13:09:40.497+00:00</time>
      </trkpt>
      <trkpt lat="46.67037" lon="5.58859">
        <ele>373</ele>
        <time>2025-10-10T13:09:45.479+00:00</time>
      </trkpt>
      <trkpt lat="46.67034" lon="5.58854">
        <ele>373</ele>
        <time>2025-10-10T13:09:49.496+00:00</time>
      </trkpt>
      <trkpt lat="46.67032" lon="5.5885">
        <ele>373</ele>
        <time>2025-10-10T13:09:54.259+00:00</time>
      </trkpt>
      <trkpt lat="46.67027" lon="5.58836">
        <ele>371</ele>
        <time>2025-10-10T13:10:34.503+00:00</time>
      </trkpt>
      <trkpt lat="46.67027" lon="5.58836">
        <ele>371</ele>
        <time>2025-10-10T13:10:39.498+00:00</time>
      </trkpt>
      <trkpt lat="46.67027" lon="5.58835">
        <ele>371</ele>
        <time>2025-10-10T13:10:44.497+00:00</time>
      </trkpt>
      <trkpt lat="46.67027" lon="5.58834">
        <ele>371</ele>
        <time>2025-10-10T13:10:48.501+00:00</time>
      </trkpt>
      <trkpt lat="46.67027" lon="5.58833">
        <ele>371</ele>
        <time>2025-10-10T13:10:53.500+00:00</time>
      </trkpt>
      <trkpt lat="46.67027" lon="5.58831">
        <ele>371</ele>
        <time>2025-10-10T13:13:12.498+00:00</time>
      </trkpt>
      <trkpt lat="46.67024" lon="5.58827">
        <ele>371</ele>
        <time>2025-10-10T13:13:16.824+00:00</time>
      </trkpt>
      <trkpt lat="46.67021" lon="5.58822">
        <ele>371</ele>
        <time>2025-10-10T13:13:21.023+00:00</time>
      </trkpt>
      <trkpt lat="46.67018" lon="5.58816">
        <ele>368</ele>
        <time>2025-10-10T13:13:25.364+00:00</time>
      </trkpt>
      <trkpt lat="46.67016" lon="5.58811">
        <ele>368</ele>
        <time>2025-10-10T13:13:29.652+00:00</time>
      </trkpt>
      <trkpt lat="46.67014" lon="5.58806">
        <ele>365</ele>
        <time>2025-10-10T13:13:34.498+00:00</time>
      </trkpt>
      <trkpt lat="46.67011" lon="5.58802">
        <ele>365</ele>
        <time>2025-10-10T13:13:38.498+00:00</time>
      </trkpt>
      <trkpt lat="46.67009" lon="5.58797">
        <ele>365</ele>
        <time>2025-10-10T13:13:42.498+00:00</time>
      </trkpt>
      <trkpt lat="46.67006" lon="5.58791">
        <ele>361</ele>
        <time>2025-10-10T13:13:47.210+00:00</time>
      </trkpt>
      <trkpt lat="46.67004" lon="5.58786">
        <ele>361</ele>
        <time>2025-10-10T13:13:51.260+00:00</time>
      </trkpt>
      <trkpt lat="46.67002" lon="5.58781">
        <ele>361</ele>
        <time>2025-10-10T13:13:55.384+00:00</time>
      </trkpt>
      <trkpt lat="46.67" lon="5.58776">
        <ele>361</ele>
        <time>2025-10-10T13:13:59.400+00:00</time>
      </trkpt>
      <trkpt lat="46.66997" lon="5.58769">
        <ele>361</ele>
        <time>2025-10-10T13:14:04.425+00:00</time>
      </trkpt>
      <trkpt lat="46.66992" lon="5.58765">
        <ele>361</ele>
        <time>2025-10-10T13:14:08.964+00:00</time>
      </trkpt>
      <trkpt lat="46.66988" lon="5.58761">
        <ele>356</ele>
        <time>2025-10-10T13:14:13.400+00:00</time>
      </trkpt>
      <trkpt lat="46.66983" lon="5.58758">
        <ele>352</ele>
        <time>2025-10-10T13:14:17.876+00:00</time>
      </trkpt>
      <trkpt lat="46.66979" lon="5.58755">
        <ele>352</ele>
        <time>2025-10-10T13:14:22.185+00:00</time>
      </trkpt>
      <trkpt lat="46.66973" lon="5.58753">
        <ele>352</ele>
        <time>2025-10-10T13:14:26.742+00:00</time>
      </trkpt>
      <trkpt lat="46.66969" lon="5.58752">
        <ele>352</ele>
        <time>2025-10-10T13:14:31.015+00:00</time>
      </trkpt>
      <trkpt lat="46.66964" lon="5.58746">
        <ele>352</ele>
        <time>2025-10-10T13:14:35.497+00:00</time>
      </trkpt>
      <trkpt lat="46.66964" lon="5.58746">
        <ele>352</ele>
        <time>2025-10-10T13:14:36.040+00:00</time>
      </trkpt>
      <trkpt lat="46.66955" lon="5.58738">
        <ele>348</ele>
        <time>2025-10-10T13:14:45.126+00:00</time>
      </trkpt>
      <trkpt lat="46.66953" lon="5.58731">
        <ele>344</ele>
        <time>2025-10-10T13:14:49.495+00:00</time>
      </trkpt>
      <trkpt lat="46.66947" lon="5.58729">
        <ele>344</ele>
        <time>2025-10-10T13:14:53.980+00:00</time>
      </trkpt>
      <trkpt lat="46.66943" lon="5.58725">
        <ele>344</ele>
        <time>2025-10-10T13:14:58.416+00:00</time>
      </trkpt>
      <trkpt lat="46.66939" lon="5.58722">
        <ele>344</ele>
        <time>2025-10-10T13:15:02.895+00:00</time>
      </trkpt>
      <trkpt lat="46.66934" lon="5.58719">
        <ele>344</ele>
        <time>2025-10-10T13:15:07.301+00:00</time>
      </trkpt>
      <trkpt lat="46.66929" lon="5.58716">
        <ele>343</ele>
        <time>2025-10-10T13:15:11.496+00:00</time>
      </trkpt>
      <trkpt lat="46.66925" lon="5.58712">
        <ele>343</ele>
        <time>2025-10-10T13:15:16.160+00:00</time>
      </trkpt>
      <trkpt lat="46.66924" lon="5.58713">
        <ele>343</ele>
        <time>2025-10-10T13:15:36.379+00:00</time>
      </trkpt>
      <trkpt lat="46.66918" lon="5.58708">
        <ele>340</ele>
        <time>2025-10-10T13:15:41.038+00:00</time>
      </trkpt>
      <trkpt lat="46.66915" lon="5.58707">
        <ele>340</ele>
        <time>2025-10-10T13:15:43.386+00:00</time>
      </trkpt>
      <trkpt lat="46.66912" lon="5.58702">
        <ele>340</ele>
        <time>2025-10-10T13:15:51.680+00:00</time>
      </trkpt>
      <trkpt lat="46.66908" lon="5.58697">
        <ele>340</ele>
        <time>2025-10-10T13:15:56.179+00:00</time>
      </trkpt>
      <trkpt lat="46.66904" lon="5.58691">
        <ele>340</ele>
        <time>2025-10-10T13:16:00.496+00:00</time>
      </trkpt>
      <trkpt lat="46.669" lon="5.58684">
        <ele>339</ele>
        <time>2025-10-10T13:16:05.020+00:00</time>
      </trkpt>
      <trkpt lat="46.66897" lon="5.58678">
        <ele>338</ele>
        <time>2025-10-10T13:16:09.501+00:00</time>
      </trkpt>
      <trkpt lat="46.66893" lon="5.58672">
        <ele>338</ele>
        <time>2025-10-10T13:16:13.860+00:00</time>
      </trkpt>
      <trkpt lat="46.66888" lon="5.58666">
        <ele>338</ele>
        <time>2025-10-10T13:16:18.238+00:00</time>
      </trkpt>
      <trkpt lat="46.66885" lon="5.5866">
        <ele>338</ele>
        <time>2025-10-10T13:16:22.734+00:00</time>
      </trkpt>
      <trkpt lat="46.66883" lon="5.58656">
        <ele>338</ele>
        <time>2025-10-10T13:16:27.260+00:00</time>
      </trkpt>
      <trkpt lat="46.6688" lon="5.58651">
        <ele>336</ele>
        <time>2025-10-10T13:16:31.799+00:00</time>
      </trkpt>
      <trkpt lat="46.66877" lon="5.58644">
        <ele>336</ele>
        <time>2025-10-10T13:16:36.320+00:00</time>
      </trkpt>
      <trkpt lat="46.66873" lon="5.58637">
        <ele>336</ele>
        <time>2025-10-10T13:16:40.764+00:00</time>
      </trkpt>
      <trkpt lat="46.66868" lon="5.58632">
        <ele>336</ele>
        <time>2025-10-10T13:16:45.016+00:00</time>
      </trkpt>
      <trkpt lat="46.6686" lon="5.58633">
        <ele>336</ele>
        <time>2025-10-10T13:16:49.154+00:00</time>
      </trkpt>
      <trkpt lat="46.66854" lon="5.58633">
        <ele>336</ele>
        <time>2025-10-10T13:16:53.481+00:00</time>
      </trkpt>
      <trkpt lat="46.66847" lon="5.58633">
        <ele>336</ele>
        <time>2025-10-10T13:16:58.324+00:00</time>
      </trkpt>
      <trkpt lat="46.66842" lon="5.58632">
        <ele>333</ele>
        <time>2025-10-10T13:17:02.842+00:00</time>
      </trkpt>
      <trkpt lat="46.66836" lon="5.58632">
        <ele>333</ele>
        <time>2025-10-10T13:17:07.298+00:00</time>
      </trkpt>
      <trkpt lat="46.6683" lon="5.58632">
        <ele>333</ele>
        <time>2025-10-10T13:17:12.418+00:00</time>
      </trkpt>
      <trkpt lat="46.66826" lon="5.58631">
        <ele>333</ele>
        <time>2025-10-10T13:17:16.999+00:00</time>
      </trkpt>
      <trkpt lat="46.6682" lon="5.58629">
        <ele>333</ele>
        <time>2025-10-10T13:17:21.479+00:00</time>
      </trkpt>
      <trkpt lat="46.66816" lon="5.58627">
        <ele>331</ele>
        <time>2025-10-10T13:17:25.842+00:00</time>
      </trkpt>
      <trkpt lat="46.66812" lon="5.58623">
        <ele>328</ele>
        <time>2025-10-10T13:17:30.232+00:00</time>
      </trkpt>
      <trkpt lat="46.66808" lon="5.5862">
        <ele>328</ele>
        <time>2025-10-10T13:17:34.706+00:00</time>
      </trkpt>
      <trkpt lat="46.66804" lon="5.58616">
        <ele>328</ele>
        <time>2025-10-10T13:17:38.786+00:00</time>
      </trkpt>
      <trkpt lat="46.66801" lon="5.58612">
        <ele>328</ele>
        <time>2025-10-10T13:17:42.805+00:00</time>
      </trkpt>
      <trkpt lat="46.66797" lon="5.58606">
        <ele>328</ele>
        <time>2025-10-10T13:17:47.302+00:00</time>
      </trkpt>
      <trkpt lat="46.66796" lon="5.58598">
        <ele>328</ele>
        <time>2025-10-10T13:17:51.902+00:00</time>
      </trkpt>
      <trkpt lat="46.66795" lon="5.5859">
        <ele>324</ele>
        <time>2025-10-10T13:17:56.511+00:00</time>
      </trkpt>
      <trkpt lat="46.66793" lon="5.58583">
        <ele>324</ele>
        <time>2025-10-10T13:18:01.498+00:00</time>
      </trkpt>
      <trkpt lat="46.66791" lon="5.58576">
        <ele>326</ele>
        <time>2025-10-10T13:18:05.650+00:00</time>
      </trkpt>
      <trkpt lat="46.66788" lon="5.58571">
        <ele>326</ele>
        <time>2025-10-10T13:18:10.189+00:00</time>
      </trkpt>
      <trkpt lat="46.66786" lon="5.58564">
        <ele>322</ele>
        <time>2025-10-10T13:18:14.497+00:00</time>
      </trkpt>
      <trkpt lat="46.66782" lon="5.5856">
        <ele>322</ele>
        <time>2025-10-10T13:18:19.393+00:00</time>
      </trkpt>
      <trkpt lat="46.66779" lon="5.58553">
        <ele>322</ele>
        <time>2025-10-10T13:18:23.825+00:00</time>
      </trkpt>
      <trkpt lat="46.66777" lon="5.58546">
        <ele>322</ele>
        <time>2025-10-10T13:18:28.382+00:00</time>
      </trkpt>
      <trkpt lat="46.66774" lon="5.58542">
        <ele>320</ele>
        <time>2025-10-10T13:18:32.499+00:00</time>
      </trkpt>
      <trkpt lat="46.66771" lon="5.58537">
        <ele>320</ele>
        <time>2025-10-10T13:18:36.745+00:00</time>
      </trkpt>
      <trkpt lat="46.66767" lon="5.58531">
        <ele>320</ele>
        <time>2025-10-10T13:18:41.229+00:00</time>
      </trkpt>
      <trkpt lat="46.66764" lon="5.58527">
        <ele>320</ele>
        <time>2025-10-10T13:18:45.367+00:00</time>
      </trkpt>
      <trkpt lat="46.6676" lon="5.58524">
        <ele>317</ele>
        <time>2025-10-10T13:18:49.501+00:00</time>
      </trkpt>
      <trkpt lat="46.66757" lon="5.58519">
        <ele>317</ele>
        <time>2025-10-10T13:18:54.157+00:00</time>
      </trkpt>
      <trkpt lat="46.66753" lon="5.58515">
        <ele>317</ele>
        <time>2025-10-10T13:18:58.306+00:00</time>
      </trkpt>
      <trkpt lat="46.6675" lon="5.58511">
        <ele>316</ele>
        <time>2025-10-10T13:19:02.404+00:00</time>
      </trkpt>
      <trkpt lat="46.66746" lon="5.58507">
        <ele>316</ele>
        <time>2025-10-10T13:19:06.463+00:00</time>
      </trkpt>
      <trkpt lat="46.66743" lon="5.58502">
        <ele>316</ele>
        <time>2025-10-10T13:19:10.482+00:00</time>
      </trkpt>
      <trkpt lat="46.6674" lon="5.58497">
        <ele>316</ele>
        <time>2025-10-10T13:19:14.500+00:00</time>
      </trkpt>
      <trkpt lat="46.66736" lon="5.58493">
        <ele>312</ele>
        <time>2025-10-10T13:19:19.116+00:00</time>
      </trkpt>
      <trkpt lat="46.66732" lon="5.58488">
        <ele>312</ele>
        <time>2025-10-10T13:19:23.121+00:00</time>
      </trkpt>
      <trkpt lat="46.66728" lon="5.58484">
        <ele>311</ele>
        <time>2025-10-10T13:19:27.139+00:00</time>
      </trkpt>
      <trkpt lat="46.66726" lon="5.58477">
        <ele>311</ele>
        <time>2025-10-10T13:19:31.492+00:00</time>
      </trkpt>
      <trkpt lat="46.66722" lon="5.58473">
        <ele>311</ele>
        <time>2025-10-10T13:19:35.504+00:00</time>
      </trkpt>
      <trkpt lat="46.6672" lon="5.58466">
        <ele>311</ele>
        <time>2025-10-10T13:19:39.948+00:00</time>
      </trkpt>
      <trkpt lat="46.6672" lon="5.58459">
        <ele>311</ele>
        <time>2025-10-10T13:19:44.334+00:00</time>
      </trkpt>
      <trkpt lat="46.6672" lon="5.5845">
        <ele>309</ele>
        <time>2025-10-10T13:19:48.874+00:00</time>
      </trkpt>
      <trkpt lat="46.66719" lon="5.58441">
        <ele>309</ele>
        <time>2025-10-10T13:19:53.504+00:00</time>
      </trkpt>
      <trkpt lat="46.66718" lon="5.58434">
        <ele>309</ele>
        <time>2025-10-10T13:19:58.168+00:00</time>
      </trkpt>
      <trkpt lat="46.66716" lon="5.58428">
        <ele>308</ele>
        <time>2025-10-10T13:20:02.496+00:00</time>
      </trkpt>
      <trkpt lat="46.66716" lon="5.5842">
        <ele>308</ele>
        <time>2025-10-10T13:20:06.500+00:00</time>
      </trkpt>
      <trkpt lat="46.66716" lon="5.58411">
        <ele>308</ele>
        <time>2025-10-10T13:20:10.814+00:00</time>
      </trkpt>
      <trkpt lat="46.66716" lon="5.58403">
        <ele>307</ele>
        <time>2025-10-10T13:20:15.254+00:00</time>
      </trkpt>
      <trkpt lat="46.66717" lon="5.58396">
        <ele>307</ele>
        <time>2025-10-10T13:20:19.689+00:00</time>
      </trkpt>
      <trkpt lat="46.66718" lon="5.5839">
        <ele>307</ele>
        <time>2025-10-10T13:20:23.990+00:00</time>
      </trkpt>
      <trkpt lat="46.66717" lon="5.58382">
        <ele>307</ele>
        <time>2025-10-10T13:20:28.393+00:00</time>
      </trkpt>
      <trkpt lat="46.66712" lon="5.58382">
        <ele>307</ele>
        <time>2025-10-10T13:20:32.778+00:00</time>
      </trkpt>
      <trkpt lat="46.66712" lon="5.58372">
        <ele>306</ele>
        <time>2025-10-10T13:20:37.498+00:00</time>
      </trkpt>
      <trkpt lat="46.66714" lon="5.58362">
        <ele>306</ele>
        <time>2025-10-10T13:20:41.918+00:00</time>
      </trkpt>
      <trkpt lat="46.66716" lon="5.58353">
        <ele>306</ele>
        <time>2025-10-10T13:20:46.477+00:00</time>
      </trkpt>
      <trkpt lat="46.66716" lon="5.58345">
        <ele>305</ele>
        <time>2025-10-10T13:20:51.057+00:00</time>
      </trkpt>
      <trkpt lat="46.66717" lon="5.58336">
        <ele>305</ele>
        <time>2025-10-10T13:20:55.436+00:00</time>
      </trkpt>
      <trkpt lat="46.66719" lon="5.58329">
        <ele>305</ele>
        <time>2025-10-10T13:20:59.503+00:00</time>
      </trkpt>
      <trkpt lat="46.66714" lon="5.58324">
        <ele>305</ele>
        <time>2025-10-10T13:21:04.020+00:00</time>
      </trkpt>
      <trkpt lat="46.66717" lon="5.58319">
        <ele>304</ele>
        <time>2025-10-10T13:21:08.507+00:00</time>
      </trkpt>
      <trkpt lat="46.66717" lon="5.58314">
        <ele>304</ele>
        <time>2025-10-10T13:21:12.501+00:00</time>
      </trkpt>
      <trkpt lat="46.66712" lon="5.58306">
        <ele>304</ele>
        <time>2025-10-10T13:21:16.778+00:00</time>
      </trkpt>
      <trkpt lat="46.66709" lon="5.58301">
        <ele>304</ele>
        <time>2025-10-10T13:21:20.952+00:00</time>
      </trkpt>
      <trkpt lat="46.66706" lon="5.58295">
        <ele>303</ele>
        <time>2025-10-10T13:21:24.970+00:00</time>
      </trkpt>
      <trkpt lat="46.66703" lon="5.58291">
        <ele>302</ele>
        <time>2025-10-10T13:21:29.091+00:00</time>
      </trkpt>
      <trkpt lat="46.667" lon="5.58287">
        <ele>302</ele>
        <time>2025-10-10T13:21:33.392+00:00</time>
      </trkpt>
      <trkpt lat="46.66697" lon="5.58282">
        <ele>302</ele>
        <time>2025-10-10T13:21:37.993+00:00</time>
      </trkpt>
      <trkpt lat="46.66694" lon="5.58277">
        <ele>302</ele>
        <time>2025-10-10T13:21:42.497+00:00</time>
      </trkpt>
      <trkpt lat="46.66689" lon="5.58272">
        <ele>302</ele>
        <time>2025-10-10T13:21:47.268+00:00</time>
      </trkpt>
      <trkpt lat="46.66685" lon="5.58267">
        <ele>302</ele>
        <time>2025-10-10T13:21:51.498+00:00</time>
      </trkpt>
      <trkpt lat="46.66682" lon="5.58263">
        <ele>301</ele>
        <time>2025-10-10T13:21:55.792+00:00</time>
      </trkpt>
      <trkpt lat="46.66676" lon="5.5826">
        <ele>300</ele>
        <time>2025-10-10T13:21:59.932+00:00</time>
      </trkpt>
      <trkpt lat="46.66672" lon="5.58257">
        <ele>300</ele>
        <time>2025-10-10T13:22:03.950+00:00</time>
      </trkpt>
      <trkpt lat="46.66667" lon="5.58254">
        <ele>300</ele>
        <time>2025-10-10T13:22:08.498+00:00</time>
      </trkpt>
      <trkpt lat="46.66662" lon="5.58252">
        <ele>300</ele>
        <time>2025-10-10T13:22:13.150+00:00</time>
      </trkpt>
      <trkpt lat="46.66657" lon="5.58249">
        <ele>300</ele>
        <time>2025-10-10T13:22:17.732+00:00</time>
      </trkpt>
      <trkpt lat="46.66652" lon="5.58247">
        <ele>295</ele>
        <time>2025-10-10T13:22:22.499+00:00</time>
      </trkpt>
      <trkpt lat="46.66647" lon="5.58246">
        <ele>295</ele>
        <time>2025-10-10T13:22:26.787+00:00</time>
      </trkpt>
      <trkpt lat="46.66642" lon="5.58245">
        <ele>295</ele>
        <time>2025-10-10T13:22:30.823+00:00</time>
      </trkpt>
      <trkpt lat="46.66637" lon="5.58243">
        <ele>295</ele>
        <time>2025-10-10T13:22:35.337+00:00</time>
      </trkpt>
      <trkpt lat="46.66633" lon="5.58241">
        <ele>295</ele>
        <time>2025-10-10T13:22:39.405+00:00</time>
      </trkpt>
      <trkpt lat="46.66627" lon="5.58241">
        <ele>295</ele>
        <time>2025-10-10T13:22:44.493+00:00</time>
      </trkpt>
      <trkpt lat="46.66621" lon="5.5824">
        <ele>291</ele>
        <time>2025-10-10T13:22:49.140+00:00</time>
      </trkpt>
      <trkpt lat="46.66616" lon="5.58239">
        <ele>291</ele>
        <time>2025-10-10T13:22:53.501+00:00</time>
      </trkpt>
      <trkpt lat="46.66611" lon="5.58238">
        <ele>291</ele>
        <time>2025-10-10T13:22:58.263+00:00</time>
      </trkpt>
      <trkpt lat="46.66606" lon="5.58237">
        <ele>291</ele>
        <time>2025-10-10T13:23:02.377+00:00</time>
      </trkpt>
      <trkpt lat="46.66601" lon="5.58235">
        <ele>291</ele>
        <time>2025-10-10T13:23:06.493+00:00</time>
      </trkpt>
      <trkpt lat="46.66595" lon="5.58232">
        <ele>288</ele>
        <time>2025-10-10T13:23:11.116+00:00</time>
      </trkpt>
      <trkpt lat="46.6659" lon="5.58229">
        <ele>288</ele>
        <time>2025-10-10T13:23:15.683+00:00</time>
      </trkpt>
      <trkpt lat="46.66585" lon="5.58226">
        <ele>288</ele>
        <time>2025-10-10T13:23:20.280+00:00</time>
      </trkpt>
      <trkpt lat="46.66581" lon="5.58224">
        <ele>288</ele>
        <time>2025-10-10T13:23:24.499+00:00</time>
      </trkpt>
      <trkpt lat="46.66578" lon="5.58221">
        <ele>288</ele>
        <time>2025-10-10T13:23:29.302+00:00</time>
      </trkpt>
      <trkpt lat="46.66576" lon="5.58219">
        <ele>288</ele>
        <time>2025-10-10T13:23:33.497+00:00</time>
      </trkpt>
      <trkpt lat="46.66572" lon="5.58215">
        <ele>288</ele>
        <time>2025-10-10T13:23:37.502+00:00</time>
      </trkpt>
      <trkpt lat="46.66567" lon="5.58209">
        <ele>287</ele>
        <time>2025-10-10T13:23:41.598+00:00</time>
      </trkpt>
      <trkpt lat="46.66562" lon="5.58204">
        <ele>286</ele>
        <time>2025-10-10T13:23:45.644+00:00</time>
      </trkpt>
      <trkpt lat="46.66558" lon="5.58201">
        <ele>286</ele>
        <time>2025-10-10T13:23:49.842+00:00</time>
      </trkpt>
      <trkpt lat="46.66557" lon="5.58197">
        <ele>286</ele>
        <time>2025-10-10T13:23:54.728+00:00</time>
      </trkpt>
      <trkpt lat="46.66556" lon="5.58191">
        <ele>286</ele>
        <time>2025-10-10T13:23:59.477+00:00</time>
      </trkpt>
      <trkpt lat="46.66559" lon="5.58187">
        <ele>286</ele>
        <time>2025-10-10T13:24:03.504+00:00</time>
      </trkpt>
      <trkpt lat="46.66562" lon="5.58185">
        <ele>286</ele>
        <time>2025-10-10T13:24:07.823+00:00</time>
      </trkpt>
      <trkpt lat="46.66562" lon="5.58181">
        <ele>286</ele>
        <time>2025-10-10T13:24:12.512+00:00</time>
      </trkpt>
      <trkpt lat="46.66563" lon="5.58176">
        <ele>285</ele>
        <time>2025-10-10T13:24:17.398+00:00</time>
      </trkpt>
      <trkpt lat="46.66561" lon="5.58171">
        <ele>285</ele>
        <time>2025-10-10T13:24:21.504+00:00</time>
      </trkpt>
      <trkpt lat="46.66563" lon="5.58167">
        <ele>285</ele>
        <time>2025-10-10T13:24:26.492+00:00</time>
      </trkpt>
      <trkpt lat="46.66567" lon="5.58161">
        <ele>285</ele>
        <time>2025-10-10T13:24:31.156+00:00</time>
      </trkpt>
      <trkpt lat="46.66572" lon="5.58158">
        <ele>284</ele>
        <time>2025-10-10T13:24:35.387+00:00</time>
      </trkpt>
      <trkpt lat="46.66574" lon="5.58152">
        <ele>284</ele>
        <time>2025-10-10T13:24:39.490+00:00</time>
      </trkpt>
      <trkpt lat="46.66577" lon="5.58145">
        <ele>284</ele>
        <time>2025-10-10T13:24:43.752+00:00</time>
      </trkpt>
      <trkpt lat="46.66581" lon="5.58139">
        <ele>284</ele>
        <time>2025-10-10T13:24:47.871+00:00</time>
      </trkpt>
      <trkpt lat="46.66586" lon="5.58132">
        <ele>284</ele>
        <time>2025-10-10T13:24:52.114+00:00</time>
      </trkpt>
      <trkpt lat="46.6659" lon="5.58127">
        <ele>284</ele>
        <time>2025-10-10T13:24:56.269+00:00</time>
      </trkpt>
      <trkpt lat="46.66593" lon="5.58123">
        <ele>284</ele>
        <time>2025-10-10T13:25:00.211+00:00</time>
      </trkpt>
      <trkpt lat="46.66601" lon="5.58114">
        <ele>285</ele>
        <time>2025-10-10T13:25:24.088+00:00</time>
      </trkpt>
      <trkpt lat="46.66596" lon="5.58122">
        <ele>284</ele>
        <time>2025-10-10T13:25:28.492+00:00</time>
      </trkpt>
      <trkpt lat="46.66592" lon="5.58129">
        <ele>284</ele>
        <time>2025-10-10T13:25:32.496+00:00</time>
      </trkpt>
      <trkpt lat="46.66588" lon="5.58135">
        <ele>284</ele>
        <time>2025-10-10T13:25:36.522+00:00</time>
      </trkpt>
      <trkpt lat="46.66585" lon="5.58142">
        <ele>284</ele>
        <time>2025-10-10T13:25:41.497+00:00</time>
      </trkpt>
      <trkpt lat="46.66587" lon="5.58137">
        <ele>284</ele>
        <time>2025-10-10T13:25:45.712+00:00</time>
      </trkpt>
      <trkpt lat="46.66584" lon="5.58138">
        <ele>284</ele>
        <time>2025-10-10T13:25:50.498+00:00</time>
      </trkpt>
      <trkpt lat="46.66584" lon="5.58137">
        <ele>284</ele>
        <time>2025-10-10T13:25:54.504+00:00</time>
      </trkpt>
      <trkpt lat="46.6658" lon="5.58141">
        <ele>284</ele>
        <time>2025-10-10T13:25:59.504+00:00</time>
      </trkpt>
      <trkpt lat="46.66579" lon="5.58142">
        <ele>284</ele>
        <time>2025-10-10T13:26:04.499+00:00</time>
      </trkpt>
      <trkpt lat="46.66577" lon="5.58143">
        <ele>284</ele>
        <time>2025-10-10T13:29:11.498+00:00</time>
      </trkpt>
      <trkpt lat="46.66578" lon="5.58145">
        <ele>284</ele>
        <time>2025-10-10T13:29:18.496+00:00</time>
      </trkpt>
      <trkpt lat="46.66577" lon="5.58145">
        <ele>284</ele>
        <time>2025-10-10T13:29:22.498+00:00</time>
      </trkpt>
      <trkpt lat="46.66577" lon="5.58146">
        <ele>284</ele>
        <time>2025-10-10T13:29:26.500+00:00</time>
      </trkpt>
      <trkpt lat="46.66571" lon="5.58151">
        <ele>284</ele>
        <time>2025-10-10T13:29:30.972+00:00</time>
      </trkpt>
      <trkpt lat="46.66565" lon="5.5815">
        <ele>285</ele>
        <time>2025-10-10T13:29:35.171+00:00</time>
      </trkpt>
      <trkpt lat="46.66559" lon="5.58148">
        <ele>285</ele>
        <time>2025-10-10T13:29:39.492+00:00</time>
      </trkpt>
      <trkpt lat="46.66554" lon="5.58151">
        <ele>285</ele>
        <time>2025-10-10T13:29:44.115+00:00</time>
      </trkpt>
      <trkpt lat="46.6655" lon="5.58155">
        <ele>285</ele>
        <time>2025-10-10T13:29:48.498+00:00</time>
      </trkpt>
      <trkpt lat="46.66545" lon="5.5816">
        <ele>285</ele>
        <time>2025-10-10T13:29:53.196+00:00</time>
      </trkpt>
      <trkpt lat="46.66539" lon="5.58165">
        <ele>285</ele>
        <time>2025-10-10T13:29:58.348+00:00</time>
      </trkpt>
      <trkpt lat="46.66535" lon="5.58168">
        <ele>285</ele>
        <time>2025-10-10T13:30:02.500+00:00</time>
      </trkpt>
      <trkpt lat="46.66531" lon="5.58169">
        <ele>285</ele>
        <time>2025-10-10T13:30:07.492+00:00</time>
      </trkpt>
      <trkpt lat="46.66525" lon="5.58174">
        <ele>285</ele>
        <time>2025-10-10T13:30:30.498+00:00</time>
      </trkpt>
      <trkpt lat="46.66524" lon="5.58176">
        <ele>285</ele>
        <time>2025-10-10T13:30:35.129+00:00</time>
      </trkpt>
      <trkpt lat="46.6652" lon="5.58176">
        <ele>285</ele>
        <time>2025-10-10T13:30:39.148+00:00</time>
      </trkpt>
      <trkpt lat="46.66517" lon="5.58175">
        <ele>285</ele>
        <time>2025-10-10T13:30:43.450+00:00</time>
      </trkpt>
      <trkpt lat="46.66515" lon="5.58173">
        <ele>285</ele>
        <time>2025-10-10T13:30:48.016+00:00</time>
      </trkpt>
      <trkpt lat="46.66515" lon="5.58173">
        <ele>285</ele>
        <time>2025-10-10T13:30:52.042+00:00</time>
      </trkpt>
      <trkpt lat="46.66514" lon="5.58175">
        <ele>285</ele>
        <time>2025-10-10T13:30:56.497+00:00</time>
      </trkpt>
      <trkpt lat="46.66514" lon="5.58176">
        <ele>285</ele>
        <time>2025-10-10T13:31:01.429+00:00</time>
      </trkpt>
      <trkpt lat="46.66509" lon="5.58173">
        <ele>286</ele>
        <time>2025-10-10T13:31:06.088+00:00</time>
      </trkpt>
      <trkpt lat="46.66505" lon="5.58169">
        <ele>286</ele>
        <time>2025-10-10T13:31:10.495+00:00</time>
      </trkpt>
      <trkpt lat="46.66504" lon="5.58168">
        <ele>286</ele>
        <time>2025-10-10T13:31:14.673+00:00</time>
      </trkpt>
      <trkpt lat="46.66499" lon="5.58165">
        <ele>286</ele>
        <time>2025-10-10T13:31:19.188+00:00</time>
      </trkpt>
      <trkpt lat="46.66495" lon="5.58164">
        <ele>286</ele>
        <time>2025-10-10T13:31:23.232+00:00</time>
      </trkpt>
      <trkpt lat="46.66492" lon="5.58161">
        <ele>286</ele>
        <time>2025-10-10T13:31:27.500+00:00</time>
      </trkpt>
      <trkpt lat="46.66488" lon="5.58159">
        <ele>286</ele>
        <time>2025-10-10T13:31:32.013+00:00</time>
      </trkpt>
      <trkpt lat="46.66484" lon="5.58156">
        <ele>286</ele>
        <time>2025-10-10T13:31:36.498+00:00</time>
      </trkpt>
      <trkpt lat="46.6648" lon="5.58153">
        <ele>287</ele>
        <time>2025-10-10T13:31:41.093+00:00</time>
      </trkpt>
      <trkpt lat="46.66477" lon="5.58149">
        <ele>287</ele>
        <time>2025-10-10T13:31:45.496+00:00</time>
      </trkpt>
      <trkpt lat="46.66472" lon="5.58146">
        <ele>287</ele>
        <time>2025-10-10T13:31:50.134+00:00</time>
      </trkpt>
      <trkpt lat="46.66467" lon="5.58144">
        <ele>287</ele>
        <time>2025-10-10T13:31:54.849+00:00</time>
      </trkpt>
      <trkpt lat="46.66462" lon="5.58142">
        <ele>287</ele>
        <time>2025-10-10T13:31:58.989+00:00</time>
      </trkpt>
      <trkpt lat="46.66458" lon="5.58139">
        <ele>285</ele>
        <time>2025-10-10T13:32:03.316+00:00</time>
      </trkpt>
      <trkpt lat="46.66454" lon="5.58136">
        <ele>285</ele>
        <time>2025-10-10T13:32:07.496+00:00</time>
      </trkpt>
      <trkpt lat="46.6645" lon="5.58134">
        <ele>285</ele>
        <time>2025-10-10T13:32:11.771+00:00</time>
      </trkpt>
      <trkpt lat="46.66446" lon="5.58131">
        <ele>285</ele>
        <time>2025-10-10T13:32:15.892+00:00</time>
      </trkpt>
      <trkpt lat="46.66442" lon="5.58128">
        <ele>285</ele>
        <time>2025-10-10T13:32:20.109+00:00</time>
      </trkpt>
      <trkpt lat="46.66438" lon="5.58126">
        <ele>285</ele>
        <time>2025-10-10T13:32:24.496+00:00</time>
      </trkpt>
      <trkpt lat="46.66432" lon="5.58124">
        <ele>287</ele>
        <time>2025-10-10T13:32:29.009+00:00</time>
      </trkpt>
      <trkpt lat="46.66428" lon="5.58121">
        <ele>286</ele>
        <time>2025-10-10T13:32:33.413+00:00</time>
      </trkpt>
      <trkpt lat="46.66426" lon="5.58116">
        <ele>286</ele>
        <time>2025-10-10T13:32:37.474+00:00</time>
      </trkpt>
      <trkpt lat="46.66427" lon="5.58111">
        <ele>286</ele>
        <time>2025-10-10T13:32:41.495+00:00</time>
      </trkpt>
      <trkpt lat="46.66431" lon="5.58108">
        <ele>287</ele>
        <time>2025-10-10T13:32:46.067+00:00</time>
      </trkpt>
      <trkpt lat="46.66435" lon="5.58106">
        <ele>287</ele>
        <time>2025-10-10T13:32:50.249+00:00</time>
      </trkpt>
      <trkpt lat="46.6644" lon="5.58104">
        <ele>287</ele>
        <time>2025-10-10T13:32:54.652+00:00</time>
      </trkpt>
      <trkpt lat="46.66444" lon="5.581">
        <ele>287</ele>
        <time>2025-10-10T13:32:59.236+00:00</time>
      </trkpt>
      <trkpt lat="46.66448" lon="5.58096">
        <ele>287</ele>
        <time>2025-10-10T13:33:03.496+00:00</time>
      </trkpt>
      <trkpt lat="46.66453" lon="5.5809">
        <ele>287</ele>
        <time>2025-10-10T13:33:08.374+00:00</time>
      </trkpt>
      <trkpt lat="46.66457" lon="5.58085">
        <ele>287</ele>
        <time>2025-10-10T13:33:12.888+00:00</time>
      </trkpt>
      <trkpt lat="46.66461" lon="5.5808">
        <ele>287</ele>
        <time>2025-10-10T13:33:17.453+00:00</time>
      </trkpt>
      <trkpt lat="46.66465" lon="5.58074">
        <ele>287</ele>
        <time>2025-10-10T13:33:21.473+00:00</time>
      </trkpt>
      <trkpt lat="46.66468" lon="5.58069">
        <ele>286</ele>
        <time>2025-10-10T13:33:25.493+00:00</time>
      </trkpt>
      <trkpt lat="46.66472" lon="5.58067">
        <ele>286</ele>
        <time>2025-10-10T13:33:29.499+00:00</time>
      </trkpt>
      <trkpt lat="46.66474" lon="5.58059">
        <ele>286</ele>
        <time>2025-10-10T13:33:33.994+00:00</time>
      </trkpt>
      <trkpt lat="46.66478" lon="5.58053">
        <ele>286</ele>
        <time>2025-10-10T13:33:38.233+00:00</time>
      </trkpt>
      <trkpt lat="46.66479" lon="5.58047">
        <ele>286</ele>
        <time>2025-10-10T13:33:42.252+00:00</time>
      </trkpt>
      <trkpt lat="46.66486" lon="5.58045">
        <ele>286</ele>
        <time>2025-10-10T13:33:46.331+00:00</time>
      </trkpt>
      <trkpt lat="46.66488" lon="5.58044">
        <ele>286</ele>
        <time>2025-10-10T13:33:50.751+00:00</time>
      </trkpt>
      <trkpt lat="46.6649" lon="5.58045">
        <ele>286</ele>
        <time>2025-10-10T13:33:54.788+00:00</time>
      </trkpt>
      <trkpt lat="46.66494" lon="5.58051">
        <ele>286</ele>
        <time>2025-10-10T13:33:59.392+00:00</time>
      </trkpt>
      <trkpt lat="46.665" lon="5.58021">
        <ele>283</ele>
        <time>2025-10-10T13:34:03.855+00:00</time>
      </trkpt>
      <trkpt lat="46.66505" lon="5.58016">
        <ele>283</ele>
        <time>2025-10-10T13:34:08.457+00:00</time>
      </trkpt>
      <trkpt lat="46.66508" lon="5.5801">
        <ele>281</ele>
        <time>2025-10-10T13:34:12.496+00:00</time>
      </trkpt>
      <trkpt lat="46.66511" lon="5.58004">
        <ele>281</ele>
        <time>2025-10-10T13:34:17.073+00:00</time>
      </trkpt>
      <trkpt lat="46.66514" lon="5.57998">
        <ele>281</ele>
        <time>2025-10-10T13:34:21.152+00:00</time>
      </trkpt>
      <trkpt lat="46.66518" lon="5.57992">
        <ele>281</ele>
        <time>2025-10-10T13:34:25.590+00:00</time>
      </trkpt>
      <trkpt lat="46.66521" lon="5.57986">
        <ele>281</ele>
        <time>2025-10-10T13:34:30.191+00:00</time>
      </trkpt>
      <trkpt lat="46.66525" lon="5.57979">
        <ele>281</ele>
        <time>2025-10-10T13:34:34.500+00:00</time>
      </trkpt>
      <trkpt lat="46.66529" lon="5.57973">
        <ele>281</ele>
        <time>2025-10-10T13:34:39.013+00:00</time>
      </trkpt>
      <trkpt lat="46.66532" lon="5.57966">
        <ele>281</ele>
        <time>2025-10-10T13:34:43.433+00:00</time>
      </trkpt>
      <trkpt lat="46.66535" lon="5.57959">
        <ele>281</ele>
        <time>2025-10-10T13:34:47.888+00:00</time>
      </trkpt>
      <trkpt lat="46.66538" lon="5.57952">
        <ele>282</ele>
        <time>2025-10-10T13:34:52.273+00:00</time>
      </trkpt>
      <trkpt lat="46.66541" lon="5.57946">
        <ele>282</ele>
        <time>2025-10-10T13:34:56.498+00:00</time>
      </trkpt>
      <trkpt lat="46.66545" lon="5.5794">
        <ele>282</ele>
        <time>2025-10-10T13:35:01.242+00:00</time>
      </trkpt>
      <trkpt lat="46.66548" lon="5.57933">
        <ele>282</ele>
        <time>2025-10-10T13:35:05.493+00:00</time>
      </trkpt>
      <trkpt lat="46.66551" lon="5.57927">
        <ele>282</ele>
        <time>2025-10-10T13:35:10.169+00:00</time>
      </trkpt>
      <trkpt lat="46.66555" lon="5.57921">
        <ele>282</ele>
        <time>2025-10-10T13:35:14.493+00:00</time>
      </trkpt>
      <trkpt lat="46.66558" lon="5.57914">
        <ele>282</ele>
        <time>2025-10-10T13:35:19.251+00:00</time>
      </trkpt>
      <trkpt lat="46.6656" lon="5.57908">
        <ele>282</ele>
        <time>2025-10-10T13:35:23.495+00:00</time>
      </trkpt>
      <trkpt lat="46.66564" lon="5.579">
        <ele>283</ele>
        <time>2025-10-10T13:35:28.209+00:00</time>
      </trkpt>
      <trkpt lat="46.66567" lon="5.57893">
        <ele>283</ele>
        <time>2025-10-10T13:35:32.494+00:00</time>
      </trkpt>
      <trkpt lat="46.6657" lon="5.57886">
        <ele>281</ele>
        <time>2025-10-10T13:35:37.227+00:00</time>
      </trkpt>
      <trkpt lat="46.66573" lon="5.5788">
        <ele>281</ele>
        <time>2025-10-10T13:35:41.854+00:00</time>
      </trkpt>
      <trkpt lat="46.66576" lon="5.57874">
        <ele>282</ele>
        <time>2025-10-10T13:35:46.275+00:00</time>
      </trkpt>
      <trkpt lat="46.66578" lon="5.57866">
        <ele>282</ele>
        <time>2025-10-10T13:35:50.833+00:00</time>
      </trkpt>
      <trkpt lat="46.66581" lon="5.57859">
        <ele>282</ele>
        <time>2025-10-10T13:35:55.166+00:00</time>
      </trkpt>
      <trkpt lat="46.66585" lon="5.57852">
        <ele>282</ele>
        <time>2025-10-10T13:35:59.494+00:00</time>
      </trkpt>
      <trkpt lat="46.66589" lon="5.57845">
        <ele>281</ele>
        <time>2025-10-10T13:36:04.433+00:00</time>
      </trkpt>
      <trkpt lat="46.66591" lon="5.57838">
        <ele>281</ele>
        <time>2025-10-10T13:36:08.493+00:00</time>
      </trkpt>
      <trkpt lat="46.66594" lon="5.57831">
        <ele>281</ele>
        <time>2025-10-10T13:36:13.472+00:00</time>
      </trkpt>
      <trkpt lat="46.66596" lon="5.57825">
        <ele>281</ele>
        <time>2025-10-10T13:36:17.495+00:00</time>
      </trkpt>
      <trkpt lat="46.66598" lon="5.57817">
        <ele>281</ele>
        <time>2025-10-10T13:36:22.494+00:00</time>
      </trkpt>
      <trkpt lat="46.66602" lon="5.5781">
        <ele>281</ele>
        <time>2025-10-10T13:36:27.193+00:00</time>
      </trkpt>
      <trkpt lat="46.66603" lon="5.57803">
        <ele>281</ele>
        <time>2025-10-10T13:36:31.495+00:00</time>
      </trkpt>
      <trkpt lat="46.66606" lon="5.57796">
        <ele>281</ele>
        <time>2025-10-10T13:36:35.901+00:00</time>
      </trkpt>
      <trkpt lat="46.66608" lon="5.57789">
        <ele>280</ele>
        <time>2025-10-10T13:36:40.192+00:00</time>
      </trkpt>
      <trkpt lat="46.6661" lon="5.57784">
        <ele>280</ele>
        <time>2025-10-10T13:36:44.494+00:00</time>
      </trkpt>
      <trkpt lat="46.66613" lon="5.57779">
        <ele>280</ele>
        <time>2025-10-10T13:36:48.553+00:00</time>
      </trkpt>
      <trkpt lat="46.66616" lon="5.57772">
        <ele>280</ele>
        <time>2025-10-10T13:36:53.153+00:00</time>
      </trkpt>
      <trkpt lat="46.66618" lon="5.57765">
        <ele>280</ele>
        <time>2025-10-10T13:36:57.309+00:00</time>
      </trkpt>
      <trkpt lat="46.6662" lon="5.57757">
        <ele>280</ele>
        <time>2025-10-10T13:37:01.497+00:00</time>
      </trkpt>
      <trkpt lat="46.6662" lon="5.5775">
        <ele>280</ele>
        <time>2025-10-10T13:37:05.809+00:00</time>
      </trkpt>
      <trkpt lat="46.66619" lon="5.57743">
        <ele>280</ele>
        <time>2025-10-10T13:37:09.888+00:00</time>
      </trkpt>
      <trkpt lat="46.66619" lon="5.57735">
        <ele>281</ele>
        <time>2025-10-10T13:37:14.494+00:00</time>
      </trkpt>
      <trkpt lat="46.6662" lon="5.57728">
        <ele>281</ele>
        <time>2025-10-10T13:37:18.496+00:00</time>
      </trkpt>
      <trkpt lat="46.6662" lon="5.57721">
        <ele>281</ele>
        <time>2025-10-10T13:37:22.747+00:00</time>
      </trkpt>
      <trkpt lat="46.66622" lon="5.57712">
        <ele>281</ele>
        <time>2025-10-10T13:37:27.390+00:00</time>
      </trkpt>
      <trkpt lat="46.66624" lon="5.57705">
        <ele>282</ele>
        <time>2025-10-10T13:37:32.033+00:00</time>
      </trkpt>
      <trkpt lat="46.66626" lon="5.57697">
        <ele>281</ele>
        <time>2025-10-10T13:37:36.495+00:00</time>
      </trkpt>
      <trkpt lat="46.66628" lon="5.5769">
        <ele>281</ele>
        <time>2025-10-10T13:37:41.248+00:00</time>
      </trkpt>
      <trkpt lat="46.66629" lon="5.57683">
        <ele>281</ele>
        <time>2025-10-10T13:37:45.328+00:00</time>
      </trkpt>
      <trkpt lat="46.66631" lon="5.57677">
        <ele>281</ele>
        <time>2025-10-10T13:37:49.433+00:00</time>
      </trkpt>
      <trkpt lat="46.66633" lon="5.5767">
        <ele>281</ele>
        <time>2025-10-10T13:37:53.501+00:00</time>
      </trkpt>
      <trkpt lat="46.66635" lon="5.57664">
        <ele>281</ele>
        <time>2025-10-10T13:37:57.495+00:00</time>
      </trkpt>
      <trkpt lat="46.66639" lon="5.57657">
        <ele>281</ele>
        <time>2025-10-10T13:38:02.207+00:00</time>
      </trkpt>
      <trkpt lat="46.66642" lon="5.5765">
        <ele>282</ele>
        <time>2025-10-10T13:38:06.494+00:00</time>
      </trkpt>
      <trkpt lat="46.66644" lon="5.57642">
        <ele>282</ele>
        <time>2025-10-10T13:38:11.496+00:00</time>
      </trkpt>
      <trkpt lat="46.66646" lon="5.57634">
        <ele>282</ele>
        <time>2025-10-10T13:38:16.095+00:00</time>
      </trkpt>
      <trkpt lat="46.66647" lon="5.57626">
        <ele>282</ele>
        <time>2025-10-10T13:38:20.495+00:00</time>
      </trkpt>
      <trkpt lat="46.66649" lon="5.57617">
        <ele>282</ele>
        <time>2025-10-10T13:38:25.069+00:00</time>
      </trkpt>
      <trkpt lat="46.66651" lon="5.57609">
        <ele>282</ele>
        <time>2025-10-10T13:38:29.495+00:00</time>
      </trkpt>
      <trkpt lat="46.66653" lon="5.57602">
        <ele>281</ele>
        <time>2025-10-10T13:38:34.114+00:00</time>
      </trkpt>
      <trkpt lat="46.66654" lon="5.57594">
        <ele>282</ele>
        <time>2025-10-10T13:38:38.492+00:00</time>
      </trkpt>
      <trkpt lat="46.66655" lon="5.57586">
        <ele>282</ele>
        <time>2025-10-10T13:38:42.632+00:00</time>
      </trkpt>
      <trkpt lat="46.66655" lon="5.57579">
        <ele>282</ele>
        <time>2025-10-10T13:38:47.153+00:00</time>
      </trkpt>
      <trkpt lat="46.66656" lon="5.57571">
        <ele>282</ele>
        <time>2025-10-10T13:38:51.428+00:00</time>
      </trkpt>
      <trkpt lat="46.66657" lon="5.57563">
        <ele>283</ele>
        <time>2025-10-10T13:38:55.952+00:00</time>
      </trkpt>
      <trkpt lat="46.66658" lon="5.57555">
        <ele>283</ele>
        <time>2025-10-10T13:39:00.498+00:00</time>
      </trkpt>
      <trkpt lat="46.66659" lon="5.57547">
        <ele>283</ele>
        <time>2025-10-10T13:39:05.092+00:00</time>
      </trkpt>
      <trkpt lat="46.6666" lon="5.57539">
        <ele>282</ele>
        <time>2025-10-10T13:39:09.500+00:00</time>
      </trkpt>
      <trkpt lat="46.66662" lon="5.5753">
        <ele>282</ele>
        <time>2025-10-10T13:39:14.392+00:00</time>
      </trkpt>
      <trkpt lat="46.66663" lon="5.57524">
        <ele>282</ele>
        <time>2025-10-10T13:39:18.494+00:00</time>
      </trkpt>
      <trkpt lat="46.66665" lon="5.57515">
        <ele>282</ele>
        <time>2025-10-10T13:39:23.493+00:00</time>
      </trkpt>
      <trkpt lat="46.66666" lon="5.57509">
        <ele>280</ele>
        <time>2025-10-10T13:39:27.495+00:00</time>
      </trkpt>
      <trkpt lat="46.66667" lon="5.57501">
        <ele>280</ele>
        <time>2025-10-10T13:39:32.058+00:00</time>
      </trkpt>
      <trkpt lat="46.66668" lon="5.57493">
        <ele>280</ele>
        <time>2025-10-10T13:39:36.196+00:00</time>
      </trkpt>
      <trkpt lat="46.66669" lon="5.57486">
        <ele>278</ele>
        <time>2025-10-10T13:39:40.505+00:00</time>
      </trkpt>
      <trkpt lat="46.6667" lon="5.57477">
        <ele>278</ele>
        <time>2025-10-10T13:39:45.412+00:00</time>
      </trkpt>
      <trkpt lat="46.66671" lon="5.5747">
        <ele>278</ele>
        <time>2025-10-10T13:39:49.496+00:00</time>
      </trkpt>
      <trkpt lat="46.66673" lon="5.57461">
        <ele>278</ele>
        <time>2025-10-10T13:39:54.416+00:00</time>
      </trkpt>
      <trkpt lat="46.66675" lon="5.57453">
        <ele>276</ele>
        <time>2025-10-10T13:39:59.016+00:00</time>
      </trkpt>
      <trkpt lat="46.66676" lon="5.57445">
        <ele>276</ele>
        <time>2025-10-10T13:40:03.498+00:00</time>
      </trkpt>
      <trkpt lat="46.66678" lon="5.57437">
        <ele>276</ele>
        <time>2025-10-10T13:40:08.078+00:00</time>
      </trkpt>
      <trkpt lat="46.6668" lon="5.57429">
        <ele>276</ele>
        <time>2025-10-10T13:40:12.491+00:00</time>
      </trkpt>
      <trkpt lat="46.66681" lon="5.57423">
        <ele>275</ele>
        <time>2025-10-10T13:40:16.495+00:00</time>
      </trkpt>
      <trkpt lat="46.66683" lon="5.57415">
        <ele>275</ele>
        <time>2025-10-10T13:40:20.854+00:00</time>
      </trkpt>
      <trkpt lat="46.66684" lon="5.57406">
        <ele>275</ele>
        <time>2025-10-10T13:40:25.274+00:00</time>
      </trkpt>
      <trkpt lat="46.66686" lon="5.57399">
        <ele>274</ele>
        <time>2025-10-10T13:40:29.473+00:00</time>
      </trkpt>
      <trkpt lat="46.66687" lon="5.57392">
        <ele>274</ele>
        <time>2025-10-10T13:40:33.495+00:00</time>
      </trkpt>
      <trkpt lat="46.66689" lon="5.57383">
        <ele>274</ele>
        <time>2025-10-10T13:40:38.495+00:00</time>
      </trkpt>
      <trkpt lat="46.6669" lon="5.57376">
        <ele>274</ele>
        <time>2025-10-10T13:40:42.554+00:00</time>
      </trkpt>
      <trkpt lat="46.66691" lon="5.57367">
        <ele>274</ele>
        <time>2025-10-10T13:40:47.292+00:00</time>
      </trkpt>
      <trkpt lat="46.66692" lon="5.57361">
        <ele>274</ele>
        <time>2025-10-10T13:40:51.395+00:00</time>
      </trkpt>
      <trkpt lat="46.66693" lon="5.57354">
        <ele>274</ele>
        <time>2025-10-10T13:40:55.415+00:00</time>
      </trkpt>
      <trkpt lat="46.66695" lon="5.57347">
        <ele>275</ele>
        <time>2025-10-10T13:40:59.490+00:00</time>
      </trkpt>
      <trkpt lat="46.66697" lon="5.57339">
        <ele>275</ele>
        <time>2025-10-10T13:41:04.143+00:00</time>
      </trkpt>
      <trkpt lat="46.66698" lon="5.57331">
        <ele>275</ele>
        <time>2025-10-10T13:41:08.494+00:00</time>
      </trkpt>
      <trkpt lat="46.667" lon="5.57323">
        <ele>275</ele>
        <time>2025-10-10T13:41:13.231+00:00</time>
      </trkpt>
      <trkpt lat="46.66702" lon="5.57316">
        <ele>275</ele>
        <time>2025-10-10T13:41:17.501+00:00</time>
      </trkpt>
      <trkpt lat="46.66704" lon="5.57307">
        <ele>275</ele>
        <time>2025-10-10T13:41:22.355+00:00</time>
      </trkpt>
      <trkpt lat="46.66706" lon="5.57299">
        <ele>275</ele>
        <time>2025-10-10T13:41:26.878+00:00</time>
      </trkpt>
      <trkpt lat="46.66708" lon="5.57292">
        <ele>273</ele>
        <time>2025-10-10T13:41:31.436+00:00</time>
      </trkpt>
      <trkpt lat="46.6671" lon="5.57285">
        <ele>274</ele>
        <time>2025-10-10T13:41:35.492+00:00</time>
      </trkpt>
      <trkpt lat="46.66713" lon="5.57278">
        <ele>274</ele>
        <time>2025-10-10T13:41:40.055+00:00</time>
      </trkpt>
      <trkpt lat="46.66716" lon="5.5727">
        <ele>274</ele>
        <time>2025-10-10T13:41:44.493+00:00</time>
      </trkpt>
      <trkpt lat="46.66718" lon="5.57261">
        <ele>275</ele>
        <time>2025-10-10T13:41:49.417+00:00</time>
      </trkpt>
      <trkpt lat="46.66721" lon="5.57255">
        <ele>275</ele>
        <time>2025-10-10T13:41:53.493+00:00</time>
      </trkpt>
      <trkpt lat="46.66723" lon="5.57249">
        <ele>275</ele>
        <time>2025-10-10T13:41:57.495+00:00</time>
      </trkpt>
      <trkpt lat="46.66726" lon="5.57241">
        <ele>275</ele>
        <time>2025-10-10T13:42:02.336+00:00</time>
      </trkpt>
      <trkpt lat="46.66728" lon="5.57237">
        <ele>275</ele>
        <time>2025-10-10T13:42:07.090+00:00</time>
      </trkpt>
      <trkpt lat="46.66728" lon="5.57231">
        <ele>276</ele>
        <time>2025-10-10T13:42:11.495+00:00</time>
      </trkpt>
      <trkpt lat="46.66726" lon="5.57226">
        <ele>276</ele>
        <time>2025-10-10T13:42:16.493+00:00</time>
      </trkpt>
      <trkpt lat="46.6672" lon="5.57224">
        <ele>276</ele>
        <time>2025-10-10T13:42:20.795+00:00</time>
      </trkpt>
      <trkpt lat="46.66715" lon="5.57222">
        <ele>276</ele>
        <time>2025-10-10T13:42:25.292+00:00</time>
      </trkpt>
      <trkpt lat="46.66711" lon="5.57217">
        <ele>276</ele>
        <time>2025-10-10T13:42:29.953+00:00</time>
      </trkpt>
      <trkpt lat="46.66707" lon="5.57212">
        <ele>278</ele>
        <time>2025-10-10T13:42:33.996+00:00</time>
      </trkpt>
      <trkpt lat="46.66705" lon="5.57207">
        <ele>278</ele>
        <time>2025-10-10T13:42:38.119+00:00</time>
      </trkpt>
      <trkpt lat="46.66701" lon="5.57201">
        <ele>278</ele>
        <time>2025-10-10T13:42:42.214+00:00</time>
      </trkpt>
      <trkpt lat="46.66698" lon="5.57194">
        <ele>278</ele>
        <time>2025-10-10T13:42:46.456+00:00</time>
      </trkpt>
      <trkpt lat="46.66697" lon="5.57188">
        <ele>278</ele>
        <time>2025-10-10T13:42:50.500+00:00</time>
      </trkpt>
      <trkpt lat="46.66696" lon="5.57181">
        <ele>278</ele>
        <time>2025-10-10T13:42:54.777+00:00</time>
      </trkpt>
      <trkpt lat="46.66695" lon="5.57174">
        <ele>279</ele>
        <time>2025-10-10T13:42:59.273+00:00</time>
      </trkpt>
      <trkpt lat="46.66694" lon="5.57167">
        <ele>279</ele>
        <time>2025-10-10T13:43:03.440+00:00</time>
      </trkpt>
      <trkpt lat="46.66693" lon="5.57158">
        <ele>279</ele>
        <time>2025-10-10T13:43:08.054+00:00</time>
      </trkpt>
      <trkpt lat="46.66693" lon="5.5715">
        <ele>282</ele>
        <time>2025-10-10T13:43:12.321+00:00</time>
      </trkpt>
      <trkpt lat="46.66693" lon="5.5714">
        <ele>282</ele>
        <time>2025-10-10T13:43:16.996+00:00</time>
      </trkpt>
      <trkpt lat="46.66692" lon="5.57132">
        <ele>282</ele>
        <time>2025-10-10T13:43:21.494+00:00</time>
      </trkpt>
      <trkpt lat="46.66693" lon="5.57125">
        <ele>282</ele>
        <time>2025-10-10T13:43:25.493+00:00</time>
      </trkpt>
      <trkpt lat="46.66696" lon="5.57118">
        <ele>283</ele>
        <time>2025-10-10T13:43:30.232+00:00</time>
      </trkpt>
      <trkpt lat="46.66697" lon="5.57111">
        <ele>283</ele>
        <time>2025-10-10T13:43:34.278+00:00</time>
      </trkpt>
      <trkpt lat="46.667" lon="5.57103">
        <ele>283</ele>
        <time>2025-10-10T13:43:38.758+00:00</time>
      </trkpt>
      <trkpt lat="46.66702" lon="5.57095">
        <ele>283</ele>
        <time>2025-10-10T13:43:43.274+00:00</time>
      </trkpt>
      <trkpt lat="46.66705" lon="5.57088">
        <ele>283</ele>
        <time>2025-10-10T13:43:47.377+00:00</time>
      </trkpt>
      <trkpt lat="46.66707" lon="5.57082">
        <ele>283</ele>
        <time>2025-10-10T13:43:51.457+00:00</time>
      </trkpt>
      <trkpt lat="46.66709" lon="5.57075">
        <ele>277</ele>
        <time>2025-10-10T13:43:55.492+00:00</time>
      </trkpt>
      <trkpt lat="46.6671" lon="5.57068">
        <ele>275</ele>
        <time>2025-10-10T13:43:59.717+00:00</time>
      </trkpt>
      <trkpt lat="46.66712" lon="5.57062">
        <ele>275</ele>
        <time>2025-10-10T13:44:03.773+00:00</time>
      </trkpt>
      <trkpt lat="46.66715" lon="5.57055">
        <ele>275</ele>
        <time>2025-10-10T13:44:07.876+00:00</time>
      </trkpt>
      <trkpt lat="46.66718" lon="5.57049">
        <ele>275</ele>
        <time>2025-10-10T13:44:11.938+00:00</time>
      </trkpt>
      <trkpt lat="46.66719" lon="5.57044">
        <ele>275</ele>
        <time>2025-10-10T13:44:16.196+00:00</time>
      </trkpt>
      <trkpt lat="46.66721" lon="5.57038">
        <ele>275</ele>
        <time>2025-10-10T13:44:20.719+00:00</time>
      </trkpt>
      <trkpt lat="46.66726" lon="5.57034">
        <ele>275</ele>
        <time>2025-10-10T13:44:25.492+00:00</time>
      </trkpt>
      <trkpt lat="46.66731" lon="5.5703">
        <ele>275</ele>
        <time>2025-10-10T13:44:29.978+00:00</time>
      </trkpt>
      <trkpt lat="46.66735" lon="5.57027">
        <ele>275</ele>
        <time>2025-10-10T13:44:34.117+00:00</time>
      </trkpt>
      <trkpt lat="46.66739" lon="5.57022">
        <ele>272</ele>
        <time>2025-10-10T13:44:38.624+00:00</time>
      </trkpt>
      <trkpt lat="46.66744" lon="5.5702">
        <ele>272</ele>
        <time>2025-10-10T13:44:42.745+00:00</time>
      </trkpt>
      <trkpt lat="46.66748" lon="5.57016">
        <ele>272</ele>
        <time>2025-10-10T13:44:47.438+00:00</time>
      </trkpt>
      <trkpt lat="46.66753" lon="5.57016">
        <ele>272</ele>
        <time>2025-10-10T13:44:51.682+00:00</time>
      </trkpt>
      <trkpt lat="46.66757" lon="5.57023">
        <ele>272</ele>
        <time>2025-10-10T13:44:56.372+00:00</time>
      </trkpt>
      <trkpt lat="46.66761" lon="5.57027">
        <ele>272</ele>
        <time>2025-10-10T13:45:00.403+00:00</time>
      </trkpt>
      <trkpt lat="46.66766" lon="5.5703">
        <ele>273</ele>
        <time>2025-10-10T13:45:04.454+00:00</time>
      </trkpt>
      <trkpt lat="46.66771" lon="5.57034">
        <ele>273</ele>
        <time>2025-10-10T13:45:09.037+00:00</time>
      </trkpt>
      <trkpt lat="46.66775" lon="5.5704">
        <ele>273</ele>
        <time>2025-10-10T13:45:13.491+00:00</time>
      </trkpt>
      <trkpt lat="46.66779" lon="5.57045">
        <ele>272</ele>
        <time>2025-10-10T13:45:17.554+00:00</time>
      </trkpt>
      <trkpt lat="46.66784" lon="5.57052">
        <ele>272</ele>
        <time>2025-10-10T13:45:22.491+00:00</time>
      </trkpt>
      <trkpt lat="46.66786" lon="5.57059">
        <ele>272</ele>
        <time>2025-10-10T13:45:27.077+00:00</time>
      </trkpt>
      <trkpt lat="46.6679" lon="5.57064">
        <ele>272</ele>
        <time>2025-10-10T13:45:31.494+00:00</time>
      </trkpt>
      <trkpt lat="46.66794" lon="5.5707">
        <ele>271</ele>
        <time>2025-10-10T13:45:36.088+00:00</time>
      </trkpt>
      <trkpt lat="46.66799" lon="5.57075">
        <ele>271</ele>
        <time>2025-10-10T13:45:40.714+00:00</time>
      </trkpt>
      <trkpt lat="46.66802" lon="5.57081">
        <ele>271</ele>
        <time>2025-10-10T13:45:45.237+00:00</time>
      </trkpt>
      <trkpt lat="46.66806" lon="5.57087">
        <ele>271</ele>
        <time>2025-10-10T13:45:49.692+00:00</time>
      </trkpt>
      <trkpt lat="46.6681" lon="5.57094">
        <ele>271</ele>
        <time>2025-10-10T13:45:54.493+00:00</time>
      </trkpt>
      <trkpt lat="46.66814" lon="5.571">
        <ele>271</ele>
        <time>2025-10-10T13:45:58.894+00:00</time>
      </trkpt>
      <trkpt lat="46.66817" lon="5.57107">
        <ele>271</ele>
        <time>2025-10-10T13:46:03.496+00:00</time>
      </trkpt>
      <trkpt lat="46.66819" lon="5.57116">
        <ele>271</ele>
        <time>2025-10-10T13:46:08.490+00:00</time>
      </trkpt>
      <trkpt lat="46.66821" lon="5.57123">
        <ele>269</ele>
        <time>2025-10-10T13:46:12.829+00:00</time>
      </trkpt>
      <trkpt lat="46.66823" lon="5.5713">
        <ele>270</ele>
        <time>2025-10-10T13:46:17.505+00:00</time>
      </trkpt>
      <trkpt lat="46.66826" lon="5.57138">
        <ele>270</ele>
        <time>2025-10-10T13:46:22.493+00:00</time>
      </trkpt>
      <trkpt lat="46.66829" lon="5.57145">
        <ele>270</ele>
        <time>2025-10-10T13:46:27.193+00:00</time>
      </trkpt>
      <trkpt lat="46.66831" lon="5.57152">
        <ele>270</ele>
        <time>2025-10-10T13:46:31.357+00:00</time>
      </trkpt>
      <trkpt lat="46.66831" lon="5.57158">
        <ele>272</ele>
        <time>2025-10-10T13:46:35.375+00:00</time>
      </trkpt>
      <trkpt lat="46.66835" lon="5.57163">
        <ele>272</ele>
        <time>2025-10-10T13:46:39.595+00:00</time>
      </trkpt>
      <trkpt lat="46.66837" lon="5.5717">
        <ele>272</ele>
        <time>2025-10-10T13:46:44.495+00:00</time>
      </trkpt>
      <trkpt lat="46.6684" lon="5.57175">
        <ele>272</ele>
        <time>2025-10-10T13:46:49.134+00:00</time>
      </trkpt>
      <trkpt lat="46.66845" lon="5.57178">
        <ele>272</ele>
        <time>2025-10-10T13:46:53.490+00:00</time>
      </trkpt>
      <trkpt lat="46.66849" lon="5.57176">
        <ele>272</ele>
        <time>2025-10-10T13:46:58.157+00:00</time>
      </trkpt>
      <trkpt lat="46.66852" lon="5.57168">
        <ele>272</ele>
        <time>2025-10-10T13:47:02.711+00:00</time>
      </trkpt>
      <trkpt lat="46.66853" lon="5.57161">
        <ele>272</ele>
        <time>2025-10-10T13:47:06.731+00:00</time>
      </trkpt>
      <trkpt lat="46.66854" lon="5.57154">
        <ele>272</ele>
        <time>2025-10-10T13:47:10.760+00:00</time>
      </trkpt>
      <trkpt lat="46.66856" lon="5.57147">
        <ele>271</ele>
        <time>2025-10-10T13:47:15.239+00:00</time>
      </trkpt>
      <trkpt lat="46.66859" lon="5.5714">
        <ele>271</ele>
        <time>2025-10-10T13:47:19.506+00:00</time>
      </trkpt>
      <trkpt lat="46.66863" lon="5.57133">
        <ele>271</ele>
        <time>2025-10-10T13:47:24.496+00:00</time>
      </trkpt>
      <trkpt lat="46.66867" lon="5.57127">
        <ele>271</ele>
        <time>2025-10-10T13:47:29.224+00:00</time>
      </trkpt>
      <trkpt lat="46.66871" lon="5.57123">
        <ele>269</ele>
        <time>2025-10-10T13:47:33.799+00:00</time>
      </trkpt>
      <trkpt lat="46.66874" lon="5.57116">
        <ele>269</ele>
        <time>2025-10-10T13:47:37.911+00:00</time>
      </trkpt>
      <trkpt lat="46.66876" lon="5.57108">
        <ele>270</ele>
        <time>2025-10-10T13:47:41.972+00:00</time>
      </trkpt>
      <trkpt lat="46.66878" lon="5.57102">
        <ele>270</ele>
        <time>2025-10-10T13:47:46.081+00:00</time>
      </trkpt>
      <trkpt lat="46.66881" lon="5.57096">
        <ele>269</ele>
        <time>2025-10-10T13:47:50.456+00:00</time>
      </trkpt>
      <trkpt lat="46.66886" lon="5.57091">
        <ele>269</ele>
        <time>2025-10-10T13:47:54.492+00:00</time>
      </trkpt>
      <trkpt lat="46.66891" lon="5.57087">
        <ele>269</ele>
        <time>2025-10-10T13:47:59.093+00:00</time>
      </trkpt>
      <trkpt lat="46.66895" lon="5.57082">
        <ele>269</ele>
        <time>2025-10-10T13:48:03.417+00:00</time>
      </trkpt>
      <trkpt lat="46.66898" lon="5.57077">
        <ele>269</ele>
        <time>2025-10-10T13:48:07.494+00:00</time>
      </trkpt>
      <trkpt lat="46.66901" lon="5.57071">
        <ele>269</ele>
        <time>2025-10-10T13:48:11.994+00:00</time>
      </trkpt>
      <trkpt lat="46.66905" lon="5.57066">
        <ele>271</ele>
        <time>2025-10-10T13:48:16.192+00:00</time>
      </trkpt>
      <trkpt lat="46.66909" lon="5.57059">
        <ele>271</ele>
        <time>2025-10-10T13:48:20.502+00:00</time>
      </trkpt>
      <trkpt lat="46.66912" lon="5.57052">
        <ele>271</ele>
        <time>2025-10-10T13:48:25.488+00:00</time>
      </trkpt>
      <trkpt lat="46.66914" lon="5.57044">
        <ele>271</ele>
        <time>2025-10-10T13:48:29.956+00:00</time>
      </trkpt>
      <trkpt lat="46.66917" lon="5.57037">
        <ele>271</ele>
        <time>2025-10-10T13:48:34.197+00:00</time>
      </trkpt>
      <trkpt lat="46.6692" lon="5.57029">
        <ele>271</ele>
        <time>2025-10-10T13:48:38.677+00:00</time>
      </trkpt>
      <trkpt lat="46.66922" lon="5.57022">
        <ele>271</ele>
        <time>2025-10-10T13:48:43.098+00:00</time>
      </trkpt>
      <trkpt lat="46.66926" lon="5.57017">
        <ele>271</ele>
        <time>2025-10-10T13:48:47.432+00:00</time>
      </trkpt>
      <trkpt lat="46.6693" lon="5.57014">
        <ele>271</ele>
        <time>2025-10-10T13:48:51.497+00:00</time>
      </trkpt>
      <trkpt lat="46.66933" lon="5.57012">
        <ele>271</ele>
        <time>2025-10-10T13:48:55.505+00:00</time>
      </trkpt>
      <trkpt lat="46.66936" lon="5.57007">
        <ele>271</ele>
        <time>2025-10-10T13:48:59.977+00:00</time>
      </trkpt>
      <trkpt lat="46.6694" lon="5.57002">
        <ele>271</ele>
        <time>2025-10-10T13:49:04.039+00:00</time>
      </trkpt>
      <trkpt lat="46.66943" lon="5.56998">
        <ele>271</ele>
        <time>2025-10-10T13:49:08.177+00:00</time>
      </trkpt>
      <trkpt lat="46.66946" lon="5.56992">
        <ele>271</ele>
        <time>2025-10-10T13:49:12.495+00:00</time>
      </trkpt>
      <trkpt lat="46.66951" lon="5.56985">
        <ele>271</ele>
        <time>2025-10-10T13:49:17.017+00:00</time>
      </trkpt>
      <trkpt lat="46.66956" lon="5.56981">
        <ele>271</ele>
        <time>2025-10-10T13:49:21.386+00:00</time>
      </trkpt>
      <trkpt lat="46.66959" lon="5.56977">
        <ele>270</ele>
        <time>2025-10-10T13:49:26.172+00:00</time>
      </trkpt>
      <trkpt lat="46.66965" lon="5.56972">
        <ele>270</ele>
        <time>2025-10-10T13:49:30.494+00:00</time>
      </trkpt>
      <trkpt lat="46.66969" lon="5.56965">
        <ele>270</ele>
        <time>2025-10-10T13:49:35.280+00:00</time>
      </trkpt>
      <trkpt lat="46.66972" lon="5.56957">
        <ele>270</ele>
        <time>2025-10-10T13:49:39.999+00:00</time>
      </trkpt>
      <trkpt lat="46.66976" lon="5.56951">
        <ele>270</ele>
        <time>2025-10-10T13:49:44.490+00:00</time>
      </trkpt>
      <trkpt lat="46.66979" lon="5.56947">
        <ele>270</ele>
        <time>2025-10-10T13:49:48.625+00:00</time>
      </trkpt>
      <trkpt lat="46.66983" lon="5.56942">
        <ele>270</ele>
        <time>2025-10-10T13:49:52.933+00:00</time>
      </trkpt>
      <trkpt lat="46.66987" lon="5.56935">
        <ele>269</ele>
        <time>2025-10-10T13:49:57.495+00:00</time>
      </trkpt>
      <trkpt lat="46.6699" lon="5.5693">
        <ele>269</ele>
        <time>2025-10-10T13:50:02.159+00:00</time>
      </trkpt>
      <trkpt lat="46.66993" lon="5.56924">
        <ele>269</ele>
        <time>2025-10-10T13:50:06.494+00:00</time>
      </trkpt>
      <trkpt lat="46.66996" lon="5.56918">
        <ele>269</ele>
        <time>2025-10-10T13:50:11.180+00:00</time>
      </trkpt>
      <trkpt lat="46.66999" lon="5.56912">
        <ele>269</ele>
        <time>2025-10-10T13:50:15.494+00:00</time>
      </trkpt>
      <trkpt lat="46.67001" lon="5.56905">
        <ele>269</ele>
        <time>2025-10-10T13:50:19.510+00:00</time>
      </trkpt>
      <trkpt lat="46.67005" lon="5.56897">
        <ele>269</ele>
        <time>2025-10-10T13:50:24.474+00:00</time>
      </trkpt>
      <trkpt lat="46.67007" lon="5.56889">
        <ele>269</ele>
        <time>2025-10-10T13:50:29.014+00:00</time>
      </trkpt>
      <trkpt lat="46.67009" lon="5.56882">
        <ele>269</ele>
        <time>2025-10-10T13:50:33.451+00:00</time>
      </trkpt>
      <trkpt lat="46.67011" lon="5.56874">
        <ele>270</ele>
        <time>2025-10-10T13:50:38.016+00:00</time>
      </trkpt>
      <trkpt lat="46.67014" lon="5.56869">
        <ele>270</ele>
        <time>2025-10-10T13:50:42.489+00:00</time>
      </trkpt>
      <trkpt lat="46.67017" lon="5.56862">
        <ele>269</ele>
        <time>2025-10-10T13:50:47.053+00:00</time>
      </trkpt>
      <trkpt lat="46.67021" lon="5.56855">
        <ele>269</ele>
        <time>2025-10-10T13:50:51.494+00:00</time>
      </trkpt>
      <trkpt lat="46.67025" lon="5.56848">
        <ele>269</ele>
        <time>2025-10-10T13:50:55.953+00:00</time>
      </trkpt>
      <trkpt lat="46.67025" lon="5.5684">
        <ele>268</ele>
        <time>2025-10-10T13:51:00.493+00:00</time>
      </trkpt>
      <trkpt lat="46.67023" lon="5.56832">
        <ele>268</ele>
        <time>2025-10-10T13:51:04.555+00:00</time>
      </trkpt>
      <trkpt lat="46.67022" lon="5.56826">
        <ele>268</ele>
        <time>2025-10-10T13:51:08.601+00:00</time>
      </trkpt>
      <trkpt lat="46.67015" lon="5.56824">
        <ele>268</ele>
        <time>2025-10-10T13:51:13.494+00:00</time>
      </trkpt>
      <trkpt lat="46.6701" lon="5.56822">
        <ele>270</ele>
        <time>2025-10-10T13:51:17.919+00:00</time>
      </trkpt>
      <trkpt lat="46.67008" lon="5.56815">
        <ele>270</ele>
        <time>2025-10-10T13:51:22.059+00:00</time>
      </trkpt>
      <trkpt lat="46.67012" lon="5.56807">
        <ele>270</ele>
        <time>2025-10-10T13:51:26.142+00:00</time>
      </trkpt>
      <trkpt lat="46.67018" lon="5.56802">
        <ele>267</ele>
        <time>2025-10-10T13:51:30.493+00:00</time>
      </trkpt>
      <trkpt lat="46.67023" lon="5.56797">
        <ele>267</ele>
        <time>2025-10-10T13:51:34.979+00:00</time>
      </trkpt>
      <trkpt lat="46.67028" lon="5.56792">
        <ele>267</ele>
        <time>2025-10-10T13:51:39.371+00:00</time>
      </trkpt>
      <trkpt lat="46.67032" lon="5.56787">
        <ele>267</ele>
        <time>2025-10-10T13:51:43.492+00:00</time>
      </trkpt>
      <trkpt lat="46.67037" lon="5.56781">
        <ele>267</ele>
        <time>2025-10-10T13:51:48.255+00:00</time>
      </trkpt>
      <trkpt lat="46.67041" lon="5.56776">
        <ele>267</ele>
        <time>2025-10-10T13:51:52.491+00:00</time>
      </trkpt>
      <trkpt lat="46.67045" lon="5.56772">
        <ele>267</ele>
        <time>2025-10-10T13:51:56.559+00:00</time>
      </trkpt>
      <trkpt lat="46.6705" lon="5.56767">
        <ele>267</ele>
        <time>2025-10-10T13:52:00.995+00:00</time>
      </trkpt>
      <trkpt lat="46.67053" lon="5.56763">
        <ele>267</ele>
        <time>2025-10-10T13:52:05.133+00:00</time>
      </trkpt>
      <trkpt lat="46.67057" lon="5.56758">
        <ele>267</ele>
        <time>2025-10-10T13:52:09.597+00:00</time>
      </trkpt>
      <trkpt lat="46.67062" lon="5.56754">
        <ele>267</ele>
        <time>2025-10-10T13:52:14.316+00:00</time>
      </trkpt>
      <trkpt lat="46.67067" lon="5.5675">
        <ele>267</ele>
        <time>2025-10-10T13:52:18.491+00:00</time>
      </trkpt>
      <trkpt lat="46.67072" lon="5.56744">
        <ele>267</ele>
        <time>2025-10-10T13:52:23.175+00:00</time>
      </trkpt>
      <trkpt lat="46.67076" lon="5.5674">
        <ele>267</ele>
        <time>2025-10-10T13:52:27.492+00:00</time>
      </trkpt>
      <trkpt lat="46.67081" lon="5.56734">
        <ele>267</ele>
        <time>2025-10-10T13:52:32.117+00:00</time>
      </trkpt>
      <trkpt lat="46.67085" lon="5.56729">
        <ele>267</ele>
        <time>2025-10-10T13:52:36.494+00:00</time>
      </trkpt>
      <trkpt lat="46.67089" lon="5.56723">
        <ele>267</ele>
        <time>2025-10-10T13:52:41.272+00:00</time>
      </trkpt>
      <trkpt lat="46.67092" lon="5.56716">
        <ele>267</ele>
        <time>2025-10-10T13:52:45.812+00:00</time>
      </trkpt>
      <trkpt lat="46.67094" lon="5.56709">
        <ele>267</ele>
        <time>2025-10-10T13:52:50.216+00:00</time>
      </trkpt>
      <trkpt lat="46.67096" lon="5.56702">
        <ele>267</ele>
        <time>2025-10-10T13:52:54.832+00:00</time>
      </trkpt>
      <trkpt lat="46.67099" lon="5.56694">
        <ele>267</ele>
        <time>2025-10-10T13:52:59.252+00:00</time>
      </trkpt>
      <trkpt lat="46.67102" lon="5.56687">
        <ele>267</ele>
        <time>2025-10-10T13:53:03.801+00:00</time>
      </trkpt>
      <trkpt lat="46.67104" lon="5.5668">
        <ele>267</ele>
        <time>2025-10-10T13:53:08.499+00:00</time>
      </trkpt>
      <trkpt lat="46.67108" lon="5.56673">
        <ele>267</ele>
        <time>2025-10-10T13:53:13.153+00:00</time>
      </trkpt>
      <trkpt lat="46.67112" lon="5.56667">
        <ele>267</ele>
        <time>2025-10-10T13:53:17.632+00:00</time>
      </trkpt>
      <trkpt lat="46.67114" lon="5.5666">
        <ele>267</ele>
        <time>2025-10-10T13:53:22.260+00:00</time>
      </trkpt>
      <trkpt lat="46.67116" lon="5.56651">
        <ele>268</ele>
        <time>2025-10-10T13:53:26.919+00:00</time>
      </trkpt>
      <trkpt lat="46.67118" lon="5.56645">
        <ele>268</ele>
        <time>2025-10-10T13:53:31.340+00:00</time>
      </trkpt>
      <trkpt lat="46.6712" lon="5.56638">
        <ele>268</ele>
        <time>2025-10-10T13:53:35.894+00:00</time>
      </trkpt>
      <trkpt lat="46.67122" lon="5.56631">
        <ele>268</ele>
        <time>2025-10-10T13:53:39.974+00:00</time>
      </trkpt>
      <trkpt lat="46.67124" lon="5.56625">
        <ele>268</ele>
        <time>2025-10-10T13:53:44.079+00:00</time>
      </trkpt>
      <trkpt lat="46.67126" lon="5.56619">
        <ele>267</ele>
        <time>2025-10-10T13:53:48.131+00:00</time>
      </trkpt>
      <trkpt lat="46.67129" lon="5.56614">
        <ele>267</ele>
        <time>2025-10-10T13:53:52.177+00:00</time>
      </trkpt>
      <trkpt lat="46.67132" lon="5.56608">
        <ele>267</ele>
        <time>2025-10-10T13:53:56.494+00:00</time>
      </trkpt>
      <trkpt lat="46.67133" lon="5.566">
        <ele>267</ele>
        <time>2025-10-10T13:54:01.376+00:00</time>
      </trkpt>
      <trkpt lat="46.67135" lon="5.56592">
        <ele>268</ele>
        <time>2025-10-10T13:54:05.856+00:00</time>
      </trkpt>
      <trkpt lat="46.67138" lon="5.56584">
        <ele>268</ele>
        <time>2025-10-10T13:54:10.260+00:00</time>
      </trkpt>
      <trkpt lat="46.6714" lon="5.56577">
        <ele>268</ele>
        <time>2025-10-10T13:54:14.498+00:00</time>
      </trkpt>
      <trkpt lat="46.67142" lon="5.56569">
        <ele>268</ele>
        <time>2025-10-10T13:54:19.355+00:00</time>
      </trkpt>
      <trkpt lat="46.67148" lon="5.56562">
        <ele>268</ele>
        <time>2025-10-10T13:54:24.236+00:00</time>
      </trkpt>
      <trkpt lat="46.6715" lon="5.56554">
        <ele>268</ele>
        <time>2025-10-10T13:54:28.480+00:00</time>
      </trkpt>
      <trkpt lat="46.67152" lon="5.56546">
        <ele>268</ele>
        <time>2025-10-10T13:54:32.745+00:00</time>
      </trkpt>
      <trkpt lat="46.67155" lon="5.56539">
        <ele>266</ele>
        <time>2025-10-10T13:54:37.045+00:00</time>
      </trkpt>
      <trkpt lat="46.67159" lon="5.56533">
        <ele>266</ele>
        <time>2025-10-10T13:54:41.399+00:00</time>
      </trkpt>
      <trkpt lat="46.67161" lon="5.56526">
        <ele>266</ele>
        <time>2025-10-10T13:54:46.024+00:00</time>
      </trkpt>
      <trkpt lat="46.67164" lon="5.56519">
        <ele>266</ele>
        <time>2025-10-10T13:54:50.299+00:00</time>
      </trkpt>
      <trkpt lat="46.67168" lon="5.56513">
        <ele>266</ele>
        <time>2025-10-10T13:54:54.881+00:00</time>
      </trkpt>
      <trkpt lat="46.67174" lon="5.56509">
        <ele>266</ele>
        <time>2025-10-10T13:54:59.319+00:00</time>
      </trkpt>
      <trkpt lat="46.67179" lon="5.56506">
        <ele>266</ele>
        <time>2025-10-10T13:55:03.498+00:00</time>
      </trkpt>
      <trkpt lat="46.67183" lon="5.56499">
        <ele>265</ele>
        <time>2025-10-10T13:55:08.492+00:00</time>
      </trkpt>
      <trkpt lat="46.67186" lon="5.56489">
        <ele>265</ele>
        <time>2025-10-10T13:55:12.682+00:00</time>
      </trkpt>
      <trkpt lat="46.67191" lon="5.56485">
        <ele>266</ele>
        <time>2025-10-10T13:55:16.864+00:00</time>
      </trkpt>
      <trkpt lat="46.67195" lon="5.56483">
        <ele>266</ele>
        <time>2025-10-10T13:55:20.881+00:00</time>
      </trkpt>
      <trkpt lat="46.67199" lon="5.56479">
        <ele>266</ele>
        <time>2025-10-10T13:55:25.106+00:00</time>
      </trkpt>
      <trkpt lat="46.67203" lon="5.56475">
        <ele>266</ele>
        <time>2025-10-10T13:55:29.496+00:00</time>
      </trkpt>
      <trkpt lat="46.67206" lon="5.56471">
        <ele>266</ele>
        <time>2025-10-10T13:55:34.280+00:00</time>
      </trkpt>
      <trkpt lat="46.6721" lon="5.56466">
        <ele>266</ele>
        <time>2025-10-10T13:55:38.846+00:00</time>
      </trkpt>
      <trkpt lat="46.67215" lon="5.56461">
        <ele>266</ele>
        <time>2025-10-10T13:55:43.479+00:00</time>
      </trkpt>
      <trkpt lat="46.67218" lon="5.56456">
        <ele>267</ele>
        <time>2025-10-10T13:55:47.492+00:00</time>
      </trkpt>
      <trkpt lat="46.67222" lon="5.56448">
        <ele>267</ele>
        <time>2025-10-10T13:55:52.200+00:00</time>
      </trkpt>
      <trkpt lat="46.67225" lon="5.56433">
        <ele>267</ele>
        <time>2025-10-10T13:56:14.881+00:00</time>
      </trkpt>
      <trkpt lat="46.67225" lon="5.56432">
        <ele>267</ele>
        <time>2025-10-10T13:56:19.490+00:00</time>
      </trkpt>
      <trkpt lat="46.67225" lon="5.56431">
        <ele>267</ele>
        <time>2025-10-10T13:56:24.490+00:00</time>
      </trkpt>
      <trkpt lat="46.67226" lon="5.56429">
        <ele>266</ele>
        <time>2025-10-10T13:56:29.488+00:00</time>
      </trkpt>
      <trkpt lat="46.67226" lon="5.56428">
        <ele>266</ele>
        <time>2025-10-10T13:56:33.497+00:00</time>
      </trkpt>
      <trkpt lat="46.67227" lon="5.56428">
        <ele>266</ele>
        <time>2025-10-10T13:58:20.494+00:00</time>
      </trkpt>
      <trkpt lat="46.6723" lon="5.56421">
        <ele>266</ele>
        <time>2025-10-10T13:58:24.762+00:00</time>
      </trkpt>
      <trkpt lat="46.67233" lon="5.56413">
        <ele>266</ele>
        <time>2025-10-10T13:58:28.995+00:00</time>
      </trkpt>
      <trkpt lat="46.67234" lon="5.56405">
        <ele>266</ele>
        <time>2025-10-10T13:58:33.492+00:00</time>
      </trkpt>
      <trkpt lat="46.67235" lon="5.56396">
        <ele>265</ele>
        <time>2025-10-10T13:58:37.954+00:00</time>
      </trkpt>
      <trkpt lat="46.67236" lon="5.56392">
        <ele>265</ele>
        <time>2025-10-10T13:58:42.335+00:00</time>
      </trkpt>
      <trkpt lat="46.67237" lon="5.56386">
        <ele>265</ele>
        <time>2025-10-10T13:58:46.495+00:00</time>
      </trkpt>
      <trkpt lat="46.67238" lon="5.5638">
        <ele>265</ele>
        <time>2025-10-10T13:58:50.493+00:00</time>
      </trkpt>
      <trkpt lat="46.67239" lon="5.56372">
        <ele>264</ele>
        <time>2025-10-10T13:58:55.496+00:00</time>
      </trkpt>
      <trkpt lat="46.6724" lon="5.56366">
        <ele>264</ele>
        <time>2025-10-10T13:58:59.792+00:00</time>
      </trkpt>
      <trkpt lat="46.6724" lon="5.56357">
        <ele>264</ele>
        <time>2025-10-10T13:59:03.854+00:00</time>
      </trkpt>
      <trkpt lat="46.67241" lon="5.5635">
        <ele>264</ele>
        <time>2025-10-10T13:59:08.155+00:00</time>
      </trkpt>
      <trkpt lat="46.67242" lon="5.56342">
        <ele>264</ele>
        <time>2025-10-10T13:59:12.192+00:00</time>
      </trkpt>
      <trkpt lat="46.67243" lon="5.56335">
        <ele>264</ele>
        <time>2025-10-10T13:59:16.299+00:00</time>
      </trkpt>
      <trkpt lat="46.67245" lon="5.56329">
        <ele>264</ele>
        <time>2025-10-10T13:59:20.470+00:00</time>
      </trkpt>
      <trkpt lat="46.67246" lon="5.56321">
        <ele>264</ele>
        <time>2025-10-10T13:59:24.496+00:00</time>
      </trkpt>
      <trkpt lat="46.67247" lon="5.56314">
        <ele>263</ele>
        <time>2025-10-10T13:59:29.490+00:00</time>
      </trkpt>
      <trkpt lat="46.67248" lon="5.56308">
        <ele>263</ele>
        <time>2025-10-10T13:59:33.497+00:00</time>
      </trkpt>
      <trkpt lat="46.6725" lon="5.56303">
        <ele>263</ele>
        <time>2025-10-10T13:59:38.177+00:00</time>
      </trkpt>
      <trkpt lat="46.67251" lon="5.56297">
        <ele>263</ele>
        <time>2025-10-10T13:59:42.498+00:00</time>
      </trkpt>
      <trkpt lat="46.67248" lon="5.56292">
        <ele>263</ele>
        <time>2025-10-10T13:59:47.272+00:00</time>
      </trkpt>
      <trkpt lat="46.67251" lon="5.56283">
        <ele>263</ele>
        <time>2025-10-10T13:59:51.491+00:00</time>
      </trkpt>
      <trkpt lat="46.67254" lon="5.56276">
        <ele>263</ele>
        <time>2025-10-10T13:59:56.454+00:00</time>
      </trkpt>
      <trkpt lat="46.67256" lon="5.56269">
        <ele>263</ele>
        <time>2025-10-10T14:00:00.495+00:00</time>
      </trkpt>
      <trkpt lat="46.67257" lon="5.56261">
        <ele>263</ele>
        <time>2025-10-10T14:00:05.176+00:00</time>
      </trkpt>
      <trkpt lat="46.67257" lon="5.56254">
        <ele>263</ele>
        <time>2025-10-10T14:00:09.691+00:00</time>
      </trkpt>
      <trkpt lat="46.67258" lon="5.56245">
        <ele>263</ele>
        <time>2025-10-10T14:00:14.486+00:00</time>
      </trkpt>
      <trkpt lat="46.67259" lon="5.56237">
        <ele>263</ele>
        <time>2025-10-10T14:00:19.231+00:00</time>
      </trkpt>
      <trkpt lat="46.67259" lon="5.5623">
        <ele>263</ele>
        <time>2025-10-10T14:00:23.456+00:00</time>
      </trkpt>
      <trkpt lat="46.67259" lon="5.56222">
        <ele>263</ele>
        <time>2025-10-10T14:00:28.353+00:00</time>
      </trkpt>
      <trkpt lat="46.67261" lon="5.56215">
        <ele>263</ele>
        <time>2025-10-10T14:00:33.055+00:00</time>
      </trkpt>
      <trkpt lat="46.67262" lon="5.56206">
        <ele>263</ele>
        <time>2025-10-10T14:00:37.313+00:00</time>
      </trkpt>
      <trkpt lat="46.67264" lon="5.56197">
        <ele>263</ele>
        <time>2025-10-10T14:00:41.895+00:00</time>
      </trkpt>
      <trkpt lat="46.67265" lon="5.56188">
        <ele>263</ele>
        <time>2025-10-10T14:00:46.489+00:00</time>
      </trkpt>
      <trkpt lat="46.67265" lon="5.56179">
        <ele>263</ele>
        <time>2025-10-10T14:00:51.273+00:00</time>
      </trkpt>
      <trkpt lat="46.67266" lon="5.56171">
        <ele>263</ele>
        <time>2025-10-10T14:00:55.950+00:00</time>
      </trkpt>
      <trkpt lat="46.67267" lon="5.56164">
        <ele>263</ele>
        <time>2025-10-10T14:00:59.994+00:00</time>
      </trkpt>
      <trkpt lat="46.67268" lon="5.56157">
        <ele>263</ele>
        <time>2025-10-10T14:01:04.132+00:00</time>
      </trkpt>
      <trkpt lat="46.67268" lon="5.56149">
        <ele>262</ele>
        <time>2025-10-10T14:01:08.356+00:00</time>
      </trkpt>
      <trkpt lat="46.6727" lon="5.56142">
        <ele>262</ele>
        <time>2025-10-10T14:01:12.794+00:00</time>
      </trkpt>
      <trkpt lat="46.6727" lon="5.56136">
        <ele>262</ele>
        <time>2025-10-10T14:01:16.865+00:00</time>
      </trkpt>
      <trkpt lat="46.67271" lon="5.56128">
        <ele>262</ele>
        <time>2025-10-10T14:01:20.985+00:00</time>
      </trkpt>
      <trkpt lat="46.6727" lon="5.56118">
        <ele>262</ele>
        <time>2025-10-10T14:01:25.004+00:00</time>
      </trkpt>
      <trkpt lat="46.6727" lon="5.56111">
        <ele>262</ele>
        <time>2025-10-10T14:01:29.263+00:00</time>
      </trkpt>
      <trkpt lat="46.67268" lon="5.5611">
        <ele>262</ele>
        <time>2025-10-10T14:01:31.327+00:00</time>
      </trkpt>
      <trkpt lat="46.6727" lon="5.56093">
        <ele>262</ele>
        <time>2025-10-10T14:01:40.486+00:00</time>
      </trkpt>
      <trkpt lat="46.67265" lon="5.5609">
        <ele>262</ele>
        <time>2025-10-10T14:01:44.487+00:00</time>
      </trkpt>
      <trkpt lat="46.67264" lon="5.56091">
        <ele>262</ele>
        <time>2025-10-10T14:01:49.367+00:00</time>
      </trkpt>
      <trkpt lat="46.67266" lon="5.56084">
        <ele>262</ele>
        <time>2025-10-10T14:01:53.495+00:00</time>
      </trkpt>
      <trkpt lat="46.6727" lon="5.56076">
        <ele>262</ele>
        <time>2025-10-10T14:01:58.490+00:00</time>
      </trkpt>
      <trkpt lat="46.67274" lon="5.56068">
        <ele>262</ele>
        <time>2025-10-10T14:02:02.981+00:00</time>
      </trkpt>
      <trkpt lat="46.67275" lon="5.56059">
        <ele>262</ele>
        <time>2025-10-10T14:02:07.240+00:00</time>
      </trkpt>
      <trkpt lat="46.67276" lon="5.56051">
        <ele>262</ele>
        <time>2025-10-10T14:02:11.286+00:00</time>
      </trkpt>
      <trkpt lat="46.67278" lon="5.56041">
        <ele>261</ele>
        <time>2025-10-10T14:02:16.482+00:00</time>
      </trkpt>
      <trkpt lat="46.67279" lon="5.56032">
        <ele>261</ele>
        <time>2025-10-10T14:02:20.963+00:00</time>
      </trkpt>
      <trkpt lat="46.67279" lon="5.56029">
        <ele>261</ele>
        <time>2025-10-10T14:02:22.486+00:00</time>
      </trkpt>
      <trkpt lat="46.67278" lon="5.56017">
        <ele>261</ele>
        <time>2025-10-10T14:02:31.445+00:00</time>
      </trkpt>
      <trkpt lat="46.67279" lon="5.56006">
        <ele>260</ele>
        <time>2025-10-10T14:02:36.489+00:00</time>
      </trkpt>
      <trkpt lat="46.67279" lon="5.55999">
        <ele>260</ele>
        <time>2025-10-10T14:02:40.490+00:00</time>
      </trkpt>
      <trkpt lat="46.6728" lon="5.55993">
        <ele>260</ele>
        <time>2025-10-10T14:02:44.745+00:00</time>
      </trkpt>
      <trkpt lat="46.67281" lon="5.55987">
        <ele>260</ele>
        <time>2025-10-10T14:02:49.284+00:00</time>
      </trkpt>
      <trkpt lat="46.67281" lon="5.5598">
        <ele>258</ele>
        <time>2025-10-10T14:02:53.491+00:00</time>
      </trkpt>
      <trkpt lat="46.67283" lon="5.55973">
        <ele>258</ele>
        <time>2025-10-10T14:02:57.735+00:00</time>
      </trkpt>
      <trkpt lat="46.67284" lon="5.55966">
        <ele>258</ele>
        <time>2025-10-10T14:03:02.047+00:00</time>
      </trkpt>
      <trkpt lat="46.67285" lon="5.55961">
        <ele>258</ele>
        <time>2025-10-10T14:03:06.487+00:00</time>
      </trkpt>
      <trkpt lat="46.67288" lon="5.55959">
        <ele>258</ele>
        <time>2025-10-10T14:03:10.885+00:00</time>
      </trkpt>
      <trkpt lat="46.67289" lon="5.55953">
        <ele>258</ele>
        <time>2025-10-10T14:03:15.102+00:00</time>
      </trkpt>
      <trkpt lat="46.67286" lon="5.55945">
        <ele>258</ele>
        <time>2025-10-10T14:03:19.429+00:00</time>
      </trkpt>
      <trkpt lat="46.67285" lon="5.5594">
        <ele>258</ele>
        <time>2025-10-10T14:03:23.497+00:00</time>
      </trkpt>
      <trkpt lat="46.67285" lon="5.55939">
        <ele>258</ele>
        <time>2025-10-10T14:03:28.021+00:00</time>
      </trkpt>
      <trkpt lat="46.67286" lon="5.55936">
        <ele>258</ele>
        <time>2025-10-10T14:03:32.126+00:00</time>
      </trkpt>
      <trkpt lat="46.67287" lon="5.55936">
        <ele>258</ele>
        <time>2025-10-10T14:03:36.496+00:00</time>
      </trkpt>
      <trkpt lat="46.67288" lon="5.55936">
        <ele>258</ele>
        <time>2025-10-10T14:03:43.490+00:00</time>
      </trkpt>
      <trkpt lat="46.6729" lon="5.55935">
        <ele>258</ele>
        <time>2025-10-10T14:03:48.041+00:00</time>
      </trkpt>
      <trkpt lat="46.67294" lon="5.5593">
        <ele>260</ele>
        <time>2025-10-10T14:03:52.493+00:00</time>
      </trkpt>
      <trkpt lat="46.67294" lon="5.55925">
        <ele>260</ele>
        <time>2025-10-10T14:03:56.696+00:00</time>
      </trkpt>
      <trkpt lat="46.67291" lon="5.55918">
        <ele>259</ele>
        <time>2025-10-10T14:04:01.240+00:00</time>
      </trkpt>
      <trkpt lat="46.6729" lon="5.55913">
        <ele>259</ele>
        <time>2025-10-10T14:04:05.490+00:00</time>
      </trkpt>
      <trkpt lat="46.67288" lon="5.55905">
        <ele>259</ele>
        <time>2025-10-10T14:04:10.488+00:00</time>
      </trkpt>
      <trkpt lat="46.67285" lon="5.559">
        <ele>259</ele>
        <time>2025-10-10T14:04:14.632+00:00</time>
      </trkpt>
      <trkpt lat="46.67283" lon="5.55892">
        <ele>259</ele>
        <time>2025-10-10T14:04:18.789+00:00</time>
      </trkpt>
      <trkpt lat="46.67281" lon="5.55886">
        <ele>259</ele>
        <time>2025-10-10T14:04:23.492+00:00</time>
      </trkpt>
      <trkpt lat="46.67279" lon="5.5588">
        <ele>259</ele>
        <time>2025-10-10T14:04:28.494+00:00</time>
      </trkpt>
      <trkpt lat="46.6728" lon="5.5588">
        <ele>259</ele>
        <time>2025-10-10T14:04:51.133+00:00</time>
      </trkpt>
      <trkpt lat="46.67281" lon="5.55879">
        <ele>259</ele>
        <time>2025-10-10T14:04:55.498+00:00</time>
      </trkpt>
      <trkpt lat="46.67282" lon="5.55879">
        <ele>259</ele>
        <time>2025-10-10T14:05:01.013+00:00</time>
      </trkpt>
      <trkpt lat="46.67287" lon="5.55878">
        <ele>259</ele>
        <time>2025-10-10T14:05:05.112+00:00</time>
      </trkpt>
      <trkpt lat="46.67291" lon="5.55878">
        <ele>259</ele>
        <time>2025-10-10T14:05:09.490+00:00</time>
      </trkpt>
      <trkpt lat="46.67297" lon="5.55875">
        <ele>260</ele>
        <time>2025-10-10T14:05:14.277+00:00</time>
      </trkpt>
      <trkpt lat="46.673" lon="5.55872">
        <ele>260</ele>
        <time>2025-10-10T14:05:18.596+00:00</time>
      </trkpt>
      <trkpt lat="46.67303" lon="5.55863">
        <ele>260</ele>
        <time>2025-10-10T14:05:23.135+00:00</time>
      </trkpt>
      <trkpt lat="46.67305" lon="5.55857">
        <ele>260</ele>
        <time>2025-10-10T14:05:27.675+00:00</time>
      </trkpt>
      <trkpt lat="46.67311" lon="5.55855">
        <ele>260</ele>
        <time>2025-10-10T14:05:32.492+00:00</time>
      </trkpt>
      <trkpt lat="46.67317" lon="5.55855">
        <ele>260</ele>
        <time>2025-10-10T14:05:37.114+00:00</time>
      </trkpt>
      <trkpt lat="46.67322" lon="5.55854">
        <ele>260</ele>
        <time>2025-10-10T14:05:41.245+00:00</time>
      </trkpt>
      <trkpt lat="46.67325" lon="5.55847">
        <ele>259</ele>
        <time>2025-10-10T14:05:45.494+00:00</time>
      </trkpt>
      <trkpt lat="46.67324" lon="5.55846">
        <ele>259</ele>
        <time>2025-10-10T14:05:50.489+00:00</time>
      </trkpt>
      <trkpt lat="46.67323" lon="5.55845">
        <ele>259</ele>
        <time>2025-10-10T14:05:55.490+00:00</time>
      </trkpt>
      <trkpt lat="46.67323" lon="5.55843">
        <ele>259</ele>
        <time>2025-10-10T14:06:00.155+00:00</time>
      </trkpt>
      <trkpt lat="46.67322" lon="5.55838">
        <ele>259</ele>
        <time>2025-10-10T14:06:04.388+00:00</time>
      </trkpt>
      <trkpt lat="46.6732" lon="5.55831">
        <ele>259</ele>
        <time>2025-10-10T14:06:08.834+00:00</time>
      </trkpt>
      <trkpt lat="46.67317" lon="5.55824">
        <ele>260</ele>
        <time>2025-10-10T14:06:13.154+00:00</time>
      </trkpt>
      <trkpt lat="46.67316" lon="5.55816">
        <ele>259</ele>
        <time>2025-10-10T14:06:17.488+00:00</time>
      </trkpt>
      <trkpt lat="46.67315" lon="5.55807">
        <ele>259</ele>
        <time>2025-10-10T14:06:22.485+00:00</time>
      </trkpt>
      <trkpt lat="46.67315" lon="5.558">
        <ele>259</ele>
        <time>2025-10-10T14:06:26.653+00:00</time>
      </trkpt>
      <trkpt lat="46.67315" lon="5.55792">
        <ele>259</ele>
        <time>2025-10-10T14:06:30.790+00:00</time>
      </trkpt>
      <trkpt lat="46.67315" lon="5.55785">
        <ele>259</ele>
        <time>2025-10-10T14:06:35.449+00:00</time>
      </trkpt>
      <trkpt lat="46.67315" lon="5.55778">
        <ele>259</ele>
        <time>2025-10-10T14:06:39.496+00:00</time>
      </trkpt>
      <trkpt lat="46.67314" lon="5.55772">
        <ele>259</ele>
        <time>2025-10-10T14:06:43.769+00:00</time>
      </trkpt>
      <trkpt lat="46.67314" lon="5.55765">
        <ele>259</ele>
        <time>2025-10-10T14:06:48.473+00:00</time>
      </trkpt>
      <trkpt lat="46.67314" lon="5.55756">
        <ele>259</ele>
        <time>2025-10-10T14:06:53.311+00:00</time>
      </trkpt>
      <trkpt lat="46.67314" lon="5.55748">
        <ele>259</ele>
        <time>2025-10-10T14:06:58.115+00:00</time>
      </trkpt>
      <trkpt lat="46.67313" lon="5.55741">
        <ele>259</ele>
        <time>2025-10-10T14:07:02.195+00:00</time>
      </trkpt>
      <trkpt lat="46.67313" lon="5.55735">
        <ele>260</ele>
        <time>2025-10-10T14:07:06.393+00:00</time>
      </trkpt>
      <trkpt lat="46.67313" lon="5.55727">
        <ele>260</ele>
        <time>2025-10-10T14:07:11.236+00:00</time>
      </trkpt>
      <trkpt lat="46.67313" lon="5.5572">
        <ele>260</ele>
        <time>2025-10-10T14:07:15.677+00:00</time>
      </trkpt>
      <trkpt lat="46.67313" lon="5.55714">
        <ele>260</ele>
        <time>2025-10-10T14:07:19.935+00:00</time>
      </trkpt>
      <trkpt lat="46.67314" lon="5.55708">
        <ele>260</ele>
        <time>2025-10-10T14:07:24.013+00:00</time>
      </trkpt>
      <trkpt lat="46.67316" lon="5.55702">
        <ele>259</ele>
        <time>2025-10-10T14:07:28.494+00:00</time>
      </trkpt>
      <trkpt lat="46.67315" lon="5.55696">
        <ele>259</ele>
        <time>2025-10-10T14:07:33.077+00:00</time>
      </trkpt>
      <trkpt lat="46.67314" lon="5.55692">
        <ele>259</ele>
        <time>2025-10-10T14:07:37.276+00:00</time>
      </trkpt>
      <trkpt lat="46.67312" lon="5.55686">
        <ele>259</ele>
        <time>2025-10-10T14:07:41.374+00:00</time>
      </trkpt>
      <trkpt lat="46.67313" lon="5.55679">
        <ele>258</ele>
        <time>2025-10-10T14:07:46+00:00</time>
      </trkpt>
      <trkpt lat="46.67314" lon="5.55673">
        <ele>258</ele>
        <time>2025-10-10T14:07:50.135+00:00</time>
      </trkpt>
      <trkpt lat="46.67315" lon="5.55668">
        <ele>258</ele>
        <time>2025-10-10T14:07:54.492+00:00</time>
      </trkpt>
      <trkpt lat="46.67311" lon="5.55659">
        <ele>258</ele>
        <time>2025-10-10T14:07:59.376+00:00</time>
      </trkpt>
      <trkpt lat="46.67312" lon="5.55652">
        <ele>258</ele>
        <time>2025-10-10T14:08:03.497+00:00</time>
      </trkpt>
      <trkpt lat="46.67311" lon="5.55644">
        <ele>258</ele>
        <time>2025-10-10T14:08:08.208+00:00</time>
      </trkpt>
      <trkpt lat="46.67312" lon="5.55636">
        <ele>258</ele>
        <time>2025-10-10T14:08:12.374+00:00</time>
      </trkpt>
      <trkpt lat="46.67311" lon="5.5563">
        <ele>258</ele>
        <time>2025-10-10T14:08:16.973+00:00</time>
      </trkpt>
      <trkpt lat="46.67312" lon="5.55622">
        <ele>257</ele>
        <time>2025-10-10T14:08:21.499+00:00</time>
      </trkpt>
      <trkpt lat="46.67312" lon="5.55614">
        <ele>257</ele>
        <time>2025-10-10T14:08:26.070+00:00</time>
      </trkpt>
      <trkpt lat="46.67312" lon="5.55606">
        <ele>257</ele>
        <time>2025-10-10T14:08:30.652+00:00</time>
      </trkpt>
      <trkpt lat="46.67313" lon="5.55598">
        <ele>257</ele>
        <time>2025-10-10T14:08:34.757+00:00</time>
      </trkpt>
      <trkpt lat="46.67313" lon="5.5559">
        <ele>257</ele>
        <time>2025-10-10T14:08:39.314+00:00</time>
      </trkpt>
      <trkpt lat="46.67313" lon="5.55582">
        <ele>257</ele>
        <time>2025-10-10T14:08:43.491+00:00</time>
      </trkpt>
      <trkpt lat="46.67313" lon="5.55573">
        <ele>257</ele>
        <time>2025-10-10T14:08:48.173+00:00</time>
      </trkpt>
      <trkpt lat="46.67314" lon="5.55565">
        <ele>257</ele>
        <time>2025-10-10T14:08:52.250+00:00</time>
      </trkpt>
      <trkpt lat="46.67314" lon="5.55558">
        <ele>257</ele>
        <time>2025-10-10T14:08:56.295+00:00</time>
      </trkpt>
      <trkpt lat="46.67314" lon="5.55551">
        <ele>257</ele>
        <time>2025-10-10T14:09:00.417+00:00</time>
      </trkpt>
      <trkpt lat="46.67316" lon="5.55543">
        <ele>257</ele>
        <time>2025-10-10T14:09:04.914+00:00</time>
      </trkpt>
      <trkpt lat="46.67317" lon="5.55536">
        <ele>258</ele>
        <time>2025-10-10T14:09:09.491+00:00</time>
      </trkpt>
      <trkpt lat="46.67317" lon="5.55527">
        <ele>258</ele>
        <time>2025-10-10T14:09:14.353+00:00</time>
      </trkpt>
      <trkpt lat="46.67318" lon="5.5552">
        <ele>258</ele>
        <time>2025-10-10T14:09:18.489+00:00</time>
      </trkpt>
      <trkpt lat="46.67319" lon="5.55513">
        <ele>259</ele>
        <time>2025-10-10T14:09:22.910+00:00</time>
      </trkpt>
      <trkpt lat="46.6732" lon="5.55507">
        <ele>258</ele>
        <time>2025-10-10T14:09:27.074+00:00</time>
      </trkpt>
      <trkpt lat="46.67321" lon="5.55505">
        <ele>258</ele>
        <time>2025-10-10T14:09:28.490+00:00</time>
      </trkpt>
      <trkpt lat="46.67322" lon="5.55493">
        <ele>258</ele>
        <time>2025-10-10T14:09:38.075+00:00</time>
      </trkpt>
      <trkpt lat="46.67323" lon="5.55486">
        <ele>258</ele>
        <time>2025-10-10T14:09:42.480+00:00</time>
      </trkpt>
      <trkpt lat="46.67325" lon="5.55479">
        <ele>259</ele>
        <time>2025-10-10T14:09:46.576+00:00</time>
      </trkpt>
      <trkpt lat="46.67325" lon="5.55473">
        <ele>259</ele>
        <time>2025-10-10T14:09:50.939+00:00</time>
      </trkpt>
      <trkpt lat="46.67325" lon="5.55468">
        <ele>259</ele>
        <time>2025-10-10T14:09:55.015+00:00</time>
      </trkpt>
      <trkpt lat="46.67326" lon="5.55461">
        <ele>259</ele>
        <time>2025-10-10T14:09:59.112+00:00</time>
      </trkpt>
      <trkpt lat="46.67326" lon="5.55456">
        <ele>260</ele>
        <time>2025-10-10T14:10:03.297+00:00</time>
      </trkpt>
      <trkpt lat="46.67325" lon="5.55452">
        <ele>260</ele>
        <time>2025-10-10T14:10:08.214+00:00</time>
      </trkpt>
      <trkpt lat="46.67326" lon="5.55447">
        <ele>260</ele>
        <time>2025-10-10T14:10:12.492+00:00</time>
      </trkpt>
      <trkpt lat="46.67328" lon="5.5544">
        <ele>260</ele>
        <time>2025-10-10T14:10:17.157+00:00</time>
      </trkpt>
      <trkpt lat="46.6733" lon="5.55433">
        <ele>260</ele>
        <time>2025-10-10T14:10:21.494+00:00</time>
      </trkpt>
      <trkpt lat="46.67331" lon="5.55426">
        <ele>260</ele>
        <time>2025-10-10T14:10:26.016+00:00</time>
      </trkpt>
      <trkpt lat="46.67333" lon="5.55419">
        <ele>260</ele>
        <time>2025-10-10T14:10:30.359+00:00</time>
      </trkpt>
      <trkpt lat="46.67334" lon="5.55412">
        <ele>260</ele>
        <time>2025-10-10T14:10:34.936+00:00</time>
      </trkpt>
      <trkpt lat="46.67336" lon="5.55406">
        <ele>260</ele>
        <time>2025-10-10T14:10:39.492+00:00</time>
      </trkpt>
      <trkpt lat="46.67338" lon="5.55398">
        <ele>260</ele>
        <time>2025-10-10T14:10:44.135+00:00</time>
      </trkpt>
      <trkpt lat="46.67341" lon="5.55392">
        <ele>260</ele>
        <time>2025-10-10T14:10:48.492+00:00</time>
      </trkpt>
      <trkpt lat="46.67344" lon="5.55385">
        <ele>260</ele>
        <time>2025-10-10T14:10:53.457+00:00</time>
      </trkpt>
      <trkpt lat="46.67346" lon="5.55378">
        <ele>260</ele>
        <time>2025-10-10T14:10:58.079+00:00</time>
      </trkpt>
      <trkpt lat="46.67349" lon="5.5537">
        <ele>259</ele>
        <time>2025-10-10T14:11:02.483+00:00</time>
      </trkpt>
      <trkpt lat="46.67352" lon="5.55364">
        <ele>259</ele>
        <time>2025-10-10T14:11:06.703+00:00</time>
      </trkpt>
      <trkpt lat="46.67355" lon="5.55358">
        <ele>259</ele>
        <time>2025-10-10T14:11:11.033+00:00</time>
      </trkpt>
      <trkpt lat="46.67358" lon="5.55351">
        <ele>259</ele>
        <time>2025-10-10T14:11:15.485+00:00</time>
      </trkpt>
      <trkpt lat="46.6736" lon="5.55344">
        <ele>259</ele>
        <time>2025-10-10T14:11:19.512+00:00</time>
      </trkpt>
      <trkpt lat="46.67363" lon="5.55337">
        <ele>259</ele>
        <time>2025-10-10T14:11:24.019+00:00</time>
      </trkpt>
      <trkpt lat="46.67366" lon="5.55329">
        <ele>259</ele>
        <time>2025-10-10T14:11:28.486+00:00</time>
      </trkpt>
      <trkpt lat="46.67367" lon="5.55325">
        <ele>259</ele>
        <time>2025-10-10T14:11:32.641+00:00</time>
      </trkpt>
      <trkpt lat="46.67369" lon="5.55319">
        <ele>259</ele>
        <time>2025-10-10T14:11:37.218+00:00</time>
      </trkpt>
      <trkpt lat="46.67369" lon="5.55315">
        <ele>259</ele>
        <time>2025-10-10T14:11:41.672+00:00</time>
      </trkpt>
      <trkpt lat="46.67372" lon="5.5531">
        <ele>259</ele>
        <time>2025-10-10T14:11:46.032+00:00</time>
      </trkpt>
      <trkpt lat="46.67374" lon="5.55305">
        <ele>259</ele>
        <time>2025-10-10T14:11:50.493+00:00</time>
      </trkpt>
      <trkpt lat="46.67377" lon="5.55298">
        <ele>260</ele>
        <time>2025-10-10T14:11:55.097+00:00</time>
      </trkpt>
      <trkpt lat="46.67379" lon="5.55291">
        <ele>259</ele>
        <time>2025-10-10T14:11:59.133+00:00</time>
      </trkpt>
      <trkpt lat="46.67381" lon="5.55285">
        <ele>259</ele>
        <time>2025-10-10T14:12:03.434+00:00</time>
      </trkpt>
      <trkpt lat="46.67382" lon="5.55281">
        <ele>259</ele>
        <time>2025-10-10T14:12:07.486+00:00</time>
      </trkpt>
      <trkpt lat="46.67385" lon="5.55273">
        <ele>259</ele>
        <time>2025-10-10T14:12:11.977+00:00</time>
      </trkpt>
      <trkpt lat="46.67386" lon="5.55266">
        <ele>259</ele>
        <time>2025-10-10T14:12:16.490+00:00</time>
      </trkpt>
      <trkpt lat="46.67389" lon="5.55263">
        <ele>258</ele>
        <time>2025-10-10T14:12:21.041+00:00</time>
      </trkpt>
      <trkpt lat="46.67388" lon="5.55265">
        <ele>259</ele>
        <time>2025-10-10T14:12:22.014+00:00</time>
      </trkpt>
      <trkpt lat="46.67389" lon="5.55268">
        <ele>259</ele>
        <time>2025-10-10T14:12:30.356+00:00</time>
      </trkpt>
      <trkpt lat="46.67389" lon="5.55274">
        <ele>259</ele>
        <time>2025-10-10T14:12:34.912+00:00</time>
      </trkpt>
      <trkpt lat="46.6738" lon="5.55266">
        <ele>259</ele>
        <time>2025-10-10T14:12:38.998+00:00</time>
      </trkpt>
      <trkpt lat="46.67377" lon="5.55258">
        <ele>258</ele>
        <time>2025-10-10T14:12:43.496+00:00</time>
      </trkpt>
      <trkpt lat="46.67376" lon="5.55247">
        <ele>258</ele>
        <time>2025-10-10T14:12:48.038+00:00</time>
      </trkpt>
      <trkpt lat="46.67379" lon="5.55236">
        <ele>258</ele>
        <time>2025-10-10T14:12:52.233+00:00</time>
      </trkpt>
      <trkpt lat="46.67377" lon="5.5523">
        <ele>258</ele>
        <time>2025-10-10T14:12:56.185+00:00</time>
      </trkpt>
      <trkpt lat="46.67378" lon="5.55229">
        <ele>258</ele>
        <time>2025-10-10T14:13:01.004+00:00</time>
      </trkpt>
      <trkpt lat="46.67379" lon="5.55224">
        <ele>258</ele>
        <time>2025-10-10T14:13:05.484+00:00</time>
      </trkpt>
      <trkpt lat="46.67386" lon="5.55216">
        <ele>258</ele>
        <time>2025-10-10T14:13:09.494+00:00</time>
      </trkpt>
      <trkpt lat="46.67391" lon="5.55206">
        <ele>258</ele>
        <time>2025-10-10T14:13:13.857+00:00</time>
      </trkpt>
      <trkpt lat="46.67391" lon="5.55197">
        <ele>258</ele>
        <time>2025-10-10T14:13:18.496+00:00</time>
      </trkpt>
      <trkpt lat="46.67385" lon="5.55191">
        <ele>258</ele>
        <time>2025-10-10T14:13:23.016+00:00</time>
      </trkpt>
      <trkpt lat="46.6738" lon="5.55186">
        <ele>258</ele>
        <time>2025-10-10T14:13:27.485+00:00</time>
      </trkpt>
      <trkpt lat="46.67376" lon="5.55183">
        <ele>258</ele>
        <time>2025-10-10T14:13:31.504+00:00</time>
      </trkpt>
      <trkpt lat="46.67371" lon="5.5518">
        <ele>258</ele>
        <time>2025-10-10T14:13:35.957+00:00</time>
      </trkpt>
      <trkpt lat="46.67369" lon="5.55177">
        <ele>258</ele>
        <time>2025-10-10T14:13:40.075+00:00</time>
      </trkpt>
      <trkpt lat="46.67365" lon="5.55174">
        <ele>258</ele>
        <time>2025-10-10T14:13:44.466+00:00</time>
      </trkpt>
      <trkpt lat="46.67362" lon="5.55177">
        <ele>258</ele>
        <time>2025-10-10T14:13:48.760+00:00</time>
      </trkpt>
      <trkpt lat="46.67361" lon="5.5518">
        <ele>258</ele>
        <time>2025-10-10T14:13:53.435+00:00</time>
      </trkpt>
      <trkpt lat="46.67359" lon="5.55183">
        <ele>258</ele>
        <time>2025-10-10T14:13:57.716+00:00</time>
      </trkpt>
      <trkpt lat="46.67361" lon="5.55181">
        <ele>258</ele>
        <time>2025-10-10T14:18:52.911+00:00</time>
      </trkpt>
      <trkpt lat="46.67361" lon="5.5518">
        <ele>258</ele>
        <time>2025-10-10T14:18:57.075+00:00</time>
      </trkpt>
      <trkpt lat="46.67363" lon="5.55179">
        <ele>258</ele>
        <time>2025-10-10T14:19:07.256+00:00</time>
      </trkpt>
      <trkpt lat="46.67364" lon="5.5518">
        <ele>258</ele>
        <time>2025-10-10T14:19:14.118+00:00</time>
      </trkpt>
      <trkpt lat="46.67372" lon="5.55177">
        <ele>258</ele>
        <time>2025-10-10T14:19:18.122+00:00</time>
      </trkpt>
      <trkpt lat="46.67367" lon="5.55158">
        <ele>258</ele>
        <time>2025-10-10T14:22:41.486+00:00</time>
      </trkpt>
      <trkpt lat="46.67366" lon="5.55159">
        <ele>258</ele>
        <time>2025-10-10T14:22:46.487+00:00</time>
      </trkpt>
      <trkpt lat="46.67366" lon="5.55159">
        <ele>258</ele>
        <time>2025-10-10T14:22:51.484+00:00</time>
      </trkpt>
      <trkpt lat="46.67366" lon="5.55158">
        <ele>258</ele>
        <time>2025-10-10T14:22:56.486+00:00</time>
      </trkpt>
      <trkpt lat="46.67366" lon="5.55158">
        <ele>258</ele>
        <time>2025-10-10T14:23:01.483+00:00</time>
      </trkpt>
      <trkpt lat="46.67365" lon="5.55169">
        <ele>258</ele>
        <time>2025-10-10T14:29:56.484+00:00</time>
      </trkpt>
      <trkpt lat="46.67365" lon="5.55169">
        <ele>258</ele>
        <time>2025-10-10T14:30:01.483+00:00</time>
      </trkpt>
      <trkpt lat="46.67365" lon="5.5517">
        <ele>258</ele>
        <time>2025-10-10T14:30:06.480+00:00</time>
      </trkpt>
      <trkpt lat="46.67366" lon="5.55171">
        <ele>258</ele>
        <time>2025-10-10T14:30:11.429+00:00</time>
      </trkpt>
      <trkpt lat="46.67364" lon="5.55175">
        <ele>258</ele>
        <time>2025-10-10T14:30:15.422+00:00</time>
      </trkpt>
      <trkpt lat="46.67368" lon="5.55168">
        <ele>258</ele>
        <time>2025-10-10T14:32:56.378+00:00</time>
      </trkpt>
      <trkpt lat="46.67369" lon="5.55168">
        <ele>258</ele>
        <time>2025-10-10T14:33:00.483+00:00</time>
      </trkpt>
      <trkpt lat="46.6737" lon="5.55168">
        <ele>258</ele>
        <time>2025-10-10T14:33:05.416+00:00</time>
      </trkpt>
      <trkpt lat="46.67369" lon="5.55166">
        <ele>258</ele>
        <time>2025-10-10T14:33:10.398+00:00</time>
      </trkpt>
      <trkpt lat="46.67364" lon="5.55163">
        <ele>258</ele>
        <time>2025-10-10T14:33:14.484+00:00</time>
      </trkpt>
      <trkpt lat="46.67358" lon="5.55157">
        <ele>258</ele>
        <time>2025-10-10T14:33:19.008+00:00</time>
      </trkpt>
      <trkpt lat="46.67354" lon="5.55151">
        <ele>258</ele>
        <time>2025-10-10T14:33:23.487+00:00</time>
      </trkpt>
      <trkpt lat="46.67348" lon="5.55151">
        <ele>258</ele>
        <time>2025-10-10T14:33:27.934+00:00</time>
      </trkpt>
      <trkpt lat="46.67343" lon="5.55148">
        <ele>258</ele>
        <time>2025-10-10T14:33:32.486+00:00</time>
      </trkpt>
      <trkpt lat="46.6734" lon="5.55146">
        <ele>258</ele>
        <time>2025-10-10T14:33:36.612+00:00</time>
      </trkpt>
      <trkpt lat="46.67336" lon="5.55142">
        <ele>258</ele>
        <time>2025-10-10T14:33:41.485+00:00</time>
      </trkpt>
      <trkpt lat="46.67334" lon="5.5514">
        <ele>258</ele>
        <time>2025-10-10T14:33:46.237+00:00</time>
      </trkpt>
      <trkpt lat="46.67331" lon="5.55138">
        <ele>258</ele>
        <time>2025-10-10T14:33:50.485+00:00</time>
      </trkpt>
      <trkpt lat="46.6733" lon="5.55137">
        <ele>258</ele>
        <time>2025-10-10T14:33:55.242+00:00</time>
      </trkpt>
      <trkpt lat="46.67327" lon="5.55135">
        <ele>258</ele>
        <time>2025-10-10T14:33:59.694+00:00</time>
      </trkpt>
      <trkpt lat="46.67325" lon="5.55133">
        <ele>258</ele>
        <time>2025-10-10T14:34:04.063+00:00</time>
      </trkpt>
      <trkpt lat="46.67321" lon="5.5513">
        <ele>258</ele>
        <time>2025-10-10T14:34:08.484+00:00</time>
      </trkpt>
      <trkpt lat="46.6732" lon="5.55132">
        <ele>258</ele>
        <time>2025-10-10T14:34:13.486+00:00</time>
      </trkpt>
      <trkpt lat="46.67319" lon="5.55134">
        <ele>259</ele>
        <time>2025-10-10T14:34:17.489+00:00</time>
      </trkpt>
      <trkpt lat="46.67319" lon="5.55137">
        <ele>259</ele>
        <time>2025-10-10T14:34:22.300+00:00</time>
      </trkpt>
      <trkpt lat="46.67316" lon="5.55141">
        <ele>259</ele>
        <time>2025-10-10T14:34:26.483+00:00</time>
      </trkpt>
      <trkpt lat="46.67313" lon="5.55145">
        <ele>259</ele>
        <time>2025-10-10T14:34:30.856+00:00</time>
      </trkpt>
      <trkpt lat="46.67312" lon="5.55148">
        <ele>259</ele>
        <time>2025-10-10T14:34:35.311+00:00</time>
      </trkpt>
      <trkpt lat="46.6731" lon="5.55153">
        <ele>258</ele>
        <time>2025-10-10T14:34:39.493+00:00</time>
      </trkpt>
      <trkpt lat="46.67307" lon="5.55157">
        <ele>258</ele>
        <time>2025-10-10T14:34:43.822+00:00</time>
      </trkpt>
      <trkpt lat="46.67304" lon="5.55163">
        <ele>258</ele>
        <time>2025-10-10T14:34:48.486+00:00</time>
      </trkpt>
      <trkpt lat="46.67301" lon="5.55166">
        <ele>258</ele>
        <time>2025-10-10T14:34:53.112+00:00</time>
      </trkpt>
      <trkpt lat="46.67299" lon="5.55171">
        <ele>258</ele>
        <time>2025-10-10T14:34:57.293+00:00</time>
      </trkpt>
      <trkpt lat="46.67297" lon="5.55178">
        <ele>258</ele>
        <time>2025-10-10T14:35:01.456+00:00</time>
      </trkpt>
      <trkpt lat="46.67295" lon="5.55183">
        <ele>258</ele>
        <time>2025-10-10T14:35:05.851+00:00</time>
      </trkpt>
      <trkpt lat="46.67292" lon="5.55188">
        <ele>258</ele>
        <time>2025-10-10T14:35:34.487+00:00</time>
      </trkpt>
      <trkpt lat="46.67292" lon="5.55189">
        <ele>258</ele>
        <time>2025-10-10T14:35:43.484+00:00</time>
      </trkpt>
      <trkpt lat="46.6729" lon="5.55192">
        <ele>258</ele>
        <time>2025-10-10T14:35:47.484+00:00</time>
      </trkpt>
      <trkpt lat="46.67288" lon="5.55195">
        <ele>258</ele>
        <time>2025-10-10T14:35:51.913+00:00</time>
      </trkpt>
      <trkpt lat="46.67282" lon="5.55193">
        <ele>258</ele>
        <time>2025-10-10T14:35:56.359+00:00</time>
      </trkpt>
      <trkpt lat="46.67278" lon="5.55187">
        <ele>258</ele>
        <time>2025-10-10T14:36:00.493+00:00</time>
      </trkpt>
      <trkpt lat="46.67273" lon="5.55186">
        <ele>258</ele>
        <time>2025-10-10T14:36:05.260+00:00</time>
      </trkpt>
      <trkpt lat="46.67271" lon="5.55185">
        <ele>258</ele>
        <time>2025-10-10T14:36:09.432+00:00</time>
      </trkpt>
      <trkpt lat="46.67267" lon="5.55184">
        <ele>258</ele>
        <time>2025-10-10T14:36:14.116+00:00</time>
      </trkpt>
      <trkpt lat="46.67264" lon="5.55183">
        <ele>259</ele>
        <time>2025-10-10T14:36:18.487+00:00</time>
      </trkpt>
      <trkpt lat="46.67259" lon="5.55183">
        <ele>259</ele>
        <time>2025-10-10T14:36:23.196+00:00</time>
      </trkpt>
      <trkpt lat="46.67255" lon="5.55182">
        <ele>259</ele>
        <time>2025-10-10T14:36:27.632+00:00</time>
      </trkpt>
      <trkpt lat="46.67251" lon="5.55181">
        <ele>259</ele>
        <time>2025-10-10T14:36:31.993+00:00</time>
      </trkpt>
      <trkpt lat="46.67247" lon="5.55181">
        <ele>259</ele>
        <time>2025-10-10T14:36:36.396+00:00</time>
      </trkpt>
      <trkpt lat="46.67244" lon="5.5518">
        <ele>260</ele>
        <time>2025-10-10T14:36:40.398+00:00</time>
      </trkpt>
      <trkpt lat="46.67241" lon="5.55179">
        <ele>260</ele>
        <time>2025-10-10T14:36:45.031+00:00</time>
      </trkpt>
      <trkpt lat="46.67236" lon="5.55178">
        <ele>260</ele>
        <time>2025-10-10T14:36:49.375+00:00</time>
      </trkpt>
      <trkpt lat="46.67232" lon="5.55177">
        <ele>260</ele>
        <time>2025-10-10T14:36:53.394+00:00</time>
      </trkpt>
      <trkpt lat="46.67228" lon="5.55176">
        <ele>260</ele>
        <time>2025-10-10T14:36:57.874+00:00</time>
      </trkpt>
      <trkpt lat="46.67223" lon="5.55175">
        <ele>260</ele>
        <time>2025-10-10T14:37:02.277+00:00</time>
      </trkpt>
      <trkpt lat="46.67218" lon="5.55175">
        <ele>260</ele>
        <time>2025-10-10T14:37:07.484+00:00</time>
      </trkpt>
      <trkpt lat="46.67213" lon="5.55173">
        <ele>260</ele>
        <time>2025-10-10T14:37:11.954+00:00</time>
      </trkpt>
      <trkpt lat="46.67206" lon="5.55172">
        <ele>260</ele>
        <time>2025-10-10T14:37:15.998+00:00</time>
      </trkpt>
      <trkpt lat="46.672" lon="5.55172">
        <ele>260</ele>
        <time>2025-10-10T14:37:20.273+00:00</time>
      </trkpt>
      <trkpt lat="46.67195" lon="5.55172">
        <ele>260</ele>
        <time>2025-10-10T14:37:24.486+00:00</time>
      </trkpt>
      <trkpt lat="46.6719" lon="5.55172">
        <ele>260</ele>
        <time>2025-10-10T14:37:28.815+00:00</time>
      </trkpt>
      <trkpt lat="46.67185" lon="5.55171">
        <ele>260</ele>
        <time>2025-10-10T14:37:33.252+00:00</time>
      </trkpt>
      <trkpt lat="46.67181" lon="5.5517">
        <ele>260</ele>
        <time>2025-10-10T14:37:37.432+00:00</time>
      </trkpt>
      <trkpt lat="46.67176" lon="5.5517">
        <ele>261</ele>
        <time>2025-10-10T14:37:41.879+00:00</time>
      </trkpt>
      <trkpt lat="46.67172" lon="5.55169">
        <ele>261</ele>
        <time>2025-10-10T14:37:46.452+00:00</time>
      </trkpt>
      <trkpt lat="46.67168" lon="5.5517">
        <ele>261</ele>
        <time>2025-10-10T14:37:50.992+00:00</time>
      </trkpt>
      <trkpt lat="46.67165" lon="5.55169">
        <ele>261</ele>
        <time>2025-10-10T14:37:55.096+00:00</time>
      </trkpt>
      <trkpt lat="46.67162" lon="5.55169">
        <ele>261</ele>
        <time>2025-10-10T14:37:59.371+00:00</time>
      </trkpt>
      <trkpt lat="46.67157" lon="5.55168">
        <ele>261</ele>
        <time>2025-10-10T14:38:03.486+00:00</time>
      </trkpt>
      <trkpt lat="46.67151" lon="5.55167">
        <ele>262</ele>
        <time>2025-10-10T14:38:07.793+00:00</time>
      </trkpt>
      <trkpt lat="46.67146" lon="5.55167">
        <ele>262</ele>
        <time>2025-10-10T14:38:12.095+00:00</time>
      </trkpt>
      <trkpt lat="46.6714" lon="5.55168">
        <ele>262</ele>
        <time>2025-10-10T14:38:16.394+00:00</time>
      </trkpt>
      <trkpt lat="46.67134" lon="5.55168">
        <ele>262</ele>
        <time>2025-10-10T14:38:20.994+00:00</time>
      </trkpt>
      <trkpt lat="46.6713" lon="5.55168">
        <ele>262</ele>
        <time>2025-10-10T14:38:25.073+00:00</time>
      </trkpt>
      <trkpt lat="46.67125" lon="5.55167">
        <ele>262</ele>
        <time>2025-10-10T14:38:29.222+00:00</time>
      </trkpt>
      <trkpt lat="46.6712" lon="5.55164">
        <ele>261</ele>
        <time>2025-10-10T14:38:33.452+00:00</time>
      </trkpt>
      <trkpt lat="46.67114" lon="5.55162">
        <ele>261</ele>
        <time>2025-10-10T14:38:37.813+00:00</time>
      </trkpt>
      <trkpt lat="46.67108" lon="5.5516">
        <ele>261</ele>
        <time>2025-10-10T14:38:42.321+00:00</time>
      </trkpt>
      <trkpt lat="46.67104" lon="5.55158">
        <ele>261</ele>
        <time>2025-10-10T14:38:46.356+00:00</time>
      </trkpt>
      <trkpt lat="46.67099" lon="5.55157">
        <ele>261</ele>
        <time>2025-10-10T14:38:50.936+00:00</time>
      </trkpt>
      <trkpt lat="46.67093" lon="5.55156">
        <ele>262</ele>
        <time>2025-10-10T14:38:55.176+00:00</time>
      </trkpt>
      <trkpt lat="46.6709" lon="5.55156">
        <ele>262</ele>
        <time>2025-10-10T14:38:59.196+00:00</time>
      </trkpt>
      <trkpt lat="46.67085" lon="5.55155">
        <ele>262</ele>
        <time>2025-10-10T14:39:03.489+00:00</time>
      </trkpt>
      <trkpt lat="46.67079" lon="5.55154">
        <ele>262</ele>
        <time>2025-10-10T14:39:08.131+00:00</time>
      </trkpt>
      <trkpt lat="46.67074" lon="5.55154">
        <ele>262</ele>
        <time>2025-10-10T14:39:12.487+00:00</time>
      </trkpt>
      <trkpt lat="46.67068" lon="5.55154">
        <ele>263</ele>
        <time>2025-10-10T14:39:16.936+00:00</time>
      </trkpt>
      <trkpt lat="46.67063" lon="5.55153">
        <ele>263</ele>
        <time>2025-10-10T14:39:21.135+00:00</time>
      </trkpt>
      <trkpt lat="46.67059" lon="5.55152">
        <ele>263</ele>
        <time>2025-10-10T14:39:25.484+00:00</time>
      </trkpt>
      <trkpt lat="46.67054" lon="5.55151">
        <ele>263</ele>
        <time>2025-10-10T14:39:30.337+00:00</time>
      </trkpt>
      <trkpt lat="46.67049" lon="5.5515">
        <ele>263</ele>
        <time>2025-10-10T14:39:34.486+00:00</time>
      </trkpt>
      <trkpt lat="46.67044" lon="5.5515">
        <ele>263</ele>
        <time>2025-10-10T14:39:38.911+00:00</time>
      </trkpt>
      <trkpt lat="46.67039" lon="5.5515">
        <ele>263</ele>
        <time>2025-10-10T14:39:43.408+00:00</time>
      </trkpt>
      <trkpt lat="46.67035" lon="5.5515">
        <ele>263</ele>
        <time>2025-10-10T14:39:47.435+00:00</time>
      </trkpt>
      <trkpt lat="46.67027" lon="5.5515">
        <ele>263</ele>
        <time>2025-10-10T14:39:51.876+00:00</time>
      </trkpt>
      <trkpt lat="46.6702" lon="5.55149">
        <ele>263</ele>
        <time>2025-10-10T14:39:56.482+00:00</time>
      </trkpt>
      <trkpt lat="46.67014" lon="5.55147">
        <ele>263</ele>
        <time>2025-10-10T14:40:01.135+00:00</time>
      </trkpt>
      <trkpt lat="46.67009" lon="5.55146">
        <ele>263</ele>
        <time>2025-10-10T14:40:05.791+00:00</time>
      </trkpt>
      <trkpt lat="46.67005" lon="5.55144">
        <ele>263</ele>
        <time>2025-10-10T14:40:09.875+00:00</time>
      </trkpt>
      <trkpt lat="46.67001" lon="5.55143">
        <ele>263</ele>
        <time>2025-10-10T14:40:14.486+00:00</time>
      </trkpt>
      <trkpt lat="46.66997" lon="5.55142">
        <ele>263</ele>
        <time>2025-10-10T14:40:19.166+00:00</time>
      </trkpt>
      <trkpt lat="46.66991" lon="5.55141">
        <ele>263</ele>
        <time>2025-10-10T14:40:23.485+00:00</time>
      </trkpt>
      <trkpt lat="46.66985" lon="5.5514">
        <ele>265</ele>
        <time>2025-10-10T14:40:27.953+00:00</time>
      </trkpt>
      <trkpt lat="46.66983" lon="5.55137">
        <ele>265</ele>
        <time>2025-10-10T14:40:32.242+00:00</time>
      </trkpt>
      <trkpt lat="46.66978" lon="5.55138">
        <ele>265</ele>
        <time>2025-10-10T14:40:36.756+00:00</time>
      </trkpt>
      <trkpt lat="46.66974" lon="5.55138">
        <ele>265</ele>
        <time>2025-10-10T14:40:41.329+00:00</time>
      </trkpt>
      <trkpt lat="46.66968" lon="5.55137">
        <ele>265</ele>
        <time>2025-10-10T14:40:46.079+00:00</time>
      </trkpt>
      <trkpt lat="46.66962" lon="5.55138">
        <ele>265</ele>
        <time>2025-10-10T14:40:50.486+00:00</time>
      </trkpt>
      <trkpt lat="46.66957" lon="5.55135">
        <ele>266</ele>
        <time>2025-10-10T14:40:55.039+00:00</time>
      </trkpt>
      <trkpt lat="46.66952" lon="5.55136">
        <ele>266</ele>
        <time>2025-10-10T14:40:59.484+00:00</time>
      </trkpt>
      <trkpt lat="46.66947" lon="5.55136">
        <ele>266</ele>
        <time>2025-10-10T14:41:04.178+00:00</time>
      </trkpt>
      <trkpt lat="46.66942" lon="5.55136">
        <ele>266</ele>
        <time>2025-10-10T14:41:08.483+00:00</time>
      </trkpt>
      <trkpt lat="46.66937" lon="5.55135">
        <ele>266</ele>
        <time>2025-10-10T14:41:12.899+00:00</time>
      </trkpt>
      <trkpt lat="46.66932" lon="5.55133">
        <ele>266</ele>
        <time>2025-10-10T14:41:17.379+00:00</time>
      </trkpt>
      <trkpt lat="46.66926" lon="5.55133">
        <ele>266</ele>
        <time>2025-10-10T14:41:22.397+00:00</time>
      </trkpt>
      <trkpt lat="46.66921" lon="5.55132">
        <ele>266</ele>
        <time>2025-10-10T14:41:26.484+00:00</time>
      </trkpt>
      <trkpt lat="46.66915" lon="5.55131">
        <ele>266</ele>
        <time>2025-10-10T14:41:30.849+00:00</time>
      </trkpt>
    </trkseg>
  </trk>
</gpx>